list_devices

Welcome
6149bbbba929e5d1f190e42603d5343f005d2021-03-03 13:33:14soilmoisture83percent
6150bbbba929e5d1f190e42603d5343f005d2021-03-03 13:33:14dht11temp22.9degree
6148bbbba929e5d1f190e42603d5343f005d2021-03-03 13:28:12dht11humidity56percent
6147bbbba929e5d1f190e42603d5343f005d2021-03-03 13:28:12dht11temp22.8degree
6145bbbba929e5d1f190e42603d5343f005d2021-03-03 13:23:10dht11humidity59percent
6146bbbba929e5d1f190e42603d5343f005d2021-03-03 13:28:12soilmoisture83percent
6144bbbba929e5d1f190e42603d5343f005d2021-03-03 13:23:10dht11temp22.7degree
6142bbbba929e5d1f190e42603d5343f005d2021-03-03 13:18:08dht11humidity60percent
6143bbbba929e5d1f190e42603d5343f005d2021-03-03 13:23:10soilmoisture83percent
6141bbbba929e5d1f190e42603d5343f005d2021-03-03 13:18:08dht11temp22.6degree
6140bbbba929e5d1f190e42603d5343f005d2021-03-03 13:18:08soilmoisture83percent
6139bbbba929e5d1f190e42603d5343f005d2021-03-03 13:13:06dht11humidity58percent
6105bbbba929e5d1f190e42603d5343f005d2021-03-03 12:17:45dht11temp22.1degree
6106bbbba929e5d1f190e42603d5343f005d2021-03-03 12:17:45dht11humidity65percent
6107bbbba929e5d1f190e42603d5343f005d2021-03-03 12:22:47soilmoisture83percent
6108bbbba929e5d1f190e42603d5343f005d2021-03-03 12:22:47dht11temp22.1degree
6109bbbba929e5d1f190e42603d5343f005d2021-03-03 12:22:47dht11humidity63percent
6110bbbba929e5d1f190e42603d5343f005d2021-03-03 12:27:49soilmoisture83percent
6111bbbba929e5d1f190e42603d5343f005d2021-03-03 12:27:49dht11temp22.1degree
6112bbbba929e5d1f190e42603d5343f005d2021-03-03 12:27:49dht11humidity64percent
6113bbbba929e5d1f190e42603d5343f005d2021-03-03 12:32:51soilmoisture83percent
6114bbbba929e5d1f190e42603d5343f005d2021-03-03 12:32:51dht11temp22.1degree
6115bbbba929e5d1f190e42603d5343f005d2021-03-03 12:32:51dht11humidity62percent
6116bbbba929e5d1f190e42603d5343f005d2021-03-03 12:37:53soilmoisture83percent
6117bbbba929e5d1f190e42603d5343f005d2021-03-03 12:37:53dht11temp22.1degree
6118bbbba929e5d1f190e42603d5343f005d2021-03-03 12:37:53dht11humidity61percent
6119bbbba929e5d1f190e42603d5343f005d2021-03-03 12:42:55soilmoisture83percent
6120bbbba929e5d1f190e42603d5343f005d2021-03-03 12:42:55dht11temp22.1degree
6121bbbba929e5d1f190e42603d5343f005d2021-03-03 12:42:55dht11humidity61percent
6122bbbba929e5d1f190e42603d5343f005d2021-03-03 12:47:56soilmoisture83percent
6123bbbba929e5d1f190e42603d5343f005d2021-03-03 12:47:57dht11temp22.1degree
6124bbbba929e5d1f190e42603d5343f005d2021-03-03 12:47:57dht11humidity61percent
6125bbbba929e5d1f190e42603d5343f005d2021-03-03 12:52:58soilmoisture83percent
6126bbbba929e5d1f190e42603d5343f005d2021-03-03 12:52:58dht11temp22.1degree
6127bbbba929e5d1f190e42603d5343f005d2021-03-03 12:52:59dht11humidity60percent
6128bbbba929e5d1f190e42603d5343f005d2021-03-03 12:58:00soilmoisture83percent
6129bbbba929e5d1f190e42603d5343f005d2021-03-03 12:58:00dht11temp22.2degree
6130bbbba929e5d1f190e42603d5343f005d2021-03-03 12:58:00dht11humidity57percent
6131bbbba929e5d1f190e42603d5343f005d2021-03-03 13:03:02soilmoisture83percent
6132bbbba929e5d1f190e42603d5343f005d2021-03-03 13:03:02dht11temp22.2degree
6133bbbba929e5d1f190e42603d5343f005d2021-03-03 13:03:03dht11humidity60percent
6134bbbba929e5d1f190e42603d5343f005d2021-03-03 13:08:04soilmoisture83percent
6135bbbba929e5d1f190e42603d5343f005d2021-03-03 13:08:04dht11temp22.3degree
6136bbbba929e5d1f190e42603d5343f005d2021-03-03 13:08:04dht11humidity59percent
6137bbbba929e5d1f190e42603d5343f005d2021-03-03 13:13:06soilmoisture83percent
6138bbbba929e5d1f190e42603d5343f005d2021-03-03 13:13:06dht11temp22.5degree
3383bbbba929e5d1f190e42603d5343f005d2021-02-27 19:33:39soilmoisture4percent
3384bbbba929e5d1f190e42603d5343f005d2021-02-27 19:33:40dht11temp24.9degree
3385bbbba929e5d1f190e42603d5343f005d2021-02-27 19:33:40dht11humidity41percent
3386bbbba929e5d1f190e42603d5343f005d2021-02-27 19:36:22soilmoisture35percent
3387bbbba929e5d1f190e42603d5343f005d2021-02-27 19:36:22dht11temp0degree
3388bbbba929e5d1f190e42603d5343f005d2021-02-27 19:36:23dht11humidity0percent
3389bbbba929e5d1f190e42603d5343f005d2021-02-27 19:41:24soilmoisture19percent
3390bbbba929e5d1f190e42603d5343f005d2021-02-27 19:41:25dht11temp25.3degree
3391bbbba929e5d1f190e42603d5343f005d2021-02-27 19:41:25dht11humidity61percent
3392bbbba929e5d1f190e42603d5343f005d2021-02-27 19:46:27soilmoisture20percent
3393bbbba929e5d1f190e42603d5343f005d2021-02-27 19:46:27dht11temp29.3degree
3394bbbba929e5d1f190e42603d5343f005d2021-02-27 19:46:27dht11humidity88percent
3395bbbba929e5d1f190e42603d5343f005d2021-02-27 19:51:29soilmoisture20percent
3396bbbba929e5d1f190e42603d5343f005d2021-02-27 19:51:29dht11temp28.7degree
3397bbbba929e5d1f190e42603d5343f005d2021-02-27 19:51:30dht11humidity73percent
3398bbbba929e5d1f190e42603d5343f005d2021-02-27 19:56:31soilmoisture20percent
3399bbbba929e5d1f190e42603d5343f005d2021-02-27 19:56:32dht11temp28.9degree
3400bbbba929e5d1f190e42603d5343f005d2021-02-27 19:56:32dht11humidity91percent
3401bbbba929e5d1f190e42603d5343f005d2021-02-27 20:01:34soilmoisture21percent
3402bbbba929e5d1f190e42603d5343f005d2021-02-27 20:01:34dht11temp28.9degree
3403bbbba929e5d1f190e42603d5343f005d2021-02-27 20:01:35dht11humidity89percent
3404bbbba929e5d1f190e42603d5343f005d2021-02-27 20:06:36soilmoisture21percent
3405bbbba929e5d1f190e42603d5343f005d2021-02-27 20:06:37dht11temp28.8degree
3406bbbba929e5d1f190e42603d5343f005d2021-02-27 20:06:37dht11humidity89percent
3407bbbba929e5d1f190e42603d5343f005d2021-02-27 20:11:39soilmoisture21percent
3408bbbba929e5d1f190e42603d5343f005d2021-02-27 20:11:39dht11temp28.6degree
3409bbbba929e5d1f190e42603d5343f005d2021-02-27 20:11:39dht11humidity87percent
3410bbbba929e5d1f190e42603d5343f005d2021-02-27 20:16:41soilmoisture21percent
3411bbbba929e5d1f190e42603d5343f005d2021-02-27 20:16:41dht11temp28.4degree
3412bbbba929e5d1f190e42603d5343f005d2021-02-27 20:16:42dht11humidity89percent
3413bbbba929e5d1f190e42603d5343f005d2021-02-27 20:21:44soilmoisture21percent
3414bbbba929e5d1f190e42603d5343f005d2021-02-27 20:21:44dht11temp28.1degree
3415bbbba929e5d1f190e42603d5343f005d2021-02-27 20:21:44dht11humidity88percent
3416bbbba929e5d1f190e42603d5343f005d2021-02-27 20:26:46soilmoisture22percent
3417bbbba929e5d1f190e42603d5343f005d2021-02-27 20:26:46dht11temp28degree
3418bbbba929e5d1f190e42603d5343f005d2021-02-27 20:26:47dht11humidity88percent
3419bbbba929e5d1f190e42603d5343f005d2021-02-27 20:31:49soilmoisture22percent
3420bbbba929e5d1f190e42603d5343f005d2021-02-27 20:31:49dht11temp27.8degree
3421bbbba929e5d1f190e42603d5343f005d2021-02-27 20:31:49dht11humidity88percent
3422bbbba929e5d1f190e42603d5343f005d2021-02-27 20:36:51soilmoisture22percent
3423bbbba929e5d1f190e42603d5343f005d2021-02-27 20:36:51dht11temp27.6degree
3424bbbba929e5d1f190e42603d5343f005d2021-02-27 20:36:52dht11humidity89percent
3425bbbba929e5d1f190e42603d5343f005d2021-02-27 20:41:53soilmoisture22percent
3426bbbba929e5d1f190e42603d5343f005d2021-02-27 20:41:54dht11temp27.4degree
3427bbbba929e5d1f190e42603d5343f005d2021-02-27 20:41:54dht11humidity90percent
3428bbbba929e5d1f190e42603d5343f005d2021-02-27 20:46:56soilmoisture22percent
3429bbbba929e5d1f190e42603d5343f005d2021-02-27 20:46:56dht11temp27.3degree
3430bbbba929e5d1f190e42603d5343f005d2021-02-27 20:46:57dht11humidity91percent
3431bbbba929e5d1f190e42603d5343f005d2021-02-27 20:51:58soilmoisture22percent
3432bbbba929e5d1f190e42603d5343f005d2021-02-27 20:51:59dht11temp27.1degree
3433bbbba929e5d1f190e42603d5343f005d2021-02-27 20:51:59dht11humidity92percent
3434bbbba929e5d1f190e42603d5343f005d2021-02-27 20:57:01soilmoisture22percent
3435bbbba929e5d1f190e42603d5343f005d2021-02-27 20:57:01dht11temp26.9degree
3436bbbba929e5d1f190e42603d5343f005d2021-02-27 20:57:01dht11humidity91percent
3437bbbba929e5d1f190e42603d5343f005d2021-02-27 21:02:03soilmoisture22percent
3438bbbba929e5d1f190e42603d5343f005d2021-02-27 21:02:04dht11temp26.9degree
3439bbbba929e5d1f190e42603d5343f005d2021-02-27 21:02:04dht11humidity91percent
3440bbbba929e5d1f190e42603d5343f005d2021-02-27 21:07:06soilmoisture22percent
3441bbbba929e5d1f190e42603d5343f005d2021-02-27 21:07:06dht11temp26.7degree
3442bbbba929e5d1f190e42603d5343f005d2021-02-27 21:07:06dht11humidity91percent
3443bbbba929e5d1f190e42603d5343f005d2021-02-27 21:12:08soilmoisture22percent
3444bbbba929e5d1f190e42603d5343f005d2021-02-27 21:12:09dht11temp26.5degree
3445bbbba929e5d1f190e42603d5343f005d2021-02-27 21:12:09dht11humidity92percent
3446bbbba929e5d1f190e42603d5343f005d2021-02-27 21:17:11soilmoisture22percent
3447bbbba929e5d1f190e42603d5343f005d2021-02-27 21:17:11dht11temp26.3degree
3448bbbba929e5d1f190e42603d5343f005d2021-02-27 21:17:11dht11humidity92percent
3449bbbba929e5d1f190e42603d5343f005d2021-02-27 21:22:13soilmoisture22percent
3450bbbba929e5d1f190e42603d5343f005d2021-02-27 21:22:13dht11temp26.1degree
3451bbbba929e5d1f190e42603d5343f005d2021-02-27 21:22:14dht11humidity91percent
3452bbbba929e5d1f190e42603d5343f005d2021-02-27 21:27:15soilmoisture22percent
3453bbbba929e5d1f190e42603d5343f005d2021-02-27 21:27:16dht11temp26degree
3454bbbba929e5d1f190e42603d5343f005d2021-02-27 21:27:16dht11humidity91percent
3455bbbba929e5d1f190e42603d5343f005d2021-02-27 21:32:18soilmoisture22percent
3456bbbba929e5d1f190e42603d5343f005d2021-02-27 21:32:18dht11temp25.9degree
3457bbbba929e5d1f190e42603d5343f005d2021-02-27 21:32:18dht11humidity89percent
3458bbbba929e5d1f190e42603d5343f005d2021-02-27 21:37:20soilmoisture22percent
3459bbbba929e5d1f190e42603d5343f005d2021-02-27 21:37:20dht11temp25.8degree
3460bbbba929e5d1f190e42603d5343f005d2021-02-27 21:37:21dht11humidity89percent
3461bbbba929e5d1f190e42603d5343f005d2021-02-27 21:42:22soilmoisture22percent
3462bbbba929e5d1f190e42603d5343f005d2021-02-27 21:42:23dht11temp25.7degree
3463bbbba929e5d1f190e42603d5343f005d2021-02-27 21:42:23dht11humidity90percent
3464bbbba929e5d1f190e42603d5343f005d2021-02-27 21:47:25soilmoisture22percent
3465bbbba929e5d1f190e42603d5343f005d2021-02-27 21:47:25dht11temp25.6degree
3466bbbba929e5d1f190e42603d5343f005d2021-02-27 21:47:31dht11humidity90percent
3467bbbba929e5d1f190e42603d5343f005d2021-02-27 21:52:32soilmoisture22percent
3468bbbba929e5d1f190e42603d5343f005d2021-02-27 21:52:32dht11temp25.4degree
3469bbbba929e5d1f190e42603d5343f005d2021-02-27 21:52:33dht11humidity90percent
3470bbbba929e5d1f190e42603d5343f005d2021-02-27 21:57:35soilmoisture22percent
3471bbbba929e5d1f190e42603d5343f005d2021-02-27 21:57:35dht11temp25.2degree
3472bbbba929e5d1f190e42603d5343f005d2021-02-27 21:57:35dht11humidity89percent
3473bbbba929e5d1f190e42603d5343f005d2021-02-27 22:02:37soilmoisture22percent
3474bbbba929e5d1f190e42603d5343f005d2021-02-27 22:02:37dht11temp25degree
3475bbbba929e5d1f190e42603d5343f005d2021-02-27 22:02:37dht11humidity89percent
3476bbbba929e5d1f190e42603d5343f005d2021-02-27 22:07:39soilmoisture22percent
3477bbbba929e5d1f190e42603d5343f005d2021-02-27 22:07:39dht11temp24.8degree
3478bbbba929e5d1f190e42603d5343f005d2021-02-27 22:07:40dht11humidity88percent
3479bbbba929e5d1f190e42603d5343f005d2021-02-27 22:12:42soilmoisture23percent
3480bbbba929e5d1f190e42603d5343f005d2021-02-27 22:12:42dht11temp24.7degree
3481bbbba929e5d1f190e42603d5343f005d2021-02-27 22:12:42dht11humidity88percent
3482bbbba929e5d1f190e42603d5343f005d2021-02-27 22:17:44soilmoisture23percent
3483bbbba929e5d1f190e42603d5343f005d2021-02-27 22:17:44dht11temp24.6degree
3484bbbba929e5d1f190e42603d5343f005d2021-02-27 22:17:44dht11humidity88percent
3485bbbba929e5d1f190e42603d5343f005d2021-02-27 22:22:46soilmoisture23percent
3486bbbba929e5d1f190e42603d5343f005d2021-02-27 22:22:46dht11temp24.5degree
3487bbbba929e5d1f190e42603d5343f005d2021-02-27 22:22:47dht11humidity87percent
3488bbbba929e5d1f190e42603d5343f005d2021-02-27 22:27:49soilmoisture23percent
3489bbbba929e5d1f190e42603d5343f005d2021-02-27 22:27:49dht11temp24.3degree
3490bbbba929e5d1f190e42603d5343f005d2021-02-27 22:27:49dht11humidity87percent
3491bbbba929e5d1f190e42603d5343f005d2021-02-27 22:32:51soilmoisture23percent
3492bbbba929e5d1f190e42603d5343f005d2021-02-27 22:32:51dht11temp24.2degree
3493bbbba929e5d1f190e42603d5343f005d2021-02-27 22:32:51dht11humidity87percent
3494bbbba929e5d1f190e42603d5343f005d2021-02-27 22:37:53soilmoisture23percent
3495bbbba929e5d1f190e42603d5343f005d2021-02-27 22:37:53dht11temp24.2degree
3496bbbba929e5d1f190e42603d5343f005d2021-02-27 22:37:54dht11humidity87percent
3497bbbba929e5d1f190e42603d5343f005d2021-02-27 22:42:56soilmoisture23percent
3498bbbba929e5d1f190e42603d5343f005d2021-02-27 22:42:56dht11temp24degree
3499bbbba929e5d1f190e42603d5343f005d2021-02-27 22:42:56dht11humidity87percent
3500bbbba929e5d1f190e42603d5343f005d2021-02-27 22:47:58soilmoisture23percent
3501bbbba929e5d1f190e42603d5343f005d2021-02-27 22:47:58dht11temp24degree
3502bbbba929e5d1f190e42603d5343f005d2021-02-27 22:47:59dht11humidity88percent
3503bbbba929e5d1f190e42603d5343f005d2021-02-27 22:53:00soilmoisture23percent
3504bbbba929e5d1f190e42603d5343f005d2021-02-27 22:53:01dht11temp23.8degree
3505bbbba929e5d1f190e42603d5343f005d2021-02-27 22:53:01dht11humidity87percent
3506bbbba929e5d1f190e42603d5343f005d2021-02-27 22:58:03soilmoisture23percent
3507bbbba929e5d1f190e42603d5343f005d2021-02-27 22:58:03dht11temp23.7degree
3508bbbba929e5d1f190e42603d5343f005d2021-02-27 22:58:03dht11humidity87percent
3509bbbba929e5d1f190e42603d5343f005d2021-02-27 23:03:05soilmoisture23percent
3510bbbba929e5d1f190e42603d5343f005d2021-02-27 23:03:06dht11temp23.7degree
3511bbbba929e5d1f190e42603d5343f005d2021-02-27 23:03:06dht11humidity88percent
3512bbbba929e5d1f190e42603d5343f005d2021-02-27 23:08:08soilmoisture23percent
3513bbbba929e5d1f190e42603d5343f005d2021-02-27 23:08:08dht11temp23.6degree
3514bbbba929e5d1f190e42603d5343f005d2021-02-27 23:08:08dht11humidity87percent
3515bbbba929e5d1f190e42603d5343f005d2021-02-27 23:13:10soilmoisture23percent
3516bbbba929e5d1f190e42603d5343f005d2021-02-27 23:13:10dht11temp23.5degree
3517bbbba929e5d1f190e42603d5343f005d2021-02-27 23:13:11dht11humidity88percent
3518bbbba929e5d1f190e42603d5343f005d2021-02-27 23:18:12soilmoisture23percent
3519bbbba929e5d1f190e42603d5343f005d2021-02-27 23:18:13dht11temp23.4degree
3520bbbba929e5d1f190e42603d5343f005d2021-02-27 23:18:13dht11humidity88percent
3521bbbba929e5d1f190e42603d5343f005d2021-02-27 23:23:15soilmoisture23percent
3522bbbba929e5d1f190e42603d5343f005d2021-02-27 23:23:15dht11temp23.3degree
3523bbbba929e5d1f190e42603d5343f005d2021-02-27 23:23:15dht11humidity88percent
3524bbbba929e5d1f190e42603d5343f005d2021-02-27 23:28:17soilmoisture23percent
3525bbbba929e5d1f190e42603d5343f005d2021-02-27 23:28:17dht11temp23.3degree
3526bbbba929e5d1f190e42603d5343f005d2021-02-27 23:28:18dht11humidity88percent
3527bbbba929e5d1f190e42603d5343f005d2021-02-27 23:33:20soilmoisture23percent
3528bbbba929e5d1f190e42603d5343f005d2021-02-27 23:33:20dht11temp23.3degree
3529bbbba929e5d1f190e42603d5343f005d2021-02-27 23:33:20dht11humidity88percent
3530bbbba929e5d1f190e42603d5343f005d2021-02-27 23:38:22soilmoisture23percent
3531bbbba929e5d1f190e42603d5343f005d2021-02-27 23:38:22dht11temp23.4degree
3532bbbba929e5d1f190e42603d5343f005d2021-02-27 23:38:23dht11humidity88percent
3533bbbba929e5d1f190e42603d5343f005d2021-02-27 23:43:24soilmoisture23percent
3534bbbba929e5d1f190e42603d5343f005d2021-02-27 23:43:25dht11temp23.4degree
3535bbbba929e5d1f190e42603d5343f005d2021-02-27 23:43:25dht11humidity88percent
3536bbbba929e5d1f190e42603d5343f005d2021-02-27 23:48:27soilmoisture23percent
3537bbbba929e5d1f190e42603d5343f005d2021-02-27 23:48:27dht11temp23.4degree
3538bbbba929e5d1f190e42603d5343f005d2021-02-27 23:48:27dht11humidity90percent
3539bbbba929e5d1f190e42603d5343f005d2021-02-27 23:53:29soilmoisture23percent
3540bbbba929e5d1f190e42603d5343f005d2021-02-27 23:53:29dht11temp23.5degree
3541bbbba929e5d1f190e42603d5343f005d2021-02-27 23:53:30dht11humidity90percent
3542bbbba929e5d1f190e42603d5343f005d2021-02-27 23:58:32soilmoisture23percent
3543bbbba929e5d1f190e42603d5343f005d2021-02-27 23:58:32dht11temp23.5degree
3544bbbba929e5d1f190e42603d5343f005d2021-02-27 23:58:32dht11humidity91percent
3545bbbba929e5d1f190e42603d5343f005d2021-02-28 00:03:33soilmoisture23percent
3546bbbba929e5d1f190e42603d5343f005d2021-02-28 00:03:33dht11temp23.5degree
3547bbbba929e5d1f190e42603d5343f005d2021-02-28 00:03:34dht11humidity90percent
3548bbbba929e5d1f190e42603d5343f005d2021-02-28 00:08:36soilmoisture23percent
3549bbbba929e5d1f190e42603d5343f005d2021-02-28 00:08:36dht11temp23.5degree
3550bbbba929e5d1f190e42603d5343f005d2021-02-28 00:08:36dht11humidity91percent
3551bbbba929e5d1f190e42603d5343f005d2021-02-28 00:13:38soilmoisture24percent
3552bbbba929e5d1f190e42603d5343f005d2021-02-28 00:13:38dht11temp23.5degree
3553bbbba929e5d1f190e42603d5343f005d2021-02-28 00:13:38dht11humidity92percent
3554bbbba929e5d1f190e42603d5343f005d2021-02-28 00:18:40soilmoisture23percent
3555bbbba929e5d1f190e42603d5343f005d2021-02-28 00:18:41dht11temp23.5degree
3556bbbba929e5d1f190e42603d5343f005d2021-02-28 00:18:41dht11humidity92percent
3557bbbba929e5d1f190e42603d5343f005d2021-02-28 00:23:43soilmoisture23percent
3558bbbba929e5d1f190e42603d5343f005d2021-02-28 00:23:43dht11temp23.5degree
3559bbbba929e5d1f190e42603d5343f005d2021-02-28 00:23:43dht11humidity93percent
3560bbbba929e5d1f190e42603d5343f005d2021-02-28 00:28:45soilmoisture24percent
3561bbbba929e5d1f190e42603d5343f005d2021-02-28 00:28:45dht11temp23.4degree
3562bbbba929e5d1f190e42603d5343f005d2021-02-28 00:28:46dht11humidity92percent
3563bbbba929e5d1f190e42603d5343f005d2021-02-28 00:33:48soilmoisture24percent
3564bbbba929e5d1f190e42603d5343f005d2021-02-28 00:33:48dht11temp23.4degree
3565bbbba929e5d1f190e42603d5343f005d2021-02-28 00:33:48dht11humidity91percent
3566bbbba929e5d1f190e42603d5343f005d2021-02-28 00:38:50soilmoisture24percent
3567bbbba929e5d1f190e42603d5343f005d2021-02-28 00:38:50dht11temp23.3degree
3568bbbba929e5d1f190e42603d5343f005d2021-02-28 00:38:50dht11humidity91percent
3569bbbba929e5d1f190e42603d5343f005d2021-02-28 00:43:52soilmoisture24percent
3570bbbba929e5d1f190e42603d5343f005d2021-02-28 00:43:53dht11temp23.2degree
3571bbbba929e5d1f190e42603d5343f005d2021-02-28 00:43:53dht11humidity91percent
3572bbbba929e5d1f190e42603d5343f005d2021-02-28 00:48:55soilmoisture24percent
3573bbbba929e5d1f190e42603d5343f005d2021-02-28 00:48:55dht11temp23.2degree
3574bbbba929e5d1f190e42603d5343f005d2021-02-28 00:48:55dht11humidity91percent
3575bbbba929e5d1f190e42603d5343f005d2021-02-28 00:53:57soilmoisture24percent
3576bbbba929e5d1f190e42603d5343f005d2021-02-28 00:53:57dht11temp23.2degree
3577bbbba929e5d1f190e42603d5343f005d2021-02-28 00:53:58dht11humidity91percent
3578bbbba929e5d1f190e42603d5343f005d2021-02-28 00:59:00soilmoisture24percent
3579bbbba929e5d1f190e42603d5343f005d2021-02-28 00:59:00dht11temp23.1degree
3580bbbba929e5d1f190e42603d5343f005d2021-02-28 00:59:00dht11humidity90percent
3581bbbba929e5d1f190e42603d5343f005d2021-02-28 01:04:02soilmoisture24percent
3582bbbba929e5d1f190e42603d5343f005d2021-02-28 01:04:02dht11temp22.9degree
3583bbbba929e5d1f190e42603d5343f005d2021-02-28 01:04:03dht11humidity89percent
3584bbbba929e5d1f190e42603d5343f005d2021-02-28 01:09:05soilmoisture24percent
3585bbbba929e5d1f190e42603d5343f005d2021-02-28 01:09:05dht11temp22.9degree
3586bbbba929e5d1f190e42603d5343f005d2021-02-28 01:09:05dht11humidity89percent
3587bbbba929e5d1f190e42603d5343f005d2021-02-28 01:14:07soilmoisture24percent
3588bbbba929e5d1f190e42603d5343f005d2021-02-28 01:14:07dht11temp22.8degree
3589bbbba929e5d1f190e42603d5343f005d2021-02-28 01:14:08dht11humidity88percent
3590bbbba929e5d1f190e42603d5343f005d2021-02-28 01:19:09soilmoisture24percent
3591bbbba929e5d1f190e42603d5343f005d2021-02-28 01:19:10dht11temp22.8degree
3592bbbba929e5d1f190e42603d5343f005d2021-02-28 01:19:10dht11humidity88percent
3593bbbba929e5d1f190e42603d5343f005d2021-02-28 01:24:12soilmoisture24percent
3594bbbba929e5d1f190e42603d5343f005d2021-02-28 01:24:12dht11temp22.7degree
3595bbbba929e5d1f190e42603d5343f005d2021-02-28 01:24:12dht11humidity87percent
3596bbbba929e5d1f190e42603d5343f005d2021-02-28 01:29:14soilmoisture24percent
3597bbbba929e5d1f190e42603d5343f005d2021-02-28 01:29:14dht11temp22.6degree
3598bbbba929e5d1f190e42603d5343f005d2021-02-28 01:29:15dht11humidity87percent
3599bbbba929e5d1f190e42603d5343f005d2021-02-28 01:34:17soilmoisture24percent
3600bbbba929e5d1f190e42603d5343f005d2021-02-28 01:34:17dht11temp22.6degree
3601bbbba929e5d1f190e42603d5343f005d2021-02-28 01:34:17dht11humidity88percent
3602bbbba929e5d1f190e42603d5343f005d2021-02-28 01:39:19soilmoisture24percent
3603bbbba929e5d1f190e42603d5343f005d2021-02-28 01:39:19dht11temp22.5degree
3604bbbba929e5d1f190e42603d5343f005d2021-02-28 01:39:19dht11humidity88percent
3605bbbba929e5d1f190e42603d5343f005d2021-02-28 01:44:21soilmoisture24percent
3606bbbba929e5d1f190e42603d5343f005d2021-02-28 01:44:22dht11temp22.5degree
3607bbbba929e5d1f190e42603d5343f005d2021-02-28 01:44:22dht11humidity88percent
3608bbbba929e5d1f190e42603d5343f005d2021-02-28 01:49:24soilmoisture24percent
3609bbbba929e5d1f190e42603d5343f005d2021-02-28 01:49:24dht11temp22.4degree
3610bbbba929e5d1f190e42603d5343f005d2021-02-28 01:49:24dht11humidity89percent
3611bbbba929e5d1f190e42603d5343f005d2021-02-28 01:54:26soilmoisture24percent
3612bbbba929e5d1f190e42603d5343f005d2021-02-28 01:54:26dht11temp22.3degree
3613bbbba929e5d1f190e42603d5343f005d2021-02-28 01:54:27dht11humidity88percent
3614bbbba929e5d1f190e42603d5343f005d2021-02-28 01:59:29soilmoisture24percent
3615bbbba929e5d1f190e42603d5343f005d2021-02-28 01:59:29dht11temp22.3degree
3616bbbba929e5d1f190e42603d5343f005d2021-02-28 01:59:29dht11humidity88percent
3617bbbba929e5d1f190e42603d5343f005d2021-02-28 02:04:31soilmoisture24percent
3618bbbba929e5d1f190e42603d5343f005d2021-02-28 02:04:31dht11temp22.2degree
3619bbbba929e5d1f190e42603d5343f005d2021-02-28 02:04:32dht11humidity88percent
3620bbbba929e5d1f190e42603d5343f005d2021-02-28 02:09:34soilmoisture24percent
3621bbbba929e5d1f190e42603d5343f005d2021-02-28 02:09:34dht11temp22.1degree
3622bbbba929e5d1f190e42603d5343f005d2021-02-28 02:09:34dht11humidity89percent
3623bbbba929e5d1f190e42603d5343f005d2021-02-28 02:14:36soilmoisture24percent
3624bbbba929e5d1f190e42603d5343f005d2021-02-28 02:14:36dht11temp22.1degree
3625bbbba929e5d1f190e42603d5343f005d2021-02-28 02:14:37dht11humidity89percent
3626bbbba929e5d1f190e42603d5343f005d2021-02-28 02:19:38soilmoisture24percent
3627bbbba929e5d1f190e42603d5343f005d2021-02-28 02:19:39dht11temp22degree
3628bbbba929e5d1f190e42603d5343f005d2021-02-28 02:19:39dht11humidity89percent
3629bbbba929e5d1f190e42603d5343f005d2021-02-28 02:24:41soilmoisture24percent
3630bbbba929e5d1f190e42603d5343f005d2021-02-28 02:24:41dht11temp21.9degree
3631bbbba929e5d1f190e42603d5343f005d2021-02-28 02:24:41dht11humidity88percent
3632bbbba929e5d1f190e42603d5343f005d2021-02-28 02:29:43soilmoisture24percent
3633bbbba929e5d1f190e42603d5343f005d2021-02-28 02:29:44dht11temp21.9degree
3634bbbba929e5d1f190e42603d5343f005d2021-02-28 02:29:44dht11humidity89percent
3635bbbba929e5d1f190e42603d5343f005d2021-02-28 02:34:46soilmoisture24percent
3636bbbba929e5d1f190e42603d5343f005d2021-02-28 02:34:46dht11temp21.8degree
3637bbbba929e5d1f190e42603d5343f005d2021-02-28 02:34:46dht11humidity88percent
3638bbbba929e5d1f190e42603d5343f005d2021-02-28 02:39:48soilmoisture24percent
3639bbbba929e5d1f190e42603d5343f005d2021-02-28 02:39:49dht11temp21.8degree
3640bbbba929e5d1f190e42603d5343f005d2021-02-28 02:39:49dht11humidity89percent
3641bbbba929e5d1f190e42603d5343f005d2021-02-28 02:44:51soilmoisture24percent
3642bbbba929e5d1f190e42603d5343f005d2021-02-28 02:44:51dht11temp21.7degree
3643bbbba929e5d1f190e42603d5343f005d2021-02-28 02:44:51dht11humidity89percent
3644bbbba929e5d1f190e42603d5343f005d2021-02-28 02:49:53soilmoisture24percent
3645bbbba929e5d1f190e42603d5343f005d2021-02-28 02:49:53dht11temp21.7degree
3646bbbba929e5d1f190e42603d5343f005d2021-02-28 02:49:54dht11humidity89percent
3647bbbba929e5d1f190e42603d5343f005d2021-02-28 02:54:55soilmoisture24percent
3648bbbba929e5d1f190e42603d5343f005d2021-02-28 02:54:56dht11temp21.6degree
3649bbbba929e5d1f190e42603d5343f005d2021-02-28 02:54:56dht11humidity89percent
3650bbbba929e5d1f190e42603d5343f005d2021-02-28 02:59:58soilmoisture24percent
3651bbbba929e5d1f190e42603d5343f005d2021-02-28 02:59:58dht11temp21.6degree
3652bbbba929e5d1f190e42603d5343f005d2021-02-28 02:59:59dht11humidity89percent
3653bbbba929e5d1f190e42603d5343f005d2021-02-28 03:05:01soilmoisture25percent
3654bbbba929e5d1f190e42603d5343f005d2021-02-28 03:05:01dht11temp21.6degree
3655bbbba929e5d1f190e42603d5343f005d2021-02-28 03:05:01dht11humidity89percent
3656bbbba929e5d1f190e42603d5343f005d2021-02-28 03:10:03soilmoisture25percent
3657bbbba929e5d1f190e42603d5343f005d2021-02-28 03:10:03dht11temp21.5degree
3658bbbba929e5d1f190e42603d5343f005d2021-02-28 03:10:03dht11humidity89percent
3659bbbba929e5d1f190e42603d5343f005d2021-02-28 03:15:05soilmoisture25percent
3660bbbba929e5d1f190e42603d5343f005d2021-02-28 03:15:06dht11temp21.4degree
3661bbbba929e5d1f190e42603d5343f005d2021-02-28 03:15:06dht11humidity89percent
3662bbbba929e5d1f190e42603d5343f005d2021-02-28 03:20:08soilmoisture25percent
3663bbbba929e5d1f190e42603d5343f005d2021-02-28 03:20:08dht11temp21.4degree
3664bbbba929e5d1f190e42603d5343f005d2021-02-28 03:20:08dht11humidity89percent
3665bbbba929e5d1f190e42603d5343f005d2021-02-28 03:25:10soilmoisture25percent
3666bbbba929e5d1f190e42603d5343f005d2021-02-28 03:25:10dht11temp21.3degree
3667bbbba929e5d1f190e42603d5343f005d2021-02-28 03:25:10dht11humidity89percent
3668bbbba929e5d1f190e42603d5343f005d2021-02-28 03:30:12soilmoisture25percent
3669bbbba929e5d1f190e42603d5343f005d2021-02-28 03:30:12dht11temp21.3degree
3670bbbba929e5d1f190e42603d5343f005d2021-02-28 03:30:13dht11humidity90percent
3671bbbba929e5d1f190e42603d5343f005d2021-02-28 03:35:15soilmoisture25percent
3672bbbba929e5d1f190e42603d5343f005d2021-02-28 03:35:15dht11temp21.2degree
3673bbbba929e5d1f190e42603d5343f005d2021-02-28 03:35:15dht11humidity90percent
3674bbbba929e5d1f190e42603d5343f005d2021-02-28 03:40:17soilmoisture25percent
3675bbbba929e5d1f190e42603d5343f005d2021-02-28 03:40:18dht11temp21.2degree
3676bbbba929e5d1f190e42603d5343f005d2021-02-28 03:40:18dht11humidity90percent
3677bbbba929e5d1f190e42603d5343f005d2021-02-28 03:45:20soilmoisture25percent
3678bbbba929e5d1f190e42603d5343f005d2021-02-28 03:45:26dht11temp21.2degree
3679bbbba929e5d1f190e42603d5343f005d2021-02-28 03:45:29dht11humidity90percent
3680bbbba929e5d1f190e42603d5343f005d2021-02-28 03:50:31soilmoisture25percent
3681bbbba929e5d1f190e42603d5343f005d2021-02-28 03:50:31dht11temp21.1degree
3682bbbba929e5d1f190e42603d5343f005d2021-02-28 03:50:32dht11humidity90percent
3683bbbba929e5d1f190e42603d5343f005d2021-02-28 03:55:33soilmoisture25percent
3684bbbba929e5d1f190e42603d5343f005d2021-02-28 03:55:34dht11temp21.1degree
3685bbbba929e5d1f190e42603d5343f005d2021-02-28 03:55:34dht11humidity90percent
3686bbbba929e5d1f190e42603d5343f005d2021-02-28 04:00:36soilmoisture25percent
3687bbbba929e5d1f190e42603d5343f005d2021-02-28 04:00:36dht11temp21.1degree
3688bbbba929e5d1f190e42603d5343f005d2021-02-28 04:00:37dht11humidity90percent
3689bbbba929e5d1f190e42603d5343f005d2021-02-28 04:05:39soilmoisture25percent
3690bbbba929e5d1f190e42603d5343f005d2021-02-28 04:05:39dht11temp21.1degree
3691bbbba929e5d1f190e42603d5343f005d2021-02-28 04:05:39dht11humidity90percent
3692bbbba929e5d1f190e42603d5343f005d2021-02-28 04:10:42soilmoisture25percent
3693bbbba929e5d1f190e42603d5343f005d2021-02-28 04:10:43dht11temp21degree
3694bbbba929e5d1f190e42603d5343f005d2021-02-28 04:10:43dht11humidity90percent
3695bbbba929e5d1f190e42603d5343f005d2021-02-28 04:15:45soilmoisture25percent
3696bbbba929e5d1f190e42603d5343f005d2021-02-28 04:15:45dht11temp21degree
3697bbbba929e5d1f190e42603d5343f005d2021-02-28 04:15:45dht11humidity90percent
3698bbbba929e5d1f190e42603d5343f005d2021-02-28 04:20:48soilmoisture25percent
3699bbbba929e5d1f190e42603d5343f005d2021-02-28 04:20:48dht11temp20.9degree
3700bbbba929e5d1f190e42603d5343f005d2021-02-28 04:20:48dht11humidity89percent
3701bbbba929e5d1f190e42603d5343f005d2021-02-28 04:25:50soilmoisture25percent
3702bbbba929e5d1f190e42603d5343f005d2021-02-28 04:25:50dht11temp20.9degree
3703bbbba929e5d1f190e42603d5343f005d2021-02-28 04:25:51dht11humidity90percent
3704bbbba929e5d1f190e42603d5343f005d2021-02-28 04:30:52soilmoisture25percent
3705bbbba929e5d1f190e42603d5343f005d2021-02-28 04:30:53dht11temp20.8degree
3706bbbba929e5d1f190e42603d5343f005d2021-02-28 04:30:53dht11humidity90percent
3707bbbba929e5d1f190e42603d5343f005d2021-02-28 04:35:55soilmoisture25percent
3708bbbba929e5d1f190e42603d5343f005d2021-02-28 04:35:56dht11temp20.8degree
3709bbbba929e5d1f190e42603d5343f005d2021-02-28 04:35:56dht11humidity90percent
3710bbbba929e5d1f190e42603d5343f005d2021-02-28 04:40:58soilmoisture25percent
3711bbbba929e5d1f190e42603d5343f005d2021-02-28 04:40:58dht11temp20.7degree
3712bbbba929e5d1f190e42603d5343f005d2021-02-28 04:40:58dht11humidity90percent
3713bbbba929e5d1f190e42603d5343f005d2021-02-28 04:46:00soilmoisture25percent
3714bbbba929e5d1f190e42603d5343f005d2021-02-28 04:46:00dht11temp20.7degree
3715bbbba929e5d1f190e42603d5343f005d2021-02-28 04:46:01dht11humidity90percent
3716bbbba929e5d1f190e42603d5343f005d2021-02-28 04:51:03soilmoisture25percent
3717bbbba929e5d1f190e42603d5343f005d2021-02-28 04:51:03dht11temp20.6degree
3718bbbba929e5d1f190e42603d5343f005d2021-02-28 04:51:03dht11humidity90percent
3719bbbba929e5d1f190e42603d5343f005d2021-02-28 04:56:05soilmoisture25percent
3720bbbba929e5d1f190e42603d5343f005d2021-02-28 04:56:06dht11temp20.6degree
3721bbbba929e5d1f190e42603d5343f005d2021-02-28 04:56:06dht11humidity91percent
3722bbbba929e5d1f190e42603d5343f005d2021-02-28 05:01:08soilmoisture25percent
3723bbbba929e5d1f190e42603d5343f005d2021-02-28 05:01:08dht11temp20.6degree
3724bbbba929e5d1f190e42603d5343f005d2021-02-28 05:01:09dht11humidity91percent
3725bbbba929e5d1f190e42603d5343f005d2021-02-28 05:06:13soilmoisture25percent
3726bbbba929e5d1f190e42603d5343f005d2021-02-28 05:06:13dht11temp20.7degree
3727bbbba929e5d1f190e42603d5343f005d2021-02-28 05:06:13dht11humidity92percent
3728bbbba929e5d1f190e42603d5343f005d2021-02-28 05:11:15soilmoisture25percent
3729bbbba929e5d1f190e42603d5343f005d2021-02-28 05:11:15dht11temp20.8degree
3730bbbba929e5d1f190e42603d5343f005d2021-02-28 05:11:16dht11humidity92percent
3731bbbba929e5d1f190e42603d5343f005d2021-02-28 05:16:18soilmoisture25percent
3732bbbba929e5d1f190e42603d5343f005d2021-02-28 05:16:18dht11temp20.9degree
3733bbbba929e5d1f190e42603d5343f005d2021-02-28 05:16:18dht11humidity92percent
3734bbbba929e5d1f190e42603d5343f005d2021-02-28 05:21:20soilmoisture25percent
3735bbbba929e5d1f190e42603d5343f005d2021-02-28 05:21:20dht11temp20.9degree
3736bbbba929e5d1f190e42603d5343f005d2021-02-28 05:21:20dht11humidity92percent
3737bbbba929e5d1f190e42603d5343f005d2021-02-28 05:26:22soilmoisture25percent
3738bbbba929e5d1f190e42603d5343f005d2021-02-28 05:26:23dht11temp20.9degree
3739bbbba929e5d1f190e42603d5343f005d2021-02-28 05:26:23dht11humidity93percent
3740bbbba929e5d1f190e42603d5343f005d2021-02-28 05:31:25soilmoisture25percent
3741bbbba929e5d1f190e42603d5343f005d2021-02-28 05:31:25dht11temp20.9degree
3742bbbba929e5d1f190e42603d5343f005d2021-02-28 05:31:25dht11humidity93percent
3743bbbba929e5d1f190e42603d5343f005d2021-02-28 05:36:28soilmoisture25percent
3744bbbba929e5d1f190e42603d5343f005d2021-02-28 05:36:28dht11temp20.9degree
3745bbbba929e5d1f190e42603d5343f005d2021-02-28 05:36:29dht11humidity93percent
3746bbbba929e5d1f190e42603d5343f005d2021-02-28 05:41:31soilmoisture25percent
3747bbbba929e5d1f190e42603d5343f005d2021-02-28 05:41:31dht11temp20.8degree
3748bbbba929e5d1f190e42603d5343f005d2021-02-28 05:41:31dht11humidity93percent
3749bbbba929e5d1f190e42603d5343f005d2021-02-28 05:46:33soilmoisture25percent
3750bbbba929e5d1f190e42603d5343f005d2021-02-28 05:46:33dht11temp20.8degree
3751bbbba929e5d1f190e42603d5343f005d2021-02-28 05:46:33dht11humidity93percent
3752bbbba929e5d1f190e42603d5343f005d2021-02-28 05:51:35soilmoisture25percent
3753bbbba929e5d1f190e42603d5343f005d2021-02-28 05:51:36dht11temp20.7degree
3754bbbba929e5d1f190e42603d5343f005d2021-02-28 05:51:36dht11humidity93percent
3755bbbba929e5d1f190e42603d5343f005d2021-02-28 05:56:38soilmoisture25percent
3756bbbba929e5d1f190e42603d5343f005d2021-02-28 05:56:38dht11temp20.7degree
3757bbbba929e5d1f190e42603d5343f005d2021-02-28 05:56:39dht11humidity93percent
3758bbbba929e5d1f190e42603d5343f005d2021-02-28 06:01:40soilmoisture25percent
3759bbbba929e5d1f190e42603d5343f005d2021-02-28 06:01:41dht11temp20.7degree
3760bbbba929e5d1f190e42603d5343f005d2021-02-28 06:01:41dht11humidity93percent
3761bbbba929e5d1f190e42603d5343f005d2021-02-28 06:06:43soilmoisture25percent
3762bbbba929e5d1f190e42603d5343f005d2021-02-28 06:06:43dht11temp20.6degree
3763bbbba929e5d1f190e42603d5343f005d2021-02-28 06:06:44dht11humidity93percent
3764bbbba929e5d1f190e42603d5343f005d2021-02-28 06:11:46soilmoisture25percent
3765bbbba929e5d1f190e42603d5343f005d2021-02-28 06:11:46dht11temp20.7degree
3766bbbba929e5d1f190e42603d5343f005d2021-02-28 06:11:46dht11humidity93percent
3767bbbba929e5d1f190e42603d5343f005d2021-02-28 06:16:48soilmoisture25percent
3768bbbba929e5d1f190e42603d5343f005d2021-02-28 06:16:48dht11temp21.1degree
3769bbbba929e5d1f190e42603d5343f005d2021-02-28 06:16:49dht11humidity93percent
3770bbbba929e5d1f190e42603d5343f005d2021-02-28 06:21:50soilmoisture24percent
3771bbbba929e5d1f190e42603d5343f005d2021-02-28 06:21:51dht11temp22.1degree
3772bbbba929e5d1f190e42603d5343f005d2021-02-28 06:21:51dht11humidity91percent
3773bbbba929e5d1f190e42603d5343f005d2021-02-28 06:26:53soilmoisture24percent
3774bbbba929e5d1f190e42603d5343f005d2021-02-28 06:26:53dht11temp23.4degree
3775bbbba929e5d1f190e42603d5343f005d2021-02-28 06:26:53dht11humidity82percent
3776bbbba929e5d1f190e42603d5343f005d2021-02-28 06:31:56soilmoisture23percent
3777bbbba929e5d1f190e42603d5343f005d2021-02-28 06:31:56dht11temp25degree
3778bbbba929e5d1f190e42603d5343f005d2021-02-28 06:31:56dht11humidity77percent
3779bbbba929e5d1f190e42603d5343f005d2021-02-28 06:36:58soilmoisture23percent
3780bbbba929e5d1f190e42603d5343f005d2021-02-28 06:36:58dht11temp26.4degree
3781bbbba929e5d1f190e42603d5343f005d2021-02-28 06:36:59dht11humidity73percent
3782bbbba929e5d1f190e42603d5343f005d2021-02-28 06:42:01soilmoisture23percent
3783bbbba929e5d1f190e42603d5343f005d2021-02-28 06:42:01dht11temp27.4degree
3784bbbba929e5d1f190e42603d5343f005d2021-02-28 06:42:01dht11humidity71percent
3785bbbba929e5d1f190e42603d5343f005d2021-02-28 06:47:03soilmoisture23percent
3786bbbba929e5d1f190e42603d5343f005d2021-02-28 06:47:04dht11temp28.1degree
3787bbbba929e5d1f190e42603d5343f005d2021-02-28 06:47:04dht11humidity69percent
3788bbbba929e5d1f190e42603d5343f005d2021-02-28 06:52:06soilmoisture23percent
3789bbbba929e5d1f190e42603d5343f005d2021-02-28 06:52:07dht11temp28.8degree
3790bbbba929e5d1f190e42603d5343f005d2021-02-28 06:52:07dht11humidity67percent
3791bbbba929e5d1f190e42603d5343f005d2021-02-28 06:57:09soilmoisture23percent
3792bbbba929e5d1f190e42603d5343f005d2021-02-28 06:57:09dht11temp29.1degree
3793bbbba929e5d1f190e42603d5343f005d2021-02-28 06:57:09dht11humidity66percent
3794bbbba929e5d1f190e42603d5343f005d2021-02-28 07:02:11soilmoisture23percent
3795bbbba929e5d1f190e42603d5343f005d2021-02-28 07:02:11dht11temp29.4degree
3796bbbba929e5d1f190e42603d5343f005d2021-02-28 07:02:12dht11humidity65percent
3797bbbba929e5d1f190e42603d5343f005d2021-02-28 07:07:14soilmoisture23percent
3798bbbba929e5d1f190e42603d5343f005d2021-02-28 07:07:14dht11temp29.6degree
3799bbbba929e5d1f190e42603d5343f005d2021-02-28 07:07:14dht11humidity65percent
3800bbbba929e5d1f190e42603d5343f005d2021-02-28 07:12:16soilmoisture23percent
3801bbbba929e5d1f190e42603d5343f005d2021-02-28 07:12:17dht11temp29.8degree
3802bbbba929e5d1f190e42603d5343f005d2021-02-28 07:12:17dht11humidity65percent
3803bbbba929e5d1f190e42603d5343f005d2021-02-28 07:17:19soilmoisture23percent
3804bbbba929e5d1f190e42603d5343f005d2021-02-28 07:17:19dht11temp30degree
3805bbbba929e5d1f190e42603d5343f005d2021-02-28 07:17:19dht11humidity64percent
3806bbbba929e5d1f190e42603d5343f005d2021-02-28 07:22:21soilmoisture23percent
3807bbbba929e5d1f190e42603d5343f005d2021-02-28 07:22:22dht11temp30degree
3808bbbba929e5d1f190e42603d5343f005d2021-02-28 07:22:22dht11humidity63percent
3809bbbba929e5d1f190e42603d5343f005d2021-02-28 07:27:24soilmoisture23percent
3810bbbba929e5d1f190e42603d5343f005d2021-02-28 07:27:24dht11temp29.8degree
3811bbbba929e5d1f190e42603d5343f005d2021-02-28 07:27:25dht11humidity64percent
3812bbbba929e5d1f190e42603d5343f005d2021-02-28 07:32:27soilmoisture23percent
3813bbbba929e5d1f190e42603d5343f005d2021-02-28 07:32:27dht11temp29.6degree
3814bbbba929e5d1f190e42603d5343f005d2021-02-28 07:32:27dht11humidity64percent
3815bbbba929e5d1f190e42603d5343f005d2021-02-28 07:37:29soilmoisture23percent
3816bbbba929e5d1f190e42603d5343f005d2021-02-28 07:37:29dht11temp29.4degree
3817bbbba929e5d1f190e42603d5343f005d2021-02-28 07:37:30dht11humidity64percent
3818bbbba929e5d1f190e42603d5343f005d2021-02-28 07:42:32soilmoisture23percent
3819bbbba929e5d1f190e42603d5343f005d2021-02-28 07:42:32dht11temp29.1degree
3820bbbba929e5d1f190e42603d5343f005d2021-02-28 07:42:32dht11humidity66percent
3821bbbba929e5d1f190e42603d5343f005d2021-02-28 07:47:34soilmoisture23percent
3822bbbba929e5d1f190e42603d5343f005d2021-02-28 07:47:35dht11temp28.9degree
3823bbbba929e5d1f190e42603d5343f005d2021-02-28 07:47:35dht11humidity66percent
3824bbbba929e5d1f190e42603d5343f005d2021-02-28 07:52:37soilmoisture23percent
3825bbbba929e5d1f190e42603d5343f005d2021-02-28 07:52:37dht11temp28.6degree
3826bbbba929e5d1f190e42603d5343f005d2021-02-28 07:52:38dht11humidity68percent
3827bbbba929e5d1f190e42603d5343f005d2021-02-28 07:57:40soilmoisture23percent
3828bbbba929e5d1f190e42603d5343f005d2021-02-28 07:57:40dht11temp28.3degree
3829bbbba929e5d1f190e42603d5343f005d2021-02-28 07:57:40dht11humidity69percent
3830bbbba929e5d1f190e42603d5343f005d2021-02-28 08:02:42soilmoisture23percent
3831bbbba929e5d1f190e42603d5343f005d2021-02-28 08:02:43dht11temp28degree
3832bbbba929e5d1f190e42603d5343f005d2021-02-28 08:02:43dht11humidity69percent
3833bbbba929e5d1f190e42603d5343f005d2021-02-28 08:07:45soilmoisture23percent
3834bbbba929e5d1f190e42603d5343f005d2021-02-28 08:07:45dht11temp27.7degree
3835bbbba929e5d1f190e42603d5343f005d2021-02-28 08:07:45dht11humidity72percent
3836bbbba929e5d1f190e42603d5343f005d2021-02-28 08:12:47soilmoisture23percent
3837bbbba929e5d1f190e42603d5343f005d2021-02-28 08:12:48dht11temp27.5degree
3838bbbba929e5d1f190e42603d5343f005d2021-02-28 08:12:48dht11humidity71percent
3839bbbba929e5d1f190e42603d5343f005d2021-02-28 08:17:50soilmoisture23percent
3840bbbba929e5d1f190e42603d5343f005d2021-02-28 08:17:50dht11temp27.4degree
3841bbbba929e5d1f190e42603d5343f005d2021-02-28 08:17:50dht11humidity73percent
3842bbbba929e5d1f190e42603d5343f005d2021-02-28 08:22:52soilmoisture23percent
3843bbbba929e5d1f190e42603d5343f005d2021-02-28 08:22:52dht11temp27.2degree
3844bbbba929e5d1f190e42603d5343f005d2021-02-28 08:22:53dht11humidity74percent
3845bbbba929e5d1f190e42603d5343f005d2021-02-28 08:27:55soilmoisture23percent
3846bbbba929e5d1f190e42603d5343f005d2021-02-28 08:27:55dht11temp27degree
3847bbbba929e5d1f190e42603d5343f005d2021-02-28 08:27:55dht11humidity77percent
3848bbbba929e5d1f190e42603d5343f005d2021-02-28 08:32:57soilmoisture23percent
3849bbbba929e5d1f190e42603d5343f005d2021-02-28 08:32:58dht11temp26.8degree
3850bbbba929e5d1f190e42603d5343f005d2021-02-28 08:32:58dht11humidity79percent
3851bbbba929e5d1f190e42603d5343f005d2021-02-28 08:38:00soilmoisture23percent
3852bbbba929e5d1f190e42603d5343f005d2021-02-28 08:38:00dht11temp26.7degree
3853bbbba929e5d1f190e42603d5343f005d2021-02-28 08:38:00dht11humidity82percent
3854bbbba929e5d1f190e42603d5343f005d2021-02-28 08:43:02soilmoisture23percent
3855bbbba929e5d1f190e42603d5343f005d2021-02-28 08:43:03dht11temp26.4degree
3856bbbba929e5d1f190e42603d5343f005d2021-02-28 08:43:03dht11humidity84percent
3857bbbba929e5d1f190e42603d5343f005d2021-02-28 08:48:05soilmoisture23percent
3858bbbba929e5d1f190e42603d5343f005d2021-02-28 08:48:05dht11temp26.3degree
3859bbbba929e5d1f190e42603d5343f005d2021-02-28 08:48:06dht11humidity85percent
3860bbbba929e5d1f190e42603d5343f005d2021-02-28 08:53:08soilmoisture23percent
3861bbbba929e5d1f190e42603d5343f005d2021-02-28 08:53:08dht11temp25.9degree
3862bbbba929e5d1f190e42603d5343f005d2021-02-28 08:53:08dht11humidity85percent
3863bbbba929e5d1f190e42603d5343f005d2021-02-28 08:58:10soilmoisture24percent
3864bbbba929e5d1f190e42603d5343f005d2021-02-28 08:58:10dht11temp25.7degree
3865bbbba929e5d1f190e42603d5343f005d2021-02-28 08:58:11dht11humidity89percent
3866bbbba929e5d1f190e42603d5343f005d2021-02-28 09:03:13soilmoisture24percent
3867bbbba929e5d1f190e42603d5343f005d2021-02-28 09:03:13dht11temp25.6degree
3868bbbba929e5d1f190e42603d5343f005d2021-02-28 09:03:13dht11humidity85percent
3869bbbba929e5d1f190e42603d5343f005d2021-02-28 09:08:15soilmoisture24percent
3870bbbba929e5d1f190e42603d5343f005d2021-02-28 09:08:16dht11temp25.5degree
3871bbbba929e5d1f190e42603d5343f005d2021-02-28 09:08:16dht11humidity79percent
3872bbbba929e5d1f190e42603d5343f005d2021-02-28 09:13:18soilmoisture24percent
3873bbbba929e5d1f190e42603d5343f005d2021-02-28 09:13:19dht11temp25.7degree
3874bbbba929e5d1f190e42603d5343f005d2021-02-28 09:13:19dht11humidity73percent
3875bbbba929e5d1f190e42603d5343f005d2021-02-28 09:18:21soilmoisture23percent
3876bbbba929e5d1f190e42603d5343f005d2021-02-28 09:18:21dht11temp26degree
3877bbbba929e5d1f190e42603d5343f005d2021-02-28 09:18:22dht11humidity70percent
3878bbbba929e5d1f190e42603d5343f005d2021-02-28 09:23:24soilmoisture23percent
3879bbbba929e5d1f190e42603d5343f005d2021-02-28 09:23:24dht11temp26.4degree
3880bbbba929e5d1f190e42603d5343f005d2021-02-28 09:23:24dht11humidity69percent
3881bbbba929e5d1f190e42603d5343f005d2021-02-28 09:28:26soilmoisture23percent
3882bbbba929e5d1f190e42603d5343f005d2021-02-28 09:28:27dht11temp26.8degree
3883bbbba929e5d1f190e42603d5343f005d2021-02-28 09:28:27dht11humidity68percent
3884bbbba929e5d1f190e42603d5343f005d2021-02-28 09:33:29soilmoisture23percent
3885bbbba929e5d1f190e42603d5343f005d2021-02-28 09:33:29dht11temp26.9degree
3886bbbba929e5d1f190e42603d5343f005d2021-02-28 09:33:29dht11humidity67percent
3887bbbba929e5d1f190e42603d5343f005d2021-02-28 09:38:31soilmoisture23percent
3888bbbba929e5d1f190e42603d5343f005d2021-02-28 09:38:32dht11temp27degree
3889bbbba929e5d1f190e42603d5343f005d2021-02-28 09:38:32dht11humidity70percent
3890bbbba929e5d1f190e42603d5343f005d2021-02-28 09:43:34soilmoisture23percent
3891bbbba929e5d1f190e42603d5343f005d2021-02-28 09:43:34dht11temp27degree
3892bbbba929e5d1f190e42603d5343f005d2021-02-28 09:43:34dht11humidity70percent
3893bbbba929e5d1f190e42603d5343f005d2021-02-28 09:48:37soilmoisture23percent
3894bbbba929e5d1f190e42603d5343f005d2021-02-28 09:48:37dht11temp26.8degree
3895bbbba929e5d1f190e42603d5343f005d2021-02-28 09:48:37dht11humidity72percent
3896bbbba929e5d1f190e42603d5343f005d2021-02-28 09:53:39soilmoisture23percent
3897bbbba929e5d1f190e42603d5343f005d2021-02-28 09:53:40dht11temp26.8degree
3898bbbba929e5d1f190e42603d5343f005d2021-02-28 09:53:40dht11humidity75percent
3899bbbba929e5d1f190e42603d5343f005d2021-02-28 09:58:42soilmoisture24percent
3900bbbba929e5d1f190e42603d5343f005d2021-02-28 09:58:42dht11temp26.6degree
3901bbbba929e5d1f190e42603d5343f005d2021-02-28 09:58:42dht11humidity77percent
3902bbbba929e5d1f190e42603d5343f005d2021-02-28 10:03:44soilmoisture24percent
3903bbbba929e5d1f190e42603d5343f005d2021-02-28 10:03:45dht11temp26.4degree
3904bbbba929e5d1f190e42603d5343f005d2021-02-28 10:03:45dht11humidity78percent
3905bbbba929e5d1f190e42603d5343f005d2021-02-28 10:08:47soilmoisture24percent
3906bbbba929e5d1f190e42603d5343f005d2021-02-28 10:08:47dht11temp26.1degree
3907bbbba929e5d1f190e42603d5343f005d2021-02-28 10:08:48dht11humidity80percent
3908bbbba929e5d1f190e42603d5343f005d2021-02-28 10:13:50soilmoisture24percent
3909bbbba929e5d1f190e42603d5343f005d2021-02-28 10:13:50dht11temp26degree
3910bbbba929e5d1f190e42603d5343f005d2021-02-28 10:13:50dht11humidity82percent
3911bbbba929e5d1f190e42603d5343f005d2021-02-28 10:18:52soilmoisture24percent
3912bbbba929e5d1f190e42603d5343f005d2021-02-28 10:18:52dht11temp25.8degree
3913bbbba929e5d1f190e42603d5343f005d2021-02-28 10:18:53dht11humidity82percent
3914bbbba929e5d1f190e42603d5343f005d2021-02-28 10:23:55soilmoisture24percent
3915bbbba929e5d1f190e42603d5343f005d2021-02-28 10:23:55dht11temp25.6degree
3916bbbba929e5d1f190e42603d5343f005d2021-02-28 10:23:55dht11humidity85percent
3917bbbba929e5d1f190e42603d5343f005d2021-02-28 10:28:57soilmoisture24percent
3918bbbba929e5d1f190e42603d5343f005d2021-02-28 10:28:58dht11temp25.3degree
3919bbbba929e5d1f190e42603d5343f005d2021-02-28 10:28:58dht11humidity86percent
3920bbbba929e5d1f190e42603d5343f005d2021-02-28 10:34:00soilmoisture24percent
3921bbbba929e5d1f190e42603d5343f005d2021-02-28 10:34:00dht11temp25.3degree
3922bbbba929e5d1f190e42603d5343f005d2021-02-28 10:34:01dht11humidity90percent
3923bbbba929e5d1f190e42603d5343f005d2021-02-28 10:39:03soilmoisture24percent
3924bbbba929e5d1f190e42603d5343f005d2021-02-28 10:39:03dht11temp25.2degree
3925bbbba929e5d1f190e42603d5343f005d2021-02-28 10:39:03dht11humidity91percent
3926bbbba929e5d1f190e42603d5343f005d2021-02-28 10:44:05soilmoisture24percent
3927bbbba929e5d1f190e42603d5343f005d2021-02-28 10:44:05dht11temp25degree
3928bbbba929e5d1f190e42603d5343f005d2021-02-28 10:44:06dht11humidity91percent
3929bbbba929e5d1f190e42603d5343f005d2021-02-28 10:49:08soilmoisture24percent
3930bbbba929e5d1f190e42603d5343f005d2021-02-28 10:49:08dht11temp24.9degree
3931bbbba929e5d1f190e42603d5343f005d2021-02-28 10:49:08dht11humidity91percent
3932bbbba929e5d1f190e42603d5343f005d2021-02-28 10:54:11soilmoisture24percent
3933bbbba929e5d1f190e42603d5343f005d2021-02-28 10:54:11dht11temp24.8degree
3934bbbba929e5d1f190e42603d5343f005d2021-02-28 10:54:11dht11humidity91percent
3935bbbba929e5d1f190e42603d5343f005d2021-02-28 10:59:14soilmoisture24percent
3936bbbba929e5d1f190e42603d5343f005d2021-02-28 10:59:14dht11temp24.6degree
3937bbbba929e5d1f190e42603d5343f005d2021-02-28 10:59:14dht11humidity89percent
3938bbbba929e5d1f190e42603d5343f005d2021-02-28 11:04:17soilmoisture24percent
3939bbbba929e5d1f190e42603d5343f005d2021-02-28 11:04:17dht11temp24.5degree
3940bbbba929e5d1f190e42603d5343f005d2021-02-28 11:04:17dht11humidity88percent
3941bbbba929e5d1f190e42603d5343f005d2021-02-28 11:09:19soilmoisture24percent
3942bbbba929e5d1f190e42603d5343f005d2021-02-28 11:09:20dht11temp24.4degree
3943bbbba929e5d1f190e42603d5343f005d2021-02-28 11:09:20dht11humidity86percent
3944bbbba929e5d1f190e42603d5343f005d2021-02-28 11:14:22soilmoisture24percent
3945bbbba929e5d1f190e42603d5343f005d2021-02-28 11:14:22dht11temp24.4degree
3946bbbba929e5d1f190e42603d5343f005d2021-02-28 11:14:22dht11humidity87percent
3947bbbba929e5d1f190e42603d5343f005d2021-02-28 11:19:24soilmoisture24percent
3948bbbba929e5d1f190e42603d5343f005d2021-02-28 11:19:25dht11temp24.6degree
3949bbbba929e5d1f190e42603d5343f005d2021-02-28 11:19:25dht11humidity84percent
3950bbbba929e5d1f190e42603d5343f005d2021-02-28 11:24:27soilmoisture24percent
3951bbbba929e5d1f190e42603d5343f005d2021-02-28 11:24:27dht11temp24.7degree
3952bbbba929e5d1f190e42603d5343f005d2021-02-28 11:24:27dht11humidity86percent
3953bbbba929e5d1f190e42603d5343f005d2021-02-28 11:29:30soilmoisture24percent
3954bbbba929e5d1f190e42603d5343f005d2021-02-28 11:29:30dht11temp24.8degree
3955bbbba929e5d1f190e42603d5343f005d2021-02-28 11:29:30dht11humidity85percent
3956bbbba929e5d1f190e42603d5343f005d2021-02-28 11:34:32soilmoisture24percent
3957bbbba929e5d1f190e42603d5343f005d2021-02-28 11:34:32dht11temp24.9degree
3958bbbba929e5d1f190e42603d5343f005d2021-02-28 11:34:33dht11humidity82percent
3959bbbba929e5d1f190e42603d5343f005d2021-02-28 11:39:35soilmoisture24percent
3960bbbba929e5d1f190e42603d5343f005d2021-02-28 11:39:35dht11temp25.1degree
3961bbbba929e5d1f190e42603d5343f005d2021-02-28 11:39:35dht11humidity83percent
3962bbbba929e5d1f190e42603d5343f005d2021-02-28 11:44:37soilmoisture24percent
3963bbbba929e5d1f190e42603d5343f005d2021-02-28 11:44:38dht11temp25.1degree
3964bbbba929e5d1f190e42603d5343f005d2021-02-28 11:44:38dht11humidity83percent
3965bbbba929e5d1f190e42603d5343f005d2021-02-28 11:49:40soilmoisture24percent
3966bbbba929e5d1f190e42603d5343f005d2021-02-28 11:49:40dht11temp25.1degree
3967bbbba929e5d1f190e42603d5343f005d2021-02-28 11:49:40dht11humidity82percent
3968bbbba929e5d1f190e42603d5343f005d2021-02-28 11:54:43soilmoisture24percent
3969bbbba929e5d1f190e42603d5343f005d2021-02-28 11:54:43dht11temp25.3degree
3970bbbba929e5d1f190e42603d5343f005d2021-02-28 11:54:43dht11humidity86percent
3971bbbba929e5d1f190e42603d5343f005d2021-02-28 11:59:45soilmoisture24percent
3972bbbba929e5d1f190e42603d5343f005d2021-02-28 11:59:46dht11temp25.4degree
3973bbbba929e5d1f190e42603d5343f005d2021-02-28 11:59:46dht11humidity87percent
3974bbbba929e5d1f190e42603d5343f005d2021-02-28 12:04:47soilmoisture24percent
3975bbbba929e5d1f190e42603d5343f005d2021-02-28 12:04:47dht11temp25.8degree
3976bbbba929e5d1f190e42603d5343f005d2021-02-28 12:04:48dht11humidity88percent
3977bbbba929e5d1f190e42603d5343f005d2021-02-28 12:09:50soilmoisture23percent
3978bbbba929e5d1f190e42603d5343f005d2021-02-28 12:09:50dht11temp26.3degree
3979bbbba929e5d1f190e42603d5343f005d2021-02-28 12:09:50dht11humidity86percent
3980bbbba929e5d1f190e42603d5343f005d2021-02-28 12:14:52soilmoisture23percent
3981bbbba929e5d1f190e42603d5343f005d2021-02-28 12:14:53dht11temp26.9degree
3982bbbba929e5d1f190e42603d5343f005d2021-02-28 12:14:53dht11humidity79percent
3983bbbba929e5d1f190e42603d5343f005d2021-02-28 12:19:55soilmoisture23percent
3984bbbba929e5d1f190e42603d5343f005d2021-02-28 12:19:55dht11temp28.1degree
3985bbbba929e5d1f190e42603d5343f005d2021-02-28 12:19:55dht11humidity73percent
3986bbbba929e5d1f190e42603d5343f005d2021-02-28 12:24:57soilmoisture23percent
3987bbbba929e5d1f190e42603d5343f005d2021-02-28 12:24:58dht11temp29.8degree
3988bbbba929e5d1f190e42603d5343f005d2021-02-28 12:24:58dht11humidity67percent
3989bbbba929e5d1f190e42603d5343f005d2021-02-28 12:30:00soilmoisture22percent
3990bbbba929e5d1f190e42603d5343f005d2021-02-28 12:30:00dht11temp31.3degree
3991bbbba929e5d1f190e42603d5343f005d2021-02-28 12:30:01dht11humidity59percent
3992bbbba929e5d1f190e42603d5343f005d2021-02-28 12:35:03soilmoisture22percent
3993bbbba929e5d1f190e42603d5343f005d2021-02-28 12:35:03dht11temp33.9degree
3994bbbba929e5d1f190e42603d5343f005d2021-02-28 12:35:03dht11humidity54percent
3995bbbba929e5d1f190e42603d5343f005d2021-02-28 12:40:05soilmoisture21percent
3996bbbba929e5d1f190e42603d5343f005d2021-02-28 12:40:06dht11temp36.2degree
3997bbbba929e5d1f190e42603d5343f005d2021-02-28 12:40:06dht11humidity50percent
3998bbbba929e5d1f190e42603d5343f005d2021-02-28 12:45:08soilmoisture21percent
3999bbbba929e5d1f190e42603d5343f005d2021-02-28 12:45:08dht11temp38.5degree
4000bbbba929e5d1f190e42603d5343f005d2021-02-28 12:45:08dht11humidity44percent
4001bbbba929e5d1f190e42603d5343f005d2021-02-28 12:50:11soilmoisture21percent
4002bbbba929e5d1f190e42603d5343f005d2021-02-28 12:50:11dht11temp40.2degree
4003bbbba929e5d1f190e42603d5343f005d2021-02-28 12:50:11dht11humidity40percent
4004bbbba929e5d1f190e42603d5343f005d2021-02-28 12:55:13soilmoisture21percent
4005bbbba929e5d1f190e42603d5343f005d2021-02-28 12:55:14dht11temp41.8degree
4006bbbba929e5d1f190e42603d5343f005d2021-02-28 12:55:14dht11humidity40percent
4007bbbba929e5d1f190e42603d5343f005d2021-02-28 13:00:16soilmoisture20percent
4008bbbba929e5d1f190e42603d5343f005d2021-02-28 13:00:17dht11temp42.9degree
4009bbbba929e5d1f190e42603d5343f005d2021-02-28 13:00:17dht11humidity36percent
4010bbbba929e5d1f190e42603d5343f005d2021-02-28 13:05:19soilmoisture20percent
4011bbbba929e5d1f190e42603d5343f005d2021-02-28 13:05:19dht11temp43.4degree
4012bbbba929e5d1f190e42603d5343f005d2021-02-28 13:05:19dht11humidity35percent
4013bbbba929e5d1f190e42603d5343f005d2021-02-28 13:10:22soilmoisture19percent
4014bbbba929e5d1f190e42603d5343f005d2021-02-28 13:10:23dht11temp43.9degree
4015bbbba929e5d1f190e42603d5343f005d2021-02-28 13:10:23dht11humidity32percent
4016bbbba929e5d1f190e42603d5343f005d2021-02-28 13:15:25soilmoisture19percent
4017bbbba929e5d1f190e42603d5343f005d2021-02-28 13:15:25dht11temp44.6degree
4018bbbba929e5d1f190e42603d5343f005d2021-02-28 13:15:26dht11humidity30percent
4019bbbba929e5d1f190e42603d5343f005d2021-02-28 13:20:28soilmoisture19percent
4020bbbba929e5d1f190e42603d5343f005d2021-02-28 13:20:28dht11temp45.3degree
4021bbbba929e5d1f190e42603d5343f005d2021-02-28 13:20:28dht11humidity32percent
4022bbbba929e5d1f190e42603d5343f005d2021-02-28 13:25:30soilmoisture19percent
4023bbbba929e5d1f190e42603d5343f005d2021-02-28 13:25:30dht11temp45.8degree
4024bbbba929e5d1f190e42603d5343f005d2021-02-28 13:25:31dht11humidity31percent
4025bbbba929e5d1f190e42603d5343f005d2021-02-28 13:30:33soilmoisture19percent
4026bbbba929e5d1f190e42603d5343f005d2021-02-28 13:30:33dht11temp46.3degree
4027bbbba929e5d1f190e42603d5343f005d2021-02-28 13:30:34dht11humidity30percent
4028bbbba929e5d1f190e42603d5343f005d2021-02-28 13:35:35soilmoisture19percent
4029bbbba929e5d1f190e42603d5343f005d2021-02-28 13:35:36dht11temp47.3degree
4030bbbba929e5d1f190e42603d5343f005d2021-02-28 13:35:36dht11humidity34percent
4031bbbba929e5d1f190e42603d5343f005d2021-02-28 13:40:38soilmoisture19percent
4032bbbba929e5d1f190e42603d5343f005d2021-02-28 13:40:38dht11temp48.1degree
4033bbbba929e5d1f190e42603d5343f005d2021-02-28 13:40:39dht11humidity33percent
4034bbbba929e5d1f190e42603d5343f005d2021-02-28 13:45:41soilmoisture19percent
4035bbbba929e5d1f190e42603d5343f005d2021-02-28 13:45:41dht11temp48.4degree
4036bbbba929e5d1f190e42603d5343f005d2021-02-28 13:45:41dht11humidity33percent
4037bbbba929e5d1f190e42603d5343f005d2021-02-28 13:50:43soilmoisture19percent
4038bbbba929e5d1f190e42603d5343f005d2021-02-28 13:50:44dht11temp48.7degree
4039bbbba929e5d1f190e42603d5343f005d2021-02-28 13:50:44dht11humidity35percent
4040bbbba929e5d1f190e42603d5343f005d2021-02-28 13:55:46soilmoisture17percent
4041bbbba929e5d1f190e42603d5343f005d2021-02-28 13:55:46dht11temp48.9degree
4042bbbba929e5d1f190e42603d5343f005d2021-02-28 13:55:46dht11humidity32percent
4043bbbba929e5d1f190e42603d5343f005d2021-02-28 14:00:49soilmoisture19percent
4044bbbba929e5d1f190e42603d5343f005d2021-02-28 14:00:49dht11temp48.8degree
4045bbbba929e5d1f190e42603d5343f005d2021-02-28 14:00:49dht11humidity32percent
4046bbbba929e5d1f190e42603d5343f005d2021-02-28 14:05:52soilmoisture19percent
4047bbbba929e5d1f190e42603d5343f005d2021-02-28 14:05:52dht11temp48.7degree
4048bbbba929e5d1f190e42603d5343f005d2021-02-28 14:05:52dht11humidity34percent
4049bbbba929e5d1f190e42603d5343f005d2021-02-28 14:10:54soilmoisture19percent
4050bbbba929e5d1f190e42603d5343f005d2021-02-28 14:10:54dht11temp48.3degree
4051bbbba929e5d1f190e42603d5343f005d2021-02-28 14:10:55dht11humidity35percent
4052bbbba929e5d1f190e42603d5343f005d2021-02-28 14:15:57soilmoisture19percent
4053bbbba929e5d1f190e42603d5343f005d2021-02-28 14:15:57dht11temp48.4degree
4054bbbba929e5d1f190e42603d5343f005d2021-02-28 14:15:57dht11humidity33percent
4055bbbba929e5d1f190e42603d5343f005d2021-02-28 14:20:59soilmoisture19percent
4056bbbba929e5d1f190e42603d5343f005d2021-02-28 14:21:00dht11temp48.1degree
4057bbbba929e5d1f190e42603d5343f005d2021-02-28 14:21:00dht11humidity37percent
4058bbbba929e5d1f190e42603d5343f005d2021-02-28 14:26:02soilmoisture20percent
4059bbbba929e5d1f190e42603d5343f005d2021-02-28 14:26:02dht11temp47.3degree
4060bbbba929e5d1f190e42603d5343f005d2021-02-28 14:26:03dht11humidity38percent
4061bbbba929e5d1f190e42603d5343f005d2021-02-28 14:31:05soilmoisture22percent
4062bbbba929e5d1f190e42603d5343f005d2021-02-28 14:31:05dht11temp46.3degree
4063bbbba929e5d1f190e42603d5343f005d2021-02-28 14:31:05dht11humidity37percent
4064bbbba929e5d1f190e42603d5343f005d2021-02-28 14:36:07soilmoisture23percent
4065bbbba929e5d1f190e42603d5343f005d2021-02-28 14:36:07dht11temp36.3degree
4066bbbba929e5d1f190e42603d5343f005d2021-02-28 14:36:08dht11humidity59percent
4067bbbba929e5d1f190e42603d5343f005d2021-02-28 14:41:10soilmoisture23percent
4068bbbba929e5d1f190e42603d5343f005d2021-02-28 14:41:10dht11temp32.4degree
4069bbbba929e5d1f190e42603d5343f005d2021-02-28 14:41:10dht11humidity70percent
4070bbbba929e5d1f190e42603d5343f005d2021-02-28 14:46:12soilmoisture24percent
4071bbbba929e5d1f190e42603d5343f005d2021-02-28 14:46:13dht11temp30.6degree
4072bbbba929e5d1f190e42603d5343f005d2021-02-28 14:46:13dht11humidity73percent
4073bbbba929e5d1f190e42603d5343f005d2021-02-28 14:51:15soilmoisture24percent
4074bbbba929e5d1f190e42603d5343f005d2021-02-28 14:51:15dht11temp29.6degree
4075bbbba929e5d1f190e42603d5343f005d2021-02-28 14:51:15dht11humidity76percent
4076bbbba929e5d1f190e42603d5343f005d2021-02-28 14:56:17soilmoisture25percent
4077bbbba929e5d1f190e42603d5343f005d2021-02-28 14:56:17dht11temp28.9degree
4078bbbba929e5d1f190e42603d5343f005d2021-02-28 14:56:18dht11humidity75percent
4079bbbba929e5d1f190e42603d5343f005d2021-02-28 15:01:20soilmoisture25percent
4080bbbba929e5d1f190e42603d5343f005d2021-02-28 15:01:20dht11temp28.4degree
4081bbbba929e5d1f190e42603d5343f005d2021-02-28 15:01:20dht11humidity75percent
4082bbbba929e5d1f190e42603d5343f005d2021-02-28 15:06:23soilmoisture25percent
4083bbbba929e5d1f190e42603d5343f005d2021-02-28 15:06:23dht11temp28.1degree
4084bbbba929e5d1f190e42603d5343f005d2021-02-28 15:06:23dht11humidity77percent
4085bbbba929e5d1f190e42603d5343f005d2021-02-28 15:11:25soilmoisture25percent
4086bbbba929e5d1f190e42603d5343f005d2021-02-28 15:11:25dht11temp27.8degree
4087bbbba929e5d1f190e42603d5343f005d2021-02-28 15:11:26dht11humidity76percent
4088bbbba929e5d1f190e42603d5343f005d2021-02-28 15:16:27soilmoisture25percent
4089bbbba929e5d1f190e42603d5343f005d2021-02-28 15:16:28dht11temp27.6degree
4090bbbba929e5d1f190e42603d5343f005d2021-02-28 15:16:28dht11humidity76percent
4091bbbba929e5d1f190e42603d5343f005d2021-02-28 15:21:30soilmoisture25percent
4092bbbba929e5d1f190e42603d5343f005d2021-02-28 15:21:30dht11temp27.3degree
4093bbbba929e5d1f190e42603d5343f005d2021-02-28 15:21:30dht11humidity75percent
4094bbbba929e5d1f190e42603d5343f005d2021-02-28 15:26:32soilmoisture25percent
4095bbbba929e5d1f190e42603d5343f005d2021-02-28 15:26:32dht11temp27.2degree
4096bbbba929e5d1f190e42603d5343f005d2021-02-28 15:26:33dht11humidity76percent
4097bbbba929e5d1f190e42603d5343f005d2021-02-28 15:31:35soilmoisture25percent
4098bbbba929e5d1f190e42603d5343f005d2021-02-28 15:31:35dht11temp27degree
4099bbbba929e5d1f190e42603d5343f005d2021-02-28 15:31:35dht11humidity75percent
4100bbbba929e5d1f190e42603d5343f005d2021-02-28 15:36:37soilmoisture25percent
4101bbbba929e5d1f190e42603d5343f005d2021-02-28 15:36:37dht11temp26.9degree
4102bbbba929e5d1f190e42603d5343f005d2021-02-28 15:36:38dht11humidity78percent
4103bbbba929e5d1f190e42603d5343f005d2021-02-28 15:41:40soilmoisture25percent
4104bbbba929e5d1f190e42603d5343f005d2021-02-28 15:41:40dht11temp26.9degree
4105bbbba929e5d1f190e42603d5343f005d2021-02-28 15:41:40dht11humidity77percent
4106bbbba929e5d1f190e42603d5343f005d2021-02-28 15:46:42soilmoisture25percent
4107bbbba929e5d1f190e42603d5343f005d2021-02-28 15:46:43dht11temp26.8degree
4108bbbba929e5d1f190e42603d5343f005d2021-02-28 15:46:43dht11humidity79percent
4109bbbba929e5d1f190e42603d5343f005d2021-02-28 15:51:45soilmoisture25percent
4110bbbba929e5d1f190e42603d5343f005d2021-02-28 15:51:45dht11temp26.7degree
4111bbbba929e5d1f190e42603d5343f005d2021-02-28 15:51:45dht11humidity79percent
4112bbbba929e5d1f190e42603d5343f005d2021-02-28 15:56:48soilmoisture25percent
4113bbbba929e5d1f190e42603d5343f005d2021-02-28 15:56:48dht11temp26.7degree
4114bbbba929e5d1f190e42603d5343f005d2021-02-28 15:56:48dht11humidity78percent
4115bbbba929e5d1f190e42603d5343f005d2021-02-28 16:01:51soilmoisture25percent
4116bbbba929e5d1f190e42603d5343f005d2021-02-28 16:01:51dht11temp26.6degree
4117bbbba929e5d1f190e42603d5343f005d2021-02-28 16:01:52dht11humidity78percent
4118bbbba929e5d1f190e42603d5343f005d2021-02-28 16:06:54soilmoisture25percent
4119bbbba929e5d1f190e42603d5343f005d2021-02-28 16:06:54dht11temp26.6degree
4120bbbba929e5d1f190e42603d5343f005d2021-02-28 16:06:54dht11humidity78percent
4121bbbba929e5d1f190e42603d5343f005d2021-02-28 16:11:57soilmoisture25percent
4122bbbba929e5d1f190e42603d5343f005d2021-02-28 16:11:58dht11temp26.5degree
4123bbbba929e5d1f190e42603d5343f005d2021-02-28 16:11:58dht11humidity78percent
4124bbbba929e5d1f190e42603d5343f005d2021-02-28 16:17:00soilmoisture25percent
4125bbbba929e5d1f190e42603d5343f005d2021-02-28 16:17:00dht11temp26.4degree
4126bbbba929e5d1f190e42603d5343f005d2021-02-28 16:17:00dht11humidity78percent
4127bbbba929e5d1f190e42603d5343f005d2021-02-28 16:22:02soilmoisture25percent
4128bbbba929e5d1f190e42603d5343f005d2021-02-28 16:22:02dht11temp26.3degree
4129bbbba929e5d1f190e42603d5343f005d2021-02-28 16:22:03dht11humidity79percent
4130bbbba929e5d1f190e42603d5343f005d2021-02-28 16:27:05soilmoisture25percent
4131bbbba929e5d1f190e42603d5343f005d2021-02-28 16:27:05dht11temp26degree
4132bbbba929e5d1f190e42603d5343f005d2021-02-28 16:27:05dht11humidity79percent
4133bbbba929e5d1f190e42603d5343f005d2021-02-28 16:32:07soilmoisture25percent
4134bbbba929e5d1f190e42603d5343f005d2021-02-28 16:32:08dht11temp25.7degree
4135bbbba929e5d1f190e42603d5343f005d2021-02-28 16:32:08dht11humidity78percent
4136bbbba929e5d1f190e42603d5343f005d2021-02-28 16:37:10soilmoisture25percent
4137bbbba929e5d1f190e42603d5343f005d2021-02-28 16:37:10dht11temp25.5degree
4138bbbba929e5d1f190e42603d5343f005d2021-02-28 16:37:10dht11humidity79percent
4139bbbba929e5d1f190e42603d5343f005d2021-02-28 16:42:12soilmoisture25percent
4140bbbba929e5d1f190e42603d5343f005d2021-02-28 16:42:13dht11temp25.2degree
4141bbbba929e5d1f190e42603d5343f005d2021-02-28 16:42:13dht11humidity82percent
4142bbbba929e5d1f190e42603d5343f005d2021-02-28 16:47:15soilmoisture25percent
4143bbbba929e5d1f190e42603d5343f005d2021-02-28 16:47:15dht11temp24.9degree
4144bbbba929e5d1f190e42603d5343f005d2021-02-28 16:47:16dht11humidity84percent
4145bbbba929e5d1f190e42603d5343f005d2021-02-28 16:52:18soilmoisture25percent
4146bbbba929e5d1f190e42603d5343f005d2021-02-28 16:52:18dht11temp24.7degree
4147bbbba929e5d1f190e42603d5343f005d2021-02-28 16:52:18dht11humidity85percent
4148bbbba929e5d1f190e42603d5343f005d2021-02-28 16:57:20soilmoisture25percent
4149bbbba929e5d1f190e42603d5343f005d2021-02-28 16:57:21dht11temp24.4degree
4150bbbba929e5d1f190e42603d5343f005d2021-02-28 16:57:21dht11humidity86percent
4151bbbba929e5d1f190e42603d5343f005d2021-02-28 17:02:23soilmoisture25percent
4152bbbba929e5d1f190e42603d5343f005d2021-02-28 17:02:23dht11temp24.2degree
4153bbbba929e5d1f190e42603d5343f005d2021-02-28 17:02:24dht11humidity86percent
4154bbbba929e5d1f190e42603d5343f005d2021-02-28 17:07:26soilmoisture25percent
4155bbbba929e5d1f190e42603d5343f005d2021-02-28 17:07:26dht11temp24.1degree
4156bbbba929e5d1f190e42603d5343f005d2021-02-28 17:07:26dht11humidity87percent
4157bbbba929e5d1f190e42603d5343f005d2021-02-28 17:12:29soilmoisture25percent
4158bbbba929e5d1f190e42603d5343f005d2021-02-28 17:12:29dht11temp23.8degree
4159bbbba929e5d1f190e42603d5343f005d2021-02-28 17:12:29dht11humidity87percent
4160bbbba929e5d1f190e42603d5343f005d2021-02-28 17:17:31soilmoisture25percent
4161bbbba929e5d1f190e42603d5343f005d2021-02-28 17:17:31dht11temp23.6degree
4162bbbba929e5d1f190e42603d5343f005d2021-02-28 17:17:32dht11humidity88percent
4163bbbba929e5d1f190e42603d5343f005d2021-02-28 17:22:34soilmoisture25percent
4164bbbba929e5d1f190e42603d5343f005d2021-02-28 17:22:34dht11temp23.5degree
4165bbbba929e5d1f190e42603d5343f005d2021-02-28 17:22:34dht11humidity88percent
4166bbbba929e5d1f190e42603d5343f005d2021-02-28 17:27:36soilmoisture25percent
4167bbbba929e5d1f190e42603d5343f005d2021-02-28 17:27:36dht11temp23.4degree
4168bbbba929e5d1f190e42603d5343f005d2021-02-28 17:27:37dht11humidity88percent
4169bbbba929e5d1f190e42603d5343f005d2021-02-28 17:32:38soilmoisture26percent
4170bbbba929e5d1f190e42603d5343f005d2021-02-28 17:32:39dht11temp23.3degree
4171bbbba929e5d1f190e42603d5343f005d2021-02-28 17:32:39dht11humidity89percent
4172bbbba929e5d1f190e42603d5343f005d2021-02-28 17:37:41soilmoisture25percent
4173bbbba929e5d1f190e42603d5343f005d2021-02-28 17:37:41dht11temp23.2degree
4174bbbba929e5d1f190e42603d5343f005d2021-02-28 17:37:42dht11humidity90percent
4175bbbba929e5d1f190e42603d5343f005d2021-02-28 17:42:44soilmoisture25percent
4176bbbba929e5d1f190e42603d5343f005d2021-02-28 17:42:44dht11temp23.1degree
4177bbbba929e5d1f190e42603d5343f005d2021-02-28 17:42:44dht11humidity90percent
4178bbbba929e5d1f190e42603d5343f005d2021-02-28 17:47:46soilmoisture25percent
4179bbbba929e5d1f190e42603d5343f005d2021-02-28 17:47:46dht11temp23degree
4180bbbba929e5d1f190e42603d5343f005d2021-02-28 17:47:47dht11humidity90percent
4181bbbba929e5d1f190e42603d5343f005d2021-02-28 17:52:49soilmoisture25percent
4182bbbba929e5d1f190e42603d5343f005d2021-02-28 17:52:49dht11temp22.9degree
4183bbbba929e5d1f190e42603d5343f005d2021-02-28 17:52:49dht11humidity90percent
4184bbbba929e5d1f190e42603d5343f005d2021-02-28 17:57:51soilmoisture26percent
4185bbbba929e5d1f190e42603d5343f005d2021-02-28 17:57:52dht11temp22.9degree
4186bbbba929e5d1f190e42603d5343f005d2021-02-28 17:57:52dht11humidity90percent
4187bbbba929e5d1f190e42603d5343f005d2021-02-28 18:02:55soilmoisture25percent
4188bbbba929e5d1f190e42603d5343f005d2021-02-28 18:02:55dht11temp22.8degree
4189bbbba929e5d1f190e42603d5343f005d2021-02-28 18:02:55dht11humidity91percent
4190bbbba929e5d1f190e42603d5343f005d2021-02-28 18:07:57soilmoisture26percent
4191bbbba929e5d1f190e42603d5343f005d2021-02-28 18:07:57dht11temp22.8degree
4192bbbba929e5d1f190e42603d5343f005d2021-02-28 18:07:58dht11humidity92percent
4193bbbba929e5d1f190e42603d5343f005d2021-02-28 18:13:00soilmoisture26percent
4194bbbba929e5d1f190e42603d5343f005d2021-02-28 18:13:00dht11temp22.7degree
4195bbbba929e5d1f190e42603d5343f005d2021-02-28 18:13:01dht11humidity92percent
4196bbbba929e5d1f190e42603d5343f005d2021-02-28 18:18:03soilmoisture26percent
4197bbbba929e5d1f190e42603d5343f005d2021-02-28 18:18:03dht11temp22.7degree
4198bbbba929e5d1f190e42603d5343f005d2021-02-28 18:18:03dht11humidity91percent
4199bbbba929e5d1f190e42603d5343f005d2021-02-28 18:23:06soilmoisture26percent
4200bbbba929e5d1f190e42603d5343f005d2021-02-28 18:23:06dht11temp22.6degree
4201bbbba929e5d1f190e42603d5343f005d2021-02-28 18:23:06dht11humidity92percent
4202bbbba929e5d1f190e42603d5343f005d2021-02-28 18:28:09soilmoisture26percent
4203bbbba929e5d1f190e42603d5343f005d2021-02-28 18:28:09dht11temp22.6degree
4204bbbba929e5d1f190e42603d5343f005d2021-02-28 18:28:09dht11humidity91percent
4205bbbba929e5d1f190e42603d5343f005d2021-02-28 18:33:11soilmoisture26percent
4206bbbba929e5d1f190e42603d5343f005d2021-02-28 18:33:12dht11temp22.6degree
4207bbbba929e5d1f190e42603d5343f005d2021-02-28 18:33:12dht11humidity91percent
4208bbbba929e5d1f190e42603d5343f005d2021-02-28 18:38:14soilmoisture26percent
4209bbbba929e5d1f190e42603d5343f005d2021-02-28 18:38:14dht11temp22.5degree
4210bbbba929e5d1f190e42603d5343f005d2021-02-28 18:38:14dht11humidity91percent
4211bbbba929e5d1f190e42603d5343f005d2021-02-28 18:43:17soilmoisture26percent
4212bbbba929e5d1f190e42603d5343f005d2021-02-28 18:43:17dht11temp22.5degree
4213bbbba929e5d1f190e42603d5343f005d2021-02-28 18:43:17dht11humidity91percent
4214bbbba929e5d1f190e42603d5343f005d2021-02-28 18:48:19soilmoisture26percent
4215bbbba929e5d1f190e42603d5343f005d2021-02-28 18:48:20dht11temp22.4degree
4216bbbba929e5d1f190e42603d5343f005d2021-02-28 18:48:20dht11humidity91percent
4217bbbba929e5d1f190e42603d5343f005d2021-02-28 18:53:22soilmoisture26percent
4218bbbba929e5d1f190e42603d5343f005d2021-02-28 18:53:22dht11temp22.4degree
4219bbbba929e5d1f190e42603d5343f005d2021-02-28 18:53:23dht11humidity91percent
4220bbbba929e5d1f190e42603d5343f005d2021-02-28 18:58:25soilmoisture26percent
4221bbbba929e5d1f190e42603d5343f005d2021-02-28 18:58:25dht11temp22.4degree
4222bbbba929e5d1f190e42603d5343f005d2021-02-28 18:58:25dht11humidity91percent
4223bbbba929e5d1f190e42603d5343f005d2021-02-28 19:03:28soilmoisture26percent
4224bbbba929e5d1f190e42603d5343f005d2021-02-28 19:03:28dht11temp22.3degree
4225bbbba929e5d1f190e42603d5343f005d2021-02-28 19:03:28dht11humidity91percent
4226bbbba929e5d1f190e42603d5343f005d2021-02-28 19:08:30soilmoisture26percent
4227bbbba929e5d1f190e42603d5343f005d2021-02-28 19:08:31dht11temp22.3degree
4228bbbba929e5d1f190e42603d5343f005d2021-02-28 19:08:31dht11humidity91percent
4229bbbba929e5d1f190e42603d5343f005d2021-02-28 19:13:33soilmoisture26percent
4230bbbba929e5d1f190e42603d5343f005d2021-02-28 19:13:33dht11temp22.2degree
4231bbbba929e5d1f190e42603d5343f005d2021-02-28 19:13:34dht11humidity91percent
4232bbbba929e5d1f190e42603d5343f005d2021-02-28 19:18:36soilmoisture26percent
4233bbbba929e5d1f190e42603d5343f005d2021-02-28 19:18:36dht11temp22.2degree
4234bbbba929e5d1f190e42603d5343f005d2021-02-28 19:18:36dht11humidity91percent
4235bbbba929e5d1f190e42603d5343f005d2021-02-28 19:23:38soilmoisture26percent
4236bbbba929e5d1f190e42603d5343f005d2021-02-28 19:23:38dht11temp22.2degree
4237bbbba929e5d1f190e42603d5343f005d2021-02-28 19:23:39dht11humidity91percent
4238bbbba929e5d1f190e42603d5343f005d2021-02-28 19:28:40soilmoisture26percent
4239bbbba929e5d1f190e42603d5343f005d2021-02-28 19:28:41dht11temp22.2degree
4240bbbba929e5d1f190e42603d5343f005d2021-02-28 19:28:41dht11humidity92percent
4241bbbba929e5d1f190e42603d5343f005d2021-02-28 19:33:43soilmoisture26percent
4242bbbba929e5d1f190e42603d5343f005d2021-02-28 19:33:43dht11temp22.1degree
4243bbbba929e5d1f190e42603d5343f005d2021-02-28 19:33:43dht11humidity92percent
4244bbbba929e5d1f190e42603d5343f005d2021-02-28 19:38:45soilmoisture26percent
4245bbbba929e5d1f190e42603d5343f005d2021-02-28 19:38:46dht11temp22.1degree
4246bbbba929e5d1f190e42603d5343f005d2021-02-28 19:38:46dht11humidity92percent
4247bbbba929e5d1f190e42603d5343f005d2021-02-28 19:43:48soilmoisture26percent
4248bbbba929e5d1f190e42603d5343f005d2021-02-28 19:43:48dht11temp22.1degree
4249bbbba929e5d1f190e42603d5343f005d2021-02-28 19:43:48dht11humidity92percent
4250bbbba929e5d1f190e42603d5343f005d2021-02-28 19:48:50soilmoisture26percent
4251bbbba929e5d1f190e42603d5343f005d2021-02-28 19:48:50dht11temp22.1degree
4252bbbba929e5d1f190e42603d5343f005d2021-02-28 19:48:51dht11humidity92percent
4253bbbba929e5d1f190e42603d5343f005d2021-02-28 19:53:53soilmoisture26percent
4254bbbba929e5d1f190e42603d5343f005d2021-02-28 19:53:53dht11temp22.1degree
4255bbbba929e5d1f190e42603d5343f005d2021-02-28 19:53:53dht11humidity92percent
4256bbbba929e5d1f190e42603d5343f005d2021-02-28 19:58:56soilmoisture26percent
4257bbbba929e5d1f190e42603d5343f005d2021-02-28 19:58:56dht11temp22.1degree
4258bbbba929e5d1f190e42603d5343f005d2021-02-28 19:58:56dht11humidity92percent
4259bbbba929e5d1f190e42603d5343f005d2021-02-28 20:03:58soilmoisture26percent
4260bbbba929e5d1f190e42603d5343f005d2021-02-28 20:03:58dht11temp22.1degree
4261bbbba929e5d1f190e42603d5343f005d2021-02-28 20:03:59dht11humidity92percent
4262bbbba929e5d1f190e42603d5343f005d2021-02-28 20:09:00soilmoisture26percent
4263bbbba929e5d1f190e42603d5343f005d2021-02-28 20:09:01dht11temp22degree
4264bbbba929e5d1f190e42603d5343f005d2021-02-28 20:09:01dht11humidity92percent
4265bbbba929e5d1f190e42603d5343f005d2021-02-28 20:14:03soilmoisture26percent
4266bbbba929e5d1f190e42603d5343f005d2021-02-28 20:14:03dht11temp22degree
4267bbbba929e5d1f190e42603d5343f005d2021-02-28 20:14:03dht11humidity92percent
4268bbbba929e5d1f190e42603d5343f005d2021-02-28 20:19:05soilmoisture26percent
4269bbbba929e5d1f190e42603d5343f005d2021-02-28 20:19:06dht11temp22degree
4270bbbba929e5d1f190e42603d5343f005d2021-02-28 20:19:06dht11humidity92percent
4271bbbba929e5d1f190e42603d5343f005d2021-02-28 20:24:08soilmoisture26percent
4272bbbba929e5d1f190e42603d5343f005d2021-02-28 20:24:08dht11temp22degree
4273bbbba929e5d1f190e42603d5343f005d2021-02-28 20:24:09dht11humidity92percent
4274bbbba929e5d1f190e42603d5343f005d2021-02-28 20:29:11soilmoisture26percent
4275bbbba929e5d1f190e42603d5343f005d2021-02-28 20:29:11dht11temp21.9degree
4276bbbba929e5d1f190e42603d5343f005d2021-02-28 20:29:12dht11humidity92percent
4277bbbba929e5d1f190e42603d5343f005d2021-02-28 20:34:14soilmoisture26percent
4278bbbba929e5d1f190e42603d5343f005d2021-02-28 20:34:14dht11temp21.9degree
4279bbbba929e5d1f190e42603d5343f005d2021-02-28 20:34:15dht11humidity91percent
4280bbbba929e5d1f190e42603d5343f005d2021-02-28 20:39:17soilmoisture26percent
4281bbbba929e5d1f190e42603d5343f005d2021-02-28 20:39:17dht11temp21.8degree
4282bbbba929e5d1f190e42603d5343f005d2021-02-28 20:39:17dht11humidity92percent
4283bbbba929e5d1f190e42603d5343f005d2021-02-28 20:44:20soilmoisture26percent
4284bbbba929e5d1f190e42603d5343f005d2021-02-28 20:44:20dht11temp21.8degree
4285bbbba929e5d1f190e42603d5343f005d2021-02-28 20:44:20dht11humidity92percent
4286bbbba929e5d1f190e42603d5343f005d2021-02-28 20:49:22soilmoisture26percent
4287bbbba929e5d1f190e42603d5343f005d2021-02-28 20:49:23dht11temp21.8degree
4288bbbba929e5d1f190e42603d5343f005d2021-02-28 20:49:23dht11humidity92percent
4289bbbba929e5d1f190e42603d5343f005d2021-02-28 20:54:25soilmoisture26percent
4290bbbba929e5d1f190e42603d5343f005d2021-02-28 20:54:25dht11temp21.8degree
4291bbbba929e5d1f190e42603d5343f005d2021-02-28 20:54:25dht11humidity92percent
4292bbbba929e5d1f190e42603d5343f005d2021-02-28 20:59:27soilmoisture26percent
4293bbbba929e5d1f190e42603d5343f005d2021-02-28 20:59:28dht11temp21.9degree
4294bbbba929e5d1f190e42603d5343f005d2021-02-28 20:59:28dht11humidity93percent
4295bbbba929e5d1f190e42603d5343f005d2021-02-28 21:04:30soilmoisture26percent
4296bbbba929e5d1f190e42603d5343f005d2021-02-28 21:04:30dht11temp22degree
4297bbbba929e5d1f190e42603d5343f005d2021-02-28 21:04:31dht11humidity94percent
4298bbbba929e5d1f190e42603d5343f005d2021-02-28 21:09:33soilmoisture26percent
4299bbbba929e5d1f190e42603d5343f005d2021-02-28 21:09:33dht11temp22.1degree
4300bbbba929e5d1f190e42603d5343f005d2021-02-28 21:09:34dht11humidity94percent
4301bbbba929e5d1f190e42603d5343f005d2021-02-28 21:14:35soilmoisture26percent
4302bbbba929e5d1f190e42603d5343f005d2021-02-28 21:14:36dht11temp22.1degree
4303bbbba929e5d1f190e42603d5343f005d2021-02-28 21:14:36dht11humidity94percent
4304bbbba929e5d1f190e42603d5343f005d2021-02-28 21:19:38soilmoisture26percent
4305bbbba929e5d1f190e42603d5343f005d2021-02-28 21:19:39dht11temp22.2degree
4306bbbba929e5d1f190e42603d5343f005d2021-02-28 21:19:39dht11humidity94percent
4307bbbba929e5d1f190e42603d5343f005d2021-02-28 21:24:41soilmoisture26percent
4308bbbba929e5d1f190e42603d5343f005d2021-02-28 21:24:41dht11temp22.2degree
4309bbbba929e5d1f190e42603d5343f005d2021-02-28 21:24:41dht11humidity94percent
4310bbbba929e5d1f190e42603d5343f005d2021-02-28 21:29:44soilmoisture26percent
4311bbbba929e5d1f190e42603d5343f005d2021-02-28 21:29:44dht11temp22.3degree
4312bbbba929e5d1f190e42603d5343f005d2021-02-28 21:29:44dht11humidity95percent
4313bbbba929e5d1f190e42603d5343f005d2021-02-28 21:34:46soilmoisture26percent
4314bbbba929e5d1f190e42603d5343f005d2021-02-28 21:34:46dht11temp22.3degree
4315bbbba929e5d1f190e42603d5343f005d2021-02-28 21:34:46dht11humidity95percent
4316bbbba929e5d1f190e42603d5343f005d2021-02-28 21:39:49soilmoisture26percent
4317bbbba929e5d1f190e42603d5343f005d2021-02-28 21:39:49dht11temp22.2degree
4318bbbba929e5d1f190e42603d5343f005d2021-02-28 21:39:49dht11humidity95percent
4319bbbba929e5d1f190e42603d5343f005d2021-02-28 21:44:51soilmoisture26percent
4320bbbba929e5d1f190e42603d5343f005d2021-02-28 21:44:52dht11temp22.2degree
4321bbbba929e5d1f190e42603d5343f005d2021-02-28 21:44:52dht11humidity95percent
4322bbbba929e5d1f190e42603d5343f005d2021-02-28 21:49:54soilmoisture26percent
4323bbbba929e5d1f190e42603d5343f005d2021-02-28 21:49:54dht11temp22.2degree
4324bbbba929e5d1f190e42603d5343f005d2021-02-28 21:49:54dht11humidity94percent
4325bbbba929e5d1f190e42603d5343f005d2021-02-28 21:54:56soilmoisture26percent
4326bbbba929e5d1f190e42603d5343f005d2021-02-28 21:54:56dht11temp22.1degree
4327bbbba929e5d1f190e42603d5343f005d2021-02-28 21:54:57dht11humidity94percent
4328bbbba929e5d1f190e42603d5343f005d2021-02-28 21:59:59soilmoisture26percent
4329bbbba929e5d1f190e42603d5343f005d2021-02-28 21:59:59dht11temp22.1degree
4330bbbba929e5d1f190e42603d5343f005d2021-02-28 21:59:59dht11humidity94percent
4331bbbba929e5d1f190e42603d5343f005d2021-02-28 22:05:02soilmoisture26percent
4332bbbba929e5d1f190e42603d5343f005d2021-02-28 22:05:02dht11temp22.1degree
4333bbbba929e5d1f190e42603d5343f005d2021-02-28 22:05:02dht11humidity94percent
4334bbbba929e5d1f190e42603d5343f005d2021-02-28 22:10:04soilmoisture100percent
4335bbbba929e5d1f190e42603d5343f005d2021-02-28 22:10:04dht11temp0degree
4336bbbba929e5d1f190e42603d5343f005d2021-02-28 22:10:05dht11humidity0percent
4337bbbba929e5d1f190e42603d5343f005d2021-02-28 22:15:07soilmoisture100percent
4338bbbba929e5d1f190e42603d5343f005d2021-02-28 22:15:07dht11temp0degree
4339bbbba929e5d1f190e42603d5343f005d2021-02-28 22:15:07dht11humidity0percent
4340bbbba929e5d1f190e42603d5343f005d2021-02-28 22:20:09soilmoisture100percent
4341bbbba929e5d1f190e42603d5343f005d2021-02-28 22:20:09dht11temp0degree
4342bbbba929e5d1f190e42603d5343f005d2021-02-28 22:20:10dht11humidity0percent
4343bbbba929e5d1f190e42603d5343f005d2021-02-28 22:25:12soilmoisture100percent
4344bbbba929e5d1f190e42603d5343f005d2021-02-28 22:25:12dht11temp0degree
4345bbbba929e5d1f190e42603d5343f005d2021-02-28 22:25:12dht11humidity0percent
4346bbbba929e5d1f190e42603d5343f005d2021-02-28 22:30:14soilmoisture100percent
4347bbbba929e5d1f190e42603d5343f005d2021-02-28 22:30:14dht11temp0degree
4348bbbba929e5d1f190e42603d5343f005d2021-02-28 22:30:15dht11humidity0percent
4349bbbba929e5d1f190e42603d5343f005d2021-02-28 22:35:16soilmoisture100percent
4350bbbba929e5d1f190e42603d5343f005d2021-02-28 22:35:17dht11temp0degree
4351bbbba929e5d1f190e42603d5343f005d2021-02-28 22:35:17dht11humidity0percent
4352bbbba929e5d1f190e42603d5343f005d2021-02-28 22:40:19soilmoisture100percent
4353bbbba929e5d1f190e42603d5343f005d2021-02-28 22:40:19dht11temp0degree
4354bbbba929e5d1f190e42603d5343f005d2021-02-28 22:40:19dht11humidity0percent
4355bbbba929e5d1f190e42603d5343f005d2021-02-28 22:45:21soilmoisture100percent
4356bbbba929e5d1f190e42603d5343f005d2021-02-28 22:45:22dht11temp0degree
4357bbbba929e5d1f190e42603d5343f005d2021-02-28 22:45:22dht11humidity0percent
4358bbbba929e5d1f190e42603d5343f005d2021-02-28 22:50:24soilmoisture100percent
4359bbbba929e5d1f190e42603d5343f005d2021-02-28 22:50:24dht11temp0degree
4360bbbba929e5d1f190e42603d5343f005d2021-02-28 22:50:24dht11humidity0percent
4361bbbba929e5d1f190e42603d5343f005d2021-02-28 22:55:27soilmoisture100percent
4362bbbba929e5d1f190e42603d5343f005d2021-02-28 22:55:28dht11temp0degree
4363bbbba929e5d1f190e42603d5343f005d2021-02-28 22:55:28dht11humidity0percent
4364bbbba929e5d1f190e42603d5343f005d2021-02-28 23:00:30soilmoisture100percent
4365bbbba929e5d1f190e42603d5343f005d2021-02-28 23:00:30dht11temp0degree
4366bbbba929e5d1f190e42603d5343f005d2021-02-28 23:00:31dht11humidity0percent
4367bbbba929e5d1f190e42603d5343f005d2021-02-28 23:05:33soilmoisture100percent
4368bbbba929e5d1f190e42603d5343f005d2021-02-28 23:05:33dht11temp0degree
4369bbbba929e5d1f190e42603d5343f005d2021-02-28 23:05:33dht11humidity0percent
4370bbbba929e5d1f190e42603d5343f005d2021-02-28 23:10:35soilmoisture100percent
4371bbbba929e5d1f190e42603d5343f005d2021-02-28 23:10:35dht11temp0degree
4372bbbba929e5d1f190e42603d5343f005d2021-02-28 23:10:36dht11humidity0percent
4373bbbba929e5d1f190e42603d5343f005d2021-02-28 23:15:37soilmoisture100percent
4374bbbba929e5d1f190e42603d5343f005d2021-02-28 23:15:38dht11temp0degree
4375bbbba929e5d1f190e42603d5343f005d2021-02-28 23:15:38dht11humidity0percent
4376bbbba929e5d1f190e42603d5343f005d2021-02-28 23:20:40soilmoisture100percent
4377bbbba929e5d1f190e42603d5343f005d2021-02-28 23:20:40dht11temp0degree
4378bbbba929e5d1f190e42603d5343f005d2021-02-28 23:20:40dht11humidity0percent
4379bbbba929e5d1f190e42603d5343f005d2021-02-28 23:25:42soilmoisture100percent
4380bbbba929e5d1f190e42603d5343f005d2021-02-28 23:25:43dht11temp0degree
4381bbbba929e5d1f190e42603d5343f005d2021-02-28 23:25:43dht11humidity0percent
4382bbbba929e5d1f190e42603d5343f005d2021-02-28 23:30:46soilmoisture100percent
4383bbbba929e5d1f190e42603d5343f005d2021-02-28 23:30:46dht11temp0degree
4384bbbba929e5d1f190e42603d5343f005d2021-02-28 23:30:46dht11humidity0percent
4385bbbba929e5d1f190e42603d5343f005d2021-02-28 23:35:48soilmoisture100percent
4386bbbba929e5d1f190e42603d5343f005d2021-02-28 23:35:48dht11temp0degree
4387bbbba929e5d1f190e42603d5343f005d2021-02-28 23:35:49dht11humidity0percent
4388bbbba929e5d1f190e42603d5343f005d2021-02-28 23:40:50soilmoisture100percent
4389bbbba929e5d1f190e42603d5343f005d2021-02-28 23:40:51dht11temp0degree
4390bbbba929e5d1f190e42603d5343f005d2021-02-28 23:40:51dht11humidity0percent
4391bbbba929e5d1f190e42603d5343f005d2021-02-28 23:45:53soilmoisture100percent
4392bbbba929e5d1f190e42603d5343f005d2021-02-28 23:45:53dht11temp0degree
4393bbbba929e5d1f190e42603d5343f005d2021-02-28 23:45:53dht11humidity0percent
4394bbbba929e5d1f190e42603d5343f005d2021-02-28 23:50:56soilmoisture100percent
4395bbbba929e5d1f190e42603d5343f005d2021-02-28 23:50:56dht11temp0degree
4396bbbba929e5d1f190e42603d5343f005d2021-02-28 23:50:56dht11humidity0percent
4397bbbba929e5d1f190e42603d5343f005d2021-02-28 23:55:58soilmoisture100percent
4398bbbba929e5d1f190e42603d5343f005d2021-02-28 23:55:58dht11temp0degree
4399bbbba929e5d1f190e42603d5343f005d2021-02-28 23:55:59dht11humidity0percent
4400bbbba929e5d1f190e42603d5343f005d2021-03-01 00:01:00soilmoisture100percent
4401bbbba929e5d1f190e42603d5343f005d2021-03-01 00:01:00dht11temp0degree
4402bbbba929e5d1f190e42603d5343f005d2021-03-01 00:01:01dht11humidity0percent
4403bbbba929e5d1f190e42603d5343f005d2021-03-01 00:06:03soilmoisture100percent
4404bbbba929e5d1f190e42603d5343f005d2021-03-01 00:06:03dht11temp0degree
4405bbbba929e5d1f190e42603d5343f005d2021-03-01 00:06:03dht11humidity0percent
4406bbbba929e5d1f190e42603d5343f005d2021-03-01 00:11:05soilmoisture100percent
4407bbbba929e5d1f190e42603d5343f005d2021-03-01 00:11:05dht11temp0degree
4408bbbba929e5d1f190e42603d5343f005d2021-03-01 00:11:06dht11humidity0percent
4409bbbba929e5d1f190e42603d5343f005d2021-03-01 00:16:07soilmoisture100percent
4410bbbba929e5d1f190e42603d5343f005d2021-03-01 00:16:08dht11temp0degree
4411bbbba929e5d1f190e42603d5343f005d2021-03-01 00:16:08dht11humidity0percent
4412bbbba929e5d1f190e42603d5343f005d2021-03-01 00:21:10soilmoisture100percent
4413bbbba929e5d1f190e42603d5343f005d2021-03-01 00:21:10dht11temp0degree
4414bbbba929e5d1f190e42603d5343f005d2021-03-01 00:21:10dht11humidity0percent
4415bbbba929e5d1f190e42603d5343f005d2021-03-01 00:26:12soilmoisture100percent
4416bbbba929e5d1f190e42603d5343f005d2021-03-01 00:26:13dht11temp0degree
4417bbbba929e5d1f190e42603d5343f005d2021-03-01 00:26:13dht11humidity0percent
4418bbbba929e5d1f190e42603d5343f005d2021-03-01 00:31:15soilmoisture100percent
4419bbbba929e5d1f190e42603d5343f005d2021-03-01 00:31:15dht11temp0degree
4420bbbba929e5d1f190e42603d5343f005d2021-03-01 00:31:15dht11humidity0percent
4421bbbba929e5d1f190e42603d5343f005d2021-03-01 00:36:17soilmoisture100percent
4422bbbba929e5d1f190e42603d5343f005d2021-03-01 00:36:17dht11temp0degree
4423bbbba929e5d1f190e42603d5343f005d2021-03-01 00:36:18dht11humidity0percent
4424bbbba929e5d1f190e42603d5343f005d2021-03-01 00:41:20soilmoisture100percent
4425bbbba929e5d1f190e42603d5343f005d2021-03-01 00:41:20dht11temp0degree
4426bbbba929e5d1f190e42603d5343f005d2021-03-01 00:41:20dht11humidity0percent
4427bbbba929e5d1f190e42603d5343f005d2021-03-01 00:46:22soilmoisture100percent
4428bbbba929e5d1f190e42603d5343f005d2021-03-01 00:46:22dht11temp0degree
4429bbbba929e5d1f190e42603d5343f005d2021-03-01 00:46:23dht11humidity0percent
4430bbbba929e5d1f190e42603d5343f005d2021-03-01 00:51:24soilmoisture100percent
4431bbbba929e5d1f190e42603d5343f005d2021-03-01 00:51:25dht11temp0degree
4432bbbba929e5d1f190e42603d5343f005d2021-03-01 00:51:25dht11humidity0percent
4433bbbba929e5d1f190e42603d5343f005d2021-03-01 00:56:27soilmoisture100percent
4434bbbba929e5d1f190e42603d5343f005d2021-03-01 00:56:27dht11temp0degree
4435bbbba929e5d1f190e42603d5343f005d2021-03-01 00:56:27dht11humidity0percent
4436bbbba929e5d1f190e42603d5343f005d2021-03-01 01:01:29soilmoisture100percent
4437bbbba929e5d1f190e42603d5343f005d2021-03-01 01:01:30dht11temp0degree
4438bbbba929e5d1f190e42603d5343f005d2021-03-01 01:01:30dht11humidity0percent
4439bbbba929e5d1f190e42603d5343f005d2021-03-01 01:06:32soilmoisture100percent
4440bbbba929e5d1f190e42603d5343f005d2021-03-01 01:06:32dht11temp0degree
4441bbbba929e5d1f190e42603d5343f005d2021-03-01 01:06:32dht11humidity0percent
4442bbbba929e5d1f190e42603d5343f005d2021-03-01 01:11:34soilmoisture100percent
4443bbbba929e5d1f190e42603d5343f005d2021-03-01 01:11:34dht11temp0degree
4444bbbba929e5d1f190e42603d5343f005d2021-03-01 01:11:35dht11humidity0percent
4445bbbba929e5d1f190e42603d5343f005d2021-03-01 01:16:37soilmoisture100percent
4446bbbba929e5d1f190e42603d5343f005d2021-03-01 01:16:37dht11temp0degree
4447bbbba929e5d1f190e42603d5343f005d2021-03-01 01:16:37dht11humidity0percent
4448bbbba929e5d1f190e42603d5343f005d2021-03-01 01:21:39soilmoisture100percent
4449bbbba929e5d1f190e42603d5343f005d2021-03-01 01:21:39dht11temp0degree
4450bbbba929e5d1f190e42603d5343f005d2021-03-01 01:21:39dht11humidity0percent
4451bbbba929e5d1f190e42603d5343f005d2021-03-01 01:26:41soilmoisture100percent
4452bbbba929e5d1f190e42603d5343f005d2021-03-01 01:26:41dht11temp0degree
4453bbbba929e5d1f190e42603d5343f005d2021-03-01 01:26:42dht11humidity0percent
4454bbbba929e5d1f190e42603d5343f005d2021-03-01 01:31:44soilmoisture100percent
4455bbbba929e5d1f190e42603d5343f005d2021-03-01 01:31:44dht11temp0degree
4456bbbba929e5d1f190e42603d5343f005d2021-03-01 01:31:44dht11humidity0percent
4457bbbba929e5d1f190e42603d5343f005d2021-03-01 01:36:46soilmoisture100percent
4458bbbba929e5d1f190e42603d5343f005d2021-03-01 01:36:46dht11temp0degree
4459bbbba929e5d1f190e42603d5343f005d2021-03-01 01:36:46dht11humidity0percent
4460bbbba929e5d1f190e42603d5343f005d2021-03-01 01:41:48soilmoisture100percent
4461bbbba929e5d1f190e42603d5343f005d2021-03-01 01:41:49dht11temp0degree
4462bbbba929e5d1f190e42603d5343f005d2021-03-01 01:41:49dht11humidity0percent
4463bbbba929e5d1f190e42603d5343f005d2021-03-01 01:46:51soilmoisture100percent
4464bbbba929e5d1f190e42603d5343f005d2021-03-01 01:46:51dht11temp0degree
4465bbbba929e5d1f190e42603d5343f005d2021-03-01 01:46:51dht11humidity0percent
4466bbbba929e5d1f190e42603d5343f005d2021-03-01 01:51:53soilmoisture100percent
4467bbbba929e5d1f190e42603d5343f005d2021-03-01 01:51:53dht11temp0degree
4468bbbba929e5d1f190e42603d5343f005d2021-03-01 01:51:53dht11humidity0percent
4469bbbba929e5d1f190e42603d5343f005d2021-03-01 01:56:55soilmoisture100percent
4470bbbba929e5d1f190e42603d5343f005d2021-03-01 01:56:56dht11temp0degree
4471bbbba929e5d1f190e42603d5343f005d2021-03-01 01:56:56dht11humidity0percent
4472bbbba929e5d1f190e42603d5343f005d2021-03-01 02:01:58soilmoisture100percent
4473bbbba929e5d1f190e42603d5343f005d2021-03-01 02:01:58dht11temp0degree
4474bbbba929e5d1f190e42603d5343f005d2021-03-01 02:01:59dht11humidity0percent
4475bbbba929e5d1f190e42603d5343f005d2021-03-01 02:07:00soilmoisture100percent
4476bbbba929e5d1f190e42603d5343f005d2021-03-01 02:07:01dht11temp0degree
4477bbbba929e5d1f190e42603d5343f005d2021-03-01 02:07:01dht11humidity0percent
4478bbbba929e5d1f190e42603d5343f005d2021-03-01 02:12:03soilmoisture100percent
4479bbbba929e5d1f190e42603d5343f005d2021-03-01 02:12:03dht11temp0degree
4480bbbba929e5d1f190e42603d5343f005d2021-03-01 02:12:03dht11humidity0percent
4481bbbba929e5d1f190e42603d5343f005d2021-03-01 02:15:36soilmoisture23percent
4482bbbba929e5d1f190e42603d5343f005d2021-03-01 02:15:36dht11temp0degree
4483bbbba929e5d1f190e42603d5343f005d2021-03-01 02:15:36dht11humidity0percent
4484bbbba929e5d1f190e42603d5343f005d2021-03-01 02:20:38soilmoisture10percent
4485bbbba929e5d1f190e42603d5343f005d2021-03-01 02:20:39dht11temp24.1degree
4486bbbba929e5d1f190e42603d5343f005d2021-03-01 02:20:39dht11humidity68percent
4487bbbba929e5d1f190e42603d5343f005d2021-03-01 02:25:41soilmoisture10percent
4488bbbba929e5d1f190e42603d5343f005d2021-03-01 02:25:41dht11temp23.4degree
4489bbbba929e5d1f190e42603d5343f005d2021-03-01 02:25:41dht11humidity79percent
4490bbbba929e5d1f190e42603d5343f005d2021-03-01 02:30:43soilmoisture10percent
4491bbbba929e5d1f190e42603d5343f005d2021-03-01 02:30:43dht11temp22.5degree
4492bbbba929e5d1f190e42603d5343f005d2021-03-01 02:30:44dht11humidity84percent
4493bbbba929e5d1f190e42603d5343f005d2021-03-01 02:35:46soilmoisture10percent
4494bbbba929e5d1f190e42603d5343f005d2021-03-01 02:35:46dht11temp22.1degree
4495bbbba929e5d1f190e42603d5343f005d2021-03-01 02:35:46dht11humidity88percent
4496bbbba929e5d1f190e42603d5343f005d2021-03-01 02:40:48soilmoisture10percent
4497bbbba929e5d1f190e42603d5343f005d2021-03-01 02:40:48dht11temp21.9degree
4498bbbba929e5d1f190e42603d5343f005d2021-03-01 02:40:48dht11humidity88percent
4499bbbba929e5d1f190e42603d5343f005d2021-03-01 02:45:50soilmoisture10percent
4500bbbba929e5d1f190e42603d5343f005d2021-03-01 02:45:51dht11temp21.7degree
4501bbbba929e5d1f190e42603d5343f005d2021-03-01 02:45:51dht11humidity90percent
4502bbbba929e5d1f190e42603d5343f005d2021-03-01 02:50:52soilmoisture10percent
4503bbbba929e5d1f190e42603d5343f005d2021-03-01 02:50:53dht11temp21.6degree
4504bbbba929e5d1f190e42603d5343f005d2021-03-01 02:50:53dht11humidity90percent
4505bbbba929e5d1f190e42603d5343f005d2021-03-01 02:55:55soilmoisture10percent
4506bbbba929e5d1f190e42603d5343f005d2021-03-01 02:55:55dht11temp21.6degree
4507bbbba929e5d1f190e42603d5343f005d2021-03-01 02:55:55dht11humidity91percent
4508bbbba929e5d1f190e42603d5343f005d2021-03-01 03:00:58soilmoisture10percent
4509bbbba929e5d1f190e42603d5343f005d2021-03-01 03:00:58dht11temp21.6degree
4510bbbba929e5d1f190e42603d5343f005d2021-03-01 03:00:58dht11humidity91percent
4511bbbba929e5d1f190e42603d5343f005d2021-03-01 03:06:00soilmoisture10percent
4512bbbba929e5d1f190e42603d5343f005d2021-03-01 03:06:00dht11temp21.5degree
4513bbbba929e5d1f190e42603d5343f005d2021-03-01 03:06:00dht11humidity91percent
4514bbbba929e5d1f190e42603d5343f005d2021-03-01 03:11:02soilmoisture10percent
4515bbbba929e5d1f190e42603d5343f005d2021-03-01 03:11:03dht11temp21.4degree
4516bbbba929e5d1f190e42603d5343f005d2021-03-01 03:11:03dht11humidity91percent
4517bbbba929e5d1f190e42603d5343f005d2021-03-01 03:16:04soilmoisture10percent
4518bbbba929e5d1f190e42603d5343f005d2021-03-01 03:16:05dht11temp21.3degree
4519bbbba929e5d1f190e42603d5343f005d2021-03-01 03:16:05dht11humidity91percent
4520bbbba929e5d1f190e42603d5343f005d2021-03-01 03:21:07soilmoisture10percent
4521bbbba929e5d1f190e42603d5343f005d2021-03-01 03:21:07dht11temp21.2degree
4522bbbba929e5d1f190e42603d5343f005d2021-03-01 03:21:07dht11humidity91percent
4523bbbba929e5d1f190e42603d5343f005d2021-03-01 03:26:09soilmoisture10percent
4524bbbba929e5d1f190e42603d5343f005d2021-03-01 03:26:09dht11temp21.2degree
4525bbbba929e5d1f190e42603d5343f005d2021-03-01 03:26:10dht11humidity91percent
4526bbbba929e5d1f190e42603d5343f005d2021-03-01 03:31:11soilmoisture10percent
4527bbbba929e5d1f190e42603d5343f005d2021-03-01 03:31:12dht11temp21.1degree
4528bbbba929e5d1f190e42603d5343f005d2021-03-01 03:31:12dht11humidity91percent
4529bbbba929e5d1f190e42603d5343f005d2021-03-01 03:36:14soilmoisture10percent
4530bbbba929e5d1f190e42603d5343f005d2021-03-01 03:36:14dht11temp21.1degree
4531bbbba929e5d1f190e42603d5343f005d2021-03-01 03:36:17dht11humidity92percent
4532bbbba929e5d1f190e42603d5343f005d2021-03-01 03:41:19soilmoisture10percent
4533bbbba929e5d1f190e42603d5343f005d2021-03-01 03:41:19dht11temp21degree
4534bbbba929e5d1f190e42603d5343f005d2021-03-01 03:41:20dht11humidity92percent
4535bbbba929e5d1f190e42603d5343f005d2021-03-01 03:46:21soilmoisture10percent
4536bbbba929e5d1f190e42603d5343f005d2021-03-01 03:46:22dht11temp21degree
4537bbbba929e5d1f190e42603d5343f005d2021-03-01 03:46:22dht11humidity92percent
4538bbbba929e5d1f190e42603d5343f005d2021-03-01 03:51:24soilmoisture11percent
4539bbbba929e5d1f190e42603d5343f005d2021-03-01 03:51:24dht11temp20.9degree
4540bbbba929e5d1f190e42603d5343f005d2021-03-01 03:51:24dht11humidity91percent
4541bbbba929e5d1f190e42603d5343f005d2021-03-01 03:56:26soilmoisture11percent
4542bbbba929e5d1f190e42603d5343f005d2021-03-01 03:56:27dht11temp20.9degree
4543bbbba929e5d1f190e42603d5343f005d2021-03-01 03:56:27dht11humidity91percent
4544bbbba929e5d1f190e42603d5343f005d2021-03-01 11:10:40soilmoisture21percent
4545bbbba929e5d1f190e42603d5343f005d2021-03-01 11:10:40dht11temp0degree
4546bbbba929e5d1f190e42603d5343f005d2021-03-01 11:10:41dht11humidity0percent
4547bbbba929e5d1f190e42603d5343f005d2021-03-01 11:15:42soilmoisture9percent
4548bbbba929e5d1f190e42603d5343f005d2021-03-01 11:15:43dht11temp34.2degree
4549bbbba929e5d1f190e42603d5343f005d2021-03-01 11:15:43dht11humidity65percent
4550bbbba929e5d1f190e42603d5343f005d2021-03-01 16:48:37soilmoisture72percent
4551bbbba929e5d1f190e42603d5343f005d2021-03-01 16:48:37dht11temp0degree
4552bbbba929e5d1f190e42603d5343f005d2021-03-01 16:48:38dht11humidity0percent
4553bbbba929e5d1f190e42603d5343f005d2021-03-01 16:53:39soilmoisture71percent
4554bbbba929e5d1f190e42603d5343f005d2021-03-01 16:53:40dht11temp25.3degree
4555bbbba929e5d1f190e42603d5343f005d2021-03-01 16:53:40dht11humidity60percent
4556bbbba929e5d1f190e42603d5343f005d2021-03-01 16:58:42soilmoisture72percent
4557bbbba929e5d1f190e42603d5343f005d2021-03-01 16:58:42dht11temp23.9degree
4558bbbba929e5d1f190e42603d5343f005d2021-03-01 16:58:43dht11humidity57percent
4559bbbba929e5d1f190e42603d5343f005d2021-03-01 17:03:44soilmoisture73percent
4560bbbba929e5d1f190e42603d5343f005d2021-03-01 17:03:45dht11temp23.3degree
4561bbbba929e5d1f190e42603d5343f005d2021-03-01 17:03:45dht11humidity55percent
4562bbbba929e5d1f190e42603d5343f005d2021-03-01 17:08:47soilmoisture74percent
4563bbbba929e5d1f190e42603d5343f005d2021-03-01 17:08:47dht11temp23.1degree
4564bbbba929e5d1f190e42603d5343f005d2021-03-01 17:08:47dht11humidity57percent
4565bbbba929e5d1f190e42603d5343f005d2021-03-01 17:13:49soilmoisture74percent
4566bbbba929e5d1f190e42603d5343f005d2021-03-01 17:13:49dht11temp22.9degree
4567bbbba929e5d1f190e42603d5343f005d2021-03-01 17:13:50dht11humidity57percent
4568bbbba929e5d1f190e42603d5343f005d2021-03-01 17:18:51soilmoisture74percent
4569bbbba929e5d1f190e42603d5343f005d2021-03-01 17:18:52dht11temp22.8degree
4570bbbba929e5d1f190e42603d5343f005d2021-03-01 17:18:52dht11humidity57percent
4571bbbba929e5d1f190e42603d5343f005d2021-03-01 17:23:54soilmoisture74percent
4572bbbba929e5d1f190e42603d5343f005d2021-03-01 17:23:54dht11temp22.8degree
4573bbbba929e5d1f190e42603d5343f005d2021-03-01 17:23:54dht11humidity58percent
4574bbbba929e5d1f190e42603d5343f005d2021-03-01 17:28:56soilmoisture74percent
4575bbbba929e5d1f190e42603d5343f005d2021-03-01 17:28:56dht11temp22.7degree
4576bbbba929e5d1f190e42603d5343f005d2021-03-01 17:28:57dht11humidity58percent
4577bbbba929e5d1f190e42603d5343f005d2021-03-01 17:33:58soilmoisture74percent
4578bbbba929e5d1f190e42603d5343f005d2021-03-01 17:33:59dht11temp22.6degree
4579bbbba929e5d1f190e42603d5343f005d2021-03-01 17:33:59dht11humidity59percent
4580bbbba929e5d1f190e42603d5343f005d2021-03-01 17:39:01soilmoisture74percent
4581bbbba929e5d1f190e42603d5343f005d2021-03-01 17:39:01dht11temp22.6degree
4582bbbba929e5d1f190e42603d5343f005d2021-03-01 17:39:01dht11humidity58percent
4583bbbba929e5d1f190e42603d5343f005d2021-03-01 17:44:03soilmoisture74percent
4584bbbba929e5d1f190e42603d5343f005d2021-03-01 17:44:03dht11temp22.5degree
4585bbbba929e5d1f190e42603d5343f005d2021-03-01 17:44:04dht11humidity59percent
4586bbbba929e5d1f190e42603d5343f005d2021-03-01 17:49:06soilmoisture74percent
4587bbbba929e5d1f190e42603d5343f005d2021-03-01 17:49:06dht11temp22.5degree
4588bbbba929e5d1f190e42603d5343f005d2021-03-01 17:49:06dht11humidity59percent
4589bbbba929e5d1f190e42603d5343f005d2021-03-01 17:54:08soilmoisture74percent
4590bbbba929e5d1f190e42603d5343f005d2021-03-01 17:54:08dht11temp22.4degree
4591bbbba929e5d1f190e42603d5343f005d2021-03-01 17:54:08dht11humidity59percent
4592bbbba929e5d1f190e42603d5343f005d2021-03-01 17:59:11soilmoisture74percent
4593bbbba929e5d1f190e42603d5343f005d2021-03-01 17:59:11dht11temp22.4degree
4594bbbba929e5d1f190e42603d5343f005d2021-03-01 17:59:11dht11humidity59percent
4595bbbba929e5d1f190e42603d5343f005d2021-03-01 18:04:12soilmoisture74percent
4596bbbba929e5d1f190e42603d5343f005d2021-03-01 18:04:12dht11temp22.3degree
4597bbbba929e5d1f190e42603d5343f005d2021-03-01 18:04:13dht11humidity59percent
4598bbbba929e5d1f190e42603d5343f005d2021-03-01 18:09:14soilmoisture74percent
4599bbbba929e5d1f190e42603d5343f005d2021-03-01 18:09:15dht11temp22.3degree
4600bbbba929e5d1f190e42603d5343f005d2021-03-01 18:09:15dht11humidity58percent
4601bbbba929e5d1f190e42603d5343f005d2021-03-01 18:14:17soilmoisture74percent
4602bbbba929e5d1f190e42603d5343f005d2021-03-01 18:14:17dht11temp22.3degree
4603bbbba929e5d1f190e42603d5343f005d2021-03-01 18:14:17dht11humidity59percent
4604bbbba929e5d1f190e42603d5343f005d2021-03-01 18:19:19soilmoisture74percent
4605bbbba929e5d1f190e42603d5343f005d2021-03-01 18:19:19dht11temp22.2degree
4606bbbba929e5d1f190e42603d5343f005d2021-03-01 18:19:20dht11humidity60percent
4607bbbba929e5d1f190e42603d5343f005d2021-03-01 18:24:21soilmoisture74percent
4608bbbba929e5d1f190e42603d5343f005d2021-03-01 18:24:22dht11temp22.2degree
4609bbbba929e5d1f190e42603d5343f005d2021-03-01 18:24:22dht11humidity59percent
4610bbbba929e5d1f190e42603d5343f005d2021-03-01 18:29:24soilmoisture74percent
4611bbbba929e5d1f190e42603d5343f005d2021-03-01 18:29:24dht11temp22.2degree
4612bbbba929e5d1f190e42603d5343f005d2021-03-01 18:29:24dht11humidity59percent
4613bbbba929e5d1f190e42603d5343f005d2021-03-01 18:34:26soilmoisture74percent
4614bbbba929e5d1f190e42603d5343f005d2021-03-01 18:34:26dht11temp22.2degree
4615bbbba929e5d1f190e42603d5343f005d2021-03-01 18:34:27dht11humidity59percent
4616bbbba929e5d1f190e42603d5343f005d2021-03-01 18:39:29soilmoisture74percent
4617bbbba929e5d1f190e42603d5343f005d2021-03-01 18:39:29dht11temp22.1degree
4618bbbba929e5d1f190e42603d5343f005d2021-03-01 18:39:29dht11humidity59percent
4619bbbba929e5d1f190e42603d5343f005d2021-03-01 18:44:31soilmoisture74percent
4620bbbba929e5d1f190e42603d5343f005d2021-03-01 18:44:31dht11temp22.1degree
4621bbbba929e5d1f190e42603d5343f005d2021-03-01 18:44:32dht11humidity60percent
4622bbbba929e5d1f190e42603d5343f005d2021-03-01 18:49:33soilmoisture74percent
4623bbbba929e5d1f190e42603d5343f005d2021-03-01 18:49:34dht11temp22.1degree
4624bbbba929e5d1f190e42603d5343f005d2021-03-01 18:49:34dht11humidity59percent
4625bbbba929e5d1f190e42603d5343f005d2021-03-01 18:54:36soilmoisture74percent
4626bbbba929e5d1f190e42603d5343f005d2021-03-01 18:54:36dht11temp22.1degree
4627bbbba929e5d1f190e42603d5343f005d2021-03-01 18:54:36dht11humidity59percent
4628bbbba929e5d1f190e42603d5343f005d2021-03-01 18:59:38soilmoisture74percent
4629bbbba929e5d1f190e42603d5343f005d2021-03-01 18:59:39dht11temp22.1degree
4630bbbba929e5d1f190e42603d5343f005d2021-03-01 18:59:39dht11humidity60percent
4631bbbba929e5d1f190e42603d5343f005d2021-03-01 19:04:41soilmoisture74percent
4632bbbba929e5d1f190e42603d5343f005d2021-03-01 19:04:41dht11temp22.1degree
4633bbbba929e5d1f190e42603d5343f005d2021-03-01 19:04:41dht11humidity59percent
4634bbbba929e5d1f190e42603d5343f005d2021-03-01 19:09:43soilmoisture74percent
4635bbbba929e5d1f190e42603d5343f005d2021-03-01 19:09:44dht11temp22degree
4636bbbba929e5d1f190e42603d5343f005d2021-03-01 19:09:44dht11humidity59percent
4637bbbba929e5d1f190e42603d5343f005d2021-03-01 19:14:46soilmoisture74percent
4638bbbba929e5d1f190e42603d5343f005d2021-03-01 19:14:46dht11temp22degree
4639bbbba929e5d1f190e42603d5343f005d2021-03-01 19:14:46dht11humidity58percent
4640bbbba929e5d1f190e42603d5343f005d2021-03-01 19:19:48soilmoisture74percent
4641bbbba929e5d1f190e42603d5343f005d2021-03-01 19:19:49dht11temp22degree
4642bbbba929e5d1f190e42603d5343f005d2021-03-01 19:19:49dht11humidity59percent
4643bbbba929e5d1f190e42603d5343f005d2021-03-01 19:24:51soilmoisture74percent
4644bbbba929e5d1f190e42603d5343f005d2021-03-01 19:24:51dht11temp22degree
4645bbbba929e5d1f190e42603d5343f005d2021-03-01 19:24:51dht11humidity58percent
4646bbbba929e5d1f190e42603d5343f005d2021-03-01 19:29:53soilmoisture74percent
4647bbbba929e5d1f190e42603d5343f005d2021-03-01 19:29:54dht11temp22degree
4648bbbba929e5d1f190e42603d5343f005d2021-03-01 19:29:54dht11humidity59percent
4649bbbba929e5d1f190e42603d5343f005d2021-03-01 19:34:56soilmoisture74percent
4650bbbba929e5d1f190e42603d5343f005d2021-03-01 19:34:56dht11temp22degree
4651bbbba929e5d1f190e42603d5343f005d2021-03-01 19:34:56dht11humidity60percent
4652bbbba929e5d1f190e42603d5343f005d2021-03-01 19:39:58soilmoisture74percent
4653bbbba929e5d1f190e42603d5343f005d2021-03-01 19:39:58dht11temp22degree
4654bbbba929e5d1f190e42603d5343f005d2021-03-01 19:39:59dht11humidity60percent
4655bbbba929e5d1f190e42603d5343f005d2021-03-01 19:45:00soilmoisture75percent
4656bbbba929e5d1f190e42603d5343f005d2021-03-01 19:45:01dht11temp21.9degree
4657bbbba929e5d1f190e42603d5343f005d2021-03-01 19:45:01dht11humidity58percent
4658bbbba929e5d1f190e42603d5343f005d2021-03-01 19:50:03soilmoisture74percent
4659bbbba929e5d1f190e42603d5343f005d2021-03-01 19:50:03dht11temp21.9degree
4660bbbba929e5d1f190e42603d5343f005d2021-03-01 19:50:03dht11humidity58percent
4661bbbba929e5d1f190e42603d5343f005d2021-03-01 19:55:05soilmoisture75percent
4662bbbba929e5d1f190e42603d5343f005d2021-03-01 19:55:05dht11temp21.9degree
4663bbbba929e5d1f190e42603d5343f005d2021-03-01 19:55:06dht11humidity58percent
4664bbbba929e5d1f190e42603d5343f005d2021-03-01 20:00:08soilmoisture74percent
4665bbbba929e5d1f190e42603d5343f005d2021-03-01 20:00:08dht11temp21.9degree
4666bbbba929e5d1f190e42603d5343f005d2021-03-01 20:00:08dht11humidity58percent
4667bbbba929e5d1f190e42603d5343f005d2021-03-01 20:05:11soilmoisture75percent
4668bbbba929e5d1f190e42603d5343f005d2021-03-01 20:05:11dht11temp21.9degree
4669bbbba929e5d1f190e42603d5343f005d2021-03-01 20:05:11dht11humidity58percent
4670bbbba929e5d1f190e42603d5343f005d2021-03-01 20:10:13soilmoisture75percent
4671bbbba929e5d1f190e42603d5343f005d2021-03-01 20:10:13dht11temp21.8degree
4672bbbba929e5d1f190e42603d5343f005d2021-03-01 20:10:14dht11humidity58percent
4673bbbba929e5d1f190e42603d5343f005d2021-03-01 20:15:16soilmoisture75percent
4674bbbba929e5d1f190e42603d5343f005d2021-03-01 20:15:16dht11temp21.8degree
4675bbbba929e5d1f190e42603d5343f005d2021-03-01 20:15:16dht11humidity60percent
4676bbbba929e5d1f190e42603d5343f005d2021-03-01 20:20:19soilmoisture75percent
4677bbbba929e5d1f190e42603d5343f005d2021-03-01 20:20:19dht11temp21.8degree
4678bbbba929e5d1f190e42603d5343f005d2021-03-01 20:20:19dht11humidity58percent
4679bbbba929e5d1f190e42603d5343f005d2021-03-01 20:25:21soilmoisture75percent
4680bbbba929e5d1f190e42603d5343f005d2021-03-01 20:25:21dht11temp21.7degree
4681bbbba929e5d1f190e42603d5343f005d2021-03-01 20:25:22dht11humidity59percent
4682bbbba929e5d1f190e42603d5343f005d2021-03-01 20:30:24soilmoisture75percent
4683bbbba929e5d1f190e42603d5343f005d2021-03-01 20:30:24dht11temp21.7degree
4684bbbba929e5d1f190e42603d5343f005d2021-03-01 20:30:24dht11humidity58percent
4685bbbba929e5d1f190e42603d5343f005d2021-03-01 20:35:26soilmoisture75percent
4686bbbba929e5d1f190e42603d5343f005d2021-03-01 20:35:26dht11temp21.7degree
4687bbbba929e5d1f190e42603d5343f005d2021-03-01 20:35:26dht11humidity58percent
4688bbbba929e5d1f190e42603d5343f005d2021-03-01 20:40:28soilmoisture75percent
4689bbbba929e5d1f190e42603d5343f005d2021-03-01 20:40:29dht11temp21.7degree
4690bbbba929e5d1f190e42603d5343f005d2021-03-01 20:40:29dht11humidity59percent
4691bbbba929e5d1f190e42603d5343f005d2021-03-01 20:45:33soilmoisture75percent
4692bbbba929e5d1f190e42603d5343f005d2021-03-01 20:45:33dht11temp21.7degree
4693bbbba929e5d1f190e42603d5343f005d2021-03-01 20:45:33dht11humidity59percent
4694bbbba929e5d1f190e42603d5343f005d2021-03-01 20:50:35soilmoisture75percent
4695bbbba929e5d1f190e42603d5343f005d2021-03-01 20:50:36dht11temp21.7degree
4696bbbba929e5d1f190e42603d5343f005d2021-03-01 20:50:36dht11humidity58percent
4697bbbba929e5d1f190e42603d5343f005d2021-03-01 20:55:38soilmoisture75percent
4698bbbba929e5d1f190e42603d5343f005d2021-03-01 20:55:38dht11temp21.7degree
4699bbbba929e5d1f190e42603d5343f005d2021-03-01 20:55:38dht11humidity58percent
4700bbbba929e5d1f190e42603d5343f005d2021-03-01 21:00:40soilmoisture75percent
4701bbbba929e5d1f190e42603d5343f005d2021-03-01 21:00:40dht11temp21.7degree
4702bbbba929e5d1f190e42603d5343f005d2021-03-01 21:00:41dht11humidity58percent
4703bbbba929e5d1f190e42603d5343f005d2021-03-01 21:05:43soilmoisture75percent
4704bbbba929e5d1f190e42603d5343f005d2021-03-01 21:05:43dht11temp21.7degree
4705bbbba929e5d1f190e42603d5343f005d2021-03-01 21:05:44dht11humidity58percent
4706bbbba929e5d1f190e42603d5343f005d2021-03-01 21:10:46soilmoisture75percent
4707bbbba929e5d1f190e42603d5343f005d2021-03-01 21:10:46dht11temp21.6degree
4708bbbba929e5d1f190e42603d5343f005d2021-03-01 21:10:47dht11humidity59percent
4709bbbba929e5d1f190e42603d5343f005d2021-03-01 21:15:48soilmoisture75percent
4710bbbba929e5d1f190e42603d5343f005d2021-03-01 21:15:49dht11temp21.6degree
4711bbbba929e5d1f190e42603d5343f005d2021-03-01 21:15:49dht11humidity58percent
4712bbbba929e5d1f190e42603d5343f005d2021-03-01 21:20:51soilmoisture75percent
4713bbbba929e5d1f190e42603d5343f005d2021-03-01 21:20:51dht11temp21.6degree
4714bbbba929e5d1f190e42603d5343f005d2021-03-01 21:20:52dht11humidity58percent
4715bbbba929e5d1f190e42603d5343f005d2021-03-01 21:25:54soilmoisture75percent
4716bbbba929e5d1f190e42603d5343f005d2021-03-01 21:25:54dht11temp21.6degree
4717bbbba929e5d1f190e42603d5343f005d2021-03-01 21:25:54dht11humidity59percent
4718bbbba929e5d1f190e42603d5343f005d2021-03-01 21:30:56soilmoisture75percent
4719bbbba929e5d1f190e42603d5343f005d2021-03-01 21:30:57dht11temp21.5degree
4720bbbba929e5d1f190e42603d5343f005d2021-03-01 21:30:57dht11humidity58percent
4721bbbba929e5d1f190e42603d5343f005d2021-03-01 21:36:00soilmoisture75percent
4722bbbba929e5d1f190e42603d5343f005d2021-03-01 21:36:00dht11temp21.6degree
4723bbbba929e5d1f190e42603d5343f005d2021-03-01 21:36:00dht11humidity58percent
4724bbbba929e5d1f190e42603d5343f005d2021-03-01 21:41:02soilmoisture75percent
4725bbbba929e5d1f190e42603d5343f005d2021-03-01 21:41:03dht11temp21.6degree
4726bbbba929e5d1f190e42603d5343f005d2021-03-01 21:41:03dht11humidity59percent
4727bbbba929e5d1f190e42603d5343f005d2021-03-01 21:46:05soilmoisture75percent
4728bbbba929e5d1f190e42603d5343f005d2021-03-01 21:46:06dht11temp21.6degree
4729bbbba929e5d1f190e42603d5343f005d2021-03-01 21:46:06dht11humidity58percent
4730bbbba929e5d1f190e42603d5343f005d2021-03-01 21:51:08soilmoisture75percent
4731bbbba929e5d1f190e42603d5343f005d2021-03-01 21:51:08dht11temp21.5degree
4732bbbba929e5d1f190e42603d5343f005d2021-03-01 21:51:09dht11humidity58percent
4733bbbba929e5d1f190e42603d5343f005d2021-03-01 21:56:11soilmoisture75percent
4734bbbba929e5d1f190e42603d5343f005d2021-03-01 21:56:11dht11temp21.5degree
4735bbbba929e5d1f190e42603d5343f005d2021-03-01 21:56:11dht11humidity58percent
4736bbbba929e5d1f190e42603d5343f005d2021-03-01 22:01:13soilmoisture75percent
4737bbbba929e5d1f190e42603d5343f005d2021-03-01 22:01:13dht11temp21.6degree
4738bbbba929e5d1f190e42603d5343f005d2021-03-01 22:01:13dht11humidity58percent
4739bbbba929e5d1f190e42603d5343f005d2021-03-01 22:06:15soilmoisture75percent
4740bbbba929e5d1f190e42603d5343f005d2021-03-01 22:06:15dht11temp21.5degree
4741bbbba929e5d1f190e42603d5343f005d2021-03-01 22:06:16dht11humidity58percent
4742bbbba929e5d1f190e42603d5343f005d2021-03-01 22:11:17soilmoisture75percent
4743bbbba929e5d1f190e42603d5343f005d2021-03-01 22:11:18dht11temp21.5degree
4744bbbba929e5d1f190e42603d5343f005d2021-03-01 22:11:18dht11humidity57percent
4745bbbba929e5d1f190e42603d5343f005d2021-03-01 22:16:20soilmoisture75percent
4746bbbba929e5d1f190e42603d5343f005d2021-03-01 22:16:20dht11temp21.5degree
4747bbbba929e5d1f190e42603d5343f005d2021-03-01 22:16:20dht11humidity58percent
4748bbbba929e5d1f190e42603d5343f005d2021-03-01 22:21:23soilmoisture75percent
4749bbbba929e5d1f190e42603d5343f005d2021-03-01 22:21:23dht11temp21.6degree
4750bbbba929e5d1f190e42603d5343f005d2021-03-01 22:21:24dht11humidity59percent
4751bbbba929e5d1f190e42603d5343f005d2021-03-01 22:26:25soilmoisture75percent
4752bbbba929e5d1f190e42603d5343f005d2021-03-01 22:26:26dht11temp21.5degree
4753bbbba929e5d1f190e42603d5343f005d2021-03-01 22:26:26dht11humidity59percent
4754bbbba929e5d1f190e42603d5343f005d2021-03-01 22:31:28soilmoisture75percent
4755bbbba929e5d1f190e42603d5343f005d2021-03-01 22:31:28dht11temp21.5degree
4756bbbba929e5d1f190e42603d5343f005d2021-03-01 22:31:28dht11humidity58percent
4757bbbba929e5d1f190e42603d5343f005d2021-03-01 22:36:30soilmoisture75percent
4758bbbba929e5d1f190e42603d5343f005d2021-03-01 22:36:30dht11temp21.4degree
4759bbbba929e5d1f190e42603d5343f005d2021-03-01 22:36:31dht11humidity58percent
4760bbbba929e5d1f190e42603d5343f005d2021-03-01 22:41:32soilmoisture75percent
4761bbbba929e5d1f190e42603d5343f005d2021-03-01 22:41:33dht11temp21.4degree
4762bbbba929e5d1f190e42603d5343f005d2021-03-01 22:41:33dht11humidity59percent
4763bbbba929e5d1f190e42603d5343f005d2021-03-01 22:46:35soilmoisture75percent
4764bbbba929e5d1f190e42603d5343f005d2021-03-01 22:46:35dht11temp21.4degree
4765bbbba929e5d1f190e42603d5343f005d2021-03-01 22:46:35dht11humidity59percent
4766bbbba929e5d1f190e42603d5343f005d2021-03-01 22:51:37soilmoisture75percent
4767bbbba929e5d1f190e42603d5343f005d2021-03-01 22:51:38dht11temp21.4degree
4768bbbba929e5d1f190e42603d5343f005d2021-03-01 22:51:38dht11humidity59percent
4769bbbba929e5d1f190e42603d5343f005d2021-03-01 22:56:40soilmoisture76percent
4770bbbba929e5d1f190e42603d5343f005d2021-03-01 22:56:40dht11temp21.4degree
4771bbbba929e5d1f190e42603d5343f005d2021-03-01 22:56:40dht11humidity59percent
4772bbbba929e5d1f190e42603d5343f005d2021-03-01 23:01:42soilmoisture76percent
4773bbbba929e5d1f190e42603d5343f005d2021-03-01 23:01:42dht11temp21.4degree
4774bbbba929e5d1f190e42603d5343f005d2021-03-01 23:01:43dht11humidity58percent
4775bbbba929e5d1f190e42603d5343f005d2021-03-01 23:06:45soilmoisture76percent
4776bbbba929e5d1f190e42603d5343f005d2021-03-01 23:06:45dht11temp21.3degree
4777bbbba929e5d1f190e42603d5343f005d2021-03-01 23:06:45dht11humidity58percent
4778bbbba929e5d1f190e42603d5343f005d2021-03-01 23:11:47soilmoisture76percent
4779bbbba929e5d1f190e42603d5343f005d2021-03-01 23:11:47dht11temp21.3degree
4780bbbba929e5d1f190e42603d5343f005d2021-03-01 23:11:48dht11humidity58percent
4781bbbba929e5d1f190e42603d5343f005d2021-03-01 23:16:49soilmoisture76percent
4782bbbba929e5d1f190e42603d5343f005d2021-03-01 23:16:50dht11temp21.2degree
4783bbbba929e5d1f190e42603d5343f005d2021-03-01 23:16:50dht11humidity57percent
4784bbbba929e5d1f190e42603d5343f005d2021-03-01 23:21:52soilmoisture76percent
4785bbbba929e5d1f190e42603d5343f005d2021-03-01 23:21:52dht11temp21.2degree
4786bbbba929e5d1f190e42603d5343f005d2021-03-01 23:21:52dht11humidity58percent
4787bbbba929e5d1f190e42603d5343f005d2021-03-01 23:26:54soilmoisture76percent
4788bbbba929e5d1f190e42603d5343f005d2021-03-01 23:26:54dht11temp21.2degree
4789bbbba929e5d1f190e42603d5343f005d2021-03-01 23:26:54dht11humidity57percent
4790bbbba929e5d1f190e42603d5343f005d2021-03-01 23:31:56soilmoisture76percent
4791bbbba929e5d1f190e42603d5343f005d2021-03-01 23:31:56dht11temp21.2degree
4792bbbba929e5d1f190e42603d5343f005d2021-03-01 23:31:57dht11humidity58percent
4793bbbba929e5d1f190e42603d5343f005d2021-03-01 23:36:59soilmoisture76percent
4794bbbba929e5d1f190e42603d5343f005d2021-03-01 23:37:00dht11temp21.2degree
4795bbbba929e5d1f190e42603d5343f005d2021-03-01 23:37:00dht11humidity58percent
4796bbbba929e5d1f190e42603d5343f005d2021-03-01 23:42:02soilmoisture76percent
4797bbbba929e5d1f190e42603d5343f005d2021-03-01 23:42:02dht11temp21.1degree
4798bbbba929e5d1f190e42603d5343f005d2021-03-01 23:42:03dht11humidity57percent
4799bbbba929e5d1f190e42603d5343f005d2021-03-01 23:47:04soilmoisture76percent
4800bbbba929e5d1f190e42603d5343f005d2021-03-01 23:47:04dht11temp21.1degree
4801bbbba929e5d1f190e42603d5343f005d2021-03-01 23:47:05dht11humidity57percent
4802bbbba929e5d1f190e42603d5343f005d2021-03-01 23:52:06soilmoisture76percent
4803bbbba929e5d1f190e42603d5343f005d2021-03-01 23:52:07dht11temp20.9degree
4804bbbba929e5d1f190e42603d5343f005d2021-03-01 23:52:07dht11humidity56percent
4805bbbba929e5d1f190e42603d5343f005d2021-03-01 23:57:09soilmoisture76percent
4806bbbba929e5d1f190e42603d5343f005d2021-03-01 23:57:09dht11temp21.1degree
4807bbbba929e5d1f190e42603d5343f005d2021-03-01 23:57:09dht11humidity56percent
4808bbbba929e5d1f190e42603d5343f005d2021-03-02 00:02:11soilmoisture76percent
4809bbbba929e5d1f190e42603d5343f005d2021-03-02 00:02:11dht11temp21degree
4810bbbba929e5d1f190e42603d5343f005d2021-03-02 00:02:11dht11humidity56percent
4811bbbba929e5d1f190e42603d5343f005d2021-03-02 00:07:13soilmoisture76percent
4812bbbba929e5d1f190e42603d5343f005d2021-03-02 00:07:13dht11temp21degree
4813bbbba929e5d1f190e42603d5343f005d2021-03-02 00:07:14dht11humidity57percent
4814bbbba929e5d1f190e42603d5343f005d2021-03-02 00:12:16soilmoisture76percent
4815bbbba929e5d1f190e42603d5343f005d2021-03-02 00:12:16dht11temp21degree
4816bbbba929e5d1f190e42603d5343f005d2021-03-02 00:12:16dht11humidity56percent
4817bbbba929e5d1f190e42603d5343f005d2021-03-02 00:17:18soilmoisture76percent
4818bbbba929e5d1f190e42603d5343f005d2021-03-02 00:17:18dht11temp20.9degree
4819bbbba929e5d1f190e42603d5343f005d2021-03-02 00:17:18dht11humidity57percent
4820bbbba929e5d1f190e42603d5343f005d2021-03-02 00:22:20soilmoisture76percent
4821bbbba929e5d1f190e42603d5343f005d2021-03-02 00:22:21dht11temp20.8degree
4822bbbba929e5d1f190e42603d5343f005d2021-03-02 00:22:21dht11humidity57percent
4823bbbba929e5d1f190e42603d5343f005d2021-03-02 00:27:23soilmoisture76percent
4824bbbba929e5d1f190e42603d5343f005d2021-03-02 00:27:23dht11temp20.7degree
4825bbbba929e5d1f190e42603d5343f005d2021-03-02 00:27:23dht11humidity58percent
4826bbbba929e5d1f190e42603d5343f005d2021-03-02 00:32:25soilmoisture76percent
4827bbbba929e5d1f190e42603d5343f005d2021-03-02 00:32:25dht11temp20.7degree
4828bbbba929e5d1f190e42603d5343f005d2021-03-02 00:32:26dht11humidity57percent
4829bbbba929e5d1f190e42603d5343f005d2021-03-02 00:37:27soilmoisture76percent
4830bbbba929e5d1f190e42603d5343f005d2021-03-02 00:37:28dht11temp20.6degree
4831bbbba929e5d1f190e42603d5343f005d2021-03-02 00:37:28dht11humidity57percent
4832bbbba929e5d1f190e42603d5343f005d2021-03-02 00:42:30soilmoisture76percent
4833bbbba929e5d1f190e42603d5343f005d2021-03-02 00:42:30dht11temp20.6degree
4834bbbba929e5d1f190e42603d5343f005d2021-03-02 00:42:30dht11humidity56percent
4835bbbba929e5d1f190e42603d5343f005d2021-03-02 00:47:32soilmoisture76percent
4836bbbba929e5d1f190e42603d5343f005d2021-03-02 00:47:32dht11temp20.6degree
4837bbbba929e5d1f190e42603d5343f005d2021-03-02 00:47:33dht11humidity58percent
4838bbbba929e5d1f190e42603d5343f005d2021-03-02 00:52:35soilmoisture76percent
4839bbbba929e5d1f190e42603d5343f005d2021-03-02 00:52:35dht11temp20.6degree
4840bbbba929e5d1f190e42603d5343f005d2021-03-02 00:52:35dht11humidity57percent
4841bbbba929e5d1f190e42603d5343f005d2021-03-02 00:57:37soilmoisture76percent
4842bbbba929e5d1f190e42603d5343f005d2021-03-02 00:57:37dht11temp20.6degree
4843bbbba929e5d1f190e42603d5343f005d2021-03-02 00:57:38dht11humidity58percent
4844bbbba929e5d1f190e42603d5343f005d2021-03-02 01:02:39soilmoisture76percent
4845bbbba929e5d1f190e42603d5343f005d2021-03-02 01:02:40dht11temp20.6degree
4846bbbba929e5d1f190e42603d5343f005d2021-03-02 01:02:40dht11humidity59percent
4847bbbba929e5d1f190e42603d5343f005d2021-03-02 01:07:42soilmoisture77percent
4848bbbba929e5d1f190e42603d5343f005d2021-03-02 01:07:42dht11temp20.5degree
4849bbbba929e5d1f190e42603d5343f005d2021-03-02 01:07:42dht11humidity59percent
4850bbbba929e5d1f190e42603d5343f005d2021-03-02 01:12:44soilmoisture77percent
4851bbbba929e5d1f190e42603d5343f005d2021-03-02 01:12:44dht11temp20.5degree
4852bbbba929e5d1f190e42603d5343f005d2021-03-02 01:12:45dht11humidity58percent
4853bbbba929e5d1f190e42603d5343f005d2021-03-02 01:17:46soilmoisture76percent
4854bbbba929e5d1f190e42603d5343f005d2021-03-02 01:17:47dht11temp20.5degree
4855bbbba929e5d1f190e42603d5343f005d2021-03-02 01:17:47dht11humidity58percent
4856bbbba929e5d1f190e42603d5343f005d2021-03-02 01:22:49soilmoisture76percent
4857bbbba929e5d1f190e42603d5343f005d2021-03-02 01:22:49dht11temp20.5degree
4858bbbba929e5d1f190e42603d5343f005d2021-03-02 01:22:49dht11humidity58percent
4859bbbba929e5d1f190e42603d5343f005d2021-03-02 01:27:51soilmoisture77percent
4860bbbba929e5d1f190e42603d5343f005d2021-03-02 01:27:51dht11temp20.5degree
4861bbbba929e5d1f190e42603d5343f005d2021-03-02 01:27:51dht11humidity58percent
4862bbbba929e5d1f190e42603d5343f005d2021-03-02 01:32:53soilmoisture77percent
4863bbbba929e5d1f190e42603d5343f005d2021-03-02 01:32:53dht11temp20.5degree
4864bbbba929e5d1f190e42603d5343f005d2021-03-02 01:32:54dht11humidity58percent
4865bbbba929e5d1f190e42603d5343f005d2021-03-02 01:37:55soilmoisture77percent
4866bbbba929e5d1f190e42603d5343f005d2021-03-02 01:37:56dht11temp20.4degree
4867bbbba929e5d1f190e42603d5343f005d2021-03-02 01:37:56dht11humidity59percent
4868bbbba929e5d1f190e42603d5343f005d2021-03-02 01:42:58soilmoisture77percent
4869bbbba929e5d1f190e42603d5343f005d2021-03-02 01:42:58dht11temp20.4degree
4870bbbba929e5d1f190e42603d5343f005d2021-03-02 01:42:58dht11humidity58percent
4871bbbba929e5d1f190e42603d5343f005d2021-03-02 01:48:00soilmoisture77percent
4872bbbba929e5d1f190e42603d5343f005d2021-03-02 01:48:00dht11temp20.4degree
4873bbbba929e5d1f190e42603d5343f005d2021-03-02 01:48:01dht11humidity58percent
4874bbbba929e5d1f190e42603d5343f005d2021-03-02 01:53:02soilmoisture77percent
4875bbbba929e5d1f190e42603d5343f005d2021-03-02 01:53:03dht11temp20.4degree
4876bbbba929e5d1f190e42603d5343f005d2021-03-02 01:53:03dht11humidity59percent
4877bbbba929e5d1f190e42603d5343f005d2021-03-02 01:58:05soilmoisture77percent
4878bbbba929e5d1f190e42603d5343f005d2021-03-02 01:58:05dht11temp20.4degree
4879bbbba929e5d1f190e42603d5343f005d2021-03-02 01:58:05dht11humidity60percent
4880bbbba929e5d1f190e42603d5343f005d2021-03-02 02:03:07soilmoisture77percent
4881bbbba929e5d1f190e42603d5343f005d2021-03-02 02:03:08dht11temp20.4degree
4882bbbba929e5d1f190e42603d5343f005d2021-03-02 02:03:08dht11humidity63percent
4883bbbba929e5d1f190e42603d5343f005d2021-03-02 02:08:10soilmoisture77percent
4884bbbba929e5d1f190e42603d5343f005d2021-03-02 02:08:10dht11temp20.5degree
4885bbbba929e5d1f190e42603d5343f005d2021-03-02 02:08:10dht11humidity68percent
4886bbbba929e5d1f190e42603d5343f005d2021-03-02 02:13:12soilmoisture77percent
4887bbbba929e5d1f190e42603d5343f005d2021-03-02 02:13:12dht11temp20.5degree
4888bbbba929e5d1f190e42603d5343f005d2021-03-02 02:13:13dht11humidity67percent
4889bbbba929e5d1f190e42603d5343f005d2021-03-02 02:18:15soilmoisture77percent
4890bbbba929e5d1f190e42603d5343f005d2021-03-02 02:18:15dht11temp20.5degree
4891bbbba929e5d1f190e42603d5343f005d2021-03-02 02:18:15dht11humidity66percent
4892bbbba929e5d1f190e42603d5343f005d2021-03-02 02:23:17soilmoisture77percent
4893bbbba929e5d1f190e42603d5343f005d2021-03-02 02:23:17dht11temp20.5degree
4894bbbba929e5d1f190e42603d5343f005d2021-03-02 02:23:17dht11humidity64percent
4895bbbba929e5d1f190e42603d5343f005d2021-03-02 02:28:19soilmoisture77percent
4896bbbba929e5d1f190e42603d5343f005d2021-03-02 02:28:20dht11temp20.4degree
4897bbbba929e5d1f190e42603d5343f005d2021-03-02 02:28:20dht11humidity63percent
4898bbbba929e5d1f190e42603d5343f005d2021-03-02 02:33:22soilmoisture77percent
4899bbbba929e5d1f190e42603d5343f005d2021-03-02 02:33:22dht11temp20.3degree
4900bbbba929e5d1f190e42603d5343f005d2021-03-02 02:33:22dht11humidity63percent
4901bbbba929e5d1f190e42603d5343f005d2021-03-02 02:38:24soilmoisture77percent
4902bbbba929e5d1f190e42603d5343f005d2021-03-02 02:38:24dht11temp20.3degree
4903bbbba929e5d1f190e42603d5343f005d2021-03-02 02:38:25dht11humidity62percent
4904bbbba929e5d1f190e42603d5343f005d2021-03-02 02:43:26soilmoisture77percent
4905bbbba929e5d1f190e42603d5343f005d2021-03-02 02:43:27dht11temp20.4degree
4906bbbba929e5d1f190e42603d5343f005d2021-03-02 02:43:27dht11humidity61percent
4907bbbba929e5d1f190e42603d5343f005d2021-03-02 02:48:29soilmoisture77percent
4908bbbba929e5d1f190e42603d5343f005d2021-03-02 02:48:29dht11temp20.3degree
4909bbbba929e5d1f190e42603d5343f005d2021-03-02 02:48:29dht11humidity62percent
4910bbbba929e5d1f190e42603d5343f005d2021-03-02 02:53:31soilmoisture77percent
4911bbbba929e5d1f190e42603d5343f005d2021-03-02 02:53:31dht11temp20.3degree
4912bbbba929e5d1f190e42603d5343f005d2021-03-02 02:53:32dht11humidity63percent
4913bbbba929e5d1f190e42603d5343f005d2021-03-02 02:58:34soilmoisture77percent
4914bbbba929e5d1f190e42603d5343f005d2021-03-02 02:58:34dht11temp20.3degree
4915bbbba929e5d1f190e42603d5343f005d2021-03-02 02:58:34dht11humidity60percent
4916bbbba929e5d1f190e42603d5343f005d2021-03-02 03:03:36soilmoisture77percent
4917bbbba929e5d1f190e42603d5343f005d2021-03-02 03:03:36dht11temp20.2degree
4918bbbba929e5d1f190e42603d5343f005d2021-03-02 03:03:37dht11humidity62percent
4919bbbba929e5d1f190e42603d5343f005d2021-03-02 03:08:39soilmoisture77percent
4920bbbba929e5d1f190e42603d5343f005d2021-03-02 03:08:39dht11temp20.2degree
4921bbbba929e5d1f190e42603d5343f005d2021-03-02 03:08:39dht11humidity60percent
4922bbbba929e5d1f190e42603d5343f005d2021-03-02 03:13:41soilmoisture77percent
4923bbbba929e5d1f190e42603d5343f005d2021-03-02 03:13:42dht11temp20.2degree
4924bbbba929e5d1f190e42603d5343f005d2021-03-02 03:13:42dht11humidity61percent
4925bbbba929e5d1f190e42603d5343f005d2021-03-02 03:18:44soilmoisture77percent
4926bbbba929e5d1f190e42603d5343f005d2021-03-02 03:18:44dht11temp20.2degree
4927bbbba929e5d1f190e42603d5343f005d2021-03-02 03:18:44dht11humidity59percent
4928bbbba929e5d1f190e42603d5343f005d2021-03-02 03:23:47soilmoisture77percent
4929bbbba929e5d1f190e42603d5343f005d2021-03-02 03:23:47dht11temp20.2degree
4930bbbba929e5d1f190e42603d5343f005d2021-03-02 03:23:47dht11humidity58percent
4931bbbba929e5d1f190e42603d5343f005d2021-03-02 03:28:49soilmoisture77percent
4932bbbba929e5d1f190e42603d5343f005d2021-03-02 03:28:49dht11temp20.2degree
4933bbbba929e5d1f190e42603d5343f005d2021-03-02 03:28:50dht11humidity61percent
4934bbbba929e5d1f190e42603d5343f005d2021-03-02 03:33:51soilmoisture77percent
4935bbbba929e5d1f190e42603d5343f005d2021-03-02 03:33:52dht11temp20.1degree
4936bbbba929e5d1f190e42603d5343f005d2021-03-02 03:33:52dht11humidity60percent
4937bbbba929e5d1f190e42603d5343f005d2021-03-02 03:38:54soilmoisture77percent
4938bbbba929e5d1f190e42603d5343f005d2021-03-02 03:38:54dht11temp20degree
4939bbbba929e5d1f190e42603d5343f005d2021-03-02 03:38:54dht11humidity61percent
4940bbbba929e5d1f190e42603d5343f005d2021-03-02 03:43:56soilmoisture77percent
4941bbbba929e5d1f190e42603d5343f005d2021-03-02 03:43:56dht11temp20degree
4942bbbba929e5d1f190e42603d5343f005d2021-03-02 03:43:57dht11humidity61percent
4943bbbba929e5d1f190e42603d5343f005d2021-03-02 03:48:58soilmoisture78percent
4944bbbba929e5d1f190e42603d5343f005d2021-03-02 03:48:59dht11temp20degree
4945bbbba929e5d1f190e42603d5343f005d2021-03-02 03:48:59dht11humidity60percent
4946bbbba929e5d1f190e42603d5343f005d2021-03-02 03:54:01soilmoisture77percent
4947bbbba929e5d1f190e42603d5343f005d2021-03-02 03:54:01dht11temp20degree
4948bbbba929e5d1f190e42603d5343f005d2021-03-02 03:54:01dht11humidity59percent
4949bbbba929e5d1f190e42603d5343f005d2021-03-02 03:59:04soilmoisture78percent
4950bbbba929e5d1f190e42603d5343f005d2021-03-02 03:59:04dht11temp20degree
4951bbbba929e5d1f190e42603d5343f005d2021-03-02 03:59:05dht11humidity60percent
4952bbbba929e5d1f190e42603d5343f005d2021-03-02 04:04:06soilmoisture78percent
4953bbbba929e5d1f190e42603d5343f005d2021-03-02 04:04:07dht11temp19.9degree
4954bbbba929e5d1f190e42603d5343f005d2021-03-02 04:04:07dht11humidity59percent
4955bbbba929e5d1f190e42603d5343f005d2021-03-02 04:09:10soilmoisture78percent
4956bbbba929e5d1f190e42603d5343f005d2021-03-02 04:09:10dht11temp19.9degree
4957bbbba929e5d1f190e42603d5343f005d2021-03-02 04:09:10dht11humidity59percent
4958bbbba929e5d1f190e42603d5343f005d2021-03-02 04:14:12soilmoisture78percent
4959bbbba929e5d1f190e42603d5343f005d2021-03-02 04:14:12dht11temp19.8degree
4960bbbba929e5d1f190e42603d5343f005d2021-03-02 04:14:12dht11humidity60percent
4961bbbba929e5d1f190e42603d5343f005d2021-03-02 04:19:14soilmoisture78percent
4962bbbba929e5d1f190e42603d5343f005d2021-03-02 04:19:15dht11temp19.8degree
4963bbbba929e5d1f190e42603d5343f005d2021-03-02 04:19:15dht11humidity60percent
4964bbbba929e5d1f190e42603d5343f005d2021-03-02 04:24:17soilmoisture78percent
4965bbbba929e5d1f190e42603d5343f005d2021-03-02 04:24:18dht11temp19.7degree
4966bbbba929e5d1f190e42603d5343f005d2021-03-02 04:24:18dht11humidity61percent
4967bbbba929e5d1f190e42603d5343f005d2021-03-02 04:29:20soilmoisture78percent
4968bbbba929e5d1f190e42603d5343f005d2021-03-02 04:29:20dht11temp19.7degree
4969bbbba929e5d1f190e42603d5343f005d2021-03-02 04:29:21dht11humidity62percent
4970bbbba929e5d1f190e42603d5343f005d2021-03-02 04:34:22soilmoisture78percent
4971bbbba929e5d1f190e42603d5343f005d2021-03-02 04:34:23dht11temp19.7degree
4972bbbba929e5d1f190e42603d5343f005d2021-03-02 04:34:23dht11humidity60percent
4973bbbba929e5d1f190e42603d5343f005d2021-03-02 04:39:25soilmoisture78percent
4974bbbba929e5d1f190e42603d5343f005d2021-03-02 04:39:25dht11temp19.7degree
4975bbbba929e5d1f190e42603d5343f005d2021-03-02 04:39:25dht11humidity60percent
4976bbbba929e5d1f190e42603d5343f005d2021-03-02 04:44:27soilmoisture78percent
4977bbbba929e5d1f190e42603d5343f005d2021-03-02 04:44:27dht11temp19.7degree
4978bbbba929e5d1f190e42603d5343f005d2021-03-02 04:44:27dht11humidity59percent
4979bbbba929e5d1f190e42603d5343f005d2021-03-02 04:49:29soilmoisture78percent
4980bbbba929e5d1f190e42603d5343f005d2021-03-02 04:49:29dht11temp19.7degree
4981bbbba929e5d1f190e42603d5343f005d2021-03-02 04:49:30dht11humidity59percent
4982bbbba929e5d1f190e42603d5343f005d2021-03-02 04:54:31soilmoisture78percent
4983bbbba929e5d1f190e42603d5343f005d2021-03-02 04:54:32dht11temp19.7degree
4984bbbba929e5d1f190e42603d5343f005d2021-03-02 04:54:32dht11humidity60percent
4985bbbba929e5d1f190e42603d5343f005d2021-03-02 04:59:34soilmoisture78percent
4986bbbba929e5d1f190e42603d5343f005d2021-03-02 04:59:34dht11temp19.6degree
4987bbbba929e5d1f190e42603d5343f005d2021-03-02 04:59:35dht11humidity60percent
4988bbbba929e5d1f190e42603d5343f005d2021-03-02 05:04:37soilmoisture78percent
4989bbbba929e5d1f190e42603d5343f005d2021-03-02 05:04:37dht11temp19.6degree
4990bbbba929e5d1f190e42603d5343f005d2021-03-02 05:04:38dht11humidity59percent
4991bbbba929e5d1f190e42603d5343f005d2021-03-02 05:09:39soilmoisture78percent
4992bbbba929e5d1f190e42603d5343f005d2021-03-02 05:09:40dht11temp19.6degree
4993bbbba929e5d1f190e42603d5343f005d2021-03-02 05:09:40dht11humidity59percent
4994bbbba929e5d1f190e42603d5343f005d2021-03-02 05:14:42soilmoisture78percent
4995bbbba929e5d1f190e42603d5343f005d2021-03-02 05:14:42dht11temp19.6degree
4996bbbba929e5d1f190e42603d5343f005d2021-03-02 05:14:42dht11humidity61percent
4997bbbba929e5d1f190e42603d5343f005d2021-03-02 05:19:44soilmoisture78percent
4998bbbba929e5d1f190e42603d5343f005d2021-03-02 05:19:44dht11temp19.6degree
4999bbbba929e5d1f190e42603d5343f005d2021-03-02 05:19:45dht11humidity61percent
5000bbbba929e5d1f190e42603d5343f005d2021-03-02 05:24:46soilmoisture78percent
5001bbbba929e5d1f190e42603d5343f005d2021-03-02 05:24:47dht11temp19.7degree
5002bbbba929e5d1f190e42603d5343f005d2021-03-02 05:24:47dht11humidity59percent
5003bbbba929e5d1f190e42603d5343f005d2021-03-02 05:29:49soilmoisture78percent
5004bbbba929e5d1f190e42603d5343f005d2021-03-02 05:29:49dht11temp19.8degree
5005bbbba929e5d1f190e42603d5343f005d2021-03-02 05:29:49dht11humidity60percent
5006bbbba929e5d1f190e42603d5343f005d2021-03-02 05:34:51soilmoisture78percent
5007bbbba929e5d1f190e42603d5343f005d2021-03-02 05:34:52dht11temp19.9degree
5008bbbba929e5d1f190e42603d5343f005d2021-03-02 05:34:52dht11humidity60percent
5009bbbba929e5d1f190e42603d5343f005d2021-03-02 05:39:54soilmoisture78percent
5010bbbba929e5d1f190e42603d5343f005d2021-03-02 05:39:54dht11temp19.9degree
5011bbbba929e5d1f190e42603d5343f005d2021-03-02 05:39:54dht11humidity60percent
5012bbbba929e5d1f190e42603d5343f005d2021-03-02 05:44:56soilmoisture78percent
5013bbbba929e5d1f190e42603d5343f005d2021-03-02 05:44:56dht11temp20degree
5014bbbba929e5d1f190e42603d5343f005d2021-03-02 05:44:56dht11humidity59percent
5015bbbba929e5d1f190e42603d5343f005d2021-03-02 05:49:58soilmoisture78percent
5016bbbba929e5d1f190e42603d5343f005d2021-03-02 05:49:59dht11temp20.1degree
5017bbbba929e5d1f190e42603d5343f005d2021-03-02 05:49:59dht11humidity58percent
5018bbbba929e5d1f190e42603d5343f005d2021-03-02 05:55:01soilmoisture78percent
5019bbbba929e5d1f190e42603d5343f005d2021-03-02 05:55:01dht11temp20.2degree
5020bbbba929e5d1f190e42603d5343f005d2021-03-02 05:55:01dht11humidity58percent
5021bbbba929e5d1f190e42603d5343f005d2021-03-02 06:00:02soilmoisture78percent
5022bbbba929e5d1f190e42603d5343f005d2021-03-02 06:00:03dht11temp20.2degree
5023bbbba929e5d1f190e42603d5343f005d2021-03-02 06:00:03dht11humidity59percent
5024bbbba929e5d1f190e42603d5343f005d2021-03-02 06:05:05soilmoisture78percent
5025bbbba929e5d1f190e42603d5343f005d2021-03-02 06:05:05dht11temp20.2degree
5026bbbba929e5d1f190e42603d5343f005d2021-03-02 06:05:05dht11humidity57percent
5027bbbba929e5d1f190e42603d5343f005d2021-03-02 06:10:07soilmoisture78percent
5028bbbba929e5d1f190e42603d5343f005d2021-03-02 06:10:07dht11temp20.2degree
5029bbbba929e5d1f190e42603d5343f005d2021-03-02 06:10:08dht11humidity59percent
5030bbbba929e5d1f190e42603d5343f005d2021-03-02 06:15:09soilmoisture78percent
5031bbbba929e5d1f190e42603d5343f005d2021-03-02 06:15:10dht11temp20.2degree
5032bbbba929e5d1f190e42603d5343f005d2021-03-02 06:15:10dht11humidity58percent
5033bbbba929e5d1f190e42603d5343f005d2021-03-02 06:20:12soilmoisture78percent
5034bbbba929e5d1f190e42603d5343f005d2021-03-02 06:20:12dht11temp20.3degree
5035bbbba929e5d1f190e42603d5343f005d2021-03-02 06:20:12dht11humidity58percent
5036bbbba929e5d1f190e42603d5343f005d2021-03-02 06:25:14soilmoisture78percent
5037bbbba929e5d1f190e42603d5343f005d2021-03-02 06:25:14dht11temp20.3degree
5038bbbba929e5d1f190e42603d5343f005d2021-03-02 06:25:15dht11humidity57percent
5039bbbba929e5d1f190e42603d5343f005d2021-03-02 06:30:16soilmoisture78percent
5040bbbba929e5d1f190e42603d5343f005d2021-03-02 06:30:17dht11temp20.3degree
5041bbbba929e5d1f190e42603d5343f005d2021-03-02 06:30:17dht11humidity57percent
5042bbbba929e5d1f190e42603d5343f005d2021-03-02 06:35:19soilmoisture78percent
5043bbbba929e5d1f190e42603d5343f005d2021-03-02 06:35:19dht11temp20.3degree
5044bbbba929e5d1f190e42603d5343f005d2021-03-02 06:35:19dht11humidity57percent
5045bbbba929e5d1f190e42603d5343f005d2021-03-02 06:40:21soilmoisture78percent
5046bbbba929e5d1f190e42603d5343f005d2021-03-02 06:40:21dht11temp20.3degree
5047bbbba929e5d1f190e42603d5343f005d2021-03-02 06:40:21dht11humidity58percent
5048bbbba929e5d1f190e42603d5343f005d2021-03-02 06:45:23soilmoisture78percent
5049bbbba929e5d1f190e42603d5343f005d2021-03-02 06:45:24dht11temp20.3degree
5050bbbba929e5d1f190e42603d5343f005d2021-03-02 06:45:24dht11humidity58percent
5051bbbba929e5d1f190e42603d5343f005d2021-03-02 06:50:26soilmoisture78percent
5052bbbba929e5d1f190e42603d5343f005d2021-03-02 06:50:26dht11temp20.3degree
5053bbbba929e5d1f190e42603d5343f005d2021-03-02 06:50:26dht11humidity58percent
5054bbbba929e5d1f190e42603d5343f005d2021-03-02 06:55:28soilmoisture78percent
5055bbbba929e5d1f190e42603d5343f005d2021-03-02 06:55:28dht11temp20.2degree
5056bbbba929e5d1f190e42603d5343f005d2021-03-02 06:55:29dht11humidity58percent
5057bbbba929e5d1f190e42603d5343f005d2021-03-02 07:00:31soilmoisture78percent
5058bbbba929e5d1f190e42603d5343f005d2021-03-02 07:00:31dht11temp20.2degree
5059bbbba929e5d1f190e42603d5343f005d2021-03-02 07:00:31dht11humidity59percent
5060bbbba929e5d1f190e42603d5343f005d2021-03-02 07:05:33soilmoisture78percent
5061bbbba929e5d1f190e42603d5343f005d2021-03-02 07:05:33dht11temp20.2degree
5062bbbba929e5d1f190e42603d5343f005d2021-03-02 07:05:34dht11humidity58percent
5063bbbba929e5d1f190e42603d5343f005d2021-03-02 07:10:35soilmoisture79percent
5064bbbba929e5d1f190e42603d5343f005d2021-03-02 07:10:36dht11temp20.2degree
5065bbbba929e5d1f190e42603d5343f005d2021-03-02 07:10:36dht11humidity59percent
5066bbbba929e5d1f190e42603d5343f005d2021-03-02 07:15:38soilmoisture79percent
5067bbbba929e5d1f190e42603d5343f005d2021-03-02 07:15:38dht11temp20.1degree
5068bbbba929e5d1f190e42603d5343f005d2021-03-02 07:15:38dht11humidity59percent
5069bbbba929e5d1f190e42603d5343f005d2021-03-02 07:20:40soilmoisture79percent
5070bbbba929e5d1f190e42603d5343f005d2021-03-02 07:20:41dht11temp20.1degree
5071bbbba929e5d1f190e42603d5343f005d2021-03-02 07:20:41dht11humidity59percent
5072bbbba929e5d1f190e42603d5343f005d2021-03-02 07:25:43soilmoisture79percent
5073bbbba929e5d1f190e42603d5343f005d2021-03-02 07:25:43dht11temp20.1degree
5074bbbba929e5d1f190e42603d5343f005d2021-03-02 07:25:43dht11humidity58percent
5075bbbba929e5d1f190e42603d5343f005d2021-03-02 07:30:45soilmoisture79percent
5076bbbba929e5d1f190e42603d5343f005d2021-03-02 07:30:46dht11temp20.1degree
5077bbbba929e5d1f190e42603d5343f005d2021-03-02 07:30:46dht11humidity59percent
5078bbbba929e5d1f190e42603d5343f005d2021-03-02 07:35:48soilmoisture79percent
5079bbbba929e5d1f190e42603d5343f005d2021-03-02 07:35:48dht11temp20.1degree
5080bbbba929e5d1f190e42603d5343f005d2021-03-02 07:35:48dht11humidity59percent
5081bbbba929e5d1f190e42603d5343f005d2021-03-02 07:40:50soilmoisture79percent
5082bbbba929e5d1f190e42603d5343f005d2021-03-02 07:40:50dht11temp20.1degree
5083bbbba929e5d1f190e42603d5343f005d2021-03-02 07:40:51dht11humidity60percent
5084bbbba929e5d1f190e42603d5343f005d2021-03-02 07:45:52soilmoisture79percent
5085bbbba929e5d1f190e42603d5343f005d2021-03-02 07:45:53dht11temp20.1degree
5086bbbba929e5d1f190e42603d5343f005d2021-03-02 07:45:53dht11humidity59percent
5087bbbba929e5d1f190e42603d5343f005d2021-03-02 07:50:55soilmoisture79percent
5088bbbba929e5d1f190e42603d5343f005d2021-03-02 07:50:55dht11temp20.1degree
5089bbbba929e5d1f190e42603d5343f005d2021-03-02 07:50:56dht11humidity60percent
5090bbbba929e5d1f190e42603d5343f005d2021-03-02 07:55:57soilmoisture79percent
5091bbbba929e5d1f190e42603d5343f005d2021-03-02 07:55:58dht11temp20.1degree
5092bbbba929e5d1f190e42603d5343f005d2021-03-02 07:55:58dht11humidity59percent
5093bbbba929e5d1f190e42603d5343f005d2021-03-02 08:01:00soilmoisture79percent
5094bbbba929e5d1f190e42603d5343f005d2021-03-02 08:01:00dht11temp20.1degree
5095bbbba929e5d1f190e42603d5343f005d2021-03-02 08:01:00dht11humidity58percent
5096bbbba929e5d1f190e42603d5343f005d2021-03-02 08:06:02soilmoisture79percent
5097bbbba929e5d1f190e42603d5343f005d2021-03-02 08:06:02dht11temp20.1degree
5098bbbba929e5d1f190e42603d5343f005d2021-03-02 08:06:02dht11humidity59percent
5099bbbba929e5d1f190e42603d5343f005d2021-03-02 08:11:04soilmoisture79percent
5100bbbba929e5d1f190e42603d5343f005d2021-03-02 08:11:05dht11temp20.1degree
5101bbbba929e5d1f190e42603d5343f005d2021-03-02 08:11:05dht11humidity59percent
5102bbbba929e5d1f190e42603d5343f005d2021-03-02 08:16:08soilmoisture79percent
5103bbbba929e5d1f190e42603d5343f005d2021-03-02 08:16:09dht11temp20.1degree
5104bbbba929e5d1f190e42603d5343f005d2021-03-02 08:16:09dht11humidity58percent
5105bbbba929e5d1f190e42603d5343f005d2021-03-02 08:21:11soilmoisture79percent
5106bbbba929e5d1f190e42603d5343f005d2021-03-02 08:21:11dht11temp20.1degree
5107bbbba929e5d1f190e42603d5343f005d2021-03-02 08:21:11dht11humidity58percent
5108bbbba929e5d1f190e42603d5343f005d2021-03-02 08:26:13soilmoisture79percent
5109bbbba929e5d1f190e42603d5343f005d2021-03-02 08:26:13dht11temp20.1degree
5110bbbba929e5d1f190e42603d5343f005d2021-03-02 08:26:14dht11humidity58percent
5111bbbba929e5d1f190e42603d5343f005d2021-03-02 08:31:15soilmoisture79percent
5112bbbba929e5d1f190e42603d5343f005d2021-03-02 08:31:16dht11temp20.1degree
5113bbbba929e5d1f190e42603d5343f005d2021-03-02 08:31:16dht11humidity59percent
5114bbbba929e5d1f190e42603d5343f005d2021-03-02 08:36:18soilmoisture79percent
5115bbbba929e5d1f190e42603d5343f005d2021-03-02 08:36:18dht11temp20.1degree
5116bbbba929e5d1f190e42603d5343f005d2021-03-02 08:36:18dht11humidity58percent
5117bbbba929e5d1f190e42603d5343f005d2021-03-02 08:41:20soilmoisture79percent
5118bbbba929e5d1f190e42603d5343f005d2021-03-02 08:41:20dht11temp20.1degree
5119bbbba929e5d1f190e42603d5343f005d2021-03-02 08:41:20dht11humidity58percent
5120bbbba929e5d1f190e42603d5343f005d2021-03-02 08:46:22soilmoisture79percent
5121bbbba929e5d1f190e42603d5343f005d2021-03-02 08:46:23dht11temp20.1degree
5122bbbba929e5d1f190e42603d5343f005d2021-03-02 08:46:23dht11humidity59percent
5123bbbba929e5d1f190e42603d5343f005d2021-03-02 08:51:25soilmoisture79percent
5124bbbba929e5d1f190e42603d5343f005d2021-03-02 08:51:25dht11temp20.1degree
5125bbbba929e5d1f190e42603d5343f005d2021-03-02 08:51:25dht11humidity58percent
5126bbbba929e5d1f190e42603d5343f005d2021-03-02 08:56:27soilmoisture79percent
5127bbbba929e5d1f190e42603d5343f005d2021-03-02 08:56:27dht11temp20.1degree
5128bbbba929e5d1f190e42603d5343f005d2021-03-02 08:56:28dht11humidity58percent
5129bbbba929e5d1f190e42603d5343f005d2021-03-02 09:01:30soilmoisture79percent
5130bbbba929e5d1f190e42603d5343f005d2021-03-02 09:01:30dht11temp20.1degree
5131bbbba929e5d1f190e42603d5343f005d2021-03-02 09:01:30dht11humidity58percent
5132bbbba929e5d1f190e42603d5343f005d2021-03-02 09:06:32soilmoisture79percent
5133bbbba929e5d1f190e42603d5343f005d2021-03-02 09:06:32dht11temp20.2degree
5134bbbba929e5d1f190e42603d5343f005d2021-03-02 09:06:33dht11humidity57percent
5135bbbba929e5d1f190e42603d5343f005d2021-03-02 09:11:35soilmoisture79percent
5136bbbba929e5d1f190e42603d5343f005d2021-03-02 09:11:35dht11temp20.2degree
5137bbbba929e5d1f190e42603d5343f005d2021-03-02 09:11:35dht11humidity58percent
5138bbbba929e5d1f190e42603d5343f005d2021-03-02 09:16:37soilmoisture79percent
5139bbbba929e5d1f190e42603d5343f005d2021-03-02 09:16:37dht11temp20.2degree
5140bbbba929e5d1f190e42603d5343f005d2021-03-02 09:16:37dht11humidity57percent
5141bbbba929e5d1f190e42603d5343f005d2021-03-02 09:21:39soilmoisture79percent
5142bbbba929e5d1f190e42603d5343f005d2021-03-02 09:21:39dht11temp20.2degree
5143bbbba929e5d1f190e42603d5343f005d2021-03-02 09:21:40dht11humidity57percent
5144bbbba929e5d1f190e42603d5343f005d2021-03-02 09:26:41soilmoisture79percent
5145bbbba929e5d1f190e42603d5343f005d2021-03-02 09:26:42dht11temp20.2degree
5146bbbba929e5d1f190e42603d5343f005d2021-03-02 09:26:42dht11humidity57percent
5147bbbba929e5d1f190e42603d5343f005d2021-03-02 09:31:44soilmoisture79percent
5148bbbba929e5d1f190e42603d5343f005d2021-03-02 09:31:44dht11temp20.2degree
5149bbbba929e5d1f190e42603d5343f005d2021-03-02 09:31:44dht11humidity57percent
5150bbbba929e5d1f190e42603d5343f005d2021-03-02 09:36:46soilmoisture79percent
5151bbbba929e5d1f190e42603d5343f005d2021-03-02 09:36:46dht11temp20.2degree
5152bbbba929e5d1f190e42603d5343f005d2021-03-02 09:36:47dht11humidity58percent
5153bbbba929e5d1f190e42603d5343f005d2021-03-02 09:41:48soilmoisture79percent
5154bbbba929e5d1f190e42603d5343f005d2021-03-02 09:41:49dht11temp20.3degree
5155bbbba929e5d1f190e42603d5343f005d2021-03-02 09:41:49dht11humidity57percent
5156bbbba929e5d1f190e42603d5343f005d2021-03-02 09:46:51soilmoisture79percent
5157bbbba929e5d1f190e42603d5343f005d2021-03-02 09:46:51dht11temp20.3degree
5158bbbba929e5d1f190e42603d5343f005d2021-03-02 09:46:51dht11humidity57percent
5159bbbba929e5d1f190e42603d5343f005d2021-03-02 09:51:53soilmoisture79percent
5160bbbba929e5d1f190e42603d5343f005d2021-03-02 09:51:53dht11temp20.3degree
5161bbbba929e5d1f190e42603d5343f005d2021-03-02 09:51:54dht11humidity57percent
5162bbbba929e5d1f190e42603d5343f005d2021-03-02 09:56:55soilmoisture79percent
5163bbbba929e5d1f190e42603d5343f005d2021-03-02 09:56:56dht11temp20.4degree
5164bbbba929e5d1f190e42603d5343f005d2021-03-02 09:56:56dht11humidity57percent
5165bbbba929e5d1f190e42603d5343f005d2021-03-02 10:01:58soilmoisture79percent
5166bbbba929e5d1f190e42603d5343f005d2021-03-02 10:01:59dht11temp20.4degree
5167bbbba929e5d1f190e42603d5343f005d2021-03-02 10:01:59dht11humidity57percent
5168bbbba929e5d1f190e42603d5343f005d2021-03-02 10:07:01soilmoisture79percent
5169bbbba929e5d1f190e42603d5343f005d2021-03-02 10:07:01dht11temp20.3degree
5170bbbba929e5d1f190e42603d5343f005d2021-03-02 10:07:01dht11humidity57percent
5171bbbba929e5d1f190e42603d5343f005d2021-03-02 10:12:03soilmoisture79percent
5172bbbba929e5d1f190e42603d5343f005d2021-03-02 10:12:03dht11temp20.3degree
5173bbbba929e5d1f190e42603d5343f005d2021-03-02 10:12:03dht11humidity57percent
5174bbbba929e5d1f190e42603d5343f005d2021-03-02 10:17:05soilmoisture79percent
5175bbbba929e5d1f190e42603d5343f005d2021-03-02 10:17:05dht11temp20.4degree
5176bbbba929e5d1f190e42603d5343f005d2021-03-02 10:17:06dht11humidity57percent
5177bbbba929e5d1f190e42603d5343f005d2021-03-02 10:22:07soilmoisture79percent
5178bbbba929e5d1f190e42603d5343f005d2021-03-02 10:22:08dht11temp20.4degree
5179bbbba929e5d1f190e42603d5343f005d2021-03-02 10:22:08dht11humidity56percent
5180bbbba929e5d1f190e42603d5343f005d2021-03-02 10:27:10soilmoisture79percent
5181bbbba929e5d1f190e42603d5343f005d2021-03-02 10:27:10dht11temp20.4degree
5182bbbba929e5d1f190e42603d5343f005d2021-03-02 10:27:10dht11humidity56percent
5183bbbba929e5d1f190e42603d5343f005d2021-03-02 10:32:12soilmoisture79percent
5184bbbba929e5d1f190e42603d5343f005d2021-03-02 10:32:12dht11temp20.4degree
5185bbbba929e5d1f190e42603d5343f005d2021-03-02 10:32:13dht11humidity56percent
5186bbbba929e5d1f190e42603d5343f005d2021-03-02 10:37:14soilmoisture79percent
5187bbbba929e5d1f190e42603d5343f005d2021-03-02 10:37:15dht11temp20.4degree
5188bbbba929e5d1f190e42603d5343f005d2021-03-02 10:37:15dht11humidity58percent
5189bbbba929e5d1f190e42603d5343f005d2021-03-02 10:42:17soilmoisture79percent
5190bbbba929e5d1f190e42603d5343f005d2021-03-02 10:42:17dht11temp20.4degree
5191bbbba929e5d1f190e42603d5343f005d2021-03-02 10:42:17dht11humidity56percent
5192bbbba929e5d1f190e42603d5343f005d2021-03-02 10:47:19soilmoisture79percent
5193bbbba929e5d1f190e42603d5343f005d2021-03-02 10:47:19dht11temp20.4degree
5194bbbba929e5d1f190e42603d5343f005d2021-03-02 10:47:20dht11humidity56percent
5195bbbba929e5d1f190e42603d5343f005d2021-03-02 10:52:21soilmoisture79percent
5196bbbba929e5d1f190e42603d5343f005d2021-03-02 10:52:22dht11temp20.4degree
5197bbbba929e5d1f190e42603d5343f005d2021-03-02 10:52:22dht11humidity57percent
5198bbbba929e5d1f190e42603d5343f005d2021-03-02 10:57:24soilmoisture79percent
5199bbbba929e5d1f190e42603d5343f005d2021-03-02 10:57:24dht11temp20.5degree
5200bbbba929e5d1f190e42603d5343f005d2021-03-02 10:57:24dht11humidity57percent
5201bbbba929e5d1f190e42603d5343f005d2021-03-02 11:02:26soilmoisture79percent
5202bbbba929e5d1f190e42603d5343f005d2021-03-02 11:02:27dht11temp20.5degree
5203bbbba929e5d1f190e42603d5343f005d2021-03-02 11:02:27dht11humidity57percent
5204bbbba929e5d1f190e42603d5343f005d2021-03-02 11:07:29soilmoisture79percent
5205bbbba929e5d1f190e42603d5343f005d2021-03-02 11:07:30dht11temp20.6degree
5206bbbba929e5d1f190e42603d5343f005d2021-03-02 11:07:30dht11humidity56percent
5207bbbba929e5d1f190e42603d5343f005d2021-03-02 11:12:32soilmoisture79percent
5208bbbba929e5d1f190e42603d5343f005d2021-03-02 11:12:32dht11temp20.6degree
5209bbbba929e5d1f190e42603d5343f005d2021-03-02 11:12:32dht11humidity57percent
5210bbbba929e5d1f190e42603d5343f005d2021-03-02 11:17:34soilmoisture79percent
5211bbbba929e5d1f190e42603d5343f005d2021-03-02 11:17:34dht11temp20.6degree
5212bbbba929e5d1f190e42603d5343f005d2021-03-02 11:17:35dht11humidity56percent
5213bbbba929e5d1f190e42603d5343f005d2021-03-02 11:22:37soilmoisture79percent
5214bbbba929e5d1f190e42603d5343f005d2021-03-02 11:22:37dht11temp20.6degree
5215bbbba929e5d1f190e42603d5343f005d2021-03-02 11:22:37dht11humidity56percent
5216bbbba929e5d1f190e42603d5343f005d2021-03-02 11:27:39soilmoisture79percent
5217bbbba929e5d1f190e42603d5343f005d2021-03-02 11:27:39dht11temp20.6degree
5218bbbba929e5d1f190e42603d5343f005d2021-03-02 11:27:39dht11humidity56percent
5219bbbba929e5d1f190e42603d5343f005d2021-03-02 11:32:41soilmoisture79percent
5220bbbba929e5d1f190e42603d5343f005d2021-03-02 11:32:41dht11temp20.6degree
5221bbbba929e5d1f190e42603d5343f005d2021-03-02 11:32:41dht11humidity55percent
5222bbbba929e5d1f190e42603d5343f005d2021-03-02 11:37:43soilmoisture79percent
5223bbbba929e5d1f190e42603d5343f005d2021-03-02 11:37:43dht11temp20.6degree
5224bbbba929e5d1f190e42603d5343f005d2021-03-02 11:37:43dht11humidity56percent
5225bbbba929e5d1f190e42603d5343f005d2021-03-02 11:42:45soilmoisture79percent
5226bbbba929e5d1f190e42603d5343f005d2021-03-02 11:42:45dht11temp20.7degree
5227bbbba929e5d1f190e42603d5343f005d2021-03-02 11:42:45dht11humidity56percent
5228bbbba929e5d1f190e42603d5343f005d2021-03-02 11:47:46soilmoisture79percent
5229bbbba929e5d1f190e42603d5343f005d2021-03-02 11:47:47dht11temp20.7degree
5230bbbba929e5d1f190e42603d5343f005d2021-03-02 11:47:47dht11humidity57percent
5231bbbba929e5d1f190e42603d5343f005d2021-03-02 11:52:48soilmoisture79percent
5232bbbba929e5d1f190e42603d5343f005d2021-03-02 11:52:48dht11temp20.7degree
5233bbbba929e5d1f190e42603d5343f005d2021-03-02 11:52:49dht11humidity56percent
5234bbbba929e5d1f190e42603d5343f005d2021-03-02 11:57:50soilmoisture79percent
5235bbbba929e5d1f190e42603d5343f005d2021-03-02 11:57:50dht11temp20.8degree
5236bbbba929e5d1f190e42603d5343f005d2021-03-02 11:57:51dht11humidity56percent
5237bbbba929e5d1f190e42603d5343f005d2021-03-02 12:02:52soilmoisture79percent
5238bbbba929e5d1f190e42603d5343f005d2021-03-02 12:02:53dht11temp20.8degree
5239bbbba929e5d1f190e42603d5343f005d2021-03-02 12:02:53dht11humidity56percent
5240bbbba929e5d1f190e42603d5343f005d2021-03-02 12:07:55soilmoisture79percent
5241bbbba929e5d1f190e42603d5343f005d2021-03-02 12:07:55dht11temp20.8degree
5242bbbba929e5d1f190e42603d5343f005d2021-03-02 12:07:55dht11humidity56percent
5243bbbba929e5d1f190e42603d5343f005d2021-03-02 12:12:57soilmoisture79percent
5244bbbba929e5d1f190e42603d5343f005d2021-03-02 12:12:57dht11temp20.8degree
5245bbbba929e5d1f190e42603d5343f005d2021-03-02 12:12:57dht11humidity57percent
5246bbbba929e5d1f190e42603d5343f005d2021-03-02 12:17:58soilmoisture79percent
5247bbbba929e5d1f190e42603d5343f005d2021-03-02 12:17:59dht11temp20.8degree
5248bbbba929e5d1f190e42603d5343f005d2021-03-02 12:17:59dht11humidity56percent
5249bbbba929e5d1f190e42603d5343f005d2021-03-02 12:23:00soilmoisture79percent
5250bbbba929e5d1f190e42603d5343f005d2021-03-02 12:23:00dht11temp20.9degree
5251bbbba929e5d1f190e42603d5343f005d2021-03-02 12:23:01dht11humidity57percent
5252bbbba929e5d1f190e42603d5343f005d2021-03-02 12:28:02soilmoisture79percent
5253bbbba929e5d1f190e42603d5343f005d2021-03-02 12:28:02dht11temp21.1degree
5254bbbba929e5d1f190e42603d5343f005d2021-03-02 12:28:02dht11humidity57percent
5255bbbba929e5d1f190e42603d5343f005d2021-03-02 12:33:04soilmoisture79percent
5256bbbba929e5d1f190e42603d5343f005d2021-03-02 12:33:04dht11temp21.3degree
5257bbbba929e5d1f190e42603d5343f005d2021-03-02 12:33:04dht11humidity57percent
5258bbbba929e5d1f190e42603d5343f005d2021-03-02 12:38:06soilmoisture79percent
5259bbbba929e5d1f190e42603d5343f005d2021-03-02 12:38:06dht11temp21.3degree
5260bbbba929e5d1f190e42603d5343f005d2021-03-02 12:38:06dht11humidity55percent
5261bbbba929e5d1f190e42603d5343f005d2021-03-02 12:43:08soilmoisture79percent
5262bbbba929e5d1f190e42603d5343f005d2021-03-02 12:43:08dht11temp21.4degree
5263bbbba929e5d1f190e42603d5343f005d2021-03-02 12:43:08dht11humidity54percent
5264bbbba929e5d1f190e42603d5343f005d2021-03-02 12:48:10soilmoisture79percent
5265bbbba929e5d1f190e42603d5343f005d2021-03-02 12:48:10dht11temp21.5degree
5266bbbba929e5d1f190e42603d5343f005d2021-03-02 12:48:10dht11humidity54percent
5267bbbba929e5d1f190e42603d5343f005d2021-03-02 12:53:12soilmoisture79percent
5268bbbba929e5d1f190e42603d5343f005d2021-03-02 12:53:12dht11temp21.6degree
5269bbbba929e5d1f190e42603d5343f005d2021-03-02 12:53:12dht11humidity54percent
5270bbbba929e5d1f190e42603d5343f005d2021-03-02 12:58:14soilmoisture79percent
5271bbbba929e5d1f190e42603d5343f005d2021-03-02 12:58:14dht11temp21.7degree
5272bbbba929e5d1f190e42603d5343f005d2021-03-02 12:58:14dht11humidity55percent
5273bbbba929e5d1f190e42603d5343f005d2021-03-02 13:03:16soilmoisture79percent
5274bbbba929e5d1f190e42603d5343f005d2021-03-02 13:03:16dht11temp21.8degree
5275bbbba929e5d1f190e42603d5343f005d2021-03-02 13:03:16dht11humidity54percent
5276bbbba929e5d1f190e42603d5343f005d2021-03-02 13:08:18soilmoisture79percent
5277bbbba929e5d1f190e42603d5343f005d2021-03-02 13:08:18dht11temp21.8degree
5278bbbba929e5d1f190e42603d5343f005d2021-03-02 13:08:19dht11humidity56percent
5279bbbba929e5d1f190e42603d5343f005d2021-03-02 13:13:20soilmoisture79percent
5280bbbba929e5d1f190e42603d5343f005d2021-03-02 13:13:20dht11temp21.8degree
5281bbbba929e5d1f190e42603d5343f005d2021-03-02 13:13:21dht11humidity56percent
5282bbbba929e5d1f190e42603d5343f005d2021-03-02 13:18:22soilmoisture79percent
5283bbbba929e5d1f190e42603d5343f005d2021-03-02 13:18:22dht11temp21.8degree
5284bbbba929e5d1f190e42603d5343f005d2021-03-02 13:18:22dht11humidity56percent
5285bbbba929e5d1f190e42603d5343f005d2021-03-02 13:23:26soilmoisture79percent
5286bbbba929e5d1f190e42603d5343f005d2021-03-02 13:23:26dht11temp21.8degree
5287bbbba929e5d1f190e42603d5343f005d2021-03-02 13:23:26dht11humidity52percent
5288bbbba929e5d1f190e42603d5343f005d2021-03-02 13:28:27soilmoisture79percent
5289bbbba929e5d1f190e42603d5343f005d2021-03-02 13:28:28dht11temp21.4degree
5290bbbba929e5d1f190e42603d5343f005d2021-03-02 13:28:28dht11humidity49percent
5291bbbba929e5d1f190e42603d5343f005d2021-03-02 13:33:30soilmoisture79percent
5292bbbba929e5d1f190e42603d5343f005d2021-03-02 13:33:30dht11temp21degree
5293bbbba929e5d1f190e42603d5343f005d2021-03-02 13:33:30dht11humidity57percent
5294bbbba929e5d1f190e42603d5343f005d2021-03-02 13:38:32soilmoisture79percent
5295bbbba929e5d1f190e42603d5343f005d2021-03-02 13:38:33dht11temp20.9degree
5296bbbba929e5d1f190e42603d5343f005d2021-03-02 13:38:33dht11humidity46percent
5297bbbba929e5d1f190e42603d5343f005d2021-03-02 13:43:35soilmoisture79percent
5298bbbba929e5d1f190e42603d5343f005d2021-03-02 13:43:35dht11temp21.1degree
5299bbbba929e5d1f190e42603d5343f005d2021-03-02 13:43:35dht11humidity52percent
5300bbbba929e5d1f190e42603d5343f005d2021-03-02 13:48:36soilmoisture79percent
5301bbbba929e5d1f190e42603d5343f005d2021-03-02 13:48:37dht11temp21.4degree
5302bbbba929e5d1f190e42603d5343f005d2021-03-02 13:48:37dht11humidity46percent
5303bbbba929e5d1f190e42603d5343f005d2021-03-02 13:53:38soilmoisture79percent
5304bbbba929e5d1f190e42603d5343f005d2021-03-02 13:53:39dht11temp21.7degree
5305bbbba929e5d1f190e42603d5343f005d2021-03-02 13:53:39dht11humidity46percent
5306bbbba929e5d1f190e42603d5343f005d2021-03-02 13:58:40soilmoisture79percent
5307bbbba929e5d1f190e42603d5343f005d2021-03-02 13:58:41dht11temp21.9degree
5308bbbba929e5d1f190e42603d5343f005d2021-03-02 13:58:41dht11humidity47percent
5309bbbba929e5d1f190e42603d5343f005d2021-03-02 14:03:43soilmoisture79percent
5310bbbba929e5d1f190e42603d5343f005d2021-03-02 14:03:43dht11temp22.1degree
5311bbbba929e5d1f190e42603d5343f005d2021-03-02 14:03:43dht11humidity52percent
5312bbbba929e5d1f190e42603d5343f005d2021-03-02 14:08:44soilmoisture79percent
5313bbbba929e5d1f190e42603d5343f005d2021-03-02 14:08:45dht11temp22.2degree
5314bbbba929e5d1f190e42603d5343f005d2021-03-02 14:08:45dht11humidity49percent
5315bbbba929e5d1f190e42603d5343f005d2021-03-02 14:13:46soilmoisture79percent
5316bbbba929e5d1f190e42603d5343f005d2021-03-02 14:13:46dht11temp22.4degree
5317bbbba929e5d1f190e42603d5343f005d2021-03-02 14:13:47dht11humidity54percent
5318bbbba929e5d1f190e42603d5343f005d2021-03-02 14:18:48soilmoisture78percent
5319bbbba929e5d1f190e42603d5343f005d2021-03-02 14:18:49dht11temp22.5degree
5320bbbba929e5d1f190e42603d5343f005d2021-03-02 14:18:49dht11humidity58percent
5321bbbba929e5d1f190e42603d5343f005d2021-03-02 14:23:51soilmoisture79percent
5322bbbba929e5d1f190e42603d5343f005d2021-03-02 14:23:51dht11temp22.6degree
5323bbbba929e5d1f190e42603d5343f005d2021-03-02 14:23:51dht11humidity51percent
5324bbbba929e5d1f190e42603d5343f005d2021-03-02 14:28:53soilmoisture79percent
5325bbbba929e5d1f190e42603d5343f005d2021-03-02 14:28:53dht11temp22.7degree
5326bbbba929e5d1f190e42603d5343f005d2021-03-02 14:28:54dht11humidity49percent
5327bbbba929e5d1f190e42603d5343f005d2021-03-02 14:33:56soilmoisture78percent
5328bbbba929e5d1f190e42603d5343f005d2021-03-02 14:33:56dht11temp26.7degree
5329bbbba929e5d1f190e42603d5343f005d2021-03-02 14:33:56dht11humidity41percent
5330bbbba929e5d1f190e42603d5343f005d2021-03-02 14:38:58soilmoisture79percent
5331bbbba929e5d1f190e42603d5343f005d2021-03-02 14:38:58dht11temp31.8degree
5332bbbba929e5d1f190e42603d5343f005d2021-03-02 14:38:58dht11humidity32percent
5333bbbba929e5d1f190e42603d5343f005d2021-03-02 14:44:00soilmoisture79percent
5334bbbba929e5d1f190e42603d5343f005d2021-03-02 14:44:00dht11temp26.3degree
5335bbbba929e5d1f190e42603d5343f005d2021-03-02 14:44:01dht11humidity39percent
5336bbbba929e5d1f190e42603d5343f005d2021-03-02 14:49:03soilmoisture79percent
5337bbbba929e5d1f190e42603d5343f005d2021-03-02 14:49:03dht11temp24.6degree
5338bbbba929e5d1f190e42603d5343f005d2021-03-02 14:49:03dht11humidity42percent
5339bbbba929e5d1f190e42603d5343f005d2021-03-02 14:54:05soilmoisture79percent
5340bbbba929e5d1f190e42603d5343f005d2021-03-02 14:54:06dht11temp24.2degree
5341bbbba929e5d1f190e42603d5343f005d2021-03-02 14:54:06dht11humidity47percent
5342bbbba929e5d1f190e42603d5343f005d2021-03-02 14:59:08soilmoisture79percent
5343bbbba929e5d1f190e42603d5343f005d2021-03-02 14:59:08dht11temp24.2degree
5344bbbba929e5d1f190e42603d5343f005d2021-03-02 14:59:09dht11humidity48percent
5345bbbba929e5d1f190e42603d5343f005d2021-03-02 15:04:11soilmoisture79percent
5346bbbba929e5d1f190e42603d5343f005d2021-03-02 15:04:12dht11temp24.2degree
5347bbbba929e5d1f190e42603d5343f005d2021-03-02 15:04:12dht11humidity54percent
5348bbbba929e5d1f190e42603d5343f005d2021-03-02 15:09:14soilmoisture79percent
5349bbbba929e5d1f190e42603d5343f005d2021-03-02 15:09:14dht11temp24degree
5350bbbba929e5d1f190e42603d5343f005d2021-03-02 15:09:15dht11humidity49percent
5351bbbba929e5d1f190e42603d5343f005d2021-03-02 15:14:16soilmoisture79percent
5352bbbba929e5d1f190e42603d5343f005d2021-03-02 15:14:17dht11temp23.9degree
5353bbbba929e5d1f190e42603d5343f005d2021-03-02 15:14:17dht11humidity47percent
5354bbbba929e5d1f190e42603d5343f005d2021-03-02 15:19:19soilmoisture77percent
5355bbbba929e5d1f190e42603d5343f005d2021-03-02 15:19:19dht11temp23.9degree
5356bbbba929e5d1f190e42603d5343f005d2021-03-02 15:19:19dht11humidity49percent
5357bbbba929e5d1f190e42603d5343f005d2021-03-02 15:24:21soilmoisture79percent
5358bbbba929e5d1f190e42603d5343f005d2021-03-02 15:24:22dht11temp23.9degree
5359bbbba929e5d1f190e42603d5343f005d2021-03-02 15:24:22dht11humidity48percent
5360bbbba929e5d1f190e42603d5343f005d2021-03-02 15:29:24soilmoisture79percent
5361bbbba929e5d1f190e42603d5343f005d2021-03-02 15:29:24dht11temp23.9degree
5362bbbba929e5d1f190e42603d5343f005d2021-03-02 15:29:25dht11humidity53percent
5363bbbba929e5d1f190e42603d5343f005d2021-03-02 15:34:26soilmoisture79percent
5364bbbba929e5d1f190e42603d5343f005d2021-03-02 15:34:27dht11temp23.9degree
5365bbbba929e5d1f190e42603d5343f005d2021-03-02 15:34:27dht11humidity50percent
5366bbbba929e5d1f190e42603d5343f005d2021-03-02 15:39:29soilmoisture79percent
5367bbbba929e5d1f190e42603d5343f005d2021-03-02 15:39:29dht11temp24degree
5368bbbba929e5d1f190e42603d5343f005d2021-03-02 15:39:29dht11humidity50percent
5369bbbba929e5d1f190e42603d5343f005d2021-03-02 15:44:31soilmoisture79percent
5370bbbba929e5d1f190e42603d5343f005d2021-03-02 15:44:31dht11temp24degree
5371bbbba929e5d1f190e42603d5343f005d2021-03-02 15:44:32dht11humidity47percent
5372bbbba929e5d1f190e42603d5343f005d2021-03-02 15:49:34soilmoisture79percent
5373bbbba929e5d1f190e42603d5343f005d2021-03-02 15:49:34dht11temp24degree
5374bbbba929e5d1f190e42603d5343f005d2021-03-02 15:49:34dht11humidity48percent
5375bbbba929e5d1f190e42603d5343f005d2021-03-02 15:54:36soilmoisture79percent
5376bbbba929e5d1f190e42603d5343f005d2021-03-02 15:54:36dht11temp24.1degree
5377bbbba929e5d1f190e42603d5343f005d2021-03-02 15:54:36dht11humidity49percent
5378bbbba929e5d1f190e42603d5343f005d2021-03-02 15:59:39soilmoisture79percent
5379bbbba929e5d1f190e42603d5343f005d2021-03-02 15:59:40dht11temp24.1degree
5380bbbba929e5d1f190e42603d5343f005d2021-03-02 15:59:40dht11humidity51percent
5381bbbba929e5d1f190e42603d5343f005d2021-03-02 16:04:42soilmoisture79percent
5382bbbba929e5d1f190e42603d5343f005d2021-03-02 16:04:42dht11temp24.1degree
5383bbbba929e5d1f190e42603d5343f005d2021-03-02 16:04:42dht11humidity51percent
5384bbbba929e5d1f190e42603d5343f005d2021-03-02 16:09:45soilmoisture79percent
5385bbbba929e5d1f190e42603d5343f005d2021-03-02 16:09:46dht11temp24.1degree
5386bbbba929e5d1f190e42603d5343f005d2021-03-02 16:09:46dht11humidity48percent
5387bbbba929e5d1f190e42603d5343f005d2021-03-02 16:14:48soilmoisture79percent
5388bbbba929e5d1f190e42603d5343f005d2021-03-02 16:14:48dht11temp24degree
5389bbbba929e5d1f190e42603d5343f005d2021-03-02 16:14:49dht11humidity51percent
5390bbbba929e5d1f190e42603d5343f005d2021-03-02 16:19:50soilmoisture79percent
5391bbbba929e5d1f190e42603d5343f005d2021-03-02 16:19:51dht11temp24degree
5392bbbba929e5d1f190e42603d5343f005d2021-03-02 16:19:51dht11humidity50percent
5393bbbba929e5d1f190e42603d5343f005d2021-03-02 16:24:53soilmoisture79percent
5394bbbba929e5d1f190e42603d5343f005d2021-03-02 16:24:53dht11temp24degree
5395bbbba929e5d1f190e42603d5343f005d2021-03-02 16:24:54dht11humidity50percent
5396bbbba929e5d1f190e42603d5343f005d2021-03-02 16:29:56soilmoisture79percent
5397bbbba929e5d1f190e42603d5343f005d2021-03-02 16:29:56dht11temp23.9degree
5398bbbba929e5d1f190e42603d5343f005d2021-03-02 16:29:56dht11humidity55percent
5399bbbba929e5d1f190e42603d5343f005d2021-03-02 16:34:58soilmoisture79percent
5400bbbba929e5d1f190e42603d5343f005d2021-03-02 16:34:58dht11temp23.9degree
5401bbbba929e5d1f190e42603d5343f005d2021-03-02 16:34:59dht11humidity55percent
5402bbbba929e5d1f190e42603d5343f005d2021-03-02 16:40:00soilmoisture79percent
5403bbbba929e5d1f190e42603d5343f005d2021-03-02 16:40:01dht11temp23.9degree
5404bbbba929e5d1f190e42603d5343f005d2021-03-02 16:40:01dht11humidity51percent
5405bbbba929e5d1f190e42603d5343f005d2021-03-02 16:45:03soilmoisture79percent
5406bbbba929e5d1f190e42603d5343f005d2021-03-02 16:45:03dht11temp23.8degree
5407bbbba929e5d1f190e42603d5343f005d2021-03-02 16:45:04dht11humidity52percent
5408bbbba929e5d1f190e42603d5343f005d2021-03-02 16:50:05soilmoisture79percent
5409bbbba929e5d1f190e42603d5343f005d2021-03-02 16:50:06dht11temp23.8degree
5410bbbba929e5d1f190e42603d5343f005d2021-03-02 16:50:06dht11humidity51percent
5411bbbba929e5d1f190e42603d5343f005d2021-03-02 16:55:08soilmoisture79percent
5412bbbba929e5d1f190e42603d5343f005d2021-03-02 16:55:08dht11temp23.8degree
5413bbbba929e5d1f190e42603d5343f005d2021-03-02 16:55:08dht11humidity62percent
5414bbbba929e5d1f190e42603d5343f005d2021-03-02 17:00:10soilmoisture79percent
5415bbbba929e5d1f190e42603d5343f005d2021-03-02 17:00:10dht11temp23.8degree
5416bbbba929e5d1f190e42603d5343f005d2021-03-02 17:00:10dht11humidity66percent
5417bbbba929e5d1f190e42603d5343f005d2021-03-02 17:05:12soilmoisture79percent
5418bbbba929e5d1f190e42603d5343f005d2021-03-02 17:05:12dht11temp23.8degree
5419bbbba929e5d1f190e42603d5343f005d2021-03-02 17:05:13dht11humidity70percent
5420bbbba929e5d1f190e42603d5343f005d2021-03-02 17:10:14soilmoisture79percent
5421bbbba929e5d1f190e42603d5343f005d2021-03-02 17:10:14dht11temp23.8degree
5422bbbba929e5d1f190e42603d5343f005d2021-03-02 17:10:15dht11humidity67percent
5423bbbba929e5d1f190e42603d5343f005d2021-03-02 17:15:16soilmoisture79percent
5424bbbba929e5d1f190e42603d5343f005d2021-03-02 17:15:16dht11temp23.6degree
5425bbbba929e5d1f190e42603d5343f005d2021-03-02 17:15:16dht11humidity68percent
5426bbbba929e5d1f190e42603d5343f005d2021-03-02 17:20:18soilmoisture79percent
5427bbbba929e5d1f190e42603d5343f005d2021-03-02 17:20:18dht11temp23.5degree
5428bbbba929e5d1f190e42603d5343f005d2021-03-02 17:20:18dht11humidity64percent
5429bbbba929e5d1f190e42603d5343f005d2021-03-02 17:25:20soilmoisture79percent
5430bbbba929e5d1f190e42603d5343f005d2021-03-02 17:25:20dht11temp23.3degree
5431bbbba929e5d1f190e42603d5343f005d2021-03-02 17:25:21dht11humidity64percent
5432bbbba929e5d1f190e42603d5343f005d2021-03-02 17:30:22soilmoisture80percent
5433bbbba929e5d1f190e42603d5343f005d2021-03-02 17:30:22dht11temp23.3degree
5434bbbba929e5d1f190e42603d5343f005d2021-03-02 17:30:23dht11humidity64percent
5435bbbba929e5d1f190e42603d5343f005d2021-03-02 17:35:24soilmoisture79percent
5436bbbba929e5d1f190e42603d5343f005d2021-03-02 17:35:24dht11temp23.2degree
5437bbbba929e5d1f190e42603d5343f005d2021-03-02 17:35:25dht11humidity66percent
5438bbbba929e5d1f190e42603d5343f005d2021-03-02 17:40:26soilmoisture80percent
5439bbbba929e5d1f190e42603d5343f005d2021-03-02 17:40:26dht11temp23.2degree
5440bbbba929e5d1f190e42603d5343f005d2021-03-02 17:40:26dht11humidity63percent
5441bbbba929e5d1f190e42603d5343f005d2021-03-02 17:45:28soilmoisture80percent
5442bbbba929e5d1f190e42603d5343f005d2021-03-02 17:45:28dht11temp23.1degree
5443bbbba929e5d1f190e42603d5343f005d2021-03-02 17:45:28dht11humidity67percent
5444bbbba929e5d1f190e42603d5343f005d2021-03-02 17:50:30soilmoisture79percent
5445bbbba929e5d1f190e42603d5343f005d2021-03-02 17:50:30dht11temp23.1degree
5446bbbba929e5d1f190e42603d5343f005d2021-03-02 17:50:30dht11humidity70percent
5447bbbba929e5d1f190e42603d5343f005d2021-03-02 17:55:32soilmoisture80percent
5448bbbba929e5d1f190e42603d5343f005d2021-03-02 17:55:32dht11temp23degree
5449bbbba929e5d1f190e42603d5343f005d2021-03-02 17:55:32dht11humidity69percent
5450bbbba929e5d1f190e42603d5343f005d2021-03-02 18:00:33soilmoisture79percent
5451bbbba929e5d1f190e42603d5343f005d2021-03-02 18:00:33dht11temp22.9degree
5452bbbba929e5d1f190e42603d5343f005d2021-03-02 18:00:34dht11humidity67percent
5453bbbba929e5d1f190e42603d5343f005d2021-03-02 18:05:35soilmoisture79percent
5454bbbba929e5d1f190e42603d5343f005d2021-03-02 18:05:35dht11temp22.8degree
5455bbbba929e5d1f190e42603d5343f005d2021-03-02 18:05:36dht11humidity64percent
5456bbbba929e5d1f190e42603d5343f005d2021-03-02 18:10:37soilmoisture79percent
5457bbbba929e5d1f190e42603d5343f005d2021-03-02 18:10:38dht11temp22.7degree
5458bbbba929e5d1f190e42603d5343f005d2021-03-02 18:10:38dht11humidity67percent
5459bbbba929e5d1f190e42603d5343f005d2021-03-02 18:15:39soilmoisture80percent
5460bbbba929e5d1f190e42603d5343f005d2021-03-02 18:15:40dht11temp22.7degree
5461bbbba929e5d1f190e42603d5343f005d2021-03-02 18:15:40dht11humidity65percent
5462bbbba929e5d1f190e42603d5343f005d2021-03-02 18:20:41soilmoisture80percent
5463bbbba929e5d1f190e42603d5343f005d2021-03-02 18:20:42dht11temp22.6degree
5464bbbba929e5d1f190e42603d5343f005d2021-03-02 18:20:42dht11humidity64percent
5465bbbba929e5d1f190e42603d5343f005d2021-03-02 18:25:43soilmoisture80percent
5466bbbba929e5d1f190e42603d5343f005d2021-03-02 18:25:44dht11temp22.6degree
5467bbbba929e5d1f190e42603d5343f005d2021-03-02 18:25:44dht11humidity61percent
5468bbbba929e5d1f190e42603d5343f005d2021-03-02 18:30:45soilmoisture80percent
5469bbbba929e5d1f190e42603d5343f005d2021-03-02 18:30:45dht11temp22.6degree
5470bbbba929e5d1f190e42603d5343f005d2021-03-02 18:30:46dht11humidity62percent
5471bbbba929e5d1f190e42603d5343f005d2021-03-02 18:35:47soilmoisture80percent
5472bbbba929e5d1f190e42603d5343f005d2021-03-02 18:35:47dht11temp22.6degree
5473bbbba929e5d1f190e42603d5343f005d2021-03-02 18:35:47dht11humidity59percent
5474bbbba929e5d1f190e42603d5343f005d2021-03-02 18:40:49soilmoisture80percent
5475bbbba929e5d1f190e42603d5343f005d2021-03-02 18:40:49dht11temp22.6degree
5476bbbba929e5d1f190e42603d5343f005d2021-03-02 18:40:49dht11humidity60percent
5477bbbba929e5d1f190e42603d5343f005d2021-03-02 18:45:51soilmoisture80percent
5478bbbba929e5d1f190e42603d5343f005d2021-03-02 18:45:51dht11temp22.6degree
5479bbbba929e5d1f190e42603d5343f005d2021-03-02 18:45:51dht11humidity59percent
5480bbbba929e5d1f190e42603d5343f005d2021-03-02 18:50:53soilmoisture80percent
5481bbbba929e5d1f190e42603d5343f005d2021-03-02 18:50:53dht11temp22.6degree
5482bbbba929e5d1f190e42603d5343f005d2021-03-02 18:50:53dht11humidity60percent
5483bbbba929e5d1f190e42603d5343f005d2021-03-02 18:55:55soilmoisture80percent
5484bbbba929e5d1f190e42603d5343f005d2021-03-02 18:55:55dht11temp22.5degree
5485bbbba929e5d1f190e42603d5343f005d2021-03-02 18:55:55dht11humidity60percent
5486bbbba929e5d1f190e42603d5343f005d2021-03-02 19:00:57soilmoisture80percent
5487bbbba929e5d1f190e42603d5343f005d2021-03-02 19:00:57dht11temp22.6degree
5488bbbba929e5d1f190e42603d5343f005d2021-03-02 19:00:57dht11humidity58percent
5489bbbba929e5d1f190e42603d5343f005d2021-03-02 19:06:00soilmoisture79percent
5490bbbba929e5d1f190e42603d5343f005d2021-03-02 19:06:00dht11temp22.5degree
5491bbbba929e5d1f190e42603d5343f005d2021-03-02 19:06:00dht11humidity55percent
5492bbbba929e5d1f190e42603d5343f005d2021-03-02 19:11:02soilmoisture80percent
5493bbbba929e5d1f190e42603d5343f005d2021-03-02 19:11:02dht11temp22.5degree
5494bbbba929e5d1f190e42603d5343f005d2021-03-02 19:11:02dht11humidity59percent
5495bbbba929e5d1f190e42603d5343f005d2021-03-02 19:16:04soilmoisture80percent
5496bbbba929e5d1f190e42603d5343f005d2021-03-02 19:16:04dht11temp22.5degree
5497bbbba929e5d1f190e42603d5343f005d2021-03-02 19:16:04dht11humidity58percent
5498bbbba929e5d1f190e42603d5343f005d2021-03-02 19:21:06soilmoisture80percent
5499bbbba929e5d1f190e42603d5343f005d2021-03-02 19:21:06dht11temp22.5degree
5500bbbba929e5d1f190e42603d5343f005d2021-03-02 19:21:06dht11humidity59percent
5501bbbba929e5d1f190e42603d5343f005d2021-03-02 19:26:08soilmoisture80percent
5502bbbba929e5d1f190e42603d5343f005d2021-03-02 19:26:08dht11temp22.5degree
5503bbbba929e5d1f190e42603d5343f005d2021-03-02 19:26:08dht11humidity58percent
5504bbbba929e5d1f190e42603d5343f005d2021-03-02 19:31:09soilmoisture79percent
5505bbbba929e5d1f190e42603d5343f005d2021-03-02 19:31:10dht11temp22.5degree
5506bbbba929e5d1f190e42603d5343f005d2021-03-02 19:31:10dht11humidity58percent
5507bbbba929e5d1f190e42603d5343f005d2021-03-02 19:36:11soilmoisture80percent
5508bbbba929e5d1f190e42603d5343f005d2021-03-02 19:36:12dht11temp22.5degree
5509bbbba929e5d1f190e42603d5343f005d2021-03-02 19:36:12dht11humidity56percent
5510bbbba929e5d1f190e42603d5343f005d2021-03-02 19:41:13soilmoisture80percent
5511bbbba929e5d1f190e42603d5343f005d2021-03-02 19:41:13dht11temp22.5degree
5512bbbba929e5d1f190e42603d5343f005d2021-03-02 19:41:14dht11humidity55percent
5513bbbba929e5d1f190e42603d5343f005d2021-03-02 19:46:16soilmoisture80percent
5514bbbba929e5d1f190e42603d5343f005d2021-03-02 19:46:16dht11temp22.5degree
5515bbbba929e5d1f190e42603d5343f005d2021-03-02 19:46:16dht11humidity53percent
5516bbbba929e5d1f190e42603d5343f005d2021-03-02 19:51:18soilmoisture80percent
5517bbbba929e5d1f190e42603d5343f005d2021-03-02 19:51:18dht11temp22.5degree
5518bbbba929e5d1f190e42603d5343f005d2021-03-02 19:51:18dht11humidity55percent
5519bbbba929e5d1f190e42603d5343f005d2021-03-02 19:56:20soilmoisture80percent
5520bbbba929e5d1f190e42603d5343f005d2021-03-02 19:56:20dht11temp22.5degree
5521bbbba929e5d1f190e42603d5343f005d2021-03-02 19:56:20dht11humidity55percent
5522bbbba929e5d1f190e42603d5343f005d2021-03-02 20:01:22soilmoisture80percent
5523bbbba929e5d1f190e42603d5343f005d2021-03-02 20:01:22dht11temp22.6degree
5524bbbba929e5d1f190e42603d5343f005d2021-03-02 20:01:22dht11humidity55percent
5525bbbba929e5d1f190e42603d5343f005d2021-03-02 20:06:24soilmoisture80percent
5526bbbba929e5d1f190e42603d5343f005d2021-03-02 20:06:24dht11temp22.5degree
5527bbbba929e5d1f190e42603d5343f005d2021-03-02 20:06:25dht11humidity56percent
5528bbbba929e5d1f190e42603d5343f005d2021-03-02 20:11:26soilmoisture80percent
5529bbbba929e5d1f190e42603d5343f005d2021-03-02 20:11:27dht11temp22.6degree
5530bbbba929e5d1f190e42603d5343f005d2021-03-02 20:11:27dht11humidity54percent
5531bbbba929e5d1f190e42603d5343f005d2021-03-02 20:16:28soilmoisture80percent
5532bbbba929e5d1f190e42603d5343f005d2021-03-02 20:16:29dht11temp22.5degree
5533bbbba929e5d1f190e42603d5343f005d2021-03-02 20:16:29dht11humidity57percent
5534bbbba929e5d1f190e42603d5343f005d2021-03-02 20:21:30soilmoisture79percent
5535bbbba929e5d1f190e42603d5343f005d2021-03-02 20:21:30dht11temp22.5degree
5536bbbba929e5d1f190e42603d5343f005d2021-03-02 20:21:31dht11humidity56percent
5537bbbba929e5d1f190e42603d5343f005d2021-03-02 20:26:32soilmoisture80percent
5538bbbba929e5d1f190e42603d5343f005d2021-03-02 20:26:32dht11temp22.5degree
5539bbbba929e5d1f190e42603d5343f005d2021-03-02 20:26:32dht11humidity55percent
5540bbbba929e5d1f190e42603d5343f005d2021-03-02 20:31:34soilmoisture80percent
5541bbbba929e5d1f190e42603d5343f005d2021-03-02 20:31:34dht11temp22.5degree
5542bbbba929e5d1f190e42603d5343f005d2021-03-02 20:31:34dht11humidity55percent
5543bbbba929e5d1f190e42603d5343f005d2021-03-02 20:36:36soilmoisture80percent
5544bbbba929e5d1f190e42603d5343f005d2021-03-02 20:36:36dht11temp22.4degree
5545bbbba929e5d1f190e42603d5343f005d2021-03-02 20:36:36dht11humidity55percent
5546bbbba929e5d1f190e42603d5343f005d2021-03-02 20:41:38soilmoisture79percent
5547bbbba929e5d1f190e42603d5343f005d2021-03-02 20:41:38dht11temp22.4degree
5548bbbba929e5d1f190e42603d5343f005d2021-03-02 20:41:38dht11humidity57percent
5549bbbba929e5d1f190e42603d5343f005d2021-03-02 20:46:41soilmoisture80percent
5550bbbba929e5d1f190e42603d5343f005d2021-03-02 20:46:41dht11temp22.5degree
5551bbbba929e5d1f190e42603d5343f005d2021-03-02 20:46:41dht11humidity56percent
5552bbbba929e5d1f190e42603d5343f005d2021-03-02 20:51:43soilmoisture80percent
5553bbbba929e5d1f190e42603d5343f005d2021-03-02 20:51:43dht11temp22.5degree
5554bbbba929e5d1f190e42603d5343f005d2021-03-02 20:51:43dht11humidity58percent
5555bbbba929e5d1f190e42603d5343f005d2021-03-02 20:56:45soilmoisture80percent
5556bbbba929e5d1f190e42603d5343f005d2021-03-02 20:56:45dht11temp22.5degree
5557bbbba929e5d1f190e42603d5343f005d2021-03-02 20:56:45dht11humidity56percent
5558bbbba929e5d1f190e42603d5343f005d2021-03-02 21:01:47soilmoisture79percent
5559bbbba929e5d1f190e42603d5343f005d2021-03-02 21:01:47dht11temp22.5degree
5560bbbba929e5d1f190e42603d5343f005d2021-03-02 21:01:47dht11humidity56percent
5561bbbba929e5d1f190e42603d5343f005d2021-03-02 21:06:49soilmoisture79percent
5562bbbba929e5d1f190e42603d5343f005d2021-03-02 21:06:50dht11temp22.4degree
5563bbbba929e5d1f190e42603d5343f005d2021-03-02 21:06:50dht11humidity57percent
5564bbbba929e5d1f190e42603d5343f005d2021-03-02 21:11:51soilmoisture81percent
5565bbbba929e5d1f190e42603d5343f005d2021-03-02 21:11:51dht11temp22.4degree
5566bbbba929e5d1f190e42603d5343f005d2021-03-02 21:11:52dht11humidity58percent
5567bbbba929e5d1f190e42603d5343f005d2021-03-02 21:16:53soilmoisture81percent
5568bbbba929e5d1f190e42603d5343f005d2021-03-02 21:16:53dht11temp22.5degree
5569bbbba929e5d1f190e42603d5343f005d2021-03-02 21:16:54dht11humidity61percent
5570bbbba929e5d1f190e42603d5343f005d2021-03-02 21:21:55soilmoisture81percent
5571bbbba929e5d1f190e42603d5343f005d2021-03-02 21:21:55dht11temp22.4degree
5572bbbba929e5d1f190e42603d5343f005d2021-03-02 21:21:55dht11humidity58percent
5573bbbba929e5d1f190e42603d5343f005d2021-03-02 21:26:57soilmoisture81percent
5574bbbba929e5d1f190e42603d5343f005d2021-03-02 21:26:57dht11temp22.3degree
5575bbbba929e5d1f190e42603d5343f005d2021-03-02 21:26:57dht11humidity63percent
5576bbbba929e5d1f190e42603d5343f005d2021-03-02 21:31:59soilmoisture81percent
5577bbbba929e5d1f190e42603d5343f005d2021-03-02 21:31:59dht11temp22.3degree
5578bbbba929e5d1f190e42603d5343f005d2021-03-02 21:31:59dht11humidity60percent
5579bbbba929e5d1f190e42603d5343f005d2021-03-02 21:37:01soilmoisture81percent
5580bbbba929e5d1f190e42603d5343f005d2021-03-02 21:37:01dht11temp22.3degree
5581bbbba929e5d1f190e42603d5343f005d2021-03-02 21:37:01dht11humidity59percent
5582bbbba929e5d1f190e42603d5343f005d2021-03-02 21:42:03soilmoisture81percent
5583bbbba929e5d1f190e42603d5343f005d2021-03-02 21:42:03dht11temp22.3degree
5584bbbba929e5d1f190e42603d5343f005d2021-03-02 21:42:03dht11humidity57percent
5585bbbba929e5d1f190e42603d5343f005d2021-03-02 21:47:05soilmoisture81percent
5586bbbba929e5d1f190e42603d5343f005d2021-03-02 21:47:05dht11temp22.2degree
5587bbbba929e5d1f190e42603d5343f005d2021-03-02 21:47:05dht11humidity58percent
5588bbbba929e5d1f190e42603d5343f005d2021-03-02 21:52:07soilmoisture81percent
5589bbbba929e5d1f190e42603d5343f005d2021-03-02 21:52:07dht11temp22.3degree
5590bbbba929e5d1f190e42603d5343f005d2021-03-02 21:52:07dht11humidity59percent
5591bbbba929e5d1f190e42603d5343f005d2021-03-02 21:57:08soilmoisture81percent
5592bbbba929e5d1f190e42603d5343f005d2021-03-02 21:57:09dht11temp22.3degree
5593bbbba929e5d1f190e42603d5343f005d2021-03-02 21:57:09dht11humidity60percent
5594bbbba929e5d1f190e42603d5343f005d2021-03-02 22:02:11soilmoisture81percent
5595bbbba929e5d1f190e42603d5343f005d2021-03-02 22:02:11dht11temp22.2degree
5596bbbba929e5d1f190e42603d5343f005d2021-03-02 22:02:11dht11humidity59percent
5597bbbba929e5d1f190e42603d5343f005d2021-03-02 22:07:12soilmoisture81percent
5598bbbba929e5d1f190e42603d5343f005d2021-03-02 22:07:13dht11temp22.2degree
5599bbbba929e5d1f190e42603d5343f005d2021-03-02 22:07:13dht11humidity59percent
5600bbbba929e5d1f190e42603d5343f005d2021-03-02 22:12:14soilmoisture81percent
5601bbbba929e5d1f190e42603d5343f005d2021-03-02 22:12:14dht11temp22.2degree
5602bbbba929e5d1f190e42603d5343f005d2021-03-02 22:12:15dht11humidity59percent
5603bbbba929e5d1f190e42603d5343f005d2021-03-02 22:17:16soilmoisture81percent
5604bbbba929e5d1f190e42603d5343f005d2021-03-02 22:17:16dht11temp22.2degree
5605bbbba929e5d1f190e42603d5343f005d2021-03-02 22:17:17dht11humidity59percent
5606bbbba929e5d1f190e42603d5343f005d2021-03-02 22:22:18soilmoisture82percent
5607bbbba929e5d1f190e42603d5343f005d2021-03-02 22:22:18dht11temp22.2degree
5608bbbba929e5d1f190e42603d5343f005d2021-03-02 22:22:18dht11humidity57percent
5609bbbba929e5d1f190e42603d5343f005d2021-03-02 22:27:20soilmoisture82percent
5610bbbba929e5d1f190e42603d5343f005d2021-03-02 22:27:20dht11temp22.2degree
5611bbbba929e5d1f190e42603d5343f005d2021-03-02 22:27:20dht11humidity58percent
5612bbbba929e5d1f190e42603d5343f005d2021-03-02 22:32:22soilmoisture82percent
5613bbbba929e5d1f190e42603d5343f005d2021-03-02 22:32:22dht11temp22.2degree
5614bbbba929e5d1f190e42603d5343f005d2021-03-02 22:32:22dht11humidity57percent
5615bbbba929e5d1f190e42603d5343f005d2021-03-02 22:37:24soilmoisture81percent
5616bbbba929e5d1f190e42603d5343f005d2021-03-02 22:37:24dht11temp22.2degree
5617bbbba929e5d1f190e42603d5343f005d2021-03-02 22:37:24dht11humidity56percent
5618bbbba929e5d1f190e42603d5343f005d2021-03-02 22:42:26soilmoisture82percent
5619bbbba929e5d1f190e42603d5343f005d2021-03-02 22:42:26dht11temp22.1degree
5620bbbba929e5d1f190e42603d5343f005d2021-03-02 22:42:26dht11humidity57percent
5621bbbba929e5d1f190e42603d5343f005d2021-03-02 22:47:28soilmoisture81percent
5622bbbba929e5d1f190e42603d5343f005d2021-03-02 22:47:28dht11temp22.2degree
5623bbbba929e5d1f190e42603d5343f005d2021-03-02 22:47:28dht11humidity55percent
5624bbbba929e5d1f190e42603d5343f005d2021-03-02 22:52:30soilmoisture82percent
5625bbbba929e5d1f190e42603d5343f005d2021-03-02 22:52:30dht11temp22.2degree
5626bbbba929e5d1f190e42603d5343f005d2021-03-02 22:52:31dht11humidity55percent
5627bbbba929e5d1f190e42603d5343f005d2021-03-02 22:57:32soilmoisture81percent
5628bbbba929e5d1f190e42603d5343f005d2021-03-02 22:57:32dht11temp22.2degree
5629bbbba929e5d1f190e42603d5343f005d2021-03-02 22:57:32dht11humidity57percent
5630bbbba929e5d1f190e42603d5343f005d2021-03-02 23:02:34soilmoisture81percent
5631bbbba929e5d1f190e42603d5343f005d2021-03-02 23:02:34dht11temp22.1degree
5632bbbba929e5d1f190e42603d5343f005d2021-03-02 23:02:34dht11humidity56percent
5633bbbba929e5d1f190e42603d5343f005d2021-03-02 23:07:36soilmoisture81percent
5634bbbba929e5d1f190e42603d5343f005d2021-03-02 23:07:36dht11temp22.1degree
5635bbbba929e5d1f190e42603d5343f005d2021-03-02 23:07:37dht11humidity55percent
5636bbbba929e5d1f190e42603d5343f005d2021-03-02 23:12:39soilmoisture82percent
5637bbbba929e5d1f190e42603d5343f005d2021-03-02 23:12:39dht11temp22.1degree
5638bbbba929e5d1f190e42603d5343f005d2021-03-02 23:12:39dht11humidity57percent
5639bbbba929e5d1f190e42603d5343f005d2021-03-02 23:17:41soilmoisture82percent
5640bbbba929e5d1f190e42603d5343f005d2021-03-02 23:17:41dht11temp22.1degree
5641bbbba929e5d1f190e42603d5343f005d2021-03-02 23:17:41dht11humidity56percent
5642bbbba929e5d1f190e42603d5343f005d2021-03-02 23:22:43soilmoisture82percent
5643bbbba929e5d1f190e42603d5343f005d2021-03-02 23:22:43dht11temp22.1degree
5644bbbba929e5d1f190e42603d5343f005d2021-03-02 23:22:43dht11humidity56percent
5645bbbba929e5d1f190e42603d5343f005d2021-03-02 23:27:45soilmoisture82percent
5646bbbba929e5d1f190e42603d5343f005d2021-03-02 23:27:45dht11temp22.1degree
5647bbbba929e5d1f190e42603d5343f005d2021-03-02 23:27:45dht11humidity57percent
5648bbbba929e5d1f190e42603d5343f005d2021-03-02 23:32:47soilmoisture82percent
5649bbbba929e5d1f190e42603d5343f005d2021-03-02 23:32:47dht11temp22.1degree
5650bbbba929e5d1f190e42603d5343f005d2021-03-02 23:32:47dht11humidity56percent
5651bbbba929e5d1f190e42603d5343f005d2021-03-02 23:37:49soilmoisture82percent
5652bbbba929e5d1f190e42603d5343f005d2021-03-02 23:37:49dht11temp22.1degree
5653bbbba929e5d1f190e42603d5343f005d2021-03-02 23:37:49dht11humidity56percent
5654bbbba929e5d1f190e42603d5343f005d2021-03-02 23:42:51soilmoisture82percent
5655bbbba929e5d1f190e42603d5343f005d2021-03-02 23:42:51dht11temp22.1degree
5656bbbba929e5d1f190e42603d5343f005d2021-03-02 23:42:51dht11humidity58percent
5657bbbba929e5d1f190e42603d5343f005d2021-03-02 23:47:52soilmoisture82percent
5658bbbba929e5d1f190e42603d5343f005d2021-03-02 23:47:53dht11temp22.1degree
5659bbbba929e5d1f190e42603d5343f005d2021-03-02 23:47:53dht11humidity59percent
5660bbbba929e5d1f190e42603d5343f005d2021-03-02 23:52:54soilmoisture82percent
5661bbbba929e5d1f190e42603d5343f005d2021-03-02 23:52:55dht11temp22degree
5662bbbba929e5d1f190e42603d5343f005d2021-03-02 23:52:55dht11humidity57percent
5663bbbba929e5d1f190e42603d5343f005d2021-03-02 23:57:56soilmoisture82percent
5664bbbba929e5d1f190e42603d5343f005d2021-03-02 23:57:56dht11temp22degree
5665bbbba929e5d1f190e42603d5343f005d2021-03-02 23:57:57dht11humidity58percent
5666bbbba929e5d1f190e42603d5343f005d2021-03-03 00:02:58soilmoisture82percent
5667bbbba929e5d1f190e42603d5343f005d2021-03-03 00:02:58dht11temp22degree
5668bbbba929e5d1f190e42603d5343f005d2021-03-03 00:02:58dht11humidity58percent
5669bbbba929e5d1f190e42603d5343f005d2021-03-03 00:08:00soilmoisture82percent
5670bbbba929e5d1f190e42603d5343f005d2021-03-03 00:08:00dht11temp21.9degree
5671bbbba929e5d1f190e42603d5343f005d2021-03-03 00:08:00dht11humidity58percent
5672bbbba929e5d1f190e42603d5343f005d2021-03-03 00:13:01soilmoisture82percent
5673bbbba929e5d1f190e42603d5343f005d2021-03-03 00:13:02dht11temp21.9degree
5674bbbba929e5d1f190e42603d5343f005d2021-03-03 00:13:02dht11humidity58percent
5675bbbba929e5d1f190e42603d5343f005d2021-03-03 00:18:03soilmoisture82percent
5676bbbba929e5d1f190e42603d5343f005d2021-03-03 00:18:03dht11temp21.9degree
5677bbbba929e5d1f190e42603d5343f005d2021-03-03 00:18:04dht11humidity59percent
5678bbbba929e5d1f190e42603d5343f005d2021-03-03 00:23:05soilmoisture82percent
5679bbbba929e5d1f190e42603d5343f005d2021-03-03 00:23:05dht11temp21.9degree
5680bbbba929e5d1f190e42603d5343f005d2021-03-03 00:23:05dht11humidity60percent
5681bbbba929e5d1f190e42603d5343f005d2021-03-03 00:28:07soilmoisture82percent
5682bbbba929e5d1f190e42603d5343f005d2021-03-03 00:28:07dht11temp21.8degree
5683bbbba929e5d1f190e42603d5343f005d2021-03-03 00:28:07dht11humidity59percent
5684bbbba929e5d1f190e42603d5343f005d2021-03-03 00:33:09soilmoisture82percent
5685bbbba929e5d1f190e42603d5343f005d2021-03-03 00:33:09dht11temp21.8degree
5686bbbba929e5d1f190e42603d5343f005d2021-03-03 00:33:09dht11humidity60percent
5687bbbba929e5d1f190e42603d5343f005d2021-03-03 00:38:11soilmoisture82percent
5688bbbba929e5d1f190e42603d5343f005d2021-03-03 00:38:11dht11temp21.8degree
5689bbbba929e5d1f190e42603d5343f005d2021-03-03 00:38:11dht11humidity57percent
5690bbbba929e5d1f190e42603d5343f005d2021-03-03 00:43:13soilmoisture82percent
5691bbbba929e5d1f190e42603d5343f005d2021-03-03 00:43:13dht11temp21.8degree
5692bbbba929e5d1f190e42603d5343f005d2021-03-03 00:43:13dht11humidity60percent
5693bbbba929e5d1f190e42603d5343f005d2021-03-03 00:48:15soilmoisture82percent
5694bbbba929e5d1f190e42603d5343f005d2021-03-03 00:48:15dht11temp21.8degree
5695bbbba929e5d1f190e42603d5343f005d2021-03-03 00:48:15dht11humidity60percent
5696bbbba929e5d1f190e42603d5343f005d2021-03-03 00:53:17soilmoisture82percent
5697bbbba929e5d1f190e42603d5343f005d2021-03-03 00:53:17dht11temp21.8degree
5698bbbba929e5d1f190e42603d5343f005d2021-03-03 00:53:17dht11humidity60percent
5699bbbba929e5d1f190e42603d5343f005d2021-03-03 00:58:18soilmoisture82percent
5700bbbba929e5d1f190e42603d5343f005d2021-03-03 00:58:19dht11temp21.7degree
5701bbbba929e5d1f190e42603d5343f005d2021-03-03 00:58:19dht11humidity62percent
5702bbbba929e5d1f190e42603d5343f005d2021-03-03 01:03:20soilmoisture82percent
5703bbbba929e5d1f190e42603d5343f005d2021-03-03 01:03:21dht11temp21.7degree
5704bbbba929e5d1f190e42603d5343f005d2021-03-03 01:03:21dht11humidity59percent
5705bbbba929e5d1f190e42603d5343f005d2021-03-03 01:08:22soilmoisture82percent
5706bbbba929e5d1f190e42603d5343f005d2021-03-03 01:08:23dht11temp21.7degree
5707bbbba929e5d1f190e42603d5343f005d2021-03-03 01:08:23dht11humidity61percent
5708bbbba929e5d1f190e42603d5343f005d2021-03-03 01:13:24soilmoisture82percent
5709bbbba929e5d1f190e42603d5343f005d2021-03-03 01:13:24dht11temp21.6degree
5710bbbba929e5d1f190e42603d5343f005d2021-03-03 01:13:25dht11humidity58percent
5711bbbba929e5d1f190e42603d5343f005d2021-03-03 01:18:26soilmoisture82percent
5712bbbba929e5d1f190e42603d5343f005d2021-03-03 01:18:26dht11temp21.6degree
5713bbbba929e5d1f190e42603d5343f005d2021-03-03 01:18:26dht11humidity60percent
5714bbbba929e5d1f190e42603d5343f005d2021-03-03 01:23:28soilmoisture82percent
5715bbbba929e5d1f190e42603d5343f005d2021-03-03 01:23:28dht11temp21.4degree
5716bbbba929e5d1f190e42603d5343f005d2021-03-03 01:23:29dht11humidity58percent
5717bbbba929e5d1f190e42603d5343f005d2021-03-03 01:28:30soilmoisture82percent
5718bbbba929e5d1f190e42603d5343f005d2021-03-03 01:28:30dht11temp21.2degree
5719bbbba929e5d1f190e42603d5343f005d2021-03-03 01:28:30dht11humidity60percent
5720bbbba929e5d1f190e42603d5343f005d2021-03-03 01:33:32soilmoisture82percent
5721bbbba929e5d1f190e42603d5343f005d2021-03-03 01:33:32dht11temp21.1degree
5722bbbba929e5d1f190e42603d5343f005d2021-03-03 01:33:32dht11humidity59percent
5723bbbba929e5d1f190e42603d5343f005d2021-03-03 01:38:34soilmoisture82percent
5724bbbba929e5d1f190e42603d5343f005d2021-03-03 01:38:34dht11temp21.1degree
5725bbbba929e5d1f190e42603d5343f005d2021-03-03 01:38:34dht11humidity61percent
5726bbbba929e5d1f190e42603d5343f005d2021-03-03 01:43:36soilmoisture82percent
5727bbbba929e5d1f190e42603d5343f005d2021-03-03 01:43:36dht11temp21.1degree
5728bbbba929e5d1f190e42603d5343f005d2021-03-03 01:43:36dht11humidity60percent
5729bbbba929e5d1f190e42603d5343f005d2021-03-03 01:48:38soilmoisture82percent
5730bbbba929e5d1f190e42603d5343f005d2021-03-03 01:48:38dht11temp21degree
5731bbbba929e5d1f190e42603d5343f005d2021-03-03 01:48:38dht11humidity60percent
5732bbbba929e5d1f190e42603d5343f005d2021-03-03 01:53:40soilmoisture82percent
5733bbbba929e5d1f190e42603d5343f005d2021-03-03 01:53:40dht11temp20.9degree
5734bbbba929e5d1f190e42603d5343f005d2021-03-03 01:53:40dht11humidity59percent
5735bbbba929e5d1f190e42603d5343f005d2021-03-03 01:58:42soilmoisture82percent
5736bbbba929e5d1f190e42603d5343f005d2021-03-03 01:58:42dht11temp20.9degree
5737bbbba929e5d1f190e42603d5343f005d2021-03-03 01:58:43dht11humidity60percent
5738bbbba929e5d1f190e42603d5343f005d2021-03-03 02:03:44soilmoisture82percent
5739bbbba929e5d1f190e42603d5343f005d2021-03-03 02:03:44dht11temp20.9degree
5740bbbba929e5d1f190e42603d5343f005d2021-03-03 02:03:44dht11humidity59percent
5741bbbba929e5d1f190e42603d5343f005d2021-03-03 02:08:46soilmoisture82percent
5742bbbba929e5d1f190e42603d5343f005d2021-03-03 02:08:46dht11temp20.9degree
5743bbbba929e5d1f190e42603d5343f005d2021-03-03 02:08:46dht11humidity61percent
5744bbbba929e5d1f190e42603d5343f005d2021-03-03 02:13:48soilmoisture82percent
5745bbbba929e5d1f190e42603d5343f005d2021-03-03 02:13:48dht11temp20.9degree
5746bbbba929e5d1f190e42603d5343f005d2021-03-03 02:13:48dht11humidity60percent
5747bbbba929e5d1f190e42603d5343f005d2021-03-03 02:18:50soilmoisture82percent
5748bbbba929e5d1f190e42603d5343f005d2021-03-03 02:18:50dht11temp20.9degree
5749bbbba929e5d1f190e42603d5343f005d2021-03-03 02:18:50dht11humidity62percent
5750bbbba929e5d1f190e42603d5343f005d2021-03-03 02:23:52soilmoisture82percent
5751bbbba929e5d1f190e42603d5343f005d2021-03-03 02:23:52dht11temp20.9degree
5752bbbba929e5d1f190e42603d5343f005d2021-03-03 02:23:52dht11humidity62percent
5753bbbba929e5d1f190e42603d5343f005d2021-03-03 02:28:54soilmoisture82percent
5754bbbba929e5d1f190e42603d5343f005d2021-03-03 02:28:54dht11temp20.8degree
5755bbbba929e5d1f190e42603d5343f005d2021-03-03 02:28:54dht11humidity62percent
5756bbbba929e5d1f190e42603d5343f005d2021-03-03 02:33:56soilmoisture82percent
5757bbbba929e5d1f190e42603d5343f005d2021-03-03 02:33:56dht11temp20.8degree
5758bbbba929e5d1f190e42603d5343f005d2021-03-03 02:33:56dht11humidity60percent
5759bbbba929e5d1f190e42603d5343f005d2021-03-03 02:38:58soilmoisture82percent
5760bbbba929e5d1f190e42603d5343f005d2021-03-03 02:38:58dht11temp20.8degree
5761bbbba929e5d1f190e42603d5343f005d2021-03-03 02:38:58dht11humidity60percent
5762bbbba929e5d1f190e42603d5343f005d2021-03-03 02:44:00soilmoisture82percent
5763bbbba929e5d1f190e42603d5343f005d2021-03-03 02:44:00dht11temp20.8degree
5764bbbba929e5d1f190e42603d5343f005d2021-03-03 02:44:00dht11humidity60percent
5765bbbba929e5d1f190e42603d5343f005d2021-03-03 02:49:02soilmoisture82percent
5766bbbba929e5d1f190e42603d5343f005d2021-03-03 02:49:02dht11temp20.7degree
5767bbbba929e5d1f190e42603d5343f005d2021-03-03 02:49:02dht11humidity60percent
5768bbbba929e5d1f190e42603d5343f005d2021-03-03 02:54:04soilmoisture82percent
5769bbbba929e5d1f190e42603d5343f005d2021-03-03 02:54:04dht11temp20.7degree
5770bbbba929e5d1f190e42603d5343f005d2021-03-03 02:54:04dht11humidity60percent
5771bbbba929e5d1f190e42603d5343f005d2021-03-03 02:59:06soilmoisture82percent
5772bbbba929e5d1f190e42603d5343f005d2021-03-03 02:59:06dht11temp20.7degree
5773bbbba929e5d1f190e42603d5343f005d2021-03-03 02:59:06dht11humidity60percent
5774bbbba929e5d1f190e42603d5343f005d2021-03-03 03:04:08soilmoisture82percent
5775bbbba929e5d1f190e42603d5343f005d2021-03-03 03:04:08dht11temp20.7degree
5776bbbba929e5d1f190e42603d5343f005d2021-03-03 03:04:08dht11humidity59percent
5777bbbba929e5d1f190e42603d5343f005d2021-03-03 03:09:09soilmoisture82percent
5778bbbba929e5d1f190e42603d5343f005d2021-03-03 03:09:10dht11temp20.7degree
5779bbbba929e5d1f190e42603d5343f005d2021-03-03 03:09:10dht11humidity61percent
5780bbbba929e5d1f190e42603d5343f005d2021-03-03 03:14:11soilmoisture82percent
5781bbbba929e5d1f190e42603d5343f005d2021-03-03 03:14:12dht11temp20.6degree
5782bbbba929e5d1f190e42603d5343f005d2021-03-03 03:14:12dht11humidity61percent
5783bbbba929e5d1f190e42603d5343f005d2021-03-03 03:19:13soilmoisture82percent
5784bbbba929e5d1f190e42603d5343f005d2021-03-03 03:19:13dht11temp20.6degree
5785bbbba929e5d1f190e42603d5343f005d2021-03-03 03:19:14dht11humidity60percent
5786bbbba929e5d1f190e42603d5343f005d2021-03-03 03:24:15soilmoisture82percent
5787bbbba929e5d1f190e42603d5343f005d2021-03-03 03:24:15dht11temp20.6degree
5788bbbba929e5d1f190e42603d5343f005d2021-03-03 03:24:16dht11humidity60percent
5789bbbba929e5d1f190e42603d5343f005d2021-03-03 03:29:17soilmoisture82percent
5790bbbba929e5d1f190e42603d5343f005d2021-03-03 03:29:17dht11temp20.6degree
5791bbbba929e5d1f190e42603d5343f005d2021-03-03 03:29:17dht11humidity61percent
5792bbbba929e5d1f190e42603d5343f005d2021-03-03 03:34:19soilmoisture82percent
5793bbbba929e5d1f190e42603d5343f005d2021-03-03 03:34:19dht11temp20.6degree
5794bbbba929e5d1f190e42603d5343f005d2021-03-03 03:34:19dht11humidity61percent
5795bbbba929e5d1f190e42603d5343f005d2021-03-03 03:39:21soilmoisture82percent
5796bbbba929e5d1f190e42603d5343f005d2021-03-03 03:39:21dht11temp20.5degree
5797bbbba929e5d1f190e42603d5343f005d2021-03-03 03:39:21dht11humidity61percent
5798bbbba929e5d1f190e42603d5343f005d2021-03-03 03:44:23soilmoisture82percent
5799bbbba929e5d1f190e42603d5343f005d2021-03-03 03:44:23dht11temp20.5degree
5800bbbba929e5d1f190e42603d5343f005d2021-03-03 03:44:23dht11humidity61percent
5801bbbba929e5d1f190e42603d5343f005d2021-03-03 03:49:25soilmoisture82percent
5802bbbba929e5d1f190e42603d5343f005d2021-03-03 03:49:25dht11temp20.5degree
5803bbbba929e5d1f190e42603d5343f005d2021-03-03 03:49:25dht11humidity62percent
5804bbbba929e5d1f190e42603d5343f005d2021-03-03 03:54:27soilmoisture82percent
5805bbbba929e5d1f190e42603d5343f005d2021-03-03 03:54:27dht11temp20.5degree
5806bbbba929e5d1f190e42603d5343f005d2021-03-03 03:54:27dht11humidity63percent
5807bbbba929e5d1f190e42603d5343f005d2021-03-03 03:59:29soilmoisture82percent
5808bbbba929e5d1f190e42603d5343f005d2021-03-03 03:59:29dht11temp20.4degree
5809bbbba929e5d1f190e42603d5343f005d2021-03-03 03:59:29dht11humidity62percent
5810bbbba929e5d1f190e42603d5343f005d2021-03-03 04:04:31soilmoisture82percent
5811bbbba929e5d1f190e42603d5343f005d2021-03-03 04:04:31dht11temp20.5degree
5812bbbba929e5d1f190e42603d5343f005d2021-03-03 04:04:31dht11humidity62percent
5813bbbba929e5d1f190e42603d5343f005d2021-03-03 04:09:34soilmoisture82percent
5814bbbba929e5d1f190e42603d5343f005d2021-03-03 04:09:34dht11temp20.5degree
5815bbbba929e5d1f190e42603d5343f005d2021-03-03 04:09:34dht11humidity63percent
5816bbbba929e5d1f190e42603d5343f005d2021-03-03 04:14:36soilmoisture82percent
5817bbbba929e5d1f190e42603d5343f005d2021-03-03 04:14:36dht11temp20.5degree
5818bbbba929e5d1f190e42603d5343f005d2021-03-03 04:14:36dht11humidity60percent
5819bbbba929e5d1f190e42603d5343f005d2021-03-03 04:19:38soilmoisture82percent
5820bbbba929e5d1f190e42603d5343f005d2021-03-03 04:19:38dht11temp20.4degree
5821bbbba929e5d1f190e42603d5343f005d2021-03-03 04:19:39dht11humidity60percent
5822bbbba929e5d1f190e42603d5343f005d2021-03-03 04:24:40soilmoisture82percent
5823bbbba929e5d1f190e42603d5343f005d2021-03-03 04:24:40dht11temp20.4degree
5824bbbba929e5d1f190e42603d5343f005d2021-03-03 04:24:41dht11humidity61percent
5825bbbba929e5d1f190e42603d5343f005d2021-03-03 04:29:43soilmoisture82percent
5826bbbba929e5d1f190e42603d5343f005d2021-03-03 04:29:43dht11temp20.4degree
5827bbbba929e5d1f190e42603d5343f005d2021-03-03 04:29:43dht11humidity64percent
5828bbbba929e5d1f190e42603d5343f005d2021-03-03 04:34:45soilmoisture83percent
5829bbbba929e5d1f190e42603d5343f005d2021-03-03 04:34:45dht11temp20.4degree
5830bbbba929e5d1f190e42603d5343f005d2021-03-03 04:34:45dht11humidity63percent
5831bbbba929e5d1f190e42603d5343f005d2021-03-03 04:39:47soilmoisture83percent
5832bbbba929e5d1f190e42603d5343f005d2021-03-03 04:39:47dht11temp20.3degree
5833bbbba929e5d1f190e42603d5343f005d2021-03-03 04:39:47dht11humidity61percent
5834bbbba929e5d1f190e42603d5343f005d2021-03-03 04:44:48soilmoisture83percent
5835bbbba929e5d1f190e42603d5343f005d2021-03-03 04:44:49dht11temp20.3degree
5836bbbba929e5d1f190e42603d5343f005d2021-03-03 04:44:49dht11humidity61percent
5837bbbba929e5d1f190e42603d5343f005d2021-03-03 04:49:50soilmoisture82percent
5838bbbba929e5d1f190e42603d5343f005d2021-03-03 04:49:50dht11temp20.3degree
5839bbbba929e5d1f190e42603d5343f005d2021-03-03 04:49:51dht11humidity61percent
5840bbbba929e5d1f190e42603d5343f005d2021-03-03 04:54:52soilmoisture83percent
5841bbbba929e5d1f190e42603d5343f005d2021-03-03 04:54:52dht11temp20.3degree
5842bbbba929e5d1f190e42603d5343f005d2021-03-03 04:54:52dht11humidity61percent
5843bbbba929e5d1f190e42603d5343f005d2021-03-03 04:59:54soilmoisture82percent
5844bbbba929e5d1f190e42603d5343f005d2021-03-03 04:59:54dht11temp20.2degree
5845bbbba929e5d1f190e42603d5343f005d2021-03-03 04:59:54dht11humidity62percent
5846bbbba929e5d1f190e42603d5343f005d2021-03-03 05:04:56soilmoisture83percent
5847bbbba929e5d1f190e42603d5343f005d2021-03-03 05:04:56dht11temp20.2degree
5848bbbba929e5d1f190e42603d5343f005d2021-03-03 05:04:56dht11humidity62percent
5849bbbba929e5d1f190e42603d5343f005d2021-03-03 05:09:58soilmoisture82percent
5850bbbba929e5d1f190e42603d5343f005d2021-03-03 05:09:58dht11temp20.2degree
5851bbbba929e5d1f190e42603d5343f005d2021-03-03 05:09:58dht11humidity63percent
5852bbbba929e5d1f190e42603d5343f005d2021-03-03 05:15:00soilmoisture82percent
5853bbbba929e5d1f190e42603d5343f005d2021-03-03 05:15:00dht11temp20.2degree
5854bbbba929e5d1f190e42603d5343f005d2021-03-03 05:15:00dht11humidity60percent
5855bbbba929e5d1f190e42603d5343f005d2021-03-03 05:20:02soilmoisture82percent
5856bbbba929e5d1f190e42603d5343f005d2021-03-03 05:20:02dht11temp20.2degree
5857bbbba929e5d1f190e42603d5343f005d2021-03-03 05:20:02dht11humidity62percent
5858bbbba929e5d1f190e42603d5343f005d2021-03-03 05:25:03soilmoisture83percent
5859bbbba929e5d1f190e42603d5343f005d2021-03-03 05:25:04dht11temp20.1degree
5860bbbba929e5d1f190e42603d5343f005d2021-03-03 05:25:04dht11humidity62percent
5861bbbba929e5d1f190e42603d5343f005d2021-03-03 05:30:05soilmoisture83percent
5862bbbba929e5d1f190e42603d5343f005d2021-03-03 05:30:06dht11temp20.1degree
5863bbbba929e5d1f190e42603d5343f005d2021-03-03 05:30:06dht11humidity61percent
5864bbbba929e5d1f190e42603d5343f005d2021-03-03 05:35:07soilmoisture82percent
5865bbbba929e5d1f190e42603d5343f005d2021-03-03 05:35:07dht11temp20.1degree
5866bbbba929e5d1f190e42603d5343f005d2021-03-03 05:35:08dht11humidity63percent
5867bbbba929e5d1f190e42603d5343f005d2021-03-03 05:40:09soilmoisture83percent
5868bbbba929e5d1f190e42603d5343f005d2021-03-03 05:40:09dht11temp20.1degree
5869bbbba929e5d1f190e42603d5343f005d2021-03-03 05:40:09dht11humidity61percent
5870bbbba929e5d1f190e42603d5343f005d2021-03-03 05:45:11soilmoisture83percent
5871bbbba929e5d1f190e42603d5343f005d2021-03-03 05:45:11dht11temp20.1degree
5872bbbba929e5d1f190e42603d5343f005d2021-03-03 05:45:11dht11humidity61percent
5873bbbba929e5d1f190e42603d5343f005d2021-03-03 05:50:13soilmoisture83percent
5874bbbba929e5d1f190e42603d5343f005d2021-03-03 05:50:13dht11temp20.1degree
5875bbbba929e5d1f190e42603d5343f005d2021-03-03 05:50:13dht11humidity63percent
5876bbbba929e5d1f190e42603d5343f005d2021-03-03 05:55:15soilmoisture83percent
5877bbbba929e5d1f190e42603d5343f005d2021-03-03 05:55:15dht11temp20degree
5878bbbba929e5d1f190e42603d5343f005d2021-03-03 05:55:15dht11humidity60percent
5879bbbba929e5d1f190e42603d5343f005d2021-03-03 06:00:16soilmoisture83percent
5880bbbba929e5d1f190e42603d5343f005d2021-03-03 06:00:16dht11temp20degree
5881bbbba929e5d1f190e42603d5343f005d2021-03-03 06:00:16dht11humidity61percent
5882bbbba929e5d1f190e42603d5343f005d2021-03-03 06:05:18soilmoisture83percent
5883bbbba929e5d1f190e42603d5343f005d2021-03-03 06:05:18dht11temp20degree
5884bbbba929e5d1f190e42603d5343f005d2021-03-03 06:05:18dht11humidity62percent
5885bbbba929e5d1f190e42603d5343f005d2021-03-03 06:10:20soilmoisture83percent
5886bbbba929e5d1f190e42603d5343f005d2021-03-03 06:10:20dht11temp20degree
5887bbbba929e5d1f190e42603d5343f005d2021-03-03 06:10:20dht11humidity61percent
5888bbbba929e5d1f190e42603d5343f005d2021-03-03 06:15:22soilmoisture83percent
5889bbbba929e5d1f190e42603d5343f005d2021-03-03 06:15:22dht11temp20degree
5890bbbba929e5d1f190e42603d5343f005d2021-03-03 06:15:22dht11humidity61percent
5891bbbba929e5d1f190e42603d5343f005d2021-03-03 06:20:24soilmoisture83percent
5892bbbba929e5d1f190e42603d5343f005d2021-03-03 06:20:24dht11temp20degree
5893bbbba929e5d1f190e42603d5343f005d2021-03-03 06:20:24dht11humidity60percent
5894bbbba929e5d1f190e42603d5343f005d2021-03-03 06:25:26soilmoisture82percent
5895bbbba929e5d1f190e42603d5343f005d2021-03-03 06:25:26dht11temp20.1degree
5896bbbba929e5d1f190e42603d5343f005d2021-03-03 06:25:26dht11humidity60percent
5897bbbba929e5d1f190e42603d5343f005d2021-03-03 06:30:28soilmoisture83percent
5898bbbba929e5d1f190e42603d5343f005d2021-03-03 06:30:28dht11temp20.2degree
5899bbbba929e5d1f190e42603d5343f005d2021-03-03 06:30:29dht11humidity57percent
5900bbbba929e5d1f190e42603d5343f005d2021-03-03 06:35:30soilmoisture83percent
5901bbbba929e5d1f190e42603d5343f005d2021-03-03 06:35:30dht11temp20.4degree
5902bbbba929e5d1f190e42603d5343f005d2021-03-03 06:35:30dht11humidity58percent
5903bbbba929e5d1f190e42603d5343f005d2021-03-03 06:40:32soilmoisture83percent
5904bbbba929e5d1f190e42603d5343f005d2021-03-03 06:40:32dht11temp20.4degree
5905bbbba929e5d1f190e42603d5343f005d2021-03-03 06:40:32dht11humidity59percent
5906bbbba929e5d1f190e42603d5343f005d2021-03-03 06:45:34soilmoisture83percent
5907bbbba929e5d1f190e42603d5343f005d2021-03-03 06:45:34dht11temp20.5degree
5908bbbba929e5d1f190e42603d5343f005d2021-03-03 06:45:34dht11humidity57percent
5909bbbba929e5d1f190e42603d5343f005d2021-03-03 06:50:36soilmoisture83percent
5910bbbba929e5d1f190e42603d5343f005d2021-03-03 06:50:36dht11temp20.6degree
5911bbbba929e5d1f190e42603d5343f005d2021-03-03 06:50:36dht11humidity57percent
5912bbbba929e5d1f190e42603d5343f005d2021-03-03 06:55:38soilmoisture83percent
5913bbbba929e5d1f190e42603d5343f005d2021-03-03 06:55:38dht11temp20.6degree
5914bbbba929e5d1f190e42603d5343f005d2021-03-03 06:55:38dht11humidity57percent
5915bbbba929e5d1f190e42603d5343f005d2021-03-03 07:00:40soilmoisture83percent
5916bbbba929e5d1f190e42603d5343f005d2021-03-03 07:00:40dht11temp20.6degree
5917bbbba929e5d1f190e42603d5343f005d2021-03-03 07:00:40dht11humidity57percent
5918bbbba929e5d1f190e42603d5343f005d2021-03-03 07:05:42soilmoisture83percent
5919bbbba929e5d1f190e42603d5343f005d2021-03-03 07:05:42dht11temp20.6degree
5920bbbba929e5d1f190e42603d5343f005d2021-03-03 07:05:42dht11humidity56percent
5921bbbba929e5d1f190e42603d5343f005d2021-03-03 07:10:44soilmoisture83percent
5922bbbba929e5d1f190e42603d5343f005d2021-03-03 07:10:44dht11temp20.6degree
5923bbbba929e5d1f190e42603d5343f005d2021-03-03 07:10:44dht11humidity57percent
5924bbbba929e5d1f190e42603d5343f005d2021-03-03 07:15:45soilmoisture83percent
5925bbbba929e5d1f190e42603d5343f005d2021-03-03 07:15:46dht11temp20.6degree
5926bbbba929e5d1f190e42603d5343f005d2021-03-03 07:15:46dht11humidity56percent
5927bbbba929e5d1f190e42603d5343f005d2021-03-03 07:20:47soilmoisture83percent
5928bbbba929e5d1f190e42603d5343f005d2021-03-03 07:20:48dht11temp20.7degree
5929bbbba929e5d1f190e42603d5343f005d2021-03-03 07:20:48dht11humidity57percent
5930bbbba929e5d1f190e42603d5343f005d2021-03-03 07:25:49soilmoisture83percent
5931bbbba929e5d1f190e42603d5343f005d2021-03-03 07:25:49dht11temp20.7degree
5932bbbba929e5d1f190e42603d5343f005d2021-03-03 07:25:50dht11humidity57percent
5933bbbba929e5d1f190e42603d5343f005d2021-03-03 07:30:51soilmoisture83percent
5934bbbba929e5d1f190e42603d5343f005d2021-03-03 07:30:51dht11temp20.7degree
5935bbbba929e5d1f190e42603d5343f005d2021-03-03 07:30:51dht11humidity56percent
5936bbbba929e5d1f190e42603d5343f005d2021-03-03 07:35:53soilmoisture83percent
5937bbbba929e5d1f190e42603d5343f005d2021-03-03 07:35:53dht11temp20.7degree
5938bbbba929e5d1f190e42603d5343f005d2021-03-03 07:35:53dht11humidity56percent
5939bbbba929e5d1f190e42603d5343f005d2021-03-03 07:40:55soilmoisture83percent
5940bbbba929e5d1f190e42603d5343f005d2021-03-03 07:40:55dht11temp20.7degree
5941bbbba929e5d1f190e42603d5343f005d2021-03-03 07:40:55dht11humidity58percent
5942bbbba929e5d1f190e42603d5343f005d2021-03-03 07:45:57soilmoisture83percent
5943bbbba929e5d1f190e42603d5343f005d2021-03-03 07:45:57dht11temp20.7degree
5944bbbba929e5d1f190e42603d5343f005d2021-03-03 07:45:57dht11humidity57percent
5945bbbba929e5d1f190e42603d5343f005d2021-03-03 07:50:59soilmoisture83percent
5946bbbba929e5d1f190e42603d5343f005d2021-03-03 07:50:59dht11temp20.7degree
5947bbbba929e5d1f190e42603d5343f005d2021-03-03 07:50:59dht11humidity58percent
5948bbbba929e5d1f190e42603d5343f005d2021-03-03 07:56:01soilmoisture83percent
5949bbbba929e5d1f190e42603d5343f005d2021-03-03 07:56:01dht11temp20.6degree
5950bbbba929e5d1f190e42603d5343f005d2021-03-03 07:56:01dht11humidity56percent
5951bbbba929e5d1f190e42603d5343f005d2021-03-03 08:01:03soilmoisture83percent
5952bbbba929e5d1f190e42603d5343f005d2021-03-03 08:01:03dht11temp20.6degree
5953bbbba929e5d1f190e42603d5343f005d2021-03-03 08:01:03dht11humidity58percent
5954bbbba929e5d1f190e42603d5343f005d2021-03-03 08:06:05soilmoisture83percent
5955bbbba929e5d1f190e42603d5343f005d2021-03-03 08:06:05dht11temp20.6degree
5956bbbba929e5d1f190e42603d5343f005d2021-03-03 08:06:05dht11humidity58percent
5957bbbba929e5d1f190e42603d5343f005d2021-03-03 08:11:06soilmoisture83percent
5958bbbba929e5d1f190e42603d5343f005d2021-03-03 08:11:07dht11temp20.6degree
5959bbbba929e5d1f190e42603d5343f005d2021-03-03 08:11:07dht11humidity56percent
5960bbbba929e5d1f190e42603d5343f005d2021-03-03 08:16:08soilmoisture83percent
5961bbbba929e5d1f190e42603d5343f005d2021-03-03 08:16:09dht11temp20.6degree
5962bbbba929e5d1f190e42603d5343f005d2021-03-03 08:16:09dht11humidity57percent
5963bbbba929e5d1f190e42603d5343f005d2021-03-03 08:21:10soilmoisture83percent
5964bbbba929e5d1f190e42603d5343f005d2021-03-03 08:21:10dht11temp20.6degree
5965bbbba929e5d1f190e42603d5343f005d2021-03-03 08:21:11dht11humidity58percent
5966bbbba929e5d1f190e42603d5343f005d2021-03-03 08:26:12soilmoisture83percent
5967bbbba929e5d1f190e42603d5343f005d2021-03-03 08:26:12dht11temp20.6degree
5968bbbba929e5d1f190e42603d5343f005d2021-03-03 08:26:13dht11humidity58percent
5969bbbba929e5d1f190e42603d5343f005d2021-03-03 08:31:14soilmoisture83percent
5970bbbba929e5d1f190e42603d5343f005d2021-03-03 08:31:14dht11temp20.6degree
5971bbbba929e5d1f190e42603d5343f005d2021-03-03 08:31:14dht11humidity58percent
5972bbbba929e5d1f190e42603d5343f005d2021-03-03 08:36:16soilmoisture83percent
5973bbbba929e5d1f190e42603d5343f005d2021-03-03 08:36:16dht11temp20.6degree
5974bbbba929e5d1f190e42603d5343f005d2021-03-03 08:36:16dht11humidity58percent
5975bbbba929e5d1f190e42603d5343f005d2021-03-03 08:41:18soilmoisture83percent
5976bbbba929e5d1f190e42603d5343f005d2021-03-03 08:41:18dht11temp20.6degree
5977bbbba929e5d1f190e42603d5343f005d2021-03-03 08:41:18dht11humidity58percent
5978bbbba929e5d1f190e42603d5343f005d2021-03-03 08:46:20soilmoisture83percent
5979bbbba929e5d1f190e42603d5343f005d2021-03-03 08:46:20dht11temp20.6degree
5980bbbba929e5d1f190e42603d5343f005d2021-03-03 08:46:20dht11humidity59percent
5981bbbba929e5d1f190e42603d5343f005d2021-03-03 08:51:22soilmoisture83percent
5982bbbba929e5d1f190e42603d5343f005d2021-03-03 08:51:22dht11temp20.6degree
5983bbbba929e5d1f190e42603d5343f005d2021-03-03 08:51:22dht11humidity58percent
5984bbbba929e5d1f190e42603d5343f005d2021-03-03 08:56:24soilmoisture83percent
5985bbbba929e5d1f190e42603d5343f005d2021-03-03 08:56:24dht11temp20.7degree
5986bbbba929e5d1f190e42603d5343f005d2021-03-03 08:56:24dht11humidity60percent
5987bbbba929e5d1f190e42603d5343f005d2021-03-03 09:01:25soilmoisture83percent
5988bbbba929e5d1f190e42603d5343f005d2021-03-03 09:01:26dht11temp20.9degree
5989bbbba929e5d1f190e42603d5343f005d2021-03-03 09:01:26dht11humidity59percent
5990bbbba929e5d1f190e42603d5343f005d2021-03-03 09:06:27soilmoisture83percent
5991bbbba929e5d1f190e42603d5343f005d2021-03-03 09:06:27dht11temp21.1degree
5992bbbba929e5d1f190e42603d5343f005d2021-03-03 09:06:28dht11humidity60percent
5993bbbba929e5d1f190e42603d5343f005d2021-03-03 09:11:29soilmoisture83percent
5994bbbba929e5d1f190e42603d5343f005d2021-03-03 09:11:29dht11temp21.1degree
5995bbbba929e5d1f190e42603d5343f005d2021-03-03 09:11:29dht11humidity58percent
5996bbbba929e5d1f190e42603d5343f005d2021-03-03 09:16:31soilmoisture83percent
5997bbbba929e5d1f190e42603d5343f005d2021-03-03 09:16:31dht11temp21.1degree
5998bbbba929e5d1f190e42603d5343f005d2021-03-03 09:16:31dht11humidity60percent
5999bbbba929e5d1f190e42603d5343f005d2021-03-03 09:21:33soilmoisture83percent
6000bbbba929e5d1f190e42603d5343f005d2021-03-03 09:21:33dht11temp21.2degree
6001bbbba929e5d1f190e42603d5343f005d2021-03-03 09:21:33dht11humidity57percent
6002bbbba929e5d1f190e42603d5343f005d2021-03-03 09:26:35soilmoisture83percent
6003bbbba929e5d1f190e42603d5343f005d2021-03-03 09:26:35dht11temp21.2degree
6004bbbba929e5d1f190e42603d5343f005d2021-03-03 09:26:35dht11humidity59percent
6005bbbba929e5d1f190e42603d5343f005d2021-03-03 09:31:37soilmoisture83percent
6006bbbba929e5d1f190e42603d5343f005d2021-03-03 09:31:37dht11temp21.2degree
6007bbbba929e5d1f190e42603d5343f005d2021-03-03 09:31:37dht11humidity59percent
6008bbbba929e5d1f190e42603d5343f005d2021-03-03 09:36:39soilmoisture83percent
6009bbbba929e5d1f190e42603d5343f005d2021-03-03 09:36:39dht11temp21.3degree
6010bbbba929e5d1f190e42603d5343f005d2021-03-03 09:36:39dht11humidity60percent
6011bbbba929e5d1f190e42603d5343f005d2021-03-03 09:41:41soilmoisture83percent
6012bbbba929e5d1f190e42603d5343f005d2021-03-03 09:41:41dht11temp21.3degree
6013bbbba929e5d1f190e42603d5343f005d2021-03-03 09:41:41dht11humidity58percent
6014bbbba929e5d1f190e42603d5343f005d2021-03-03 09:46:43soilmoisture83percent
6015bbbba929e5d1f190e42603d5343f005d2021-03-03 09:46:43dht11temp21.3degree
6016bbbba929e5d1f190e42603d5343f005d2021-03-03 09:46:43dht11humidity61percent
6017bbbba929e5d1f190e42603d5343f005d2021-03-03 09:51:45soilmoisture83percent
6018bbbba929e5d1f190e42603d5343f005d2021-03-03 09:51:45dht11temp21.4degree
6019bbbba929e5d1f190e42603d5343f005d2021-03-03 09:51:45dht11humidity59percent
6020bbbba929e5d1f190e42603d5343f005d2021-03-03 09:56:46soilmoisture83percent
6021bbbba929e5d1f190e42603d5343f005d2021-03-03 09:56:47dht11temp21.4degree
6022bbbba929e5d1f190e42603d5343f005d2021-03-03 09:56:47dht11humidity60percent
6023bbbba929e5d1f190e42603d5343f005d2021-03-03 10:01:49soilmoisture83percent
6024bbbba929e5d1f190e42603d5343f005d2021-03-03 10:01:49dht11temp21.4degree
6025bbbba929e5d1f190e42603d5343f005d2021-03-03 10:01:49dht11humidity58percent
6026bbbba929e5d1f190e42603d5343f005d2021-03-03 10:06:50soilmoisture83percent
6027bbbba929e5d1f190e42603d5343f005d2021-03-03 10:06:51dht11temp21.4degree
6028bbbba929e5d1f190e42603d5343f005d2021-03-03 10:06:51dht11humidity62percent
6029bbbba929e5d1f190e42603d5343f005d2021-03-03 10:11:52soilmoisture83percent
6030bbbba929e5d1f190e42603d5343f005d2021-03-03 10:11:52dht11temp21.4degree
6031bbbba929e5d1f190e42603d5343f005d2021-03-03 10:11:53dht11humidity63percent
6032bbbba929e5d1f190e42603d5343f005d2021-03-03 10:16:54soilmoisture83percent
6033bbbba929e5d1f190e42603d5343f005d2021-03-03 10:16:54dht11temp21.5degree
6034bbbba929e5d1f190e42603d5343f005d2021-03-03 10:16:54dht11humidity68percent
6035bbbba929e5d1f190e42603d5343f005d2021-03-03 10:21:56soilmoisture83percent
6036bbbba929e5d1f190e42603d5343f005d2021-03-03 10:21:56dht11temp21.6degree
6037bbbba929e5d1f190e42603d5343f005d2021-03-03 10:21:56dht11humidity67percent
6038bbbba929e5d1f190e42603d5343f005d2021-03-03 10:26:58soilmoisture83percent
6039bbbba929e5d1f190e42603d5343f005d2021-03-03 10:26:58dht11temp21.6degree
6040bbbba929e5d1f190e42603d5343f005d2021-03-03 10:26:58dht11humidity65percent
6041bbbba929e5d1f190e42603d5343f005d2021-03-03 10:32:00soilmoisture83percent
6042bbbba929e5d1f190e42603d5343f005d2021-03-03 10:32:00dht11temp21.6degree
6043bbbba929e5d1f190e42603d5343f005d2021-03-03 10:32:00dht11humidity67percent
6044bbbba929e5d1f190e42603d5343f005d2021-03-03 10:37:02soilmoisture83percent
6045bbbba929e5d1f190e42603d5343f005d2021-03-03 10:37:02dht11temp21.6degree
6046bbbba929e5d1f190e42603d5343f005d2021-03-03 10:37:02dht11humidity67percent
6047bbbba929e5d1f190e42603d5343f005d2021-03-03 10:42:04soilmoisture83percent
6048bbbba929e5d1f190e42603d5343f005d2021-03-03 10:42:04dht11temp21.6degree
6049bbbba929e5d1f190e42603d5343f005d2021-03-03 10:42:04dht11humidity66percent
6050bbbba929e5d1f190e42603d5343f005d2021-03-03 10:47:05soilmoisture83percent
6051bbbba929e5d1f190e42603d5343f005d2021-03-03 10:47:06dht11temp21.6degree
6052bbbba929e5d1f190e42603d5343f005d2021-03-03 10:47:06dht11humidity68percent
6053bbbba929e5d1f190e42603d5343f005d2021-03-03 10:52:07soilmoisture83percent
6054bbbba929e5d1f190e42603d5343f005d2021-03-03 10:52:07dht11temp21.6degree
6055bbbba929e5d1f190e42603d5343f005d2021-03-03 10:52:08dht11humidity67percent
6056bbbba929e5d1f190e42603d5343f005d2021-03-03 10:57:09soilmoisture83percent
6057bbbba929e5d1f190e42603d5343f005d2021-03-03 10:57:09dht11temp21.6degree
6058bbbba929e5d1f190e42603d5343f005d2021-03-03 10:57:09dht11humidity65percent
6059bbbba929e5d1f190e42603d5343f005d2021-03-03 11:02:11soilmoisture83percent
6060bbbba929e5d1f190e42603d5343f005d2021-03-03 11:02:11dht11temp21.6degree
6061bbbba929e5d1f190e42603d5343f005d2021-03-03 11:02:16dht11humidity65percent
6062bbbba929e5d1f190e42603d5343f005d2021-03-03 11:07:18soilmoisture83percent
6063bbbba929e5d1f190e42603d5343f005d2021-03-03 11:07:18dht11temp21.6degree
6064bbbba929e5d1f190e42603d5343f005d2021-03-03 11:07:18dht11humidity64percent
6065bbbba929e5d1f190e42603d5343f005d2021-03-03 11:12:20soilmoisture83percent
6066bbbba929e5d1f190e42603d5343f005d2021-03-03 11:12:20dht11temp21.6degree
6067bbbba929e5d1f190e42603d5343f005d2021-03-03 11:12:20dht11humidity63percent
6068bbbba929e5d1f190e42603d5343f005d2021-03-03 11:17:22soilmoisture83percent
6069bbbba929e5d1f190e42603d5343f005d2021-03-03 11:17:22dht11temp21.7degree
6070bbbba929e5d1f190e42603d5343f005d2021-03-03 11:17:22dht11humidity64percent
6071bbbba929e5d1f190e42603d5343f005d2021-03-03 11:22:24soilmoisture83percent
6072bbbba929e5d1f190e42603d5343f005d2021-03-03 11:22:24dht11temp21.7degree
6073bbbba929e5d1f190e42603d5343f005d2021-03-03 11:22:24dht11humidity61percent
6074bbbba929e5d1f190e42603d5343f005d2021-03-03 11:27:26soilmoisture83percent
6075bbbba929e5d1f190e42603d5343f005d2021-03-03 11:27:26dht11temp21.7degree
6076bbbba929e5d1f190e42603d5343f005d2021-03-03 11:27:26dht11humidity62percent
6077bbbba929e5d1f190e42603d5343f005d2021-03-03 11:32:28soilmoisture83percent
6078bbbba929e5d1f190e42603d5343f005d2021-03-03 11:32:28dht11temp21.8degree
6079bbbba929e5d1f190e42603d5343f005d2021-03-03 11:32:28dht11humidity63percent
6080bbbba929e5d1f190e42603d5343f005d2021-03-03 11:37:30soilmoisture83percent
6081bbbba929e5d1f190e42603d5343f005d2021-03-03 11:37:30dht11temp21.8degree
6082bbbba929e5d1f190e42603d5343f005d2021-03-03 11:37:30dht11humidity63percent
6083bbbba929e5d1f190e42603d5343f005d2021-03-03 11:42:32soilmoisture83percent
6084bbbba929e5d1f190e42603d5343f005d2021-03-03 11:42:32dht11temp21.9degree
6085bbbba929e5d1f190e42603d5343f005d2021-03-03 11:42:32dht11humidity62percent
6086bbbba929e5d1f190e42603d5343f005d2021-03-03 11:47:33soilmoisture83percent
6087bbbba929e5d1f190e42603d5343f005d2021-03-03 11:47:34dht11temp21.9degree
6088bbbba929e5d1f190e42603d5343f005d2021-03-03 11:47:34dht11humidity62percent
6089bbbba929e5d1f190e42603d5343f005d2021-03-03 11:52:35soilmoisture83percent
6090bbbba929e5d1f190e42603d5343f005d2021-03-03 11:52:36dht11temp22degree
6091bbbba929e5d1f190e42603d5343f005d2021-03-03 11:52:36dht11humidity63percent
6092bbbba929e5d1f190e42603d5343f005d2021-03-03 11:57:37soilmoisture83percent
6093bbbba929e5d1f190e42603d5343f005d2021-03-03 11:57:38dht11temp22degree
6094bbbba929e5d1f190e42603d5343f005d2021-03-03 11:57:38dht11humidity63percent
6095bbbba929e5d1f190e42603d5343f005d2021-03-03 12:02:39soilmoisture83percent
6096bbbba929e5d1f190e42603d5343f005d2021-03-03 12:02:39dht11temp22degree
6097bbbba929e5d1f190e42603d5343f005d2021-03-03 12:02:39dht11humidity62percent
6098bbbba929e5d1f190e42603d5343f005d2021-03-03 12:07:41soilmoisture83percent
6099bbbba929e5d1f190e42603d5343f005d2021-03-03 12:07:41dht11temp22degree
6100bbbba929e5d1f190e42603d5343f005d2021-03-03 12:07:41dht11humidity65percent
6101bbbba929e5d1f190e42603d5343f005d2021-03-03 12:12:42soilmoisture83percent
6102bbbba929e5d1f190e42603d5343f005d2021-03-03 12:12:43dht11temp22.1degree
6103bbbba929e5d1f190e42603d5343f005d2021-03-03 12:12:43dht11humidity64percent
6104bbbba929e5d1f190e42603d5343f005d2021-03-03 12:17:44soilmoisture83percent
6151bbbba929e5d1f190e42603d5343f005d2021-03-03 13:33:14dht11humidity56percent
6152bbbba929e5d1f190e42603d5343f005d2021-03-03 13:38:16soilmoisture83percent
6153bbbba929e5d1f190e42603d5343f005d2021-03-03 13:38:16dht11temp22.9degree
6154bbbba929e5d1f190e42603d5343f005d2021-03-03 13:38:16dht11humidity56percent
6155bbbba929e5d1f190e42603d5343f005d2021-03-03 13:43:17soilmoisture83percent
6156bbbba929e5d1f190e42603d5343f005d2021-03-03 13:43:18dht11temp22.9degree
6157bbbba929e5d1f190e42603d5343f005d2021-03-03 13:43:18dht11humidity56percent
6158bbbba929e5d1f190e42603d5343f005d2021-03-03 13:48:19soilmoisture83percent
6159bbbba929e5d1f190e42603d5343f005d2021-03-03 13:48:19dht11temp23degree
6160bbbba929e5d1f190e42603d5343f005d2021-03-03 13:48:20dht11humidity56percent
6161bbbba929e5d1f190e42603d5343f005d2021-03-03 13:53:21soilmoisture83percent
6162bbbba929e5d1f190e42603d5343f005d2021-03-03 13:53:21dht11temp23degree
6163bbbba929e5d1f190e42603d5343f005d2021-03-03 13:53:21dht11humidity56percent
6164bbbba929e5d1f190e42603d5343f005d2021-03-03 13:58:23soilmoisture83percent
6165bbbba929e5d1f190e42603d5343f005d2021-03-03 13:58:23dht11temp23.2degree
6166bbbba929e5d1f190e42603d5343f005d2021-03-03 13:58:23dht11humidity56percent
6167bbbba929e5d1f190e42603d5343f005d2021-03-03 14:03:25soilmoisture83percent
6168bbbba929e5d1f190e42603d5343f005d2021-03-03 14:03:25dht11temp23.2degree
6169bbbba929e5d1f190e42603d5343f005d2021-03-03 14:03:25dht11humidity55percent
6170bbbba929e5d1f190e42603d5343f005d2021-03-03 14:08:27soilmoisture83percent
6171bbbba929e5d1f190e42603d5343f005d2021-03-03 14:08:27dht11temp23.4degree
6172bbbba929e5d1f190e42603d5343f005d2021-03-03 14:08:27dht11humidity57percent
6173bbbba929e5d1f190e42603d5343f005d2021-03-03 14:13:29soilmoisture83percent
6174bbbba929e5d1f190e42603d5343f005d2021-03-03 14:13:29dht11temp23.4degree
6175bbbba929e5d1f190e42603d5343f005d2021-03-03 14:13:29dht11humidity56percent
6176bbbba929e5d1f190e42603d5343f005d2021-03-03 14:18:31soilmoisture83percent
6177bbbba929e5d1f190e42603d5343f005d2021-03-03 14:18:31dht11temp23.4degree
6178bbbba929e5d1f190e42603d5343f005d2021-03-03 14:18:31dht11humidity55percent
6179bbbba929e5d1f190e42603d5343f005d2021-03-03 14:23:33soilmoisture83percent
6180bbbba929e5d1f190e42603d5343f005d2021-03-03 14:23:33dht11temp23.6degree
6181bbbba929e5d1f190e42603d5343f005d2021-03-03 14:23:33dht11humidity55percent
6182bbbba929e5d1f190e42603d5343f005d2021-03-03 14:28:35soilmoisture83percent
6183bbbba929e5d1f190e42603d5343f005d2021-03-03 14:28:35dht11temp23.6degree
6184bbbba929e5d1f190e42603d5343f005d2021-03-03 14:28:35dht11humidity55percent
6185bbbba929e5d1f190e42603d5343f005d2021-03-03 14:33:37soilmoisture82percent
6186bbbba929e5d1f190e42603d5343f005d2021-03-03 14:33:37dht11temp24.1degree
6187bbbba929e5d1f190e42603d5343f005d2021-03-03 14:33:37dht11humidity55percent
6188bbbba929e5d1f190e42603d5343f005d2021-03-03 14:38:38soilmoisture82percent
6189bbbba929e5d1f190e42603d5343f005d2021-03-03 14:38:39dht11temp24.4degree
6190bbbba929e5d1f190e42603d5343f005d2021-03-03 14:38:39dht11humidity56percent
6191bbbba929e5d1f190e42603d5343f005d2021-03-03 14:43:40soilmoisture83percent
6192bbbba929e5d1f190e42603d5343f005d2021-03-03 14:43:40dht11temp24degree
6193bbbba929e5d1f190e42603d5343f005d2021-03-03 14:43:40dht11humidity55percent
6194bbbba929e5d1f190e42603d5343f005d2021-03-03 14:53:58soilmoisture83percent
6195bbbba929e5d1f190e42603d5343f005d2021-03-03 14:53:58dht11temp24degree
6196bbbba929e5d1f190e42603d5343f005d2021-03-03 14:53:58dht11humidity56percent
6197bbbba929e5d1f190e42603d5343f005d2021-03-03 14:59:00soilmoisture83percent
6198bbbba929e5d1f190e42603d5343f005d2021-03-03 14:59:00dht11temp24.1degree
6199bbbba929e5d1f190e42603d5343f005d2021-03-03 14:59:00dht11humidity57percent
6200bbbba929e5d1f190e42603d5343f005d2021-03-03 15:04:02soilmoisture83percent
6201bbbba929e5d1f190e42603d5343f005d2021-03-03 15:04:02dht11temp24.1degree
6202bbbba929e5d1f190e42603d5343f005d2021-03-03 15:04:02dht11humidity54percent
6203bbbba929e5d1f190e42603d5343f005d2021-03-03 15:09:04soilmoisture83percent
6204bbbba929e5d1f190e42603d5343f005d2021-03-03 15:09:04dht11temp24.2degree
6205bbbba929e5d1f190e42603d5343f005d2021-03-03 15:09:04dht11humidity54percent
6206bbbba929e5d1f190e42603d5343f005d2021-03-03 15:14:06soilmoisture83percent
6207bbbba929e5d1f190e42603d5343f005d2021-03-03 15:14:06dht11temp24.3degree
6208bbbba929e5d1f190e42603d5343f005d2021-03-03 15:14:06dht11humidity54percent
6209bbbba929e5d1f190e42603d5343f005d2021-03-03 15:19:08soilmoisture83percent
6210bbbba929e5d1f190e42603d5343f005d2021-03-03 15:19:08dht11temp24.3degree
6211bbbba929e5d1f190e42603d5343f005d2021-03-03 15:19:08dht11humidity56percent
6212bbbba929e5d1f190e42603d5343f005d2021-03-03 15:24:10soilmoisture83percent
6213bbbba929e5d1f190e42603d5343f005d2021-03-03 15:24:10dht11temp24.3degree
6214bbbba929e5d1f190e42603d5343f005d2021-03-03 15:24:10dht11humidity54percent
6215bbbba929e5d1f190e42603d5343f005d2021-03-03 15:29:12soilmoisture83percent
6216bbbba929e5d1f190e42603d5343f005d2021-03-03 15:29:12dht11temp24.2degree
6217bbbba929e5d1f190e42603d5343f005d2021-03-03 15:29:12dht11humidity56percent
6218bbbba929e5d1f190e42603d5343f005d2021-03-03 15:34:13soilmoisture83percent
6219bbbba929e5d1f190e42603d5343f005d2021-03-03 15:34:14dht11temp24degree
6220bbbba929e5d1f190e42603d5343f005d2021-03-03 15:34:14dht11humidity58percent
6221bbbba929e5d1f190e42603d5343f005d2021-03-03 15:39:15soilmoisture83percent
6222bbbba929e5d1f190e42603d5343f005d2021-03-03 15:39:15dht11temp23.6degree
6223bbbba929e5d1f190e42603d5343f005d2021-03-03 15:39:15dht11humidity57percent
6224bbbba929e5d1f190e42603d5343f005d2021-03-03 15:44:17soilmoisture83percent
6225bbbba929e5d1f190e42603d5343f005d2021-03-03 15:44:17dht11temp23.3degree
6226bbbba929e5d1f190e42603d5343f005d2021-03-03 15:44:17dht11humidity58percent
6227bbbba929e5d1f190e42603d5343f005d2021-03-03 15:49:19soilmoisture83percent
6228bbbba929e5d1f190e42603d5343f005d2021-03-03 15:49:19dht11temp23.4degree
6229bbbba929e5d1f190e42603d5343f005d2021-03-03 15:49:19dht11humidity58percent
6230bbbba929e5d1f190e42603d5343f005d2021-03-03 15:54:21soilmoisture83percent
6231bbbba929e5d1f190e42603d5343f005d2021-03-03 15:54:21dht11temp23.4degree
6232bbbba929e5d1f190e42603d5343f005d2021-03-03 15:54:21dht11humidity57percent
6233bbbba929e5d1f190e42603d5343f005d2021-03-03 15:59:24soilmoisture83percent
6234bbbba929e5d1f190e42603d5343f005d2021-03-03 15:59:24dht11temp23.3degree
6235bbbba929e5d1f190e42603d5343f005d2021-03-03 15:59:24dht11humidity57percent
6236bbbba929e5d1f190e42603d5343f005d2021-03-03 16:04:26soilmoisture83percent
6237bbbba929e5d1f190e42603d5343f005d2021-03-03 16:04:26dht11temp23.1degree
6238bbbba929e5d1f190e42603d5343f005d2021-03-03 16:04:26dht11humidity61percent
6239bbbba929e5d1f190e42603d5343f005d2021-03-03 16:09:29soilmoisture83percent
6240bbbba929e5d1f190e42603d5343f005d2021-03-03 16:09:29dht11temp22.9degree
6241bbbba929e5d1f190e42603d5343f005d2021-03-03 16:09:29dht11humidity61percent
6242bbbba929e5d1f190e42603d5343f005d2021-03-03 16:14:30soilmoisture83percent
6243bbbba929e5d1f190e42603d5343f005d2021-03-03 16:14:31dht11temp22.9degree
6244bbbba929e5d1f190e42603d5343f005d2021-03-03 16:14:31dht11humidity63percent
6245bbbba929e5d1f190e42603d5343f005d2021-03-03 16:19:32soilmoisture83percent
6246bbbba929e5d1f190e42603d5343f005d2021-03-03 16:19:33dht11temp22.8degree
6247bbbba929e5d1f190e42603d5343f005d2021-03-03 16:19:33dht11humidity64percent
6248bbbba929e5d1f190e42603d5343f005d2021-03-03 16:24:34soilmoisture83percent
6249bbbba929e5d1f190e42603d5343f005d2021-03-03 16:24:34dht11temp22.7degree
6250bbbba929e5d1f190e42603d5343f005d2021-03-03 16:24:35dht11humidity60percent
6251bbbba929e5d1f190e42603d5343f005d2021-03-03 16:29:36soilmoisture83percent
6252bbbba929e5d1f190e42603d5343f005d2021-03-03 16:29:36dht11temp22.6degree
6253bbbba929e5d1f190e42603d5343f005d2021-03-03 16:29:36dht11humidity61percent
6254bbbba929e5d1f190e42603d5343f005d2021-03-03 16:34:38soilmoisture83percent
6255bbbba929e5d1f190e42603d5343f005d2021-03-03 16:34:38dht11temp22.6degree
6256bbbba929e5d1f190e42603d5343f005d2021-03-03 16:34:39dht11humidity62percent
6257bbbba929e5d1f190e42603d5343f005d2021-03-03 16:39:40soilmoisture83percent
6258bbbba929e5d1f190e42603d5343f005d2021-03-03 16:39:40dht11temp22.6degree
6259bbbba929e5d1f190e42603d5343f005d2021-03-03 16:39:40dht11humidity62percent
6260bbbba929e5d1f190e42603d5343f005d2021-03-03 16:44:42soilmoisture83percent
6261bbbba929e5d1f190e42603d5343f005d2021-03-03 16:44:42dht11temp22.6degree
6262bbbba929e5d1f190e42603d5343f005d2021-03-03 16:44:42dht11humidity60percent
6263bbbba929e5d1f190e42603d5343f005d2021-03-03 16:49:44soilmoisture83percent
6264bbbba929e5d1f190e42603d5343f005d2021-03-03 16:49:44dht11temp22.6degree
6265bbbba929e5d1f190e42603d5343f005d2021-03-03 16:49:44dht11humidity61percent
6266bbbba929e5d1f190e42603d5343f005d2021-03-03 16:54:46soilmoisture83percent
6267bbbba929e5d1f190e42603d5343f005d2021-03-03 16:54:46dht11temp22.5degree
6268bbbba929e5d1f190e42603d5343f005d2021-03-03 16:54:46dht11humidity63percent
6269bbbba929e5d1f190e42603d5343f005d2021-03-03 16:59:48soilmoisture83percent
6270bbbba929e5d1f190e42603d5343f005d2021-03-03 16:59:48dht11temp22.5degree
6271bbbba929e5d1f190e42603d5343f005d2021-03-03 16:59:48dht11humidity64percent
6272bbbba929e5d1f190e42603d5343f005d2021-03-03 17:04:50soilmoisture83percent
6273bbbba929e5d1f190e42603d5343f005d2021-03-03 17:04:50dht11temp22.4degree
6274bbbba929e5d1f190e42603d5343f005d2021-03-03 17:04:50dht11humidity62percent
6275bbbba929e5d1f190e42603d5343f005d2021-03-03 17:09:52soilmoisture83percent
6276bbbba929e5d1f190e42603d5343f005d2021-03-03 17:09:52dht11temp22.4degree
6277bbbba929e5d1f190e42603d5343f005d2021-03-03 17:09:52dht11humidity63percent
6278bbbba929e5d1f190e42603d5343f005d2021-03-03 17:14:54soilmoisture83percent
6279bbbba929e5d1f190e42603d5343f005d2021-03-03 17:14:54dht11temp22.3degree
6280bbbba929e5d1f190e42603d5343f005d2021-03-03 17:14:54dht11humidity62percent
6281bbbba929e5d1f190e42603d5343f005d2021-03-03 17:19:55soilmoisture83percent
6282bbbba929e5d1f190e42603d5343f005d2021-03-03 17:19:55dht11temp22.3degree
6283bbbba929e5d1f190e42603d5343f005d2021-03-03 17:19:56dht11humidity61percent
6284bbbba929e5d1f190e42603d5343f005d2021-03-03 17:24:57soilmoisture83percent
6285bbbba929e5d1f190e42603d5343f005d2021-03-03 17:24:57dht11temp22.3degree
6286bbbba929e5d1f190e42603d5343f005d2021-03-03 17:24:57dht11humidity60percent
6287bbbba929e5d1f190e42603d5343f005d2021-03-03 17:29:59soilmoisture83percent
6288bbbba929e5d1f190e42603d5343f005d2021-03-03 17:29:59dht11temp22.3degree
6289bbbba929e5d1f190e42603d5343f005d2021-03-03 17:29:59dht11humidity61percent
6290bbbba929e5d1f190e42603d5343f005d2021-03-03 17:35:01soilmoisture83percent
6291bbbba929e5d1f190e42603d5343f005d2021-03-03 17:35:01dht11temp22.3degree
6292bbbba929e5d1f190e42603d5343f005d2021-03-03 17:35:01dht11humidity64percent
6293bbbba929e5d1f190e42603d5343f005d2021-03-03 17:40:03soilmoisture83percent
6294bbbba929e5d1f190e42603d5343f005d2021-03-03 17:40:03dht11temp22.2degree
6295bbbba929e5d1f190e42603d5343f005d2021-03-03 17:40:03dht11humidity65percent
6296bbbba929e5d1f190e42603d5343f005d2021-03-03 17:45:05soilmoisture83percent
6297bbbba929e5d1f190e42603d5343f005d2021-03-03 17:45:05dht11temp22.1degree
6298bbbba929e5d1f190e42603d5343f005d2021-03-03 17:45:05dht11humidity63percent
6299bbbba929e5d1f190e42603d5343f005d2021-03-03 17:50:07soilmoisture83percent
6300bbbba929e5d1f190e42603d5343f005d2021-03-03 17:50:07dht11temp22.1degree
6301bbbba929e5d1f190e42603d5343f005d2021-03-03 17:50:07dht11humidity62percent
6302bbbba929e5d1f190e42603d5343f005d2021-03-03 17:55:09soilmoisture83percent
6303bbbba929e5d1f190e42603d5343f005d2021-03-03 17:55:09dht11temp22.1degree
6304bbbba929e5d1f190e42603d5343f005d2021-03-03 17:55:09dht11humidity63percent
6305bbbba929e5d1f190e42603d5343f005d2021-03-03 18:00:10soilmoisture83percent
6306bbbba929e5d1f190e42603d5343f005d2021-03-03 18:00:10dht11temp22.1degree
6307bbbba929e5d1f190e42603d5343f005d2021-03-03 18:00:10dht11humidity62percent
6308bbbba929e5d1f190e42603d5343f005d2021-03-03 18:05:12soilmoisture83percent
6309bbbba929e5d1f190e42603d5343f005d2021-03-03 18:05:12dht11temp22degree
6310bbbba929e5d1f190e42603d5343f005d2021-03-03 18:05:12dht11humidity61percent
6311bbbba929e5d1f190e42603d5343f005d2021-03-03 18:10:13soilmoisture83percent
6312bbbba929e5d1f190e42603d5343f005d2021-03-03 18:10:14dht11temp22degree
6313bbbba929e5d1f190e42603d5343f005d2021-03-03 18:10:14dht11humidity60percent
6314bbbba929e5d1f190e42603d5343f005d2021-03-03 18:15:15soilmoisture83percent
6315bbbba929e5d1f190e42603d5343f005d2021-03-03 18:15:16dht11temp21.9degree
6316bbbba929e5d1f190e42603d5343f005d2021-03-03 18:15:16dht11humidity62percent
6317bbbba929e5d1f190e42603d5343f005d2021-03-03 18:20:17soilmoisture83percent
6318bbbba929e5d1f190e42603d5343f005d2021-03-03 18:20:18dht11temp21.9degree
6319bbbba929e5d1f190e42603d5343f005d2021-03-03 18:20:18dht11humidity61percent
6320bbbba929e5d1f190e42603d5343f005d2021-03-03 18:25:19soilmoisture83percent
6321bbbba929e5d1f190e42603d5343f005d2021-03-03 18:25:20dht11temp21.8degree
6322bbbba929e5d1f190e42603d5343f005d2021-03-03 18:25:20dht11humidity63percent
6323bbbba929e5d1f190e42603d5343f005d2021-03-03 18:30:21soilmoisture83percent
6324bbbba929e5d1f190e42603d5343f005d2021-03-03 18:30:22dht11temp21.8degree
6325bbbba929e5d1f190e42603d5343f005d2021-03-03 18:30:22dht11humidity60percent
6326bbbba929e5d1f190e42603d5343f005d2021-03-03 18:35:23soilmoisture83percent
6327bbbba929e5d1f190e42603d5343f005d2021-03-03 18:35:23dht11temp21.8degree
6328bbbba929e5d1f190e42603d5343f005d2021-03-03 18:35:24dht11humidity61percent
6329bbbba929e5d1f190e42603d5343f005d2021-03-03 18:40:25soilmoisture83percent
6330bbbba929e5d1f190e42603d5343f005d2021-03-03 18:40:25dht11temp21.8degree
6331bbbba929e5d1f190e42603d5343f005d2021-03-03 18:40:26dht11humidity62percent
6332bbbba929e5d1f190e42603d5343f005d2021-03-03 18:45:27soilmoisture83percent
6333bbbba929e5d1f190e42603d5343f005d2021-03-03 18:45:27dht11temp21.8degree
6334bbbba929e5d1f190e42603d5343f005d2021-03-03 18:45:27dht11humidity60percent
6335bbbba929e5d1f190e42603d5343f005d2021-03-03 18:50:29soilmoisture83percent
6336bbbba929e5d1f190e42603d5343f005d2021-03-03 18:50:29dht11temp21.7degree
6337bbbba929e5d1f190e42603d5343f005d2021-03-03 18:50:29dht11humidity64percent
6338bbbba929e5d1f190e42603d5343f005d2021-03-03 18:55:31soilmoisture83percent
6339bbbba929e5d1f190e42603d5343f005d2021-03-03 18:55:31dht11temp21.7degree
6340bbbba929e5d1f190e42603d5343f005d2021-03-03 18:55:31dht11humidity62percent
6341bbbba929e5d1f190e42603d5343f005d2021-03-03 19:00:33soilmoisture83percent
6342bbbba929e5d1f190e42603d5343f005d2021-03-03 19:00:33dht11temp21.6degree
6343bbbba929e5d1f190e42603d5343f005d2021-03-03 19:00:33dht11humidity61percent
6344bbbba929e5d1f190e42603d5343f005d2021-03-03 19:05:35soilmoisture83percent
6345bbbba929e5d1f190e42603d5343f005d2021-03-03 19:05:35dht11temp21.6degree
6346bbbba929e5d1f190e42603d5343f005d2021-03-03 19:05:35dht11humidity62percent
6347bbbba929e5d1f190e42603d5343f005d2021-03-03 19:10:37soilmoisture83percent
6348bbbba929e5d1f190e42603d5343f005d2021-03-03 19:10:37dht11temp21.6degree
6349bbbba929e5d1f190e42603d5343f005d2021-03-03 19:10:37dht11humidity59percent
6350bbbba929e5d1f190e42603d5343f005d2021-03-03 19:15:38soilmoisture83percent
6351bbbba929e5d1f190e42603d5343f005d2021-03-03 19:15:39dht11temp21.6degree
6352bbbba929e5d1f190e42603d5343f005d2021-03-03 19:15:39dht11humidity60percent
6353bbbba929e5d1f190e42603d5343f005d2021-03-03 19:20:40soilmoisture83percent
6354bbbba929e5d1f190e42603d5343f005d2021-03-03 19:20:41dht11temp21.6degree
6355bbbba929e5d1f190e42603d5343f005d2021-03-03 19:20:41dht11humidity58percent
6356bbbba929e5d1f190e42603d5343f005d2021-03-03 19:25:42soilmoisture83percent
6357bbbba929e5d1f190e42603d5343f005d2021-03-03 19:25:42dht11temp21.7degree
6358bbbba929e5d1f190e42603d5343f005d2021-03-03 19:25:43dht11humidity59percent
6359bbbba929e5d1f190e42603d5343f005d2021-03-03 19:30:44soilmoisture83percent
6360bbbba929e5d1f190e42603d5343f005d2021-03-03 19:30:44dht11temp21.7degree
6361bbbba929e5d1f190e42603d5343f005d2021-03-03 19:30:44dht11humidity60percent
6362bbbba929e5d1f190e42603d5343f005d2021-03-03 19:35:46soilmoisture83percent
6363bbbba929e5d1f190e42603d5343f005d2021-03-03 19:35:46dht11temp21.7degree
6364bbbba929e5d1f190e42603d5343f005d2021-03-03 19:35:46dht11humidity61percent
6365bbbba929e5d1f190e42603d5343f005d2021-03-03 19:40:48soilmoisture83percent
6366bbbba929e5d1f190e42603d5343f005d2021-03-03 19:40:48dht11temp21.7degree
6367bbbba929e5d1f190e42603d5343f005d2021-03-03 19:40:48dht11humidity59percent
6368bbbba929e5d1f190e42603d5343f005d2021-03-03 19:45:50soilmoisture83percent
6369bbbba929e5d1f190e42603d5343f005d2021-03-03 19:45:50dht11temp21.7degree
6370bbbba929e5d1f190e42603d5343f005d2021-03-03 19:45:50dht11humidity60percent
6371bbbba929e5d1f190e42603d5343f005d2021-03-03 19:50:52soilmoisture83percent
6372bbbba929e5d1f190e42603d5343f005d2021-03-03 19:50:52dht11temp21.7degree
6373bbbba929e5d1f190e42603d5343f005d2021-03-03 19:50:52dht11humidity60percent
6374bbbba929e5d1f190e42603d5343f005d2021-03-03 19:55:54soilmoisture83percent
6375bbbba929e5d1f190e42603d5343f005d2021-03-03 19:55:54dht11temp21.6degree
6376bbbba929e5d1f190e42603d5343f005d2021-03-03 19:55:54dht11humidity61percent
6377bbbba929e5d1f190e42603d5343f005d2021-03-03 20:00:56soilmoisture84percent
6378bbbba929e5d1f190e42603d5343f005d2021-03-03 20:00:56dht11temp21.6degree
6379bbbba929e5d1f190e42603d5343f005d2021-03-03 20:00:56dht11humidity60percent
6380bbbba929e5d1f190e42603d5343f005d2021-03-03 20:05:58soilmoisture83percent
6381bbbba929e5d1f190e42603d5343f005d2021-03-03 20:05:58dht11temp21.6degree
6382bbbba929e5d1f190e42603d5343f005d2021-03-03 20:05:58dht11humidity59percent
6383bbbba929e5d1f190e42603d5343f005d2021-03-03 20:11:00soilmoisture83percent
6384bbbba929e5d1f190e42603d5343f005d2021-03-03 20:11:00dht11temp21.6degree
6385bbbba929e5d1f190e42603d5343f005d2021-03-03 20:11:00dht11humidity59percent
6386bbbba929e5d1f190e42603d5343f005d2021-03-03 20:16:02soilmoisture83percent
6387bbbba929e5d1f190e42603d5343f005d2021-03-03 20:16:02dht11temp21.6degree
6388bbbba929e5d1f190e42603d5343f005d2021-03-03 20:16:02dht11humidity59percent
6389bbbba929e5d1f190e42603d5343f005d2021-03-03 20:21:04soilmoisture83percent
6390bbbba929e5d1f190e42603d5343f005d2021-03-03 20:21:04dht11temp21.6degree
6391bbbba929e5d1f190e42603d5343f005d2021-03-03 20:21:04dht11humidity60percent
6392bbbba929e5d1f190e42603d5343f005d2021-03-03 20:26:06soilmoisture83percent
6393bbbba929e5d1f190e42603d5343f005d2021-03-03 20:26:06dht11temp21.6degree
6394bbbba929e5d1f190e42603d5343f005d2021-03-03 20:26:06dht11humidity59percent
6395bbbba929e5d1f190e42603d5343f005d2021-03-03 20:31:08soilmoisture83percent
6396bbbba929e5d1f190e42603d5343f005d2021-03-03 20:31:08dht11temp21.6degree
6397bbbba929e5d1f190e42603d5343f005d2021-03-03 20:31:08dht11humidity61percent
6398bbbba929e5d1f190e42603d5343f005d2021-03-03 20:36:10soilmoisture83percent
6399bbbba929e5d1f190e42603d5343f005d2021-03-03 20:36:10dht11temp21.6degree
6400bbbba929e5d1f190e42603d5343f005d2021-03-03 20:36:10dht11humidity60percent
6401bbbba929e5d1f190e42603d5343f005d2021-03-03 20:41:12soilmoisture84percent
6402bbbba929e5d1f190e42603d5343f005d2021-03-03 20:41:12dht11temp21.6degree
6403bbbba929e5d1f190e42603d5343f005d2021-03-03 20:41:12dht11humidity60percent
6404bbbba929e5d1f190e42603d5343f005d2021-03-03 20:46:14soilmoisture83percent
6405bbbba929e5d1f190e42603d5343f005d2021-03-03 20:46:14dht11temp21.6degree
6406bbbba929e5d1f190e42603d5343f005d2021-03-03 20:46:14dht11humidity60percent
6407bbbba929e5d1f190e42603d5343f005d2021-03-03 20:51:16soilmoisture83percent
6408bbbba929e5d1f190e42603d5343f005d2021-03-03 20:51:16dht11temp21.6degree
6409bbbba929e5d1f190e42603d5343f005d2021-03-03 20:51:16dht11humidity60percent
6410bbbba929e5d1f190e42603d5343f005d2021-03-03 20:56:18soilmoisture83percent
6411bbbba929e5d1f190e42603d5343f005d2021-03-03 20:56:18dht11temp21.6degree
6412bbbba929e5d1f190e42603d5343f005d2021-03-03 20:56:18dht11humidity62percent
6413bbbba929e5d1f190e42603d5343f005d2021-03-03 21:01:20soilmoisture84percent
6414bbbba929e5d1f190e42603d5343f005d2021-03-03 21:01:20dht11temp21.6degree
6415bbbba929e5d1f190e42603d5343f005d2021-03-03 21:01:20dht11humidity60percent
6416bbbba929e5d1f190e42603d5343f005d2021-03-03 21:06:22soilmoisture83percent
6417bbbba929e5d1f190e42603d5343f005d2021-03-03 21:06:22dht11temp21.6degree
6418bbbba929e5d1f190e42603d5343f005d2021-03-03 21:06:22dht11humidity61percent
6419bbbba929e5d1f190e42603d5343f005d2021-03-03 21:11:24soilmoisture83percent
6420bbbba929e5d1f190e42603d5343f005d2021-03-03 21:11:24dht11temp21.6degree
6421bbbba929e5d1f190e42603d5343f005d2021-03-03 21:11:25dht11humidity61percent
6422bbbba929e5d1f190e42603d5343f005d2021-03-03 21:16:26soilmoisture83percent
6423bbbba929e5d1f190e42603d5343f005d2021-03-03 21:16:27dht11temp21.5degree
6424bbbba929e5d1f190e42603d5343f005d2021-03-03 21:16:27dht11humidity61percent
6425bbbba929e5d1f190e42603d5343f005d2021-03-03 21:21:28soilmoisture83percent
6426bbbba929e5d1f190e42603d5343f005d2021-03-03 21:21:28dht11temp21.6degree
6427bbbba929e5d1f190e42603d5343f005d2021-03-03 21:21:29dht11humidity64percent
6428bbbba929e5d1f190e42603d5343f005d2021-03-03 21:26:30soilmoisture83percent
6429bbbba929e5d1f190e42603d5343f005d2021-03-03 21:26:30dht11temp21.5degree
6430bbbba929e5d1f190e42603d5343f005d2021-03-03 21:26:30dht11humidity61percent
6431bbbba929e5d1f190e42603d5343f005d2021-03-03 21:31:32soilmoisture84percent
6432bbbba929e5d1f190e42603d5343f005d2021-03-03 21:31:32dht11temp21.5degree
6433bbbba929e5d1f190e42603d5343f005d2021-03-03 21:31:32dht11humidity62percent
6434bbbba929e5d1f190e42603d5343f005d2021-03-03 21:36:34soilmoisture83percent
6435bbbba929e5d1f190e42603d5343f005d2021-03-03 21:36:34dht11temp21.5degree
6436bbbba929e5d1f190e42603d5343f005d2021-03-03 21:36:34dht11humidity62percent
6437bbbba929e5d1f190e42603d5343f005d2021-03-03 21:41:36soilmoisture84percent
6438bbbba929e5d1f190e42603d5343f005d2021-03-03 21:41:36dht11temp21.5degree
6439bbbba929e5d1f190e42603d5343f005d2021-03-03 21:41:36dht11humidity62percent
6440bbbba929e5d1f190e42603d5343f005d2021-03-03 21:46:38soilmoisture84percent
6441bbbba929e5d1f190e42603d5343f005d2021-03-03 21:46:38dht11temp21.5degree
6442bbbba929e5d1f190e42603d5343f005d2021-03-03 21:46:38dht11humidity61percent
6443bbbba929e5d1f190e42603d5343f005d2021-03-03 21:51:40soilmoisture84percent
6444bbbba929e5d1f190e42603d5343f005d2021-03-03 21:51:40dht11temp21.5degree
6445bbbba929e5d1f190e42603d5343f005d2021-03-03 21:51:40dht11humidity62percent
6446bbbba929e5d1f190e42603d5343f005d2021-03-03 21:56:41soilmoisture84percent
6447bbbba929e5d1f190e42603d5343f005d2021-03-03 21:56:42dht11temp21.5degree
6448bbbba929e5d1f190e42603d5343f005d2021-03-03 21:56:42dht11humidity61percent
6449bbbba929e5d1f190e42603d5343f005d2021-03-03 22:01:44soilmoisture84percent
6450bbbba929e5d1f190e42603d5343f005d2021-03-03 22:01:44dht11temp21.5degree
6451bbbba929e5d1f190e42603d5343f005d2021-03-03 22:01:44dht11humidity62percent
6452bbbba929e5d1f190e42603d5343f005d2021-03-03 22:06:45soilmoisture83percent
6453bbbba929e5d1f190e42603d5343f005d2021-03-03 22:06:46dht11temp21.5degree
6454bbbba929e5d1f190e42603d5343f005d2021-03-03 22:06:46dht11humidity61percent
6455bbbba929e5d1f190e42603d5343f005d2021-03-03 22:11:47soilmoisture84percent
6456bbbba929e5d1f190e42603d5343f005d2021-03-03 22:11:48dht11temp21.5degree
6457bbbba929e5d1f190e42603d5343f005d2021-03-03 22:11:48dht11humidity62percent
6458bbbba929e5d1f190e42603d5343f005d2021-03-03 22:16:49soilmoisture84percent
6459bbbba929e5d1f190e42603d5343f005d2021-03-03 22:16:49dht11temp21.6degree
6460bbbba929e5d1f190e42603d5343f005d2021-03-03 22:16:50dht11humidity64percent
6461bbbba929e5d1f190e42603d5343f005d2021-03-03 22:21:51soilmoisture84percent
6462bbbba929e5d1f190e42603d5343f005d2021-03-03 22:21:51dht11temp21.5degree
6463bbbba929e5d1f190e42603d5343f005d2021-03-03 22:21:51dht11humidity62percent
6464bbbba929e5d1f190e42603d5343f005d2021-03-03 22:26:53soilmoisture84percent
6465bbbba929e5d1f190e42603d5343f005d2021-03-03 22:26:53dht11temp21.5degree
6466bbbba929e5d1f190e42603d5343f005d2021-03-03 22:26:53dht11humidity62percent
6467bbbba929e5d1f190e42603d5343f005d2021-03-03 22:31:55soilmoisture84percent
6468bbbba929e5d1f190e42603d5343f005d2021-03-03 22:31:55dht11temp21.5degree
6469bbbba929e5d1f190e42603d5343f005d2021-03-03 22:31:55dht11humidity60percent
6470bbbba929e5d1f190e42603d5343f005d2021-03-03 22:36:57soilmoisture84percent
6471bbbba929e5d1f190e42603d5343f005d2021-03-03 22:36:57dht11temp21.6degree
6472bbbba929e5d1f190e42603d5343f005d2021-03-03 22:36:57dht11humidity64percent
6473bbbba929e5d1f190e42603d5343f005d2021-03-03 22:41:59soilmoisture84percent
6474bbbba929e5d1f190e42603d5343f005d2021-03-03 22:41:59dht11temp21.5degree
6475bbbba929e5d1f190e42603d5343f005d2021-03-03 22:41:59dht11humidity61percent
6476bbbba929e5d1f190e42603d5343f005d2021-03-03 22:47:01soilmoisture84percent
6477bbbba929e5d1f190e42603d5343f005d2021-03-03 22:47:01dht11temp21.5degree
6478bbbba929e5d1f190e42603d5343f005d2021-03-03 22:47:01dht11humidity62percent
6479bbbba929e5d1f190e42603d5343f005d2021-03-03 22:52:03soilmoisture84percent
6480bbbba929e5d1f190e42603d5343f005d2021-03-03 22:52:03dht11temp21.5degree
6481bbbba929e5d1f190e42603d5343f005d2021-03-03 22:52:03dht11humidity63percent
6482bbbba929e5d1f190e42603d5343f005d2021-03-03 22:57:04soilmoisture84percent
6483bbbba929e5d1f190e42603d5343f005d2021-03-03 22:57:05dht11temp21.5degree
6484bbbba929e5d1f190e42603d5343f005d2021-03-03 22:57:05dht11humidity61percent
6485bbbba929e5d1f190e42603d5343f005d2021-03-03 23:02:06soilmoisture83percent
6486bbbba929e5d1f190e42603d5343f005d2021-03-03 23:02:07dht11temp21.5degree
6487bbbba929e5d1f190e42603d5343f005d2021-03-03 23:02:07dht11humidity62percent
6488bbbba929e5d1f190e42603d5343f005d2021-03-03 23:07:08soilmoisture83percent
6489bbbba929e5d1f190e42603d5343f005d2021-03-03 23:07:08dht11temp21.5degree
6490bbbba929e5d1f190e42603d5343f005d2021-03-03 23:07:09dht11humidity62percent
6491bbbba929e5d1f190e42603d5343f005d2021-03-03 23:12:10soilmoisture84percent
6492bbbba929e5d1f190e42603d5343f005d2021-03-03 23:12:10dht11temp21.5degree
6493bbbba929e5d1f190e42603d5343f005d2021-03-03 23:12:11dht11humidity61percent
6494bbbba929e5d1f190e42603d5343f005d2021-03-03 23:17:12soilmoisture83percent
6495bbbba929e5d1f190e42603d5343f005d2021-03-03 23:17:12dht11temp21.6degree
6496bbbba929e5d1f190e42603d5343f005d2021-03-03 23:17:12dht11humidity62percent
6497bbbba929e5d1f190e42603d5343f005d2021-03-03 23:22:14soilmoisture84percent
6498bbbba929e5d1f190e42603d5343f005d2021-03-03 23:22:14dht11temp21.5degree
6499bbbba929e5d1f190e42603d5343f005d2021-03-03 23:22:14dht11humidity62percent
6500bbbba929e5d1f190e42603d5343f005d2021-03-03 23:27:16soilmoisture84percent
6501bbbba929e5d1f190e42603d5343f005d2021-03-03 23:27:16dht11temp21.5degree
6502bbbba929e5d1f190e42603d5343f005d2021-03-03 23:27:16dht11humidity61percent
6503bbbba929e5d1f190e42603d5343f005d2021-03-03 23:32:18soilmoisture84percent
6504bbbba929e5d1f190e42603d5343f005d2021-03-03 23:32:18dht11temp21.5degree
6505bbbba929e5d1f190e42603d5343f005d2021-03-03 23:32:18dht11humidity61percent
6506bbbba929e5d1f190e42603d5343f005d2021-03-03 23:37:20soilmoisture84percent
6507bbbba929e5d1f190e42603d5343f005d2021-03-03 23:37:20dht11temp21.5degree
6508bbbba929e5d1f190e42603d5343f005d2021-03-03 23:37:20dht11humidity62percent
6509bbbba929e5d1f190e42603d5343f005d2021-03-03 23:42:22soilmoisture83percent
6510bbbba929e5d1f190e42603d5343f005d2021-03-03 23:42:22dht11temp21.6degree
6511bbbba929e5d1f190e42603d5343f005d2021-03-03 23:42:22dht11humidity62percent
6512bbbba929e5d1f190e42603d5343f005d2021-03-03 23:47:24soilmoisture84percent
6513bbbba929e5d1f190e42603d5343f005d2021-03-03 23:47:24dht11temp21.5degree
6514bbbba929e5d1f190e42603d5343f005d2021-03-03 23:47:24dht11humidity61percent
6515bbbba929e5d1f190e42603d5343f005d2021-03-03 23:52:26soilmoisture84percent
6516bbbba929e5d1f190e42603d5343f005d2021-03-03 23:52:26dht11temp21.6degree
6517bbbba929e5d1f190e42603d5343f005d2021-03-03 23:52:26dht11humidity62percent
6518bbbba929e5d1f190e42603d5343f005d2021-03-03 23:57:27soilmoisture84percent
6519bbbba929e5d1f190e42603d5343f005d2021-03-03 23:57:28dht11temp21.6degree
6520bbbba929e5d1f190e42603d5343f005d2021-03-03 23:57:28dht11humidity63percent
6521bbbba929e5d1f190e42603d5343f005d2021-03-04 00:02:29soilmoisture84percent
6522bbbba929e5d1f190e42603d5343f005d2021-03-04 00:02:29dht11temp21.5degree
6523bbbba929e5d1f190e42603d5343f005d2021-03-04 00:02:30dht11humidity60percent
6524bbbba929e5d1f190e42603d5343f005d2021-03-04 00:07:31soilmoisture84percent
6525bbbba929e5d1f190e42603d5343f005d2021-03-04 00:07:31dht11temp21.4degree
6526bbbba929e5d1f190e42603d5343f005d2021-03-04 00:07:31dht11humidity63percent
6527bbbba929e5d1f190e42603d5343f005d2021-03-04 00:12:33soilmoisture84percent
6528bbbba929e5d1f190e42603d5343f005d2021-03-04 00:12:33dht11temp21.3degree
6529bbbba929e5d1f190e42603d5343f005d2021-03-04 00:12:33dht11humidity61percent
6530bbbba929e5d1f190e42603d5343f005d2021-03-04 00:17:35soilmoisture84percent
6531bbbba929e5d1f190e42603d5343f005d2021-03-04 00:17:35dht11temp21.3degree
6532bbbba929e5d1f190e42603d5343f005d2021-03-04 00:17:35dht11humidity63percent
6533bbbba929e5d1f190e42603d5343f005d2021-03-04 00:22:37soilmoisture84percent
6534bbbba929e5d1f190e42603d5343f005d2021-03-04 00:22:37dht11temp21.2degree
6535bbbba929e5d1f190e42603d5343f005d2021-03-04 00:22:37dht11humidity67percent
6536bbbba929e5d1f190e42603d5343f005d2021-03-04 00:27:39soilmoisture84percent
6537bbbba929e5d1f190e42603d5343f005d2021-03-04 00:27:39dht11temp21.2degree
6538bbbba929e5d1f190e42603d5343f005d2021-03-04 00:27:39dht11humidity62percent
6539bbbba929e5d1f190e42603d5343f005d2021-03-04 00:32:41soilmoisture84percent
6540bbbba929e5d1f190e42603d5343f005d2021-03-04 00:32:41dht11temp21.2degree
6541bbbba929e5d1f190e42603d5343f005d2021-03-04 00:32:41dht11humidity62percent
6542bbbba929e5d1f190e42603d5343f005d2021-03-04 00:37:43soilmoisture84percent
6543bbbba929e5d1f190e42603d5343f005d2021-03-04 00:37:43dht11temp21.2degree
6544bbbba929e5d1f190e42603d5343f005d2021-03-04 00:37:43dht11humidity63percent
6545bbbba929e5d1f190e42603d5343f005d2021-03-04 00:42:45soilmoisture84percent
6546bbbba929e5d1f190e42603d5343f005d2021-03-04 00:42:45dht11temp21.2degree
6547bbbba929e5d1f190e42603d5343f005d2021-03-04 00:42:45dht11humidity63percent
6548bbbba929e5d1f190e42603d5343f005d2021-03-04 00:47:47soilmoisture84percent
6549bbbba929e5d1f190e42603d5343f005d2021-03-04 00:47:47dht11temp21.1degree
6550bbbba929e5d1f190e42603d5343f005d2021-03-04 00:47:47dht11humidity66percent
6551bbbba929e5d1f190e42603d5343f005d2021-03-04 00:52:48soilmoisture84percent
6552bbbba929e5d1f190e42603d5343f005d2021-03-04 00:52:49dht11temp21.1degree
6553bbbba929e5d1f190e42603d5343f005d2021-03-04 00:52:49dht11humidity64percent
6554bbbba929e5d1f190e42603d5343f005d2021-03-04 00:57:50soilmoisture84percent
6555bbbba929e5d1f190e42603d5343f005d2021-03-04 00:57:51dht11temp21.1degree
6556bbbba929e5d1f190e42603d5343f005d2021-03-04 00:57:51dht11humidity64percent
6557bbbba929e5d1f190e42603d5343f005d2021-03-04 01:02:52soilmoisture84percent
6558bbbba929e5d1f190e42603d5343f005d2021-03-04 01:02:53dht11temp21.1degree
6559bbbba929e5d1f190e42603d5343f005d2021-03-04 01:02:53dht11humidity64percent
6560bbbba929e5d1f190e42603d5343f005d2021-03-04 01:07:54soilmoisture84percent
6561bbbba929e5d1f190e42603d5343f005d2021-03-04 01:07:55dht11temp21.1degree
6562bbbba929e5d1f190e42603d5343f005d2021-03-04 01:07:55dht11humidity62percent
6563bbbba929e5d1f190e42603d5343f005d2021-03-04 01:12:56soilmoisture84percent
6564bbbba929e5d1f190e42603d5343f005d2021-03-04 01:12:56dht11temp21.1degree
6565bbbba929e5d1f190e42603d5343f005d2021-03-04 01:12:56dht11humidity64percent
6566bbbba929e5d1f190e42603d5343f005d2021-03-04 01:17:58soilmoisture84percent
6567bbbba929e5d1f190e42603d5343f005d2021-03-04 01:17:58dht11temp21.1degree
6568bbbba929e5d1f190e42603d5343f005d2021-03-04 01:17:58dht11humidity64percent
6569bbbba929e5d1f190e42603d5343f005d2021-03-04 01:23:00soilmoisture84percent
6570bbbba929e5d1f190e42603d5343f005d2021-03-04 01:23:00dht11temp21.1degree
6571bbbba929e5d1f190e42603d5343f005d2021-03-04 01:23:00dht11humidity63percent
6572bbbba929e5d1f190e42603d5343f005d2021-03-04 01:28:02soilmoisture84percent
6573bbbba929e5d1f190e42603d5343f005d2021-03-04 01:28:02dht11temp21.1degree
6574bbbba929e5d1f190e42603d5343f005d2021-03-04 01:28:02dht11humidity62percent
6575bbbba929e5d1f190e42603d5343f005d2021-03-04 01:33:04soilmoisture84percent
6576bbbba929e5d1f190e42603d5343f005d2021-03-04 01:33:04dht11temp21degree
6577bbbba929e5d1f190e42603d5343f005d2021-03-04 01:33:04dht11humidity62percent
6578bbbba929e5d1f190e42603d5343f005d2021-03-04 01:38:06soilmoisture84percent
6579bbbba929e5d1f190e42603d5343f005d2021-03-04 01:38:06dht11temp21degree
6580bbbba929e5d1f190e42603d5343f005d2021-03-04 01:38:06dht11humidity65percent
6581bbbba929e5d1f190e42603d5343f005d2021-03-04 01:43:08soilmoisture84percent
6582bbbba929e5d1f190e42603d5343f005d2021-03-04 01:43:08dht11temp21degree
6583bbbba929e5d1f190e42603d5343f005d2021-03-04 01:43:08dht11humidity65percent
6584bbbba929e5d1f190e42603d5343f005d2021-03-04 01:48:10soilmoisture84percent
6585bbbba929e5d1f190e42603d5343f005d2021-03-04 01:48:10dht11temp20.9degree
6586bbbba929e5d1f190e42603d5343f005d2021-03-04 01:48:10dht11humidity64percent
6587bbbba929e5d1f190e42603d5343f005d2021-03-04 01:53:11soilmoisture84percent
6588bbbba929e5d1f190e42603d5343f005d2021-03-04 01:53:12dht11temp20.9degree
6589bbbba929e5d1f190e42603d5343f005d2021-03-04 01:53:12dht11humidity64percent
6590bbbba929e5d1f190e42603d5343f005d2021-03-04 01:58:13soilmoisture84percent
6591bbbba929e5d1f190e42603d5343f005d2021-03-04 01:58:13dht11temp20.9degree
6592bbbba929e5d1f190e42603d5343f005d2021-03-04 01:58:14dht11humidity63percent
6593bbbba929e5d1f190e42603d5343f005d2021-03-04 02:03:15soilmoisture84percent
6594bbbba929e5d1f190e42603d5343f005d2021-03-04 02:03:15dht11temp20.9degree
6595bbbba929e5d1f190e42603d5343f005d2021-03-04 02:03:16dht11humidity64percent
6596bbbba929e5d1f190e42603d5343f005d2021-03-04 02:08:17soilmoisture84percent
6597bbbba929e5d1f190e42603d5343f005d2021-03-04 02:08:17dht11temp20.9degree
6598bbbba929e5d1f190e42603d5343f005d2021-03-04 02:08:18dht11humidity62percent
6599bbbba929e5d1f190e42603d5343f005d2021-03-04 02:13:19soilmoisture84percent
6600bbbba929e5d1f190e42603d5343f005d2021-03-04 02:13:19dht11temp20.9degree
6601bbbba929e5d1f190e42603d5343f005d2021-03-04 02:13:19dht11humidity64percent
6602bbbba929e5d1f190e42603d5343f005d2021-03-04 02:18:21soilmoisture84percent
6603bbbba929e5d1f190e42603d5343f005d2021-03-04 02:18:21dht11temp20.8degree
6604bbbba929e5d1f190e42603d5343f005d2021-03-04 02:18:21dht11humidity66percent
6605bbbba929e5d1f190e42603d5343f005d2021-03-04 02:23:23soilmoisture84percent
6606bbbba929e5d1f190e42603d5343f005d2021-03-04 02:23:23dht11temp20.8degree
6607bbbba929e5d1f190e42603d5343f005d2021-03-04 02:23:23dht11humidity65percent
6608bbbba929e5d1f190e42603d5343f005d2021-03-04 02:28:25soilmoisture84percent
6609bbbba929e5d1f190e42603d5343f005d2021-03-04 02:28:25dht11temp20.8degree
6610bbbba929e5d1f190e42603d5343f005d2021-03-04 02:28:25dht11humidity65percent
6611bbbba929e5d1f190e42603d5343f005d2021-03-04 02:33:27soilmoisture84percent
6612bbbba929e5d1f190e42603d5343f005d2021-03-04 02:33:27dht11temp20.7degree
6613bbbba929e5d1f190e42603d5343f005d2021-03-04 02:33:27dht11humidity64percent
6614bbbba929e5d1f190e42603d5343f005d2021-03-04 02:38:29soilmoisture84percent
6615bbbba929e5d1f190e42603d5343f005d2021-03-04 02:38:29dht11temp20.7degree
6616bbbba929e5d1f190e42603d5343f005d2021-03-04 02:38:29dht11humidity63percent
6617bbbba929e5d1f190e42603d5343f005d2021-03-04 02:43:30soilmoisture84percent
6618bbbba929e5d1f190e42603d5343f005d2021-03-04 02:43:31dht11temp20.7degree
6619bbbba929e5d1f190e42603d5343f005d2021-03-04 02:43:31dht11humidity65percent
6620bbbba929e5d1f190e42603d5343f005d2021-03-04 02:48:32soilmoisture84percent
6621bbbba929e5d1f190e42603d5343f005d2021-03-04 02:48:33dht11temp20.7degree
6622bbbba929e5d1f190e42603d5343f005d2021-03-04 02:48:33dht11humidity63percent
6623bbbba929e5d1f190e42603d5343f005d2021-03-04 02:53:34soilmoisture84percent
6624bbbba929e5d1f190e42603d5343f005d2021-03-04 02:53:34dht11temp20.7degree
6625bbbba929e5d1f190e42603d5343f005d2021-03-04 02:53:35dht11humidity65percent
6626bbbba929e5d1f190e42603d5343f005d2021-03-04 02:58:37soilmoisture84percent
6627bbbba929e5d1f190e42603d5343f005d2021-03-04 02:58:37dht11temp20.7degree
6628bbbba929e5d1f190e42603d5343f005d2021-03-04 02:58:37dht11humidity67percent
6629bbbba929e5d1f190e42603d5343f005d2021-03-04 03:03:39soilmoisture84percent
6630bbbba929e5d1f190e42603d5343f005d2021-03-04 03:03:39dht11temp20.6degree
6631bbbba929e5d1f190e42603d5343f005d2021-03-04 03:03:39dht11humidity63percent
6632bbbba929e5d1f190e42603d5343f005d2021-03-04 03:08:41soilmoisture84percent
6633bbbba929e5d1f190e42603d5343f005d2021-03-04 03:08:41dht11temp20.6degree
6634bbbba929e5d1f190e42603d5343f005d2021-03-04 03:08:41dht11humidity63percent
6635bbbba929e5d1f190e42603d5343f005d2021-03-04 03:13:43soilmoisture84percent
6636bbbba929e5d1f190e42603d5343f005d2021-03-04 03:13:43dht11temp20.6degree
6637bbbba929e5d1f190e42603d5343f005d2021-03-04 03:13:43dht11humidity64percent
6638bbbba929e5d1f190e42603d5343f005d2021-03-04 03:18:46soilmoisture84percent
6639bbbba929e5d1f190e42603d5343f005d2021-03-04 03:18:47dht11temp20.6degree
6640bbbba929e5d1f190e42603d5343f005d2021-03-04 03:18:47dht11humidity63percent
6641bbbba929e5d1f190e42603d5343f005d2021-03-04 03:23:49soilmoisture84percent
6642bbbba929e5d1f190e42603d5343f005d2021-03-04 03:23:49dht11temp20.6degree
6643bbbba929e5d1f190e42603d5343f005d2021-03-04 03:23:49dht11humidity62percent
6644bbbba929e5d1f190e42603d5343f005d2021-03-04 03:28:50soilmoisture84percent
6645bbbba929e5d1f190e42603d5343f005d2021-03-04 03:28:51dht11temp20.6degree
6646bbbba929e5d1f190e42603d5343f005d2021-03-04 03:28:51dht11humidity64percent
6647bbbba929e5d1f190e42603d5343f005d2021-03-04 03:33:52soilmoisture84percent
6648bbbba929e5d1f190e42603d5343f005d2021-03-04 03:33:52dht11temp20.6degree
6649bbbba929e5d1f190e42603d5343f005d2021-03-04 03:33:53dht11humidity62percent
6650bbbba929e5d1f190e42603d5343f005d2021-03-04 03:38:54soilmoisture84percent
6651bbbba929e5d1f190e42603d5343f005d2021-03-04 03:38:54dht11temp20.6degree
6652bbbba929e5d1f190e42603d5343f005d2021-03-04 03:38:54dht11humidity64percent
6653bbbba929e5d1f190e42603d5343f005d2021-03-04 03:43:56soilmoisture84percent
6654bbbba929e5d1f190e42603d5343f005d2021-03-04 03:43:56dht11temp20.6degree
6655bbbba929e5d1f190e42603d5343f005d2021-03-04 03:43:56dht11humidity64percent
6656bbbba929e5d1f190e42603d5343f005d2021-03-04 03:48:58soilmoisture84percent
6657bbbba929e5d1f190e42603d5343f005d2021-03-04 03:48:58dht11temp20.5degree
6658bbbba929e5d1f190e42603d5343f005d2021-03-04 03:48:58dht11humidity64percent
6659bbbba929e5d1f190e42603d5343f005d2021-03-04 03:54:00soilmoisture84percent
6660bbbba929e5d1f190e42603d5343f005d2021-03-04 03:54:00dht11temp20.5degree
6661bbbba929e5d1f190e42603d5343f005d2021-03-04 03:54:00dht11humidity63percent
6662bbbba929e5d1f190e42603d5343f005d2021-03-04 03:59:03soilmoisture84percent
6663bbbba929e5d1f190e42603d5343f005d2021-03-04 03:59:03dht11temp20.5degree
6664bbbba929e5d1f190e42603d5343f005d2021-03-04 03:59:03dht11humidity64percent
6665bbbba929e5d1f190e42603d5343f005d2021-03-04 04:04:05soilmoisture84percent
6666bbbba929e5d1f190e42603d5343f005d2021-03-04 04:04:05dht11temp20.5degree
6667bbbba929e5d1f190e42603d5343f005d2021-03-04 04:04:05dht11humidity65percent
6668bbbba929e5d1f190e42603d5343f005d2021-03-04 04:09:08soilmoisture84percent
6669bbbba929e5d1f190e42603d5343f005d2021-03-04 04:09:08dht11temp20.5degree
6670bbbba929e5d1f190e42603d5343f005d2021-03-04 04:09:08dht11humidity64percent
6671bbbba929e5d1f190e42603d5343f005d2021-03-04 04:14:10soilmoisture84percent
6672bbbba929e5d1f190e42603d5343f005d2021-03-04 04:14:10dht11temp20.4degree
6673bbbba929e5d1f190e42603d5343f005d2021-03-04 04:14:10dht11humidity64percent
6674bbbba929e5d1f190e42603d5343f005d2021-03-04 04:19:12soilmoisture84percent
6675bbbba929e5d1f190e42603d5343f005d2021-03-04 04:19:12dht11temp20.4degree
6676bbbba929e5d1f190e42603d5343f005d2021-03-04 04:19:12dht11humidity64percent
6677bbbba929e5d1f190e42603d5343f005d2021-03-04 04:24:14soilmoisture84percent
6678bbbba929e5d1f190e42603d5343f005d2021-03-04 04:24:14dht11temp20.4degree
6679bbbba929e5d1f190e42603d5343f005d2021-03-04 04:24:14dht11humidity67percent
6680bbbba929e5d1f190e42603d5343f005d2021-03-04 04:29:16soilmoisture84percent
6681bbbba929e5d1f190e42603d5343f005d2021-03-04 04:29:16dht11temp20.4degree
6682bbbba929e5d1f190e42603d5343f005d2021-03-04 04:29:16dht11humidity66percent
6683bbbba929e5d1f190e42603d5343f005d2021-03-04 04:34:17soilmoisture84percent
6684bbbba929e5d1f190e42603d5343f005d2021-03-04 04:34:18dht11temp20.4degree
6685bbbba929e5d1f190e42603d5343f005d2021-03-04 04:34:18dht11humidity64percent
6686bbbba929e5d1f190e42603d5343f005d2021-03-04 04:39:19soilmoisture84percent
6687bbbba929e5d1f190e42603d5343f005d2021-03-04 04:39:19dht11temp20.4degree
6688bbbba929e5d1f190e42603d5343f005d2021-03-04 04:39:20dht11humidity63percent
6689bbbba929e5d1f190e42603d5343f005d2021-03-04 04:44:21soilmoisture84percent
6690bbbba929e5d1f190e42603d5343f005d2021-03-04 04:44:21dht11temp20.3degree
6691bbbba929e5d1f190e42603d5343f005d2021-03-04 04:44:21dht11humidity64percent
6692bbbba929e5d1f190e42603d5343f005d2021-03-04 04:49:23soilmoisture84percent
6693bbbba929e5d1f190e42603d5343f005d2021-03-04 04:49:23dht11temp20.3degree
6694bbbba929e5d1f190e42603d5343f005d2021-03-04 04:49:23dht11humidity63percent
6695bbbba929e5d1f190e42603d5343f005d2021-03-04 04:54:25soilmoisture84percent
6696bbbba929e5d1f190e42603d5343f005d2021-03-04 04:54:25dht11temp20.3degree
6697bbbba929e5d1f190e42603d5343f005d2021-03-04 04:54:25dht11humidity64percent
6698bbbba929e5d1f190e42603d5343f005d2021-03-04 04:59:27soilmoisture84percent
6699bbbba929e5d1f190e42603d5343f005d2021-03-04 04:59:27dht11temp20.3degree
6700bbbba929e5d1f190e42603d5343f005d2021-03-04 04:59:27dht11humidity63percent
6701bbbba929e5d1f190e42603d5343f005d2021-03-04 05:04:29soilmoisture84percent
6702bbbba929e5d1f190e42603d5343f005d2021-03-04 05:04:29dht11temp20.3degree
6703bbbba929e5d1f190e42603d5343f005d2021-03-04 05:04:29dht11humidity63percent
6704bbbba929e5d1f190e42603d5343f005d2021-03-04 05:09:31soilmoisture84percent
6705bbbba929e5d1f190e42603d5343f005d2021-03-04 05:09:31dht11temp20.3degree
6706bbbba929e5d1f190e42603d5343f005d2021-03-04 05:09:31dht11humidity64percent
6707bbbba929e5d1f190e42603d5343f005d2021-03-04 05:14:33soilmoisture84percent
6708bbbba929e5d1f190e42603d5343f005d2021-03-04 05:14:33dht11temp20.2degree
6709bbbba929e5d1f190e42603d5343f005d2021-03-04 05:14:33dht11humidity63percent
6710bbbba929e5d1f190e42603d5343f005d2021-03-04 05:19:35soilmoisture84percent
6711bbbba929e5d1f190e42603d5343f005d2021-03-04 05:19:35dht11temp20.2degree
6712bbbba929e5d1f190e42603d5343f005d2021-03-04 05:19:35dht11humidity64percent
6713bbbba929e5d1f190e42603d5343f005d2021-03-04 05:24:36soilmoisture84percent
6714bbbba929e5d1f190e42603d5343f005d2021-03-04 05:24:37dht11temp20.2degree
6715bbbba929e5d1f190e42603d5343f005d2021-03-04 05:24:37dht11humidity63percent
6716bbbba929e5d1f190e42603d5343f005d2021-03-04 05:29:38soilmoisture84percent
6717bbbba929e5d1f190e42603d5343f005d2021-03-04 05:29:38dht11temp20.2degree
6718bbbba929e5d1f190e42603d5343f005d2021-03-04 05:29:39dht11humidity64percent
6719bbbba929e5d1f190e42603d5343f005d2021-03-04 05:34:40soilmoisture84percent
6720bbbba929e5d1f190e42603d5343f005d2021-03-04 05:34:40dht11temp20.1degree
6721bbbba929e5d1f190e42603d5343f005d2021-03-04 05:34:41dht11humidity63percent
6722bbbba929e5d1f190e42603d5343f005d2021-03-04 05:39:42soilmoisture84percent
6723bbbba929e5d1f190e42603d5343f005d2021-03-04 05:39:42dht11temp20.1degree
6724bbbba929e5d1f190e42603d5343f005d2021-03-04 05:39:42dht11humidity63percent
6725bbbba929e5d1f190e42603d5343f005d2021-03-04 05:44:44soilmoisture84percent
6726bbbba929e5d1f190e42603d5343f005d2021-03-04 05:44:44dht11temp20.1degree
6727bbbba929e5d1f190e42603d5343f005d2021-03-04 05:44:44dht11humidity63percent
6728bbbba929e5d1f190e42603d5343f005d2021-03-04 05:49:46soilmoisture84percent
6729bbbba929e5d1f190e42603d5343f005d2021-03-04 05:49:46dht11temp20.1degree
6730bbbba929e5d1f190e42603d5343f005d2021-03-04 05:49:46dht11humidity63percent
6731bbbba929e5d1f190e42603d5343f005d2021-03-04 05:54:48soilmoisture84percent
6732bbbba929e5d1f190e42603d5343f005d2021-03-04 05:54:48dht11temp20.1degree
6733bbbba929e5d1f190e42603d5343f005d2021-03-04 05:54:48dht11humidity64percent
6734bbbba929e5d1f190e42603d5343f005d2021-03-04 05:59:50soilmoisture84percent
6735bbbba929e5d1f190e42603d5343f005d2021-03-04 05:59:50dht11temp20.1degree
6736bbbba929e5d1f190e42603d5343f005d2021-03-04 05:59:50dht11humidity64percent
6737bbbba929e5d1f190e42603d5343f005d2021-03-04 06:04:51soilmoisture84percent
6738bbbba929e5d1f190e42603d5343f005d2021-03-04 06:04:51dht11temp20.1degree
6739bbbba929e5d1f190e42603d5343f005d2021-03-04 06:04:52dht11humidity64percent
6740bbbba929e5d1f190e42603d5343f005d2021-03-04 06:09:53soilmoisture84percent
6741bbbba929e5d1f190e42603d5343f005d2021-03-04 06:09:53dht11temp20.1degree
6742bbbba929e5d1f190e42603d5343f005d2021-03-04 06:09:53dht11humidity63percent
6743bbbba929e5d1f190e42603d5343f005d2021-03-04 06:14:55soilmoisture84percent
6744bbbba929e5d1f190e42603d5343f005d2021-03-04 06:14:55dht11temp20.1degree
6745bbbba929e5d1f190e42603d5343f005d2021-03-04 06:14:55dht11humidity65percent
6746bbbba929e5d1f190e42603d5343f005d2021-03-04 06:19:57soilmoisture84percent
6747bbbba929e5d1f190e42603d5343f005d2021-03-04 06:19:57dht11temp20.1degree
6748bbbba929e5d1f190e42603d5343f005d2021-03-04 06:19:57dht11humidity63percent
6749bbbba929e5d1f190e42603d5343f005d2021-03-04 06:24:59soilmoisture84percent
6750bbbba929e5d1f190e42603d5343f005d2021-03-04 06:24:59dht11temp20.2degree
6751bbbba929e5d1f190e42603d5343f005d2021-03-04 06:24:59dht11humidity60percent
6752bbbba929e5d1f190e42603d5343f005d2021-03-04 06:30:01soilmoisture84percent
6753bbbba929e5d1f190e42603d5343f005d2021-03-04 06:30:01dht11temp20.4degree
6754bbbba929e5d1f190e42603d5343f005d2021-03-04 06:30:01dht11humidity64percent
6755bbbba929e5d1f190e42603d5343f005d2021-03-04 06:35:03soilmoisture84percent
6756bbbba929e5d1f190e42603d5343f005d2021-03-04 06:35:03dht11temp20.5degree
6757bbbba929e5d1f190e42603d5343f005d2021-03-04 06:35:03dht11humidity59percent
6758bbbba929e5d1f190e42603d5343f005d2021-03-04 06:40:05soilmoisture84percent
6759bbbba929e5d1f190e42603d5343f005d2021-03-04 06:40:05dht11temp20.6degree
6760bbbba929e5d1f190e42603d5343f005d2021-03-04 06:40:05dht11humidity59percent
6761bbbba929e5d1f190e42603d5343f005d2021-03-04 06:45:06soilmoisture84percent
6762bbbba929e5d1f190e42603d5343f005d2021-03-04 06:45:07dht11temp20.6degree
6763bbbba929e5d1f190e42603d5343f005d2021-03-04 06:45:07dht11humidity59percent
6764bbbba929e5d1f190e42603d5343f005d2021-03-04 06:50:08soilmoisture84percent
6765bbbba929e5d1f190e42603d5343f005d2021-03-04 06:50:09dht11temp20.6degree
6766bbbba929e5d1f190e42603d5343f005d2021-03-04 06:50:09dht11humidity60percent
6767bbbba929e5d1f190e42603d5343f005d2021-03-04 06:55:10soilmoisture84percent
6768bbbba929e5d1f190e42603d5343f005d2021-03-04 06:55:10dht11temp20.7degree
6769bbbba929e5d1f190e42603d5343f005d2021-03-04 06:55:11dht11humidity59percent
6770bbbba929e5d1f190e42603d5343f005d2021-03-04 07:00:12soilmoisture84percent
6771bbbba929e5d1f190e42603d5343f005d2021-03-04 07:00:12dht11temp20.7degree
6772bbbba929e5d1f190e42603d5343f005d2021-03-04 07:00:13dht11humidity58percent
6773bbbba929e5d1f190e42603d5343f005d2021-03-04 07:05:14soilmoisture84percent
6774bbbba929e5d1f190e42603d5343f005d2021-03-04 07:05:14dht11temp20.8degree
6775bbbba929e5d1f190e42603d5343f005d2021-03-04 07:05:14dht11humidity58percent
6776bbbba929e5d1f190e42603d5343f005d2021-03-04 07:10:16soilmoisture84percent
6777bbbba929e5d1f190e42603d5343f005d2021-03-04 07:10:16dht11temp20.7degree
6778bbbba929e5d1f190e42603d5343f005d2021-03-04 07:10:16dht11humidity59percent
6779bbbba929e5d1f190e42603d5343f005d2021-03-04 07:15:18soilmoisture84percent
6780bbbba929e5d1f190e42603d5343f005d2021-03-04 07:15:18dht11temp20.7degree
6781bbbba929e5d1f190e42603d5343f005d2021-03-04 07:15:18dht11humidity57percent
6782bbbba929e5d1f190e42603d5343f005d2021-03-04 07:20:20soilmoisture84percent
6783bbbba929e5d1f190e42603d5343f005d2021-03-04 07:20:20dht11temp20.7degree
6784bbbba929e5d1f190e42603d5343f005d2021-03-04 07:20:20dht11humidity59percent
6785bbbba929e5d1f190e42603d5343f005d2021-03-04 07:25:22soilmoisture84percent
6786bbbba929e5d1f190e42603d5343f005d2021-03-04 07:25:22dht11temp20.8degree
6787bbbba929e5d1f190e42603d5343f005d2021-03-04 07:25:22dht11humidity58percent
6788bbbba929e5d1f190e42603d5343f005d2021-03-04 07:30:23soilmoisture84percent
6789bbbba929e5d1f190e42603d5343f005d2021-03-04 07:30:24dht11temp20.8degree
6790bbbba929e5d1f190e42603d5343f005d2021-03-04 07:30:24dht11humidity57percent
6791bbbba929e5d1f190e42603d5343f005d2021-03-04 07:35:25soilmoisture84percent
6792bbbba929e5d1f190e42603d5343f005d2021-03-04 07:35:25dht11temp20.9degree
6793bbbba929e5d1f190e42603d5343f005d2021-03-04 07:35:26dht11humidity57percent
6794bbbba929e5d1f190e42603d5343f005d2021-03-04 07:40:27soilmoisture84percent
6795bbbba929e5d1f190e42603d5343f005d2021-03-04 07:40:28dht11temp20.8degree
6796bbbba929e5d1f190e42603d5343f005d2021-03-04 07:40:28dht11humidity59percent
6797bbbba929e5d1f190e42603d5343f005d2021-03-04 07:45:29soilmoisture84percent
6798bbbba929e5d1f190e42603d5343f005d2021-03-04 07:45:29dht11temp20.8degree
6799bbbba929e5d1f190e42603d5343f005d2021-03-04 07:45:30dht11humidity57percent
6800bbbba929e5d1f190e42603d5343f005d2021-03-04 07:50:31soilmoisture84percent
6801bbbba929e5d1f190e42603d5343f005d2021-03-04 07:50:31dht11temp20.8degree
6802bbbba929e5d1f190e42603d5343f005d2021-03-04 07:50:32dht11humidity60percent
6803bbbba929e5d1f190e42603d5343f005d2021-03-04 07:55:33soilmoisture84percent
6804bbbba929e5d1f190e42603d5343f005d2021-03-04 07:55:33dht11temp20.7degree
6805bbbba929e5d1f190e42603d5343f005d2021-03-04 07:55:34dht11humidity59percent
6806bbbba929e5d1f190e42603d5343f005d2021-03-04 08:00:35soilmoisture84percent
6807bbbba929e5d1f190e42603d5343f005d2021-03-04 08:00:36dht11temp20.7degree
6808bbbba929e5d1f190e42603d5343f005d2021-03-04 08:00:36dht11humidity58percent
6809bbbba929e5d1f190e42603d5343f005d2021-03-04 08:05:37soilmoisture84percent
6810bbbba929e5d1f190e42603d5343f005d2021-03-04 08:05:38dht11temp20.7degree
6811bbbba929e5d1f190e42603d5343f005d2021-03-04 08:05:38dht11humidity60percent
6812bbbba929e5d1f190e42603d5343f005d2021-03-04 08:10:39soilmoisture84percent
6813bbbba929e5d1f190e42603d5343f005d2021-03-04 08:10:39dht11temp20.7degree
6814bbbba929e5d1f190e42603d5343f005d2021-03-04 08:10:40dht11humidity60percent
6815bbbba929e5d1f190e42603d5343f005d2021-03-04 08:15:41soilmoisture84percent
6816bbbba929e5d1f190e42603d5343f005d2021-03-04 08:15:41dht11temp20.7degree
6817bbbba929e5d1f190e42603d5343f005d2021-03-04 08:15:41dht11humidity60percent
6818bbbba929e5d1f190e42603d5343f005d2021-03-04 08:20:43soilmoisture84percent
6819bbbba929e5d1f190e42603d5343f005d2021-03-04 08:20:43dht11temp20.7degree
6820bbbba929e5d1f190e42603d5343f005d2021-03-04 08:20:43dht11humidity60percent
6821bbbba929e5d1f190e42603d5343f005d2021-03-04 08:25:45soilmoisture84percent
6822bbbba929e5d1f190e42603d5343f005d2021-03-04 08:25:45dht11temp20.7degree
6823bbbba929e5d1f190e42603d5343f005d2021-03-04 08:25:45dht11humidity61percent
6824bbbba929e5d1f190e42603d5343f005d2021-03-04 08:30:47soilmoisture84percent
6825bbbba929e5d1f190e42603d5343f005d2021-03-04 08:30:47dht11temp20.7degree
6826bbbba929e5d1f190e42603d5343f005d2021-03-04 08:30:47dht11humidity62percent
6827bbbba929e5d1f190e42603d5343f005d2021-03-04 08:35:49soilmoisture84percent
6828bbbba929e5d1f190e42603d5343f005d2021-03-04 08:35:49dht11temp20.6degree
6829bbbba929e5d1f190e42603d5343f005d2021-03-04 08:35:49dht11humidity60percent
6830bbbba929e5d1f190e42603d5343f005d2021-03-04 08:40:51soilmoisture84percent
6831bbbba929e5d1f190e42603d5343f005d2021-03-04 08:40:51dht11temp20.7degree
6832bbbba929e5d1f190e42603d5343f005d2021-03-04 08:40:51dht11humidity61percent
6833bbbba929e5d1f190e42603d5343f005d2021-03-04 08:45:52soilmoisture84percent
6834bbbba929e5d1f190e42603d5343f005d2021-03-04 08:45:53dht11temp20.7degree
6835bbbba929e5d1f190e42603d5343f005d2021-03-04 08:45:53dht11humidity61percent
6836bbbba929e5d1f190e42603d5343f005d2021-03-04 08:50:54soilmoisture84percent
6837bbbba929e5d1f190e42603d5343f005d2021-03-04 08:50:54dht11temp20.7degree
6838bbbba929e5d1f190e42603d5343f005d2021-03-04 08:50:55dht11humidity60percent
6839bbbba929e5d1f190e42603d5343f005d2021-03-04 08:55:56soilmoisture84percent
6840bbbba929e5d1f190e42603d5343f005d2021-03-04 08:55:56dht11temp20.7degree
6841bbbba929e5d1f190e42603d5343f005d2021-03-04 08:55:56dht11humidity63percent
6842bbbba929e5d1f190e42603d5343f005d2021-03-04 09:00:58soilmoisture84percent
6843bbbba929e5d1f190e42603d5343f005d2021-03-04 09:00:58dht11temp20.9degree
6844bbbba929e5d1f190e42603d5343f005d2021-03-04 09:00:58dht11humidity58percent
6845bbbba929e5d1f190e42603d5343f005d2021-03-04 09:06:00soilmoisture84percent
6846bbbba929e5d1f190e42603d5343f005d2021-03-04 09:06:00dht11temp21degree
6847bbbba929e5d1f190e42603d5343f005d2021-03-04 09:06:00dht11humidity63percent
6848bbbba929e5d1f190e42603d5343f005d2021-03-04 09:11:02soilmoisture84percent
6849bbbba929e5d1f190e42603d5343f005d2021-03-04 09:11:02dht11temp21degree
6850bbbba929e5d1f190e42603d5343f005d2021-03-04 09:11:02dht11humidity62percent
6851bbbba929e5d1f190e42603d5343f005d2021-03-04 09:16:04soilmoisture84percent
6852bbbba929e5d1f190e42603d5343f005d2021-03-04 09:16:04dht11temp21degree
6853bbbba929e5d1f190e42603d5343f005d2021-03-04 09:16:04dht11humidity63percent
6854bbbba929e5d1f190e42603d5343f005d2021-03-04 09:21:06soilmoisture84percent
6855bbbba929e5d1f190e42603d5343f005d2021-03-04 09:21:06dht11temp21degree
6856bbbba929e5d1f190e42603d5343f005d2021-03-04 09:21:06dht11humidity63percent
6857bbbba929e5d1f190e42603d5343f005d2021-03-04 09:26:08soilmoisture84percent
6858bbbba929e5d1f190e42603d5343f005d2021-03-04 09:26:08dht11temp21degree
6859bbbba929e5d1f190e42603d5343f005d2021-03-04 09:26:08dht11humidity61percent
6860bbbba929e5d1f190e42603d5343f005d2021-03-04 09:31:09soilmoisture84percent
6861bbbba929e5d1f190e42603d5343f005d2021-03-04 09:31:10dht11temp21degree
6862bbbba929e5d1f190e42603d5343f005d2021-03-04 09:31:10dht11humidity60percent
6863bbbba929e5d1f190e42603d5343f005d2021-03-04 09:36:11soilmoisture84percent
6864bbbba929e5d1f190e42603d5343f005d2021-03-04 09:36:11dht11temp21.1degree
6865bbbba929e5d1f190e42603d5343f005d2021-03-04 09:36:12dht11humidity61percent
6866bbbba929e5d1f190e42603d5343f005d2021-03-04 09:41:13soilmoisture84percent
6867bbbba929e5d1f190e42603d5343f005d2021-03-04 09:41:13dht11temp21.1degree
6868bbbba929e5d1f190e42603d5343f005d2021-03-04 09:41:13dht11humidity61percent
6869bbbba929e5d1f190e42603d5343f005d2021-03-04 09:46:15soilmoisture84percent
6870bbbba929e5d1f190e42603d5343f005d2021-03-04 09:46:15dht11temp21.1degree
6871bbbba929e5d1f190e42603d5343f005d2021-03-04 09:46:15dht11humidity59percent
6872bbbba929e5d1f190e42603d5343f005d2021-03-04 09:51:17soilmoisture84percent
6873bbbba929e5d1f190e42603d5343f005d2021-03-04 09:51:17dht11temp21.2degree
6874bbbba929e5d1f190e42603d5343f005d2021-03-04 09:51:17dht11humidity61percent
6875bbbba929e5d1f190e42603d5343f005d2021-03-04 09:56:19soilmoisture84percent
6876bbbba929e5d1f190e42603d5343f005d2021-03-04 09:56:20dht11temp21.2degree
6877bbbba929e5d1f190e42603d5343f005d2021-03-04 09:56:20dht11humidity60percent
6878bbbba929e5d1f190e42603d5343f005d2021-03-04 10:01:21soilmoisture84percent
6879bbbba929e5d1f190e42603d5343f005d2021-03-04 10:01:22dht11temp21.2degree
6880bbbba929e5d1f190e42603d5343f005d2021-03-04 10:01:22dht11humidity60percent
6881bbbba929e5d1f190e42603d5343f005d2021-03-04 10:06:23soilmoisture84percent
6882bbbba929e5d1f190e42603d5343f005d2021-03-04 10:06:23dht11temp21.3degree
6883bbbba929e5d1f190e42603d5343f005d2021-03-04 10:06:24dht11humidity62percent
6884bbbba929e5d1f190e42603d5343f005d2021-03-04 10:11:25soilmoisture84percent
6885bbbba929e5d1f190e42603d5343f005d2021-03-04 10:11:25dht11temp21.3degree
6886bbbba929e5d1f190e42603d5343f005d2021-03-04 10:11:26dht11humidity61percent
6887bbbba929e5d1f190e42603d5343f005d2021-03-04 10:16:27soilmoisture83percent
6888bbbba929e5d1f190e42603d5343f005d2021-03-04 10:16:27dht11temp21.3degree
6889bbbba929e5d1f190e42603d5343f005d2021-03-04 10:16:27dht11humidity60percent
6890bbbba929e5d1f190e42603d5343f005d2021-03-04 10:21:29soilmoisture84percent
6891bbbba929e5d1f190e42603d5343f005d2021-03-04 10:21:29dht11temp21.4degree
6892bbbba929e5d1f190e42603d5343f005d2021-03-04 10:21:29dht11humidity60percent
6893bbbba929e5d1f190e42603d5343f005d2021-03-04 10:26:31soilmoisture84percent
6894bbbba929e5d1f190e42603d5343f005d2021-03-04 10:26:31dht11temp21.4degree
6895bbbba929e5d1f190e42603d5343f005d2021-03-04 10:26:31dht11humidity60percent
6896bbbba929e5d1f190e42603d5343f005d2021-03-04 10:31:33soilmoisture83percent
6897bbbba929e5d1f190e42603d5343f005d2021-03-04 10:31:33dht11temp21.4degree
6898bbbba929e5d1f190e42603d5343f005d2021-03-04 10:31:33dht11humidity59percent
6899bbbba929e5d1f190e42603d5343f005d2021-03-04 10:36:35soilmoisture83percent
6900bbbba929e5d1f190e42603d5343f005d2021-03-04 10:36:35dht11temp21.4degree
6901bbbba929e5d1f190e42603d5343f005d2021-03-04 10:36:35dht11humidity60percent
6902bbbba929e5d1f190e42603d5343f005d2021-03-04 10:41:37soilmoisture84percent
6903bbbba929e5d1f190e42603d5343f005d2021-03-04 10:41:37dht11temp21.4degree
6904bbbba929e5d1f190e42603d5343f005d2021-03-04 10:41:37dht11humidity59percent
6905bbbba929e5d1f190e42603d5343f005d2021-03-04 10:46:38soilmoisture83percent
6906bbbba929e5d1f190e42603d5343f005d2021-03-04 10:46:39dht11temp21.5degree
6907bbbba929e5d1f190e42603d5343f005d2021-03-04 10:46:39dht11humidity60percent
6908bbbba929e5d1f190e42603d5343f005d2021-03-04 10:51:41soilmoisture83percent
6909bbbba929e5d1f190e42603d5343f005d2021-03-04 10:51:41dht11temp21.5degree
6910bbbba929e5d1f190e42603d5343f005d2021-03-04 10:51:41dht11humidity62percent
6911bbbba929e5d1f190e42603d5343f005d2021-03-04 10:56:44soilmoisture84percent
6912bbbba929e5d1f190e42603d5343f005d2021-03-04 10:56:44dht11temp21.6degree
6913bbbba929e5d1f190e42603d5343f005d2021-03-04 10:56:44dht11humidity62percent
6914bbbba929e5d1f190e42603d5343f005d2021-03-04 11:01:46soilmoisture84percent
6915bbbba929e5d1f190e42603d5343f005d2021-03-04 11:01:46dht11temp21.6degree
6916bbbba929e5d1f190e42603d5343f005d2021-03-04 11:01:46dht11humidity59percent
6917bbbba929e5d1f190e42603d5343f005d2021-03-04 11:06:48soilmoisture84percent
6918bbbba929e5d1f190e42603d5343f005d2021-03-04 11:06:48dht11temp21.6degree
6919bbbba929e5d1f190e42603d5343f005d2021-03-04 11:06:48dht11humidity59percent
6920bbbba929e5d1f190e42603d5343f005d2021-03-04 11:11:50soilmoisture83percent
6921bbbba929e5d1f190e42603d5343f005d2021-03-04 11:11:50dht11temp21.6degree
6922bbbba929e5d1f190e42603d5343f005d2021-03-04 11:11:50dht11humidity58percent
6923bbbba929e5d1f190e42603d5343f005d2021-03-04 11:16:51soilmoisture83percent
6924bbbba929e5d1f190e42603d5343f005d2021-03-04 11:16:52dht11temp21.6degree
6925bbbba929e5d1f190e42603d5343f005d2021-03-04 11:16:52dht11humidity59percent
6926bbbba929e5d1f190e42603d5343f005d2021-03-04 11:21:53soilmoisture83percent
6927bbbba929e5d1f190e42603d5343f005d2021-03-04 11:21:53dht11temp21.6degree
6928bbbba929e5d1f190e42603d5343f005d2021-03-04 11:21:54dht11humidity61percent
6929bbbba929e5d1f190e42603d5343f005d2021-03-04 11:26:55soilmoisture84percent
6930bbbba929e5d1f190e42603d5343f005d2021-03-04 11:26:55dht11temp21.8degree
6931bbbba929e5d1f190e42603d5343f005d2021-03-04 11:26:56dht11humidity61percent
6932bbbba929e5d1f190e42603d5343f005d2021-03-04 11:31:57soilmoisture84percent
6933bbbba929e5d1f190e42603d5343f005d2021-03-04 11:31:57dht11temp21.8degree
6934bbbba929e5d1f190e42603d5343f005d2021-03-04 11:31:57dht11humidity65percent
6935bbbba929e5d1f190e42603d5343f005d2021-03-04 11:36:59soilmoisture83percent
6936bbbba929e5d1f190e42603d5343f005d2021-03-04 11:36:59dht11temp21.8degree
6937bbbba929e5d1f190e42603d5343f005d2021-03-04 11:36:59dht11humidity73percent
6938bbbba929e5d1f190e42603d5343f005d2021-03-04 11:42:02soilmoisture83percent
6939bbbba929e5d1f190e42603d5343f005d2021-03-04 11:42:02dht11temp21.9degree
6940bbbba929e5d1f190e42603d5343f005d2021-03-04 11:42:02dht11humidity77percent
6941bbbba929e5d1f190e42603d5343f005d2021-03-04 11:47:04soilmoisture83percent
6942bbbba929e5d1f190e42603d5343f005d2021-03-04 11:47:04dht11temp22degree
6943bbbba929e5d1f190e42603d5343f005d2021-03-04 11:47:04dht11humidity76percent
6944bbbba929e5d1f190e42603d5343f005d2021-03-04 11:52:06soilmoisture83percent
6945bbbba929e5d1f190e42603d5343f005d2021-03-04 11:52:06dht11temp22.1degree
6946bbbba929e5d1f190e42603d5343f005d2021-03-04 11:52:06dht11humidity74percent
6947bbbba929e5d1f190e42603d5343f005d2021-03-04 11:57:08soilmoisture83percent
6948bbbba929e5d1f190e42603d5343f005d2021-03-04 11:57:08dht11temp22.1degree
6949bbbba929e5d1f190e42603d5343f005d2021-03-04 11:57:08dht11humidity72percent
6950bbbba929e5d1f190e42603d5343f005d2021-03-04 12:02:09soilmoisture83percent
6951bbbba929e5d1f190e42603d5343f005d2021-03-04 12:02:09dht11temp22.1degree
6952bbbba929e5d1f190e42603d5343f005d2021-03-04 12:02:09dht11humidity67percent
6953bbbba929e5d1f190e42603d5343f005d2021-03-04 12:07:11soilmoisture83percent
6954bbbba929e5d1f190e42603d5343f005d2021-03-04 12:07:11dht11temp22.1degree
6955bbbba929e5d1f190e42603d5343f005d2021-03-04 12:07:11dht11humidity71percent
6956bbbba929e5d1f190e42603d5343f005d2021-03-04 12:12:13soilmoisture83percent
6957bbbba929e5d1f190e42603d5343f005d2021-03-04 12:12:13dht11temp22.1degree
6958bbbba929e5d1f190e42603d5343f005d2021-03-04 12:12:13dht11humidity67percent
6959bbbba929e5d1f190e42603d5343f005d2021-03-04 12:17:15soilmoisture83percent
6960bbbba929e5d1f190e42603d5343f005d2021-03-04 12:17:15dht11temp22.2degree
6961bbbba929e5d1f190e42603d5343f005d2021-03-04 12:17:15dht11humidity66percent
6962bbbba929e5d1f190e42603d5343f005d2021-03-04 12:22:16soilmoisture83percent
6963bbbba929e5d1f190e42603d5343f005d2021-03-04 12:22:17dht11temp22.2degree
6964bbbba929e5d1f190e42603d5343f005d2021-03-04 12:22:17dht11humidity66percent
6965bbbba929e5d1f190e42603d5343f005d2021-03-04 12:27:18soilmoisture83percent
6966bbbba929e5d1f190e42603d5343f005d2021-03-04 12:27:18dht11temp22.2degree
6967bbbba929e5d1f190e42603d5343f005d2021-03-04 12:27:18dht11humidity64percent
6968bbbba929e5d1f190e42603d5343f005d2021-03-04 12:32:20soilmoisture83percent
6969bbbba929e5d1f190e42603d5343f005d2021-03-04 12:32:20dht11temp22.2degree
6970bbbba929e5d1f190e42603d5343f005d2021-03-04 12:32:20dht11humidity62percent
6971bbbba929e5d1f190e42603d5343f005d2021-03-04 12:37:22soilmoisture83percent
6972bbbba929e5d1f190e42603d5343f005d2021-03-04 12:37:22dht11temp22.2degree
6973bbbba929e5d1f190e42603d5343f005d2021-03-04 12:37:22dht11humidity68percent
6974bbbba929e5d1f190e42603d5343f005d2021-03-04 12:42:24soilmoisture83percent
6975bbbba929e5d1f190e42603d5343f005d2021-03-04 12:42:24dht11temp22.2degree
6976bbbba929e5d1f190e42603d5343f005d2021-03-04 12:42:24dht11humidity64percent
6977bbbba929e5d1f190e42603d5343f005d2021-03-04 12:47:26soilmoisture83percent
6978bbbba929e5d1f190e42603d5343f005d2021-03-04 12:47:26dht11temp22.3degree
6979bbbba929e5d1f190e42603d5343f005d2021-03-04 12:47:26dht11humidity61percent
6980bbbba929e5d1f190e42603d5343f005d2021-03-04 12:52:28soilmoisture83percent
6981bbbba929e5d1f190e42603d5343f005d2021-03-04 12:52:28dht11temp22.2degree
6982bbbba929e5d1f190e42603d5343f005d2021-03-04 12:52:28dht11humidity59percent
6983bbbba929e5d1f190e42603d5343f005d2021-03-04 12:57:30soilmoisture83percent
6984bbbba929e5d1f190e42603d5343f005d2021-03-04 12:57:30dht11temp22.1degree
6985bbbba929e5d1f190e42603d5343f005d2021-03-04 12:57:30dht11humidity60percent
6986bbbba929e5d1f190e42603d5343f005d2021-03-04 13:02:31soilmoisture83percent
6987bbbba929e5d1f190e42603d5343f005d2021-03-04 13:02:32dht11temp22.1degree
6988bbbba929e5d1f190e42603d5343f005d2021-03-04 13:02:32dht11humidity63percent
6989bbbba929e5d1f190e42603d5343f005d2021-03-04 13:07:33soilmoisture83percent
6990bbbba929e5d1f190e42603d5343f005d2021-03-04 13:07:33dht11temp22.2degree
6991bbbba929e5d1f190e42603d5343f005d2021-03-04 13:07:34dht11humidity61percent
6992bbbba929e5d1f190e42603d5343f005d2021-03-04 13:12:35soilmoisture83percent
6993bbbba929e5d1f190e42603d5343f005d2021-03-04 13:12:35dht11temp22.3degree
6994bbbba929e5d1f190e42603d5343f005d2021-03-04 13:12:35dht11humidity61percent
6995bbbba929e5d1f190e42603d5343f005d2021-03-04 13:17:37soilmoisture83percent
6996bbbba929e5d1f190e42603d5343f005d2021-03-04 13:17:37dht11temp22.4degree
6997bbbba929e5d1f190e42603d5343f005d2021-03-04 13:17:37dht11humidity65percent
6998bbbba929e5d1f190e42603d5343f005d2021-03-04 13:22:39soilmoisture83percent
6999bbbba929e5d1f190e42603d5343f005d2021-03-04 13:22:39dht11temp22.5degree
7000bbbba929e5d1f190e42603d5343f005d2021-03-04 13:22:39dht11humidity64percent
7001bbbba929e5d1f190e42603d5343f005d2021-03-04 13:27:41soilmoisture83percent
7002bbbba929e5d1f190e42603d5343f005d2021-03-04 13:27:41dht11temp22.6degree
7003bbbba929e5d1f190e42603d5343f005d2021-03-04 13:27:41dht11humidity61percent
7004bbbba929e5d1f190e42603d5343f005d2021-03-04 13:32:43soilmoisture83percent
7005bbbba929e5d1f190e42603d5343f005d2021-03-04 13:32:43dht11temp22.6degree
7006bbbba929e5d1f190e42603d5343f005d2021-03-04 13:32:43dht11humidity59percent
7007bbbba929e5d1f190e42603d5343f005d2021-03-04 13:37:45soilmoisture83percent
7008bbbba929e5d1f190e42603d5343f005d2021-03-04 13:37:45dht11temp22.7degree
7009bbbba929e5d1f190e42603d5343f005d2021-03-04 13:37:45dht11humidity59percent
7010bbbba929e5d1f190e42603d5343f005d2021-03-04 13:42:47soilmoisture83percent
7011bbbba929e5d1f190e42603d5343f005d2021-03-04 13:42:47dht11temp22.9degree
7012bbbba929e5d1f190e42603d5343f005d2021-03-04 13:42:47dht11humidity63percent
7013bbbba929e5d1f190e42603d5343f005d2021-03-04 13:47:49soilmoisture83percent
7014bbbba929e5d1f190e42603d5343f005d2021-03-04 13:47:49dht11temp23.2degree
7015bbbba929e5d1f190e42603d5343f005d2021-03-04 13:47:49dht11humidity60percent
7016bbbba929e5d1f190e42603d5343f005d2021-03-04 13:52:51soilmoisture83percent
7017bbbba929e5d1f190e42603d5343f005d2021-03-04 13:52:51dht11temp23.2degree
7018bbbba929e5d1f190e42603d5343f005d2021-03-04 13:52:51dht11humidity56percent
7019bbbba929e5d1f190e42603d5343f005d2021-03-04 13:57:53soilmoisture83percent
7020bbbba929e5d1f190e42603d5343f005d2021-03-04 13:57:54dht11temp23degree
7021bbbba929e5d1f190e42603d5343f005d2021-03-04 13:57:54dht11humidity60percent
7022bbbba929e5d1f190e42603d5343f005d2021-03-04 14:02:56soilmoisture83percent
7023bbbba929e5d1f190e42603d5343f005d2021-03-04 14:02:57dht11temp22.6degree
7024bbbba929e5d1f190e42603d5343f005d2021-03-04 14:02:57dht11humidity59percent
7025bbbba929e5d1f190e42603d5343f005d2021-03-04 14:07:59soilmoisture83percent
7026bbbba929e5d1f190e42603d5343f005d2021-03-04 14:07:59dht11temp22.4degree
7027bbbba929e5d1f190e42603d5343f005d2021-03-04 14:07:59dht11humidity57percent
7028bbbba929e5d1f190e42603d5343f005d2021-03-04 14:13:01soilmoisture83percent
7029bbbba929e5d1f190e42603d5343f005d2021-03-04 14:13:01dht11temp22.1degree
7030bbbba929e5d1f190e42603d5343f005d2021-03-04 14:13:01dht11humidity60percent
7031bbbba929e5d1f190e42603d5343f005d2021-03-04 14:18:03soilmoisture83percent
7032bbbba929e5d1f190e42603d5343f005d2021-03-04 14:18:03dht11temp22degree
7033bbbba929e5d1f190e42603d5343f005d2021-03-04 14:18:03dht11humidity58percent
7034bbbba929e5d1f190e42603d5343f005d2021-03-04 14:23:04soilmoisture83percent
7035bbbba929e5d1f190e42603d5343f005d2021-03-04 14:23:05dht11temp22degree
7036bbbba929e5d1f190e42603d5343f005d2021-03-04 14:23:05dht11humidity60percent
7037bbbba929e5d1f190e42603d5343f005d2021-03-04 14:28:06soilmoisture83percent
7038bbbba929e5d1f190e42603d5343f005d2021-03-04 14:28:06dht11temp21.9degree
7039bbbba929e5d1f190e42603d5343f005d2021-03-04 14:28:07dht11humidity58percent
7040bbbba929e5d1f190e42603d5343f005d2021-03-04 14:33:08soilmoisture83percent
7041bbbba929e5d1f190e42603d5343f005d2021-03-04 14:33:08dht11temp21.8degree
7042bbbba929e5d1f190e42603d5343f005d2021-03-04 14:33:09dht11humidity60percent
7043bbbba929e5d1f190e42603d5343f005d2021-03-04 14:38:10soilmoisture83percent
7044bbbba929e5d1f190e42603d5343f005d2021-03-04 14:38:10dht11temp21.8degree
7045bbbba929e5d1f190e42603d5343f005d2021-03-04 14:38:11dht11humidity60percent
7046bbbba929e5d1f190e42603d5343f005d2021-03-04 14:43:12soilmoisture83percent
7047bbbba929e5d1f190e42603d5343f005d2021-03-04 14:43:12dht11temp21.7degree
7048bbbba929e5d1f190e42603d5343f005d2021-03-04 14:43:12dht11humidity63percent
7049bbbba929e5d1f190e42603d5343f005d2021-03-04 14:48:14soilmoisture83percent
7050bbbba929e5d1f190e42603d5343f005d2021-03-04 14:48:14dht11temp21.7degree
7051bbbba929e5d1f190e42603d5343f005d2021-03-04 14:48:14dht11humidity60percent
7052bbbba929e5d1f190e42603d5343f005d2021-03-04 14:53:16soilmoisture83percent
7053bbbba929e5d1f190e42603d5343f005d2021-03-04 14:53:16dht11temp21.7degree
7054bbbba929e5d1f190e42603d5343f005d2021-03-04 14:53:16dht11humidity59percent
7055bbbba929e5d1f190e42603d5343f005d2021-03-04 14:58:18soilmoisture83percent
7056bbbba929e5d1f190e42603d5343f005d2021-03-04 14:58:18dht11temp21.7degree
7057bbbba929e5d1f190e42603d5343f005d2021-03-04 14:58:18dht11humidity59percent
7058bbbba929e5d1f190e42603d5343f005d2021-03-04 15:03:20soilmoisture83percent
7059bbbba929e5d1f190e42603d5343f005d2021-03-04 15:03:20dht11temp21.6degree
7060bbbba929e5d1f190e42603d5343f005d2021-03-04 15:03:20dht11humidity60percent
7061bbbba929e5d1f190e42603d5343f005d2021-03-04 15:08:22soilmoisture83percent
7062bbbba929e5d1f190e42603d5343f005d2021-03-04 15:08:22dht11temp21.6degree
7063bbbba929e5d1f190e42603d5343f005d2021-03-04 15:08:22dht11humidity59percent
7064bbbba929e5d1f190e42603d5343f005d2021-03-04 15:13:24soilmoisture83percent
7065bbbba929e5d1f190e42603d5343f005d2021-03-04 15:13:25dht11temp21.6degree
7066bbbba929e5d1f190e42603d5343f005d2021-03-04 15:13:25dht11humidity59percent
7067bbbba929e5d1f190e42603d5343f005d2021-03-04 15:18:26soilmoisture83percent
7068bbbba929e5d1f190e42603d5343f005d2021-03-04 15:18:27dht11temp21.6degree
7069bbbba929e5d1f190e42603d5343f005d2021-03-04 15:18:27dht11humidity60percent
7070bbbba929e5d1f190e42603d5343f005d2021-03-04 15:23:28soilmoisture83percent
7071bbbba929e5d1f190e42603d5343f005d2021-03-04 15:23:28dht11temp21.6degree
7072bbbba929e5d1f190e42603d5343f005d2021-03-04 15:23:29dht11humidity60percent
7073bbbba929e5d1f190e42603d5343f005d2021-03-04 15:28:30soilmoisture83percent
7074bbbba929e5d1f190e42603d5343f005d2021-03-04 15:28:30dht11temp21.6degree
7075bbbba929e5d1f190e42603d5343f005d2021-03-04 15:28:30dht11humidity59percent
7076bbbba929e5d1f190e42603d5343f005d2021-03-04 15:33:32soilmoisture83percent
7077bbbba929e5d1f190e42603d5343f005d2021-03-04 15:33:32dht11temp21.6degree
7078bbbba929e5d1f190e42603d5343f005d2021-03-04 15:33:33dht11humidity59percent
7079bbbba929e5d1f190e42603d5343f005d2021-03-04 15:38:34soilmoisture83percent
7080bbbba929e5d1f190e42603d5343f005d2021-03-04 15:38:35dht11temp21.7degree
7081bbbba929e5d1f190e42603d5343f005d2021-03-04 15:38:35dht11humidity63percent
7082bbbba929e5d1f190e42603d5343f005d2021-03-04 15:43:37soilmoisture83percent
7083bbbba929e5d1f190e42603d5343f005d2021-03-04 15:43:37dht11temp22degree
7084bbbba929e5d1f190e42603d5343f005d2021-03-04 15:43:37dht11humidity60percent
7085bbbba929e5d1f190e42603d5343f005d2021-03-04 15:48:39soilmoisture83percent
7086bbbba929e5d1f190e42603d5343f005d2021-03-04 15:48:39dht11temp22.4degree
7087bbbba929e5d1f190e42603d5343f005d2021-03-04 15:48:40dht11humidity58percent
7088bbbba929e5d1f190e42603d5343f005d2021-03-04 15:53:41soilmoisture83percent
7089bbbba929e5d1f190e42603d5343f005d2021-03-04 15:53:42dht11temp22.6degree
7090bbbba929e5d1f190e42603d5343f005d2021-03-04 15:53:42dht11humidity61percent
7091bbbba929e5d1f190e42603d5343f005d2021-03-04 15:58:45soilmoisture83percent
7092bbbba929e5d1f190e42603d5343f005d2021-03-04 15:58:45dht11temp22.2degree
7093bbbba929e5d1f190e42603d5343f005d2021-03-04 15:58:45dht11humidity65percent
7094bbbba929e5d1f190e42603d5343f005d2021-03-04 16:03:47soilmoisture83percent
7095bbbba929e5d1f190e42603d5343f005d2021-03-04 16:03:47dht11temp22degree
7096bbbba929e5d1f190e42603d5343f005d2021-03-04 16:03:47dht11humidity60percent
7097bbbba929e5d1f190e42603d5343f005d2021-03-04 16:08:49soilmoisture83percent
7098bbbba929e5d1f190e42603d5343f005d2021-03-04 16:08:50dht11temp21.9degree
7099bbbba929e5d1f190e42603d5343f005d2021-03-04 16:08:50dht11humidity59percent
7100bbbba929e5d1f190e42603d5343f005d2021-03-04 16:13:52soilmoisture83percent
7101bbbba929e5d1f190e42603d5343f005d2021-03-04 16:13:52dht11temp21.9degree
7102bbbba929e5d1f190e42603d5343f005d2021-03-04 16:13:52dht11humidity61percent
7103bbbba929e5d1f190e42603d5343f005d2021-03-04 16:18:55soilmoisture83percent
7104bbbba929e5d1f190e42603d5343f005d2021-03-04 16:18:55dht11temp22degree
7105bbbba929e5d1f190e42603d5343f005d2021-03-04 16:18:56dht11humidity61percent
7106bbbba929e5d1f190e42603d5343f005d2021-03-04 16:23:57soilmoisture83percent
7107bbbba929e5d1f190e42603d5343f005d2021-03-04 16:23:58dht11temp21.9degree
7108bbbba929e5d1f190e42603d5343f005d2021-03-04 16:23:58dht11humidity61percent
7109bbbba929e5d1f190e42603d5343f005d2021-03-04 16:29:00soilmoisture83percent
7110bbbba929e5d1f190e42603d5343f005d2021-03-04 16:29:00dht11temp21.9degree
7111bbbba929e5d1f190e42603d5343f005d2021-03-04 16:29:00dht11humidity59percent
7112bbbba929e5d1f190e42603d5343f005d2021-03-04 16:34:02soilmoisture83percent
7113bbbba929e5d1f190e42603d5343f005d2021-03-04 16:34:02dht11temp21.8degree
7114bbbba929e5d1f190e42603d5343f005d2021-03-04 16:34:03dht11humidity58percent
7115bbbba929e5d1f190e42603d5343f005d2021-03-04 16:39:04soilmoisture83percent
7116bbbba929e5d1f190e42603d5343f005d2021-03-04 16:39:05dht11temp21.8degree
7117bbbba929e5d1f190e42603d5343f005d2021-03-04 16:39:05dht11humidity57percent
7118bbbba929e5d1f190e42603d5343f005d2021-03-04 16:44:07soilmoisture83percent
7119bbbba929e5d1f190e42603d5343f005d2021-03-04 16:44:07dht11temp22.2degree
7120bbbba929e5d1f190e42603d5343f005d2021-03-04 16:44:07dht11humidity59percent
7121bbbba929e5d1f190e42603d5343f005d2021-03-04 16:49:09soilmoisture83percent
7122bbbba929e5d1f190e42603d5343f005d2021-03-04 16:49:09dht11temp22.3degree
7123bbbba929e5d1f190e42603d5343f005d2021-03-04 16:49:10dht11humidity65percent
7124bbbba929e5d1f190e42603d5343f005d2021-03-04 16:54:12soilmoisture83percent
7125bbbba929e5d1f190e42603d5343f005d2021-03-04 16:54:12dht11temp22.1degree
7126bbbba929e5d1f190e42603d5343f005d2021-03-04 16:54:12dht11humidity62percent
7127bbbba929e5d1f190e42603d5343f005d2021-03-04 16:59:14soilmoisture83percent
7128bbbba929e5d1f190e42603d5343f005d2021-03-04 16:59:14dht11temp22degree
7129bbbba929e5d1f190e42603d5343f005d2021-03-04 16:59:15dht11humidity61percent
7130bbbba929e5d1f190e42603d5343f005d2021-03-04 17:04:18soilmoisture83percent
7131bbbba929e5d1f190e42603d5343f005d2021-03-04 17:04:18dht11temp21.9degree
7132bbbba929e5d1f190e42603d5343f005d2021-03-04 17:04:18dht11humidity60percent
7133bbbba929e5d1f190e42603d5343f005d2021-03-04 17:09:20soilmoisture83percent
7134bbbba929e5d1f190e42603d5343f005d2021-03-04 17:09:20dht11temp21.8degree
7135bbbba929e5d1f190e42603d5343f005d2021-03-04 17:09:20dht11humidity62percent
7136bbbba929e5d1f190e42603d5343f005d2021-03-04 17:14:22soilmoisture83percent
7137bbbba929e5d1f190e42603d5343f005d2021-03-04 17:14:22dht11temp21.8degree
7138bbbba929e5d1f190e42603d5343f005d2021-03-04 17:14:23dht11humidity60percent
7139bbbba929e5d1f190e42603d5343f005d2021-03-04 17:19:24soilmoisture83percent
7140bbbba929e5d1f190e42603d5343f005d2021-03-04 17:19:25dht11temp21.7degree
7141bbbba929e5d1f190e42603d5343f005d2021-03-04 17:19:25dht11humidity63percent
7142bbbba929e5d1f190e42603d5343f005d2021-03-04 17:24:27soilmoisture83percent
7143bbbba929e5d1f190e42603d5343f005d2021-03-04 17:24:27dht11temp21.7degree
7144bbbba929e5d1f190e42603d5343f005d2021-03-04 17:24:27dht11humidity59percent
7145bbbba929e5d1f190e42603d5343f005d2021-03-04 17:29:29soilmoisture83percent
7146bbbba929e5d1f190e42603d5343f005d2021-03-04 17:29:29dht11temp21.7degree
7147bbbba929e5d1f190e42603d5343f005d2021-03-04 17:29:29dht11humidity58percent
7148bbbba929e5d1f190e42603d5343f005d2021-03-04 17:34:31soilmoisture83percent
7149bbbba929e5d1f190e42603d5343f005d2021-03-04 17:34:32dht11temp21.6degree
7150bbbba929e5d1f190e42603d5343f005d2021-03-04 17:34:32dht11humidity59percent
7151bbbba929e5d1f190e42603d5343f005d2021-03-04 17:39:34soilmoisture83percent
7152bbbba929e5d1f190e42603d5343f005d2021-03-04 17:39:34dht11temp21.6degree
7153bbbba929e5d1f190e42603d5343f005d2021-03-04 17:39:34dht11humidity59percent
7154bbbba929e5d1f190e42603d5343f005d2021-03-04 17:44:36soilmoisture83percent
7155bbbba929e5d1f190e42603d5343f005d2021-03-04 17:44:36dht11temp21.6degree
7156bbbba929e5d1f190e42603d5343f005d2021-03-04 17:44:36dht11humidity60percent
7157bbbba929e5d1f190e42603d5343f005d2021-03-04 17:49:38soilmoisture83percent
7158bbbba929e5d1f190e42603d5343f005d2021-03-04 17:49:38dht11temp21.5degree
7159bbbba929e5d1f190e42603d5343f005d2021-03-04 17:49:39dht11humidity60percent
7160bbbba929e5d1f190e42603d5343f005d2021-03-04 17:54:41soilmoisture83percent
7161bbbba929e5d1f190e42603d5343f005d2021-03-04 17:54:41dht11temp21.5degree
7162bbbba929e5d1f190e42603d5343f005d2021-03-04 17:54:41dht11humidity59percent
7163bbbba929e5d1f190e42603d5343f005d2021-03-04 17:59:43soilmoisture83percent
7164bbbba929e5d1f190e42603d5343f005d2021-03-04 17:59:43dht11temp21.5degree
7165bbbba929e5d1f190e42603d5343f005d2021-03-04 17:59:44dht11humidity61percent
7166bbbba929e5d1f190e42603d5343f005d2021-03-04 18:04:44soilmoisture83percent
7167bbbba929e5d1f190e42603d5343f005d2021-03-04 18:04:45dht11temp21.5degree
7168bbbba929e5d1f190e42603d5343f005d2021-03-04 18:04:45dht11humidity61percent
7169bbbba929e5d1f190e42603d5343f005d2021-03-04 18:09:47soilmoisture83percent
7170bbbba929e5d1f190e42603d5343f005d2021-03-04 18:09:47dht11temp21.5degree
7171bbbba929e5d1f190e42603d5343f005d2021-03-04 18:09:47dht11humidity59percent
7172bbbba929e5d1f190e42603d5343f005d2021-03-04 18:14:49soilmoisture83percent
7173bbbba929e5d1f190e42603d5343f005d2021-03-04 18:14:49dht11temp21.5degree
7174bbbba929e5d1f190e42603d5343f005d2021-03-04 18:14:50dht11humidity61percent
7175bbbba929e5d1f190e42603d5343f005d2021-03-04 18:19:52soilmoisture83percent
7176bbbba929e5d1f190e42603d5343f005d2021-03-04 18:19:52dht11temp21.5degree
7177bbbba929e5d1f190e42603d5343f005d2021-03-04 18:19:52dht11humidity62percent
7178bbbba929e5d1f190e42603d5343f005d2021-03-04 18:24:54soilmoisture83percent
7179bbbba929e5d1f190e42603d5343f005d2021-03-04 18:24:54dht11temp21.5degree
7180bbbba929e5d1f190e42603d5343f005d2021-03-04 18:24:55dht11humidity60percent
7181bbbba929e5d1f190e42603d5343f005d2021-03-04 18:29:57soilmoisture83percent
7182bbbba929e5d1f190e42603d5343f005d2021-03-04 18:29:57dht11temp21.5degree
7183bbbba929e5d1f190e42603d5343f005d2021-03-04 18:29:57dht11humidity60percent
7184bbbba929e5d1f190e42603d5343f005d2021-03-04 18:34:59soilmoisture83percent
7185bbbba929e5d1f190e42603d5343f005d2021-03-04 18:34:59dht11temp21.5degree
7186bbbba929e5d1f190e42603d5343f005d2021-03-04 18:35:00dht11humidity61percent
7187bbbba929e5d1f190e42603d5343f005d2021-03-04 18:40:03soilmoisture83percent
7188bbbba929e5d1f190e42603d5343f005d2021-03-04 18:40:03dht11temp21.5degree
7189bbbba929e5d1f190e42603d5343f005d2021-03-04 18:40:03dht11humidity59percent
7190bbbba929e5d1f190e42603d5343f005d2021-03-04 18:45:05soilmoisture83percent
7191bbbba929e5d1f190e42603d5343f005d2021-03-04 18:45:06dht11temp21.5degree
7192bbbba929e5d1f190e42603d5343f005d2021-03-04 18:45:06dht11humidity64percent
7193bbbba929e5d1f190e42603d5343f005d2021-03-04 18:50:08soilmoisture83percent
7194bbbba929e5d1f190e42603d5343f005d2021-03-04 18:50:08dht11temp21.5degree
7195bbbba929e5d1f190e42603d5343f005d2021-03-04 18:50:08dht11humidity61percent
7196bbbba929e5d1f190e42603d5343f005d2021-03-04 18:55:10soilmoisture83percent
7197bbbba929e5d1f190e42603d5343f005d2021-03-04 18:55:10dht11temp21.5degree
7198bbbba929e5d1f190e42603d5343f005d2021-03-04 18:55:11dht11humidity59percent
7199bbbba929e5d1f190e42603d5343f005d2021-03-04 19:00:13soilmoisture83percent
7200bbbba929e5d1f190e42603d5343f005d2021-03-04 19:00:13dht11temp21.5degree
7201bbbba929e5d1f190e42603d5343f005d2021-03-04 19:00:13dht11humidity60percent
7202bbbba929e5d1f190e42603d5343f005d2021-03-04 19:05:15soilmoisture83percent
7203bbbba929e5d1f190e42603d5343f005d2021-03-04 19:05:15dht11temp21.5degree
7204bbbba929e5d1f190e42603d5343f005d2021-03-04 19:05:16dht11humidity58percent
7205bbbba929e5d1f190e42603d5343f005d2021-03-04 19:10:17soilmoisture83percent
7206bbbba929e5d1f190e42603d5343f005d2021-03-04 19:10:18dht11temp21.5degree
7207bbbba929e5d1f190e42603d5343f005d2021-03-04 19:10:18dht11humidity62percent
7208bbbba929e5d1f190e42603d5343f005d2021-03-04 19:15:20soilmoisture83percent
7209bbbba929e5d1f190e42603d5343f005d2021-03-04 19:15:20dht11temp21.5degree
7210bbbba929e5d1f190e42603d5343f005d2021-03-04 19:15:20dht11humidity59percent
7211bbbba929e5d1f190e42603d5343f005d2021-03-04 19:20:22soilmoisture83percent
7212bbbba929e5d1f190e42603d5343f005d2021-03-04 19:20:23dht11temp21.5degree
7213bbbba929e5d1f190e42603d5343f005d2021-03-04 19:20:23dht11humidity61percent
7214bbbba929e5d1f190e42603d5343f005d2021-03-04 19:25:25soilmoisture83percent
7215bbbba929e5d1f190e42603d5343f005d2021-03-04 19:25:25dht11temp21.5degree
7216bbbba929e5d1f190e42603d5343f005d2021-03-04 19:25:25dht11humidity59percent
7217bbbba929e5d1f190e42603d5343f005d2021-03-04 19:30:27soilmoisture83percent
7218bbbba929e5d1f190e42603d5343f005d2021-03-04 19:30:27dht11temp21.5degree
7219bbbba929e5d1f190e42603d5343f005d2021-03-04 19:30:28dht11humidity61percent
7220bbbba929e5d1f190e42603d5343f005d2021-03-04 19:35:29soilmoisture83percent
7221bbbba929e5d1f190e42603d5343f005d2021-03-04 19:35:30dht11temp21.5degree
7222bbbba929e5d1f190e42603d5343f005d2021-03-04 19:35:30dht11humidity61percent
7223bbbba929e5d1f190e42603d5343f005d2021-03-04 19:40:32soilmoisture83percent
7224bbbba929e5d1f190e42603d5343f005d2021-03-04 19:40:32dht11temp21.5degree
7225bbbba929e5d1f190e42603d5343f005d2021-03-04 19:40:32dht11humidity64percent
7226bbbba929e5d1f190e42603d5343f005d2021-03-04 19:45:34soilmoisture83percent
7227bbbba929e5d1f190e42603d5343f005d2021-03-04 19:45:34dht11temp21.6degree
7228bbbba929e5d1f190e42603d5343f005d2021-03-04 19:45:35dht11humidity70percent
7229bbbba929e5d1f190e42603d5343f005d2021-03-04 19:50:36soilmoisture83percent
7230bbbba929e5d1f190e42603d5343f005d2021-03-04 19:50:37dht11temp21.6degree
7231bbbba929e5d1f190e42603d5343f005d2021-03-04 19:50:37dht11humidity77percent
7232bbbba929e5d1f190e42603d5343f005d2021-03-04 19:55:39soilmoisture83percent
7233bbbba929e5d1f190e42603d5343f005d2021-03-04 19:55:39dht11temp21.7degree
7234bbbba929e5d1f190e42603d5343f005d2021-03-04 19:55:39dht11humidity79percent
7235bbbba929e5d1f190e42603d5343f005d2021-03-04 20:00:41soilmoisture83percent
7236bbbba929e5d1f190e42603d5343f005d2021-03-04 20:00:42dht11temp21.8degree
7237bbbba929e5d1f190e42603d5343f005d2021-03-04 20:00:42dht11humidity81percent
7238bbbba929e5d1f190e42603d5343f005d2021-03-04 20:05:44soilmoisture83percent
7239bbbba929e5d1f190e42603d5343f005d2021-03-04 20:05:44dht11temp21.9degree
7240bbbba929e5d1f190e42603d5343f005d2021-03-04 20:05:44dht11humidity79percent
7241bbbba929e5d1f190e42603d5343f005d2021-03-04 20:10:46soilmoisture83percent
7242bbbba929e5d1f190e42603d5343f005d2021-03-04 20:10:46dht11temp21.9degree
7243bbbba929e5d1f190e42603d5343f005d2021-03-04 20:10:47dht11humidity76percent
7244bbbba929e5d1f190e42603d5343f005d2021-03-04 20:15:48soilmoisture83percent
7245bbbba929e5d1f190e42603d5343f005d2021-03-04 20:15:49dht11temp21.9degree
7246bbbba929e5d1f190e42603d5343f005d2021-03-04 20:15:49dht11humidity74percent
7247bbbba929e5d1f190e42603d5343f005d2021-03-04 20:20:51soilmoisture83percent
7248bbbba929e5d1f190e42603d5343f005d2021-03-04 20:20:51dht11temp21.8degree
7249bbbba929e5d1f190e42603d5343f005d2021-03-04 20:20:51dht11humidity72percent
7250bbbba929e5d1f190e42603d5343f005d2021-03-04 20:25:53soilmoisture83percent
7251bbbba929e5d1f190e42603d5343f005d2021-03-04 20:25:53dht11temp21.8degree
7252bbbba929e5d1f190e42603d5343f005d2021-03-04 20:25:54dht11humidity71percent
7253bbbba929e5d1f190e42603d5343f005d2021-03-04 20:30:55soilmoisture83percent
7254bbbba929e5d1f190e42603d5343f005d2021-03-04 20:30:56dht11temp21.8degree
7255bbbba929e5d1f190e42603d5343f005d2021-03-04 20:30:56dht11humidity69percent
7256bbbba929e5d1f190e42603d5343f005d2021-03-04 20:35:58soilmoisture83percent
7257bbbba929e5d1f190e42603d5343f005d2021-03-04 20:35:58dht11temp21.7degree
7258bbbba929e5d1f190e42603d5343f005d2021-03-04 20:35:58dht11humidity69percent
7259bbbba929e5d1f190e42603d5343f005d2021-03-04 20:41:00soilmoisture83percent
7260bbbba929e5d1f190e42603d5343f005d2021-03-04 20:41:00dht11temp21.7degree
7261bbbba929e5d1f190e42603d5343f005d2021-03-04 20:41:01dht11humidity68percent
7262bbbba929e5d1f190e42603d5343f005d2021-03-04 20:46:02soilmoisture83percent
7263bbbba929e5d1f190e42603d5343f005d2021-03-04 20:46:03dht11temp21.7degree
7264bbbba929e5d1f190e42603d5343f005d2021-03-04 20:46:03dht11humidity69percent
7265bbbba929e5d1f190e42603d5343f005d2021-03-04 20:51:05soilmoisture83percent
7266bbbba929e5d1f190e42603d5343f005d2021-03-04 20:51:05dht11temp21.6degree
7267bbbba929e5d1f190e42603d5343f005d2021-03-04 20:51:05dht11humidity68percent
7268bbbba929e5d1f190e42603d5343f005d2021-03-04 20:56:07soilmoisture83percent
7269bbbba929e5d1f190e42603d5343f005d2021-03-04 20:56:07dht11temp21.6degree
7270bbbba929e5d1f190e42603d5343f005d2021-03-04 20:56:08dht11humidity66percent
7271bbbba929e5d1f190e42603d5343f005d2021-03-04 21:01:09soilmoisture83percent
7272bbbba929e5d1f190e42603d5343f005d2021-03-04 21:01:10dht11temp21.6degree
7273bbbba929e5d1f190e42603d5343f005d2021-03-04 21:01:10dht11humidity65percent
7274bbbba929e5d1f190e42603d5343f005d2021-03-04 21:06:12soilmoisture83percent
7275bbbba929e5d1f190e42603d5343f005d2021-03-04 21:06:12dht11temp21.6degree
7276bbbba929e5d1f190e42603d5343f005d2021-03-04 21:06:13dht11humidity66percent
7277bbbba929e5d1f190e42603d5343f005d2021-03-04 21:11:15soilmoisture83percent
7278bbbba929e5d1f190e42603d5343f005d2021-03-04 21:11:15dht11temp21.6degree
7279bbbba929e5d1f190e42603d5343f005d2021-03-04 21:11:15dht11humidity66percent
7280bbbba929e5d1f190e42603d5343f005d2021-03-04 21:16:22soilmoisture83percent
7281bbbba929e5d1f190e42603d5343f005d2021-03-04 21:16:23dht11temp21.6degree
7282bbbba929e5d1f190e42603d5343f005d2021-03-04 21:16:24dht11humidity64percent
7283bbbba929e5d1f190e42603d5343f005d2021-03-04 21:21:26soilmoisture83percent
7284bbbba929e5d1f190e42603d5343f005d2021-03-04 21:21:26dht11temp21.6degree
7285bbbba929e5d1f190e42603d5343f005d2021-03-04 21:21:26dht11humidity64percent
7286bbbba929e5d1f190e42603d5343f005d2021-03-04 21:26:28soilmoisture83percent
7287bbbba929e5d1f190e42603d5343f005d2021-03-04 21:26:28dht11temp21.6degree
7288bbbba929e5d1f190e42603d5343f005d2021-03-04 21:26:29dht11humidity65percent
7289bbbba929e5d1f190e42603d5343f005d2021-03-04 21:31:30soilmoisture83percent
7290bbbba929e5d1f190e42603d5343f005d2021-03-04 21:31:31dht11temp21.6degree
7291bbbba929e5d1f190e42603d5343f005d2021-03-04 21:31:31dht11humidity66percent
7292bbbba929e5d1f190e42603d5343f005d2021-03-04 21:36:33soilmoisture83percent
7293bbbba929e5d1f190e42603d5343f005d2021-03-04 21:36:33dht11temp21.6degree
7294bbbba929e5d1f190e42603d5343f005d2021-03-04 21:36:33dht11humidity66percent
7295bbbba929e5d1f190e42603d5343f005d2021-03-04 21:41:35soilmoisture83percent
7296bbbba929e5d1f190e42603d5343f005d2021-03-04 21:41:35dht11temp21.6degree
7297bbbba929e5d1f190e42603d5343f005d2021-03-04 21:41:35dht11humidity65percent
7298bbbba929e5d1f190e42603d5343f005d2021-03-04 21:46:37soilmoisture83percent
7299bbbba929e5d1f190e42603d5343f005d2021-03-04 21:46:38dht11temp21.6degree
7300bbbba929e5d1f190e42603d5343f005d2021-03-04 21:46:38dht11humidity65percent
7301bbbba929e5d1f190e42603d5343f005d2021-03-04 21:51:40soilmoisture83percent
7302bbbba929e5d1f190e42603d5343f005d2021-03-04 21:51:40dht11temp21.6degree
7303bbbba929e5d1f190e42603d5343f005d2021-03-04 21:51:40dht11humidity64percent
7304bbbba929e5d1f190e42603d5343f005d2021-03-04 21:56:42soilmoisture83percent
7305bbbba929e5d1f190e42603d5343f005d2021-03-04 21:56:42dht11temp21.6degree
7306bbbba929e5d1f190e42603d5343f005d2021-03-04 21:56:43dht11humidity65percent
7307bbbba929e5d1f190e42603d5343f005d2021-03-04 22:01:45soilmoisture83percent
7308bbbba929e5d1f190e42603d5343f005d2021-03-04 22:01:45dht11temp21.6degree
7309bbbba929e5d1f190e42603d5343f005d2021-03-04 22:01:45dht11humidity64percent
7310bbbba929e5d1f190e42603d5343f005d2021-03-04 22:06:47soilmoisture83percent
7311bbbba929e5d1f190e42603d5343f005d2021-03-04 22:06:48dht11temp21.6degree
7312bbbba929e5d1f190e42603d5343f005d2021-03-04 22:06:48dht11humidity64percent
7313bbbba929e5d1f190e42603d5343f005d2021-03-04 22:11:50soilmoisture83percent
7314bbbba929e5d1f190e42603d5343f005d2021-03-04 22:11:50dht11temp21.6degree
7315bbbba929e5d1f190e42603d5343f005d2021-03-04 22:11:50dht11humidity64percent
7316bbbba929e5d1f190e42603d5343f005d2021-03-04 22:16:52soilmoisture83percent
7317bbbba929e5d1f190e42603d5343f005d2021-03-04 22:16:53dht11temp21.6degree
7318bbbba929e5d1f190e42603d5343f005d2021-03-04 22:16:53dht11humidity66percent
7319bbbba929e5d1f190e42603d5343f005d2021-03-04 22:21:55soilmoisture83percent
7320bbbba929e5d1f190e42603d5343f005d2021-03-04 22:21:55dht11temp21.6degree
7321bbbba929e5d1f190e42603d5343f005d2021-03-04 22:21:55dht11humidity65percent
7322bbbba929e5d1f190e42603d5343f005d2021-03-04 22:26:57soilmoisture83percent
7323bbbba929e5d1f190e42603d5343f005d2021-03-04 22:26:57dht11temp21.6degree
7324bbbba929e5d1f190e42603d5343f005d2021-03-04 22:26:57dht11humidity64percent
7325bbbba929e5d1f190e42603d5343f005d2021-03-04 22:31:59soilmoisture83percent
7326bbbba929e5d1f190e42603d5343f005d2021-03-04 22:31:59dht11temp21.6degree
7327bbbba929e5d1f190e42603d5343f005d2021-03-04 22:32:00dht11humidity65percent
7328bbbba929e5d1f190e42603d5343f005d2021-03-04 22:37:01soilmoisture83percent
7329bbbba929e5d1f190e42603d5343f005d2021-03-04 22:37:02dht11temp21.6degree
7330bbbba929e5d1f190e42603d5343f005d2021-03-04 22:37:02dht11humidity65percent
7331bbbba929e5d1f190e42603d5343f005d2021-03-04 22:42:04soilmoisture83percent
7332bbbba929e5d1f190e42603d5343f005d2021-03-04 22:42:04dht11temp21.6degree
7333bbbba929e5d1f190e42603d5343f005d2021-03-04 22:42:04dht11humidity64percent
7334bbbba929e5d1f190e42603d5343f005d2021-03-04 22:47:06soilmoisture83percent
7335bbbba929e5d1f190e42603d5343f005d2021-03-04 22:47:06dht11temp21.5degree
7336bbbba929e5d1f190e42603d5343f005d2021-03-04 22:47:06dht11humidity64percent
7337bbbba929e5d1f190e42603d5343f005d2021-03-04 22:52:08soilmoisture83percent
7338bbbba929e5d1f190e42603d5343f005d2021-03-04 22:52:08dht11temp21.5degree
7339bbbba929e5d1f190e42603d5343f005d2021-03-04 22:52:09dht11humidity63percent
7340bbbba929e5d1f190e42603d5343f005d2021-03-04 22:57:10soilmoisture83percent
7341bbbba929e5d1f190e42603d5343f005d2021-03-04 22:57:11dht11temp21.5degree
7342bbbba929e5d1f190e42603d5343f005d2021-03-04 22:57:11dht11humidity64percent
7343bbbba929e5d1f190e42603d5343f005d2021-03-04 23:02:13soilmoisture83percent
7344bbbba929e5d1f190e42603d5343f005d2021-03-04 23:02:13dht11temp21.5degree
7345bbbba929e5d1f190e42603d5343f005d2021-03-04 23:02:14dht11humidity64percent
7346bbbba929e5d1f190e42603d5343f005d2021-03-04 23:07:15soilmoisture83percent
7347bbbba929e5d1f190e42603d5343f005d2021-03-04 23:07:16dht11temp21.5degree
7348bbbba929e5d1f190e42603d5343f005d2021-03-04 23:07:16dht11humidity63percent
7349bbbba929e5d1f190e42603d5343f005d2021-03-04 23:12:18soilmoisture83percent
7350bbbba929e5d1f190e42603d5343f005d2021-03-04 23:12:18dht11temp21.5degree
7351bbbba929e5d1f190e42603d5343f005d2021-03-04 23:12:18dht11humidity63percent
7352bbbba929e5d1f190e42603d5343f005d2021-03-04 23:17:20soilmoisture83percent
7353bbbba929e5d1f190e42603d5343f005d2021-03-04 23:17:20dht11temp21.5degree
7354bbbba929e5d1f190e42603d5343f005d2021-03-04 23:17:21dht11humidity64percent
7355bbbba929e5d1f190e42603d5343f005d2021-03-04 23:22:23soilmoisture83percent
7356bbbba929e5d1f190e42603d5343f005d2021-03-04 23:22:24dht11temp21.4degree
7357bbbba929e5d1f190e42603d5343f005d2021-03-04 23:22:24dht11humidity63percent
7358bbbba929e5d1f190e42603d5343f005d2021-03-04 23:27:26soilmoisture83percent
7359bbbba929e5d1f190e42603d5343f005d2021-03-04 23:27:26dht11temp21.4degree
7360bbbba929e5d1f190e42603d5343f005d2021-03-04 23:27:26dht11humidity64percent
7361bbbba929e5d1f190e42603d5343f005d2021-03-04 23:32:28soilmoisture83percent
7362bbbba929e5d1f190e42603d5343f005d2021-03-04 23:32:28dht11temp21.4degree
7363bbbba929e5d1f190e42603d5343f005d2021-03-04 23:32:29dht11humidity64percent
7364bbbba929e5d1f190e42603d5343f005d2021-03-04 23:37:31soilmoisture83percent
7365bbbba929e5d1f190e42603d5343f005d2021-03-04 23:37:31dht11temp21.4degree
7366bbbba929e5d1f190e42603d5343f005d2021-03-04 23:37:31dht11humidity64percent
7367bbbba929e5d1f190e42603d5343f005d2021-03-04 23:42:33soilmoisture83percent
7368bbbba929e5d1f190e42603d5343f005d2021-03-04 23:42:33dht11temp21.3degree
7369bbbba929e5d1f190e42603d5343f005d2021-03-04 23:42:33dht11humidity64percent
7370bbbba929e5d1f190e42603d5343f005d2021-03-04 23:47:35soilmoisture83percent
7371bbbba929e5d1f190e42603d5343f005d2021-03-04 23:47:35dht11temp21.3degree
7372bbbba929e5d1f190e42603d5343f005d2021-03-04 23:47:36dht11humidity63percent
7373bbbba929e5d1f190e42603d5343f005d2021-03-04 23:52:38soilmoisture83percent
7374bbbba929e5d1f190e42603d5343f005d2021-03-04 23:52:38dht11temp21.3degree
7375bbbba929e5d1f190e42603d5343f005d2021-03-04 23:52:38dht11humidity65percent
7376bbbba929e5d1f190e42603d5343f005d2021-03-04 23:57:40soilmoisture83percent
7377bbbba929e5d1f190e42603d5343f005d2021-03-04 23:57:40dht11temp21.3degree
7378bbbba929e5d1f190e42603d5343f005d2021-03-04 23:57:40dht11humidity65percent
7379bbbba929e5d1f190e42603d5343f005d2021-03-05 00:02:41soilmoisture83percent
7380bbbba929e5d1f190e42603d5343f005d2021-03-05 00:02:42dht11temp21.3degree
7381bbbba929e5d1f190e42603d5343f005d2021-03-05 00:02:42dht11humidity63percent
7382bbbba929e5d1f190e42603d5343f005d2021-03-05 00:07:44soilmoisture83percent
7383bbbba929e5d1f190e42603d5343f005d2021-03-05 00:07:44dht11temp21.3degree
7384bbbba929e5d1f190e42603d5343f005d2021-03-05 00:07:44dht11humidity63percent
7385bbbba929e5d1f190e42603d5343f005d2021-03-05 00:12:46soilmoisture83percent
7386bbbba929e5d1f190e42603d5343f005d2021-03-05 00:12:46dht11temp21.2degree
7387bbbba929e5d1f190e42603d5343f005d2021-03-05 00:12:47dht11humidity64percent
7388bbbba929e5d1f190e42603d5343f005d2021-03-05 00:17:48soilmoisture83percent
7389bbbba929e5d1f190e42603d5343f005d2021-03-05 00:17:49dht11temp21.2degree
7390bbbba929e5d1f190e42603d5343f005d2021-03-05 00:17:49dht11humidity67percent
7391bbbba929e5d1f190e42603d5343f005d2021-03-05 00:22:51soilmoisture83percent
7392bbbba929e5d1f190e42603d5343f005d2021-03-05 00:22:51dht11temp21.2degree
7393bbbba929e5d1f190e42603d5343f005d2021-03-05 00:22:51dht11humidity64percent
7394bbbba929e5d1f190e42603d5343f005d2021-03-05 00:27:53soilmoisture83percent
7395bbbba929e5d1f190e42603d5343f005d2021-03-05 00:27:53dht11temp21.2degree
7396bbbba929e5d1f190e42603d5343f005d2021-03-05 00:27:54dht11humidity65percent
7397bbbba929e5d1f190e42603d5343f005d2021-03-05 00:32:55soilmoisture83percent
7398bbbba929e5d1f190e42603d5343f005d2021-03-05 00:32:56dht11temp21.2degree
7399bbbba929e5d1f190e42603d5343f005d2021-03-05 00:32:56dht11humidity64percent
7400bbbba929e5d1f190e42603d5343f005d2021-03-05 00:37:58soilmoisture83percent
7401bbbba929e5d1f190e42603d5343f005d2021-03-05 00:37:58dht11temp21.2degree
7402bbbba929e5d1f190e42603d5343f005d2021-03-05 00:37:58dht11humidity64percent
7403bbbba929e5d1f190e42603d5343f005d2021-03-05 00:43:00soilmoisture83percent
7404bbbba929e5d1f190e42603d5343f005d2021-03-05 00:43:00dht11temp21.1degree
7405bbbba929e5d1f190e42603d5343f005d2021-03-05 00:43:00dht11humidity65percent
7406bbbba929e5d1f190e42603d5343f005d2021-03-05 00:48:02soilmoisture83percent
7407bbbba929e5d1f190e42603d5343f005d2021-03-05 00:48:03dht11temp21.1degree
7408bbbba929e5d1f190e42603d5343f005d2021-03-05 00:48:03dht11humidity63percent
7409bbbba929e5d1f190e42603d5343f005d2021-03-05 00:53:05soilmoisture83percent
7410bbbba929e5d1f190e42603d5343f005d2021-03-05 00:53:05dht11temp21degree
7411bbbba929e5d1f190e42603d5343f005d2021-03-05 00:53:05dht11humidity65percent
7412bbbba929e5d1f190e42603d5343f005d2021-03-05 00:58:07soilmoisture83percent
7413bbbba929e5d1f190e42603d5343f005d2021-03-05 00:58:07dht11temp20.9degree
7414bbbba929e5d1f190e42603d5343f005d2021-03-05 00:58:07dht11humidity63percent
7415bbbba929e5d1f190e42603d5343f005d2021-03-05 01:03:09soilmoisture83percent
7416bbbba929e5d1f190e42603d5343f005d2021-03-05 01:03:10dht11temp20.9degree
7417bbbba929e5d1f190e42603d5343f005d2021-03-05 01:03:10dht11humidity64percent
7418bbbba929e5d1f190e42603d5343f005d2021-03-05 01:08:12soilmoisture83percent
7419bbbba929e5d1f190e42603d5343f005d2021-03-05 01:08:12dht11temp20.9degree
7420bbbba929e5d1f190e42603d5343f005d2021-03-05 01:08:12dht11humidity64percent
7421bbbba929e5d1f190e42603d5343f005d2021-03-05 01:13:14soilmoisture83percent
7422bbbba929e5d1f190e42603d5343f005d2021-03-05 01:13:14dht11temp20.8degree
7423bbbba929e5d1f190e42603d5343f005d2021-03-05 01:13:15dht11humidity64percent
7424bbbba929e5d1f190e42603d5343f005d2021-03-05 01:18:16soilmoisture83percent
7425bbbba929e5d1f190e42603d5343f005d2021-03-05 01:18:17dht11temp20.8degree
7426bbbba929e5d1f190e42603d5343f005d2021-03-05 01:18:17dht11humidity63percent
7427bbbba929e5d1f190e42603d5343f005d2021-03-05 01:23:19soilmoisture83percent
7428bbbba929e5d1f190e42603d5343f005d2021-03-05 01:23:19dht11temp20.7degree
7429bbbba929e5d1f190e42603d5343f005d2021-03-05 01:23:19dht11humidity63percent
7430bbbba929e5d1f190e42603d5343f005d2021-03-05 01:28:21soilmoisture83percent
7431bbbba929e5d1f190e42603d5343f005d2021-03-05 01:28:21dht11temp20.7degree
7432bbbba929e5d1f190e42603d5343f005d2021-03-05 01:28:22dht11humidity63percent
7433bbbba929e5d1f190e42603d5343f005d2021-03-05 01:33:23soilmoisture83percent
7434bbbba929e5d1f190e42603d5343f005d2021-03-05 01:33:24dht11temp20.7degree
7435bbbba929e5d1f190e42603d5343f005d2021-03-05 01:33:24dht11humidity64percent
7436bbbba929e5d1f190e42603d5343f005d2021-03-05 01:38:26soilmoisture83percent
7437bbbba929e5d1f190e42603d5343f005d2021-03-05 01:38:26dht11temp20.7degree
7438bbbba929e5d1f190e42603d5343f005d2021-03-05 01:38:26dht11humidity64percent
7439bbbba929e5d1f190e42603d5343f005d2021-03-05 01:43:28soilmoisture83percent
7440bbbba929e5d1f190e42603d5343f005d2021-03-05 01:43:28dht11temp20.6degree
7441bbbba929e5d1f190e42603d5343f005d2021-03-05 01:43:29dht11humidity63percent
7442bbbba929e5d1f190e42603d5343f005d2021-03-05 01:48:31soilmoisture83percent
7443bbbba929e5d1f190e42603d5343f005d2021-03-05 01:48:31dht11temp20.6degree
7444bbbba929e5d1f190e42603d5343f005d2021-03-05 01:48:31dht11humidity63percent
7445bbbba929e5d1f190e42603d5343f005d2021-03-05 01:53:33soilmoisture83percent
7446bbbba929e5d1f190e42603d5343f005d2021-03-05 01:53:33dht11temp20.6degree
7447bbbba929e5d1f190e42603d5343f005d2021-03-05 01:53:33dht11humidity64percent
7448bbbba929e5d1f190e42603d5343f005d2021-03-05 01:58:35soilmoisture83percent
7449bbbba929e5d1f190e42603d5343f005d2021-03-05 01:58:36dht11temp20.6degree
7450bbbba929e5d1f190e42603d5343f005d2021-03-05 01:58:36dht11humidity65percent
7451bbbba929e5d1f190e42603d5343f005d2021-03-05 02:03:38soilmoisture83percent
7452bbbba929e5d1f190e42603d5343f005d2021-03-05 02:03:38dht11temp20.6degree
7453bbbba929e5d1f190e42603d5343f005d2021-03-05 02:03:38dht11humidity64percent
7454bbbba929e5d1f190e42603d5343f005d2021-03-05 02:08:40soilmoisture83percent
7455bbbba929e5d1f190e42603d5343f005d2021-03-05 02:08:40dht11temp20.6degree
7456bbbba929e5d1f190e42603d5343f005d2021-03-05 02:08:41dht11humidity63percent
7457bbbba929e5d1f190e42603d5343f005d2021-03-05 02:13:42soilmoisture83percent
7458bbbba929e5d1f190e42603d5343f005d2021-03-05 02:13:43dht11temp20.5degree
7459bbbba929e5d1f190e42603d5343f005d2021-03-05 02:13:43dht11humidity64percent
7460bbbba929e5d1f190e42603d5343f005d2021-03-05 02:18:45soilmoisture83percent
7461bbbba929e5d1f190e42603d5343f005d2021-03-05 02:18:45dht11temp20.5degree
7462bbbba929e5d1f190e42603d5343f005d2021-03-05 02:18:45dht11humidity65percent
7463bbbba929e5d1f190e42603d5343f005d2021-03-05 02:23:47soilmoisture83percent
7464bbbba929e5d1f190e42603d5343f005d2021-03-05 02:23:47dht11temp20.5degree
7465bbbba929e5d1f190e42603d5343f005d2021-03-05 02:23:48dht11humidity64percent
7466bbbba929e5d1f190e42603d5343f005d2021-03-05 02:28:50soilmoisture83percent
7467bbbba929e5d1f190e42603d5343f005d2021-03-05 02:28:50dht11temp20.5degree
7468bbbba929e5d1f190e42603d5343f005d2021-03-05 02:28:50dht11humidity65percent
7469bbbba929e5d1f190e42603d5343f005d2021-03-05 02:33:52soilmoisture83percent
7470bbbba929e5d1f190e42603d5343f005d2021-03-05 02:33:52dht11temp20.5degree
7471bbbba929e5d1f190e42603d5343f005d2021-03-05 02:33:53dht11humidity64percent
7472bbbba929e5d1f190e42603d5343f005d2021-03-05 02:38:55soilmoisture83percent
7473bbbba929e5d1f190e42603d5343f005d2021-03-05 02:38:55dht11temp20.5degree
7474bbbba929e5d1f190e42603d5343f005d2021-03-05 02:38:55dht11humidity65percent
7475bbbba929e5d1f190e42603d5343f005d2021-03-05 02:43:57soilmoisture83percent
7476bbbba929e5d1f190e42603d5343f005d2021-03-05 02:43:57dht11temp20.5degree
7477bbbba929e5d1f190e42603d5343f005d2021-03-05 02:43:58dht11humidity64percent
7478bbbba929e5d1f190e42603d5343f005d2021-03-05 02:49:00soilmoisture83percent
7479bbbba929e5d1f190e42603d5343f005d2021-03-05 02:49:00dht11temp20.4degree
7480bbbba929e5d1f190e42603d5343f005d2021-03-05 02:49:00dht11humidity64percent
7481bbbba929e5d1f190e42603d5343f005d2021-03-05 02:54:02soilmoisture83percent
7482bbbba929e5d1f190e42603d5343f005d2021-03-05 02:54:02dht11temp20.4degree
7483bbbba929e5d1f190e42603d5343f005d2021-03-05 02:54:03dht11humidity65percent
7484bbbba929e5d1f190e42603d5343f005d2021-03-05 02:59:05soilmoisture83percent
7485bbbba929e5d1f190e42603d5343f005d2021-03-05 02:59:05dht11temp20.2degree
7486bbbba929e5d1f190e42603d5343f005d2021-03-05 02:59:05dht11humidity65percent
7487bbbba929e5d1f190e42603d5343f005d2021-03-05 03:04:07soilmoisture83percent
7488bbbba929e5d1f190e42603d5343f005d2021-03-05 03:04:07dht11temp20.2degree
7489bbbba929e5d1f190e42603d5343f005d2021-03-05 03:04:08dht11humidity64percent
7490bbbba929e5d1f190e42603d5343f005d2021-03-05 03:09:09soilmoisture83percent
7491bbbba929e5d1f190e42603d5343f005d2021-03-05 03:09:10dht11temp20.2degree
7492bbbba929e5d1f190e42603d5343f005d2021-03-05 03:09:10dht11humidity66percent
7493bbbba929e5d1f190e42603d5343f005d2021-03-05 03:14:12soilmoisture83percent
7494bbbba929e5d1f190e42603d5343f005d2021-03-05 03:14:12dht11temp20.2degree
7495bbbba929e5d1f190e42603d5343f005d2021-03-05 03:14:12dht11humidity64percent
7496bbbba929e5d1f190e42603d5343f005d2021-03-05 03:19:14soilmoisture83percent
7497bbbba929e5d1f190e42603d5343f005d2021-03-05 03:19:14dht11temp20.2degree
7498bbbba929e5d1f190e42603d5343f005d2021-03-05 03:19:15dht11humidity65percent
7499bbbba929e5d1f190e42603d5343f005d2021-03-05 03:24:16soilmoisture83percent
7500bbbba929e5d1f190e42603d5343f005d2021-03-05 03:24:17dht11temp20.1degree
7501bbbba929e5d1f190e42603d5343f005d2021-03-05 03:24:17dht11humidity66percent
7502bbbba929e5d1f190e42603d5343f005d2021-03-05 03:29:19soilmoisture83percent
7503bbbba929e5d1f190e42603d5343f005d2021-03-05 03:29:19dht11temp20.1degree
7504bbbba929e5d1f190e42603d5343f005d2021-03-05 03:29:19dht11humidity65percent
7505bbbba929e5d1f190e42603d5343f005d2021-03-05 03:34:21soilmoisture83percent
7506bbbba929e5d1f190e42603d5343f005d2021-03-05 03:34:21dht11temp20degree
7507bbbba929e5d1f190e42603d5343f005d2021-03-05 03:34:21dht11humidity66percent
7508bbbba929e5d1f190e42603d5343f005d2021-03-05 03:39:23soilmoisture83percent
7509bbbba929e5d1f190e42603d5343f005d2021-03-05 03:39:23dht11temp20degree
7510bbbba929e5d1f190e42603d5343f005d2021-03-05 03:39:24dht11humidity65percent
7511bbbba929e5d1f190e42603d5343f005d2021-03-05 03:44:25soilmoisture83percent
7512bbbba929e5d1f190e42603d5343f005d2021-03-05 03:44:26dht11temp20degree
7513bbbba929e5d1f190e42603d5343f005d2021-03-05 03:44:26dht11humidity65percent
7514bbbba929e5d1f190e42603d5343f005d2021-03-05 03:49:28soilmoisture83percent
7515bbbba929e5d1f190e42603d5343f005d2021-03-05 03:49:28dht11temp20degree
7516bbbba929e5d1f190e42603d5343f005d2021-03-05 03:49:28dht11humidity68percent
7517bbbba929e5d1f190e42603d5343f005d2021-03-05 03:54:30soilmoisture83percent
7518bbbba929e5d1f190e42603d5343f005d2021-03-05 03:54:30dht11temp20degree
7519bbbba929e5d1f190e42603d5343f005d2021-03-05 03:54:31dht11humidity65percent
7520bbbba929e5d1f190e42603d5343f005d2021-03-05 03:59:34soilmoisture83percent
7521bbbba929e5d1f190e42603d5343f005d2021-03-05 03:59:34dht11temp19.9degree
7522bbbba929e5d1f190e42603d5343f005d2021-03-05 03:59:34dht11humidity67percent
7523bbbba929e5d1f190e42603d5343f005d2021-03-05 04:04:36soilmoisture83percent
7524bbbba929e5d1f190e42603d5343f005d2021-03-05 04:04:36dht11temp19.9degree
7525bbbba929e5d1f190e42603d5343f005d2021-03-05 04:04:37dht11humidity66percent
7526bbbba929e5d1f190e42603d5343f005d2021-03-05 04:09:39soilmoisture83percent
7527bbbba929e5d1f190e42603d5343f005d2021-03-05 04:09:40dht11temp19.9degree
7528bbbba929e5d1f190e42603d5343f005d2021-03-05 04:09:40dht11humidity66percent
7529bbbba929e5d1f190e42603d5343f005d2021-03-05 04:14:42soilmoisture83percent
7530bbbba929e5d1f190e42603d5343f005d2021-03-05 04:14:42dht11temp19.9degree
7531bbbba929e5d1f190e42603d5343f005d2021-03-05 04:14:42dht11humidity66percent
7532bbbba929e5d1f190e42603d5343f005d2021-03-05 04:19:44soilmoisture83percent
7533bbbba929e5d1f190e42603d5343f005d2021-03-05 04:19:44dht11temp19.9degree
7534bbbba929e5d1f190e42603d5343f005d2021-03-05 04:19:45dht11humidity66percent
7535bbbba929e5d1f190e42603d5343f005d2021-03-05 04:24:47soilmoisture83percent
7536bbbba929e5d1f190e42603d5343f005d2021-03-05 04:24:47dht11temp19.9degree
7537bbbba929e5d1f190e42603d5343f005d2021-03-05 04:24:47dht11humidity67percent
7538bbbba929e5d1f190e42603d5343f005d2021-03-05 04:29:49soilmoisture83percent
7539bbbba929e5d1f190e42603d5343f005d2021-03-05 04:29:49dht11temp19.9degree
7540bbbba929e5d1f190e42603d5343f005d2021-03-05 04:29:49dht11humidity67percent
7541bbbba929e5d1f190e42603d5343f005d2021-03-05 04:34:51soilmoisture83percent
7542bbbba929e5d1f190e42603d5343f005d2021-03-05 04:34:51dht11temp19.8degree
7543bbbba929e5d1f190e42603d5343f005d2021-03-05 04:34:52dht11humidity67percent
7544bbbba929e5d1f190e42603d5343f005d2021-03-05 04:39:53soilmoisture83percent
7545bbbba929e5d1f190e42603d5343f005d2021-03-05 04:39:54dht11temp19.8degree
7546bbbba929e5d1f190e42603d5343f005d2021-03-05 04:39:54dht11humidity67percent
7547bbbba929e5d1f190e42603d5343f005d2021-03-05 04:44:56soilmoisture83percent
7548bbbba929e5d1f190e42603d5343f005d2021-03-05 04:44:56dht11temp19.8degree
7549bbbba929e5d1f190e42603d5343f005d2021-03-05 04:44:56dht11humidity67percent
7550bbbba929e5d1f190e42603d5343f005d2021-03-05 04:49:58soilmoisture83percent
7551bbbba929e5d1f190e42603d5343f005d2021-03-05 04:49:59dht11temp19.8degree
7552bbbba929e5d1f190e42603d5343f005d2021-03-05 04:49:59dht11humidity65percent
7553bbbba929e5d1f190e42603d5343f005d2021-03-05 04:55:02soilmoisture83percent
7554bbbba929e5d1f190e42603d5343f005d2021-03-05 04:55:02dht11temp19.8degree
7555bbbba929e5d1f190e42603d5343f005d2021-03-05 04:55:02dht11humidity66percent
7556bbbba929e5d1f190e42603d5343f005d2021-03-05 05:00:05soilmoisture83percent
7557bbbba929e5d1f190e42603d5343f005d2021-03-05 05:00:05dht11temp19.7degree
7558bbbba929e5d1f190e42603d5343f005d2021-03-05 05:00:05dht11humidity68percent
7559bbbba929e5d1f190e42603d5343f005d2021-03-05 05:05:07soilmoisture83percent
7560bbbba929e5d1f190e42603d5343f005d2021-03-05 05:05:07dht11temp19.7degree
7561bbbba929e5d1f190e42603d5343f005d2021-03-05 05:05:07dht11humidity67percent
7562bbbba929e5d1f190e42603d5343f005d2021-03-05 05:10:09soilmoisture83percent
7563bbbba929e5d1f190e42603d5343f005d2021-03-05 05:10:09dht11temp19.7degree
7564bbbba929e5d1f190e42603d5343f005d2021-03-05 05:10:10dht11humidity66percent
7565bbbba929e5d1f190e42603d5343f005d2021-03-05 05:15:12soilmoisture83percent
7566bbbba929e5d1f190e42603d5343f005d2021-03-05 05:15:12dht11temp19.7degree
7567bbbba929e5d1f190e42603d5343f005d2021-03-05 05:15:12dht11humidity66percent
7568bbbba929e5d1f190e42603d5343f005d2021-03-05 05:20:14soilmoisture83percent
7569bbbba929e5d1f190e42603d5343f005d2021-03-05 05:20:14dht11temp19.7degree
7570bbbba929e5d1f190e42603d5343f005d2021-03-05 05:20:14dht11humidity69percent
7571bbbba929e5d1f190e42603d5343f005d2021-03-05 05:25:16soilmoisture83percent
7572bbbba929e5d1f190e42603d5343f005d2021-03-05 05:25:16dht11temp19.7degree
7573bbbba929e5d1f190e42603d5343f005d2021-03-05 05:25:17dht11humidity67percent
7574bbbba929e5d1f190e42603d5343f005d2021-03-05 05:30:18soilmoisture83percent
7575bbbba929e5d1f190e42603d5343f005d2021-03-05 05:30:19dht11temp19.7degree
7576bbbba929e5d1f190e42603d5343f005d2021-03-05 05:30:19dht11humidity69percent
7577bbbba929e5d1f190e42603d5343f005d2021-03-05 05:35:21soilmoisture83percent
7578bbbba929e5d1f190e42603d5343f005d2021-03-05 05:35:21dht11temp19.6degree
7579bbbba929e5d1f190e42603d5343f005d2021-03-05 05:35:21dht11humidity66percent
7580bbbba929e5d1f190e42603d5343f005d2021-03-05 05:40:23soilmoisture83percent
7581bbbba929e5d1f190e42603d5343f005d2021-03-05 05:40:23dht11temp19.6degree
7582bbbba929e5d1f190e42603d5343f005d2021-03-05 05:40:24dht11humidity66percent
7583bbbba929e5d1f190e42603d5343f005d2021-03-05 05:45:25soilmoisture83percent
7584bbbba929e5d1f190e42603d5343f005d2021-03-05 05:45:26dht11temp19.6degree
7585bbbba929e5d1f190e42603d5343f005d2021-03-05 05:45:26dht11humidity67percent
7586bbbba929e5d1f190e42603d5343f005d2021-03-05 05:50:28soilmoisture83percent
7587bbbba929e5d1f190e42603d5343f005d2021-03-05 05:50:28dht11temp19.7degree
7588bbbba929e5d1f190e42603d5343f005d2021-03-05 05:50:28dht11humidity66percent
7589bbbba929e5d1f190e42603d5343f005d2021-03-05 05:55:30soilmoisture83percent
7590bbbba929e5d1f190e42603d5343f005d2021-03-05 05:55:30dht11temp19.6degree
7591bbbba929e5d1f190e42603d5343f005d2021-03-05 05:55:31dht11humidity67percent
7592bbbba929e5d1f190e42603d5343f005d2021-03-05 06:00:32soilmoisture83percent
7593bbbba929e5d1f190e42603d5343f005d2021-03-05 06:00:32dht11temp19.6degree
7594bbbba929e5d1f190e42603d5343f005d2021-03-05 06:00:32dht11humidity65percent
7595bbbba929e5d1f190e42603d5343f005d2021-03-05 06:05:34soilmoisture83percent
7596bbbba929e5d1f190e42603d5343f005d2021-03-05 06:05:35dht11temp19.6degree
7597bbbba929e5d1f190e42603d5343f005d2021-03-05 06:05:35dht11humidity67percent
7598bbbba929e5d1f190e42603d5343f005d2021-03-05 06:10:37soilmoisture83percent
7599bbbba929e5d1f190e42603d5343f005d2021-03-05 06:10:37dht11temp19.6degree
7600bbbba929e5d1f190e42603d5343f005d2021-03-05 06:10:37dht11humidity66percent
7601bbbba929e5d1f190e42603d5343f005d2021-03-05 06:15:39soilmoisture83percent
7602bbbba929e5d1f190e42603d5343f005d2021-03-05 06:15:39dht11temp19.6degree
7603bbbba929e5d1f190e42603d5343f005d2021-03-05 06:15:39dht11humidity64percent
7604bbbba929e5d1f190e42603d5343f005d2021-03-05 06:20:41soilmoisture83percent
7605bbbba929e5d1f190e42603d5343f005d2021-03-05 06:20:41dht11temp19.6degree
7606bbbba929e5d1f190e42603d5343f005d2021-03-05 06:20:42dht11humidity65percent
7607bbbba929e5d1f190e42603d5343f005d2021-03-05 06:25:43soilmoisture83percent
7608bbbba929e5d1f190e42603d5343f005d2021-03-05 06:25:44dht11temp19.6degree
7609bbbba929e5d1f190e42603d5343f005d2021-03-05 06:25:44dht11humidity64percent
7610bbbba929e5d1f190e42603d5343f005d2021-03-05 06:30:46soilmoisture83percent
7611bbbba929e5d1f190e42603d5343f005d2021-03-05 06:30:46dht11temp19.8degree
7612bbbba929e5d1f190e42603d5343f005d2021-03-05 06:30:46dht11humidity63percent
7613bbbba929e5d1f190e42603d5343f005d2021-03-05 06:35:48soilmoisture83percent
7614bbbba929e5d1f190e42603d5343f005d2021-03-05 06:35:48dht11temp19.9degree
7615bbbba929e5d1f190e42603d5343f005d2021-03-05 06:35:48dht11humidity62percent
7616bbbba929e5d1f190e42603d5343f005d2021-03-05 06:40:50soilmoisture83percent
7617bbbba929e5d1f190e42603d5343f005d2021-03-05 06:40:50dht11temp20.1degree
7618bbbba929e5d1f190e42603d5343f005d2021-03-05 06:40:51dht11humidity62percent
7619bbbba929e5d1f190e42603d5343f005d2021-03-05 06:45:53soilmoisture83percent
7620bbbba929e5d1f190e42603d5343f005d2021-03-05 06:45:53dht11temp20.2degree
7621bbbba929e5d1f190e42603d5343f005d2021-03-05 06:45:53dht11humidity62percent
7622bbbba929e5d1f190e42603d5343f005d2021-03-05 06:50:55soilmoisture83percent
7623bbbba929e5d1f190e42603d5343f005d2021-03-05 06:50:55dht11temp20.2degree
7624bbbba929e5d1f190e42603d5343f005d2021-03-05 06:50:55dht11humidity61percent
7625bbbba929e5d1f190e42603d5343f005d2021-03-05 06:55:57soilmoisture83percent
7626bbbba929e5d1f190e42603d5343f005d2021-03-05 06:55:57dht11temp20.3degree
7627bbbba929e5d1f190e42603d5343f005d2021-03-05 06:55:58dht11humidity61percent
7628bbbba929e5d1f190e42603d5343f005d2021-03-05 07:01:00soilmoisture83percent
7629bbbba929e5d1f190e42603d5343f005d2021-03-05 07:01:00dht11temp20.3degree
7630bbbba929e5d1f190e42603d5343f005d2021-03-05 07:01:00dht11humidity61percent
7631bbbba929e5d1f190e42603d5343f005d2021-03-05 07:06:02soilmoisture83percent
7632bbbba929e5d1f190e42603d5343f005d2021-03-05 07:06:02dht11temp20.4degree
7633bbbba929e5d1f190e42603d5343f005d2021-03-05 07:06:02dht11humidity60percent
7634bbbba929e5d1f190e42603d5343f005d2021-03-05 07:11:04soilmoisture83percent
7635bbbba929e5d1f190e42603d5343f005d2021-03-05 07:11:04dht11temp20.4degree
7636bbbba929e5d1f190e42603d5343f005d2021-03-05 07:11:05dht11humidity60percent
7637bbbba929e5d1f190e42603d5343f005d2021-03-05 07:16:06soilmoisture83percent
7638bbbba929e5d1f190e42603d5343f005d2021-03-05 07:16:07dht11temp20.4degree
7639bbbba929e5d1f190e42603d5343f005d2021-03-05 07:16:07dht11humidity61percent
7640bbbba929e5d1f190e42603d5343f005d2021-03-05 07:21:09soilmoisture83percent
7641bbbba929e5d1f190e42603d5343f005d2021-03-05 07:21:09dht11temp20.4degree
7642bbbba929e5d1f190e42603d5343f005d2021-03-05 07:21:09dht11humidity62percent
7643bbbba929e5d1f190e42603d5343f005d2021-03-05 07:26:11soilmoisture83percent
7644bbbba929e5d1f190e42603d5343f005d2021-03-05 07:26:11dht11temp20.4degree
7645bbbba929e5d1f190e42603d5343f005d2021-03-05 07:26:12dht11humidity61percent
7646bbbba929e5d1f190e42603d5343f005d2021-03-05 07:31:14soilmoisture83percent
7647bbbba929e5d1f190e42603d5343f005d2021-03-05 07:31:14dht11temp20.5degree
7648bbbba929e5d1f190e42603d5343f005d2021-03-05 07:31:14dht11humidity61percent
7649bbbba929e5d1f190e42603d5343f005d2021-03-05 07:36:16soilmoisture83percent
7650bbbba929e5d1f190e42603d5343f005d2021-03-05 07:36:16dht11temp20.4degree
7651bbbba929e5d1f190e42603d5343f005d2021-03-05 07:36:17dht11humidity60percent
7652bbbba929e5d1f190e42603d5343f005d2021-03-05 07:41:18soilmoisture83percent
7653bbbba929e5d1f190e42603d5343f005d2021-03-05 07:41:19dht11temp20.5degree
7654bbbba929e5d1f190e42603d5343f005d2021-03-05 07:41:19dht11humidity61percent
7655bbbba929e5d1f190e42603d5343f005d2021-03-05 07:46:21soilmoisture83percent
7656bbbba929e5d1f190e42603d5343f005d2021-03-05 07:46:21dht11temp20.5degree
7657bbbba929e5d1f190e42603d5343f005d2021-03-05 07:46:21dht11humidity61percent
7658bbbba929e5d1f190e42603d5343f005d2021-03-05 07:51:23soilmoisture83percent
7659bbbba929e5d1f190e42603d5343f005d2021-03-05 07:51:23dht11temp20.4degree
7660bbbba929e5d1f190e42603d5343f005d2021-03-05 07:51:24dht11humidity61percent
7661bbbba929e5d1f190e42603d5343f005d2021-03-05 07:56:25soilmoisture83percent
7662bbbba929e5d1f190e42603d5343f005d2021-03-05 07:56:25dht11temp20.4degree
7663bbbba929e5d1f190e42603d5343f005d2021-03-05 07:56:26dht11humidity62percent
7664bbbba929e5d1f190e42603d5343f005d2021-03-05 08:01:28soilmoisture83percent
7665bbbba929e5d1f190e42603d5343f005d2021-03-05 08:01:29dht11temp20.5degree
7666bbbba929e5d1f190e42603d5343f005d2021-03-05 08:01:29dht11humidity61percent
7667bbbba929e5d1f190e42603d5343f005d2021-03-05 08:06:31soilmoisture83percent
7668bbbba929e5d1f190e42603d5343f005d2021-03-05 08:06:31dht11temp20.4degree
7669bbbba929e5d1f190e42603d5343f005d2021-03-05 08:06:31dht11humidity61percent
7670bbbba929e5d1f190e42603d5343f005d2021-03-05 08:11:33soilmoisture83percent
7671bbbba929e5d1f190e42603d5343f005d2021-03-05 08:11:33dht11temp20.4degree
7672bbbba929e5d1f190e42603d5343f005d2021-03-05 08:11:33dht11humidity63percent
7673bbbba929e5d1f190e42603d5343f005d2021-03-05 08:16:35soilmoisture83percent
7674bbbba929e5d1f190e42603d5343f005d2021-03-05 08:16:35dht11temp20.3degree
7675bbbba929e5d1f190e42603d5343f005d2021-03-05 08:16:36dht11humidity62percent
7676bbbba929e5d1f190e42603d5343f005d2021-03-05 08:21:38soilmoisture83percent
7677bbbba929e5d1f190e42603d5343f005d2021-03-05 08:21:38dht11temp20.2degree
7678bbbba929e5d1f190e42603d5343f005d2021-03-05 08:21:38dht11humidity64percent
7679bbbba929e5d1f190e42603d5343f005d2021-03-05 08:26:40soilmoisture83percent
7680bbbba929e5d1f190e42603d5343f005d2021-03-05 08:26:40dht11temp20.1degree
7681bbbba929e5d1f190e42603d5343f005d2021-03-05 08:26:41dht11humidity63percent
7682bbbba929e5d1f190e42603d5343f005d2021-03-05 08:31:42soilmoisture83percent
7683bbbba929e5d1f190e42603d5343f005d2021-03-05 08:31:43dht11temp20.1degree
7684bbbba929e5d1f190e42603d5343f005d2021-03-05 08:31:43dht11humidity63percent
7685bbbba929e5d1f190e42603d5343f005d2021-03-05 08:36:45soilmoisture83percent
7686bbbba929e5d1f190e42603d5343f005d2021-03-05 08:36:45dht11temp20.1degree
7687bbbba929e5d1f190e42603d5343f005d2021-03-05 08:36:45dht11humidity63percent
7688bbbba929e5d1f190e42603d5343f005d2021-03-05 08:41:47soilmoisture83percent
7689bbbba929e5d1f190e42603d5343f005d2021-03-05 08:41:47dht11temp20.1degree
7690bbbba929e5d1f190e42603d5343f005d2021-03-05 08:41:48dht11humidity64percent
7691bbbba929e5d1f190e42603d5343f005d2021-03-05 08:46:49soilmoisture83percent
7692bbbba929e5d1f190e42603d5343f005d2021-03-05 08:46:50dht11temp20.1degree
7693bbbba929e5d1f190e42603d5343f005d2021-03-05 08:46:50dht11humidity63percent
7694bbbba929e5d1f190e42603d5343f005d2021-03-05 08:51:52soilmoisture83percent
7695bbbba929e5d1f190e42603d5343f005d2021-03-05 08:51:52dht11temp20.4degree
7696bbbba929e5d1f190e42603d5343f005d2021-03-05 08:51:52dht11humidity62percent
7697bbbba929e5d1f190e42603d5343f005d2021-03-05 08:56:54soilmoisture83percent
7698bbbba929e5d1f190e42603d5343f005d2021-03-05 08:56:55dht11temp20.5degree
7699bbbba929e5d1f190e42603d5343f005d2021-03-05 08:56:55dht11humidity63percent
7700bbbba929e5d1f190e42603d5343f005d2021-03-05 09:01:57soilmoisture83percent
7701bbbba929e5d1f190e42603d5343f005d2021-03-05 09:01:57dht11temp20.5degree
7702bbbba929e5d1f190e42603d5343f005d2021-03-05 09:01:58dht11humidity61percent
7703bbbba929e5d1f190e42603d5343f005d2021-03-05 09:06:59soilmoisture83percent
7704bbbba929e5d1f190e42603d5343f005d2021-03-05 09:07:00dht11temp20.5degree
7705bbbba929e5d1f190e42603d5343f005d2021-03-05 09:07:00dht11humidity61percent
7706bbbba929e5d1f190e42603d5343f005d2021-03-05 09:12:02soilmoisture83percent
7707bbbba929e5d1f190e42603d5343f005d2021-03-05 09:12:02dht11temp20.5degree
7708bbbba929e5d1f190e42603d5343f005d2021-03-05 09:12:02dht11humidity61percent
7709bbbba929e5d1f190e42603d5343f005d2021-03-05 09:17:04soilmoisture83percent
7710bbbba929e5d1f190e42603d5343f005d2021-03-05 09:17:04dht11temp20.6degree
7711bbbba929e5d1f190e42603d5343f005d2021-03-05 09:17:05dht11humidity61percent
7712bbbba929e5d1f190e42603d5343f005d2021-03-05 09:22:06soilmoisture83percent
7713bbbba929e5d1f190e42603d5343f005d2021-03-05 09:22:07dht11temp20.6degree
7714bbbba929e5d1f190e42603d5343f005d2021-03-05 09:22:07dht11humidity60percent
7715bbbba929e5d1f190e42603d5343f005d2021-03-05 09:27:09soilmoisture83percent
7716bbbba929e5d1f190e42603d5343f005d2021-03-05 09:27:09dht11temp20.6degree
7717bbbba929e5d1f190e42603d5343f005d2021-03-05 09:27:09dht11humidity62percent
7718bbbba929e5d1f190e42603d5343f005d2021-03-05 09:32:11soilmoisture83percent
7719bbbba929e5d1f190e42603d5343f005d2021-03-05 09:32:12dht11temp20.5degree
7720bbbba929e5d1f190e42603d5343f005d2021-03-05 09:32:12dht11humidity61percent
7721bbbba929e5d1f190e42603d5343f005d2021-03-05 09:37:14soilmoisture83percent
7722bbbba929e5d1f190e42603d5343f005d2021-03-05 09:37:14dht11temp20.6degree
7723bbbba929e5d1f190e42603d5343f005d2021-03-05 09:37:14dht11humidity60percent
7724bbbba929e5d1f190e42603d5343f005d2021-03-05 09:42:16soilmoisture83percent
7725bbbba929e5d1f190e42603d5343f005d2021-03-05 09:42:17dht11temp20.6degree
7726bbbba929e5d1f190e42603d5343f005d2021-03-05 09:42:17dht11humidity61percent
7727bbbba929e5d1f190e42603d5343f005d2021-03-05 09:47:19soilmoisture83percent
7728bbbba929e5d1f190e42603d5343f005d2021-03-05 09:47:19dht11temp20.6degree
7729bbbba929e5d1f190e42603d5343f005d2021-03-05 09:47:19dht11humidity60percent
7730bbbba929e5d1f190e42603d5343f005d2021-03-05 09:52:21soilmoisture83percent
7731bbbba929e5d1f190e42603d5343f005d2021-03-05 09:52:22dht11temp20.6degree
7732bbbba929e5d1f190e42603d5343f005d2021-03-05 09:52:22dht11humidity62percent
7733bbbba929e5d1f190e42603d5343f005d2021-03-05 09:57:24soilmoisture83percent
7734bbbba929e5d1f190e42603d5343f005d2021-03-05 09:57:24dht11temp20.6degree
7735bbbba929e5d1f190e42603d5343f005d2021-03-05 09:57:24dht11humidity62percent
7736bbbba929e5d1f190e42603d5343f005d2021-03-05 10:02:26soilmoisture83percent
7737bbbba929e5d1f190e42603d5343f005d2021-03-05 10:02:27dht11temp20.7degree
7738bbbba929e5d1f190e42603d5343f005d2021-03-05 10:02:27dht11humidity60percent
7739bbbba929e5d1f190e42603d5343f005d2021-03-05 10:07:29soilmoisture83percent
7740bbbba929e5d1f190e42603d5343f005d2021-03-05 10:07:29dht11temp20.7degree
7741bbbba929e5d1f190e42603d5343f005d2021-03-05 10:07:29dht11humidity60percent
7742bbbba929e5d1f190e42603d5343f005d2021-03-05 10:12:31soilmoisture83percent
7743bbbba929e5d1f190e42603d5343f005d2021-03-05 10:12:31dht11temp20.7degree
7744bbbba929e5d1f190e42603d5343f005d2021-03-05 10:12:32dht11humidity60percent
7745bbbba929e5d1f190e42603d5343f005d2021-03-05 10:17:34soilmoisture83percent
7746bbbba929e5d1f190e42603d5343f005d2021-03-05 10:17:34dht11temp20.6degree
7747bbbba929e5d1f190e42603d5343f005d2021-03-05 10:17:34dht11humidity61percent
7748bbbba929e5d1f190e42603d5343f005d2021-03-05 10:22:36soilmoisture83percent
7749bbbba929e5d1f190e42603d5343f005d2021-03-05 10:22:36dht11temp20.7degree
7750bbbba929e5d1f190e42603d5343f005d2021-03-05 10:22:36dht11humidity60percent
7751bbbba929e5d1f190e42603d5343f005d2021-03-05 10:27:38soilmoisture83percent
7752bbbba929e5d1f190e42603d5343f005d2021-03-05 10:27:38dht11temp20.7degree
7753bbbba929e5d1f190e42603d5343f005d2021-03-05 10:27:39dht11humidity60percent
7754bbbba929e5d1f190e42603d5343f005d2021-03-05 10:32:41soilmoisture83percent
7755bbbba929e5d1f190e42603d5343f005d2021-03-05 10:32:41dht11temp20.7degree
7756bbbba929e5d1f190e42603d5343f005d2021-03-05 10:32:41dht11humidity61percent
7757bbbba929e5d1f190e42603d5343f005d2021-03-05 10:37:43soilmoisture83percent
7758bbbba929e5d1f190e42603d5343f005d2021-03-05 10:37:43dht11temp20.7degree
7759bbbba929e5d1f190e42603d5343f005d2021-03-05 10:37:44dht11humidity60percent
7760bbbba929e5d1f190e42603d5343f005d2021-03-05 10:42:45soilmoisture83percent
7761bbbba929e5d1f190e42603d5343f005d2021-03-05 10:42:46dht11temp20.7degree
7762bbbba929e5d1f190e42603d5343f005d2021-03-05 10:42:46dht11humidity61percent
7763bbbba929e5d1f190e42603d5343f005d2021-03-05 10:47:48soilmoisture83percent
7764bbbba929e5d1f190e42603d5343f005d2021-03-05 10:47:48dht11temp20.8degree
7765bbbba929e5d1f190e42603d5343f005d2021-03-05 10:47:48dht11humidity59percent
7766bbbba929e5d1f190e42603d5343f005d2021-03-05 10:52:50soilmoisture83percent
7767bbbba929e5d1f190e42603d5343f005d2021-03-05 10:52:51dht11temp20.7degree
7768bbbba929e5d1f190e42603d5343f005d2021-03-05 10:52:51dht11humidity60percent
7769bbbba929e5d1f190e42603d5343f005d2021-03-05 10:57:59dht11temp20.7degree
7770bbbba929e5d1f190e42603d5343f005d2021-03-05 10:57:59dht11humidity61percent
7771bbbba929e5d1f190e42603d5343f005d2021-03-05 10:58:03soilmoisture83percent
7772bbbba929e5d1f190e42603d5343f005d2021-03-05 11:03:01soilmoisture83percent
7773bbbba929e5d1f190e42603d5343f005d2021-03-05 11:03:02dht11temp20.8degree
7774bbbba929e5d1f190e42603d5343f005d2021-03-05 11:03:02dht11humidity60percent
7775bbbba929e5d1f190e42603d5343f005d2021-03-05 11:08:04soilmoisture83percent
7776bbbba929e5d1f190e42603d5343f005d2021-03-05 11:08:04dht11temp20.8degree
7777bbbba929e5d1f190e42603d5343f005d2021-03-05 11:08:04dht11humidity60percent
7778bbbba929e5d1f190e42603d5343f005d2021-03-05 11:13:06soilmoisture83percent
7779bbbba929e5d1f190e42603d5343f005d2021-03-05 11:13:06dht11temp20.8degree
7780bbbba929e5d1f190e42603d5343f005d2021-03-05 11:13:07dht11humidity58percent
7781bbbba929e5d1f190e42603d5343f005d2021-03-05 11:18:09soilmoisture83percent
7782bbbba929e5d1f190e42603d5343f005d2021-03-05 11:18:09dht11temp20.8degree
7783bbbba929e5d1f190e42603d5343f005d2021-03-05 11:18:09dht11humidity58percent
7784bbbba929e5d1f190e42603d5343f005d2021-03-05 11:23:11soilmoisture83percent
7785bbbba929e5d1f190e42603d5343f005d2021-03-05 11:23:11dht11temp20.9degree
7786bbbba929e5d1f190e42603d5343f005d2021-03-05 11:23:12dht11humidity59percent
7787bbbba929e5d1f190e42603d5343f005d2021-03-05 11:28:14soilmoisture83percent
7788bbbba929e5d1f190e42603d5343f005d2021-03-05 11:28:14dht11temp20.9degree
7789bbbba929e5d1f190e42603d5343f005d2021-03-05 11:28:14dht11humidity62percent
7790bbbba929e5d1f190e42603d5343f005d2021-03-05 11:33:16soilmoisture83percent
7791bbbba929e5d1f190e42603d5343f005d2021-03-05 11:33:16dht11temp21.1degree
7792bbbba929e5d1f190e42603d5343f005d2021-03-05 11:33:17dht11humidity64percent
7793bbbba929e5d1f190e42603d5343f005d2021-03-05 11:38:18soilmoisture82percent
7794bbbba929e5d1f190e42603d5343f005d2021-03-05 11:38:19dht11temp21.1degree
7795bbbba929e5d1f190e42603d5343f005d2021-03-05 11:38:19dht11humidity60percent
7796bbbba929e5d1f190e42603d5343f005d2021-03-05 11:43:21soilmoisture82percent
7797bbbba929e5d1f190e42603d5343f005d2021-03-05 11:43:21dht11temp21.1degree
7798bbbba929e5d1f190e42603d5343f005d2021-03-05 11:43:21dht11humidity62percent
7799bbbba929e5d1f190e42603d5343f005d2021-03-05 11:48:23soilmoisture82percent
7800bbbba929e5d1f190e42603d5343f005d2021-03-05 11:48:24dht11temp21.1degree
7801bbbba929e5d1f190e42603d5343f005d2021-03-05 11:48:24dht11humidity64percent
7802bbbba929e5d1f190e42603d5343f005d2021-03-05 11:53:26soilmoisture82percent
7803bbbba929e5d1f190e42603d5343f005d2021-03-05 11:53:26dht11temp21.1degree
7804bbbba929e5d1f190e42603d5343f005d2021-03-05 11:53:26dht11humidity61percent
7805bbbba929e5d1f190e42603d5343f005d2021-03-05 11:58:28soilmoisture82percent
7806bbbba929e5d1f190e42603d5343f005d2021-03-05 11:58:28dht11temp21.1degree
7807bbbba929e5d1f190e42603d5343f005d2021-03-05 11:58:28dht11humidity59percent
7808bbbba929e5d1f190e42603d5343f005d2021-03-05 12:03:30soilmoisture83percent
7809bbbba929e5d1f190e42603d5343f005d2021-03-05 12:03:30dht11temp21.1degree
7810bbbba929e5d1f190e42603d5343f005d2021-03-05 12:03:31dht11humidity60percent
7811bbbba929e5d1f190e42603d5343f005d2021-03-05 12:08:32soilmoisture83percent
7812bbbba929e5d1f190e42603d5343f005d2021-03-05 12:08:33dht11temp21.2degree
7813bbbba929e5d1f190e42603d5343f005d2021-03-05 12:08:33dht11humidity60percent
7814bbbba929e5d1f190e42603d5343f005d2021-03-05 12:13:35soilmoisture83percent
7815bbbba929e5d1f190e42603d5343f005d2021-03-05 12:13:35dht11temp21.2degree
7816bbbba929e5d1f190e42603d5343f005d2021-03-05 12:13:36dht11humidity60percent
7817bbbba929e5d1f190e42603d5343f005d2021-03-05 12:18:37soilmoisture83percent
7818bbbba929e5d1f190e42603d5343f005d2021-03-05 12:18:38dht11temp21.1degree
7819bbbba929e5d1f190e42603d5343f005d2021-03-05 12:18:38dht11humidity60percent
7820bbbba929e5d1f190e42603d5343f005d2021-03-05 12:23:40soilmoisture83percent
7821bbbba929e5d1f190e42603d5343f005d2021-03-05 12:23:40dht11temp21.2degree
7822bbbba929e5d1f190e42603d5343f005d2021-03-05 12:23:40dht11humidity60percent
7823bbbba929e5d1f190e42603d5343f005d2021-03-05 12:28:42soilmoisture83percent
7824bbbba929e5d1f190e42603d5343f005d2021-03-05 12:28:42dht11temp21.2degree
7825bbbba929e5d1f190e42603d5343f005d2021-03-05 12:28:43dht11humidity59percent
7826bbbba929e5d1f190e42603d5343f005d2021-03-05 12:33:45soilmoisture83percent
7827bbbba929e5d1f190e42603d5343f005d2021-03-05 12:33:45dht11temp21.2degree
7828bbbba929e5d1f190e42603d5343f005d2021-03-05 12:33:45dht11humidity60percent
7829bbbba929e5d1f190e42603d5343f005d2021-03-05 12:38:47soilmoisture82percent
7830bbbba929e5d1f190e42603d5343f005d2021-03-05 12:38:47dht11temp21.2degree
7831bbbba929e5d1f190e42603d5343f005d2021-03-05 12:38:48dht11humidity60percent
7832bbbba929e5d1f190e42603d5343f005d2021-03-05 12:43:49soilmoisture82percent
7833bbbba929e5d1f190e42603d5343f005d2021-03-05 12:43:50dht11temp21.2degree
7834bbbba929e5d1f190e42603d5343f005d2021-03-05 12:43:50dht11humidity59percent
7835bbbba929e5d1f190e42603d5343f005d2021-03-05 12:48:52soilmoisture83percent
7836bbbba929e5d1f190e42603d5343f005d2021-03-05 12:48:52dht11temp21.2degree
7837bbbba929e5d1f190e42603d5343f005d2021-03-05 12:48:52dht11humidity60percent
7838bbbba929e5d1f190e42603d5343f005d2021-03-05 12:53:54soilmoisture83percent
7839bbbba929e5d1f190e42603d5343f005d2021-03-05 12:53:54dht11temp21.2degree
7840bbbba929e5d1f190e42603d5343f005d2021-03-05 12:53:55dht11humidity64percent
7841bbbba929e5d1f190e42603d5343f005d2021-03-05 12:58:56soilmoisture83percent
7842bbbba929e5d1f190e42603d5343f005d2021-03-05 12:58:57dht11temp21.1degree
7843bbbba929e5d1f190e42603d5343f005d2021-03-05 12:58:57dht11humidity62percent
7844bbbba929e5d1f190e42603d5343f005d2021-03-05 13:03:59soilmoisture83percent
7845bbbba929e5d1f190e42603d5343f005d2021-03-05 13:03:59dht11temp21.1degree
7846bbbba929e5d1f190e42603d5343f005d2021-03-05 13:04:00dht11humidity62percent
7847bbbba929e5d1f190e42603d5343f005d2021-03-05 13:09:01soilmoisture83percent
7848bbbba929e5d1f190e42603d5343f005d2021-03-05 13:09:02dht11temp21.1degree
7849bbbba929e5d1f190e42603d5343f005d2021-03-05 13:09:03dht11humidity61percent
7850bbbba929e5d1f190e42603d5343f005d2021-03-05 13:14:04soilmoisture82percent
7851bbbba929e5d1f190e42603d5343f005d2021-03-05 13:14:05dht11temp21.1degree
7852bbbba929e5d1f190e42603d5343f005d2021-03-05 13:14:05dht11humidity59percent
7853bbbba929e5d1f190e42603d5343f005d2021-03-05 13:19:07soilmoisture83percent
7854bbbba929e5d1f190e42603d5343f005d2021-03-05 13:19:07dht11temp21.1degree
7855bbbba929e5d1f190e42603d5343f005d2021-03-05 13:19:07dht11humidity60percent
7856bbbba929e5d1f190e42603d5343f005d2021-03-05 13:24:09soilmoisture82percent
7857bbbba929e5d1f190e42603d5343f005d2021-03-05 13:24:10dht11temp21.1degree
7858bbbba929e5d1f190e42603d5343f005d2021-03-05 13:24:10dht11humidity63percent
7859bbbba929e5d1f190e42603d5343f005d2021-03-05 13:29:12soilmoisture82percent
7860bbbba929e5d1f190e42603d5343f005d2021-03-05 13:29:12dht11temp21.1degree
7861bbbba929e5d1f190e42603d5343f005d2021-03-05 13:29:12dht11humidity61percent
7862bbbba929e5d1f190e42603d5343f005d2021-03-05 13:34:14soilmoisture83percent
7863bbbba929e5d1f190e42603d5343f005d2021-03-05 13:34:14dht11temp21.1degree
7864bbbba929e5d1f190e42603d5343f005d2021-03-05 13:34:15dht11humidity61percent
7865bbbba929e5d1f190e42603d5343f005d2021-03-05 13:39:17soilmoisture83percent
7866bbbba929e5d1f190e42603d5343f005d2021-03-05 13:39:17dht11temp21.1degree
7867bbbba929e5d1f190e42603d5343f005d2021-03-05 13:39:17dht11humidity60percent
7868bbbba929e5d1f190e42603d5343f005d2021-03-05 13:44:19soilmoisture82percent
7869bbbba929e5d1f190e42603d5343f005d2021-03-05 13:44:19dht11temp21.2degree
7870bbbba929e5d1f190e42603d5343f005d2021-03-05 13:44:19dht11humidity61percent
7871bbbba929e5d1f190e42603d5343f005d2021-03-05 13:49:22soilmoisture83percent
7872bbbba929e5d1f190e42603d5343f005d2021-03-05 13:49:22dht11temp21.2degree
7873bbbba929e5d1f190e42603d5343f005d2021-03-05 13:49:22dht11humidity59percent
7874bbbba929e5d1f190e42603d5343f005d2021-03-05 13:54:24soilmoisture82percent
7875bbbba929e5d1f190e42603d5343f005d2021-03-05 13:54:24dht11temp21.3degree
7876bbbba929e5d1f190e42603d5343f005d2021-03-05 13:54:25dht11humidity58percent
7877bbbba929e5d1f190e42603d5343f005d2021-03-05 13:59:27soilmoisture82percent
7878bbbba929e5d1f190e42603d5343f005d2021-03-05 13:59:27dht11temp21.5degree
7879bbbba929e5d1f190e42603d5343f005d2021-03-05 13:59:27dht11humidity60percent
7880bbbba929e5d1f190e42603d5343f005d2021-03-05 14:04:29soilmoisture82percent
7881bbbba929e5d1f190e42603d5343f005d2021-03-05 14:04:29dht11temp21.7degree
7882bbbba929e5d1f190e42603d5343f005d2021-03-05 14:04:30dht11humidity58percent
7883bbbba929e5d1f190e42603d5343f005d2021-03-05 14:09:32soilmoisture82percent
7884bbbba929e5d1f190e42603d5343f005d2021-03-05 14:09:32dht11temp21.8degree
7885bbbba929e5d1f190e42603d5343f005d2021-03-05 14:09:32dht11humidity60percent
7886bbbba929e5d1f190e42603d5343f005d2021-03-05 14:14:34soilmoisture82percent
7887bbbba929e5d1f190e42603d5343f005d2021-03-05 14:14:35dht11temp22.1degree
7888bbbba929e5d1f190e42603d5343f005d2021-03-05 14:14:35dht11humidity58percent
7889bbbba929e5d1f190e42603d5343f005d2021-03-05 14:19:37soilmoisture82percent
7890bbbba929e5d1f190e42603d5343f005d2021-03-05 14:19:37dht11temp22.1degree
7891bbbba929e5d1f190e42603d5343f005d2021-03-05 14:19:38dht11humidity56percent
7892bbbba929e5d1f190e42603d5343f005d2021-03-05 14:24:39soilmoisture82percent
7893bbbba929e5d1f190e42603d5343f005d2021-03-05 14:24:40dht11temp21.9degree
7894bbbba929e5d1f190e42603d5343f005d2021-03-05 14:24:40dht11humidity57percent
7895bbbba929e5d1f190e42603d5343f005d2021-03-05 14:29:42soilmoisture82percent
7896bbbba929e5d1f190e42603d5343f005d2021-03-05 14:29:42dht11temp21.8degree
7897bbbba929e5d1f190e42603d5343f005d2021-03-05 14:29:43dht11humidity57percent
7898bbbba929e5d1f190e42603d5343f005d2021-03-05 14:34:44soilmoisture82percent
7899bbbba929e5d1f190e42603d5343f005d2021-03-05 14:34:45dht11temp21.6degree
7900bbbba929e5d1f190e42603d5343f005d2021-03-05 14:34:45dht11humidity60percent
7901bbbba929e5d1f190e42603d5343f005d2021-03-05 14:39:47soilmoisture82percent
7902bbbba929e5d1f190e42603d5343f005d2021-03-05 14:39:47dht11temp21.5degree
7903bbbba929e5d1f190e42603d5343f005d2021-03-05 14:39:48dht11humidity58percent
7904bbbba929e5d1f190e42603d5343f005d2021-03-05 14:44:50soilmoisture83percent
7905bbbba929e5d1f190e42603d5343f005d2021-03-05 14:44:50dht11temp21.4degree
7906bbbba929e5d1f190e42603d5343f005d2021-03-05 14:44:50dht11humidity60percent
7907bbbba929e5d1f190e42603d5343f005d2021-03-05 14:49:55soilmoisture82percent
7908bbbba929e5d1f190e42603d5343f005d2021-03-05 14:49:55dht11temp21.2degree
7909bbbba929e5d1f190e42603d5343f005d2021-03-05 14:49:56dht11humidity60percent
7910bbbba929e5d1f190e42603d5343f005d2021-03-05 14:54:58soilmoisture82percent
7911bbbba929e5d1f190e42603d5343f005d2021-03-05 14:54:58dht11temp21.2degree
7912bbbba929e5d1f190e42603d5343f005d2021-03-05 14:54:58dht11humidity59percent
7913bbbba929e5d1f190e42603d5343f005d2021-03-05 15:00:00soilmoisture83percent
7914bbbba929e5d1f190e42603d5343f005d2021-03-05 15:00:01dht11temp21.2degree
7915bbbba929e5d1f190e42603d5343f005d2021-03-05 15:00:01dht11humidity62percent
7916bbbba929e5d1f190e42603d5343f005d2021-03-05 15:05:03soilmoisture83percent
7917bbbba929e5d1f190e42603d5343f005d2021-03-05 15:05:04dht11temp21.1degree
7918bbbba929e5d1f190e42603d5343f005d2021-03-05 15:05:04dht11humidity59percent
7919bbbba929e5d1f190e42603d5343f005d2021-03-05 15:10:06soilmoisture82percent
7920bbbba929e5d1f190e42603d5343f005d2021-03-05 15:10:06dht11temp21.1degree
7921bbbba929e5d1f190e42603d5343f005d2021-03-05 15:10:06dht11humidity58percent
7922bbbba929e5d1f190e42603d5343f005d2021-03-05 15:15:08soilmoisture83percent
7923bbbba929e5d1f190e42603d5343f005d2021-03-05 15:15:09dht11temp21.1degree
7924bbbba929e5d1f190e42603d5343f005d2021-03-05 15:15:09dht11humidity63percent
7925bbbba929e5d1f190e42603d5343f005d2021-03-05 15:20:11soilmoisture82percent
7926bbbba929e5d1f190e42603d5343f005d2021-03-05 15:20:11dht11temp21.1degree
7927bbbba929e5d1f190e42603d5343f005d2021-03-05 15:20:11dht11humidity66percent
7928bbbba929e5d1f190e42603d5343f005d2021-03-05 15:25:13soilmoisture82percent
7929bbbba929e5d1f190e42603d5343f005d2021-03-05 15:25:13dht11temp21.2degree
7930bbbba929e5d1f190e42603d5343f005d2021-03-05 15:25:14dht11humidity70percent
7931bbbba929e5d1f190e42603d5343f005d2021-03-05 15:30:15soilmoisture82percent
7932bbbba929e5d1f190e42603d5343f005d2021-03-05 15:30:16dht11temp21.2degree
7933bbbba929e5d1f190e42603d5343f005d2021-03-05 15:30:16dht11humidity74percent
7934bbbba929e5d1f190e42603d5343f005d2021-03-05 15:35:18soilmoisture82percent
7935bbbba929e5d1f190e42603d5343f005d2021-03-05 15:35:18dht11temp21.2degree
7936bbbba929e5d1f190e42603d5343f005d2021-03-05 15:35:18dht11humidity71percent
7937bbbba929e5d1f190e42603d5343f005d2021-03-05 15:40:20soilmoisture82percent
7938bbbba929e5d1f190e42603d5343f005d2021-03-05 15:40:20dht11temp21.2degree
7939bbbba929e5d1f190e42603d5343f005d2021-03-05 15:40:21dht11humidity70percent
7940bbbba929e5d1f190e42603d5343f005d2021-03-05 15:45:22soilmoisture82percent
7941bbbba929e5d1f190e42603d5343f005d2021-03-05 15:45:23dht11temp21.1degree
7942bbbba929e5d1f190e42603d5343f005d2021-03-05 15:45:23dht11humidity69percent
7943bbbba929e5d1f190e42603d5343f005d2021-03-05 15:50:25soilmoisture83percent
7944bbbba929e5d1f190e42603d5343f005d2021-03-05 15:50:25dht11temp21.1degree
7945bbbba929e5d1f190e42603d5343f005d2021-03-05 15:50:25dht11humidity67percent
7946bbbba929e5d1f190e42603d5343f005d2021-03-05 15:55:27soilmoisture82percent
7947bbbba929e5d1f190e42603d5343f005d2021-03-05 15:55:27dht11temp21.1degree
7948bbbba929e5d1f190e42603d5343f005d2021-03-05 15:55:28dht11humidity66percent
7949bbbba929e5d1f190e42603d5343f005d2021-03-05 16:00:30soilmoisture82percent
7950bbbba929e5d1f190e42603d5343f005d2021-03-05 16:00:31dht11temp21.1degree
7951bbbba929e5d1f190e42603d5343f005d2021-03-05 16:00:31dht11humidity66percent
7952bbbba929e5d1f190e42603d5343f005d2021-03-05 16:05:33soilmoisture82percent
7953bbbba929e5d1f190e42603d5343f005d2021-03-05 16:05:33dht11temp21.1degree
7954bbbba929e5d1f190e42603d5343f005d2021-03-05 16:05:34dht11humidity66percent
7955bbbba929e5d1f190e42603d5343f005d2021-03-05 16:10:36soilmoisture83percent
7956bbbba929e5d1f190e42603d5343f005d2021-03-05 16:10:37dht11temp21.1degree
7957bbbba929e5d1f190e42603d5343f005d2021-03-05 16:10:37dht11humidity64percent
7958bbbba929e5d1f190e42603d5343f005d2021-03-05 16:15:39soilmoisture82percent
7959bbbba929e5d1f190e42603d5343f005d2021-03-05 16:15:39dht11temp21degree
7960bbbba929e5d1f190e42603d5343f005d2021-03-05 16:15:39dht11humidity63percent
7961bbbba929e5d1f190e42603d5343f005d2021-03-05 16:20:41soilmoisture82percent
7962bbbba929e5d1f190e42603d5343f005d2021-03-05 16:20:41dht11temp21degree
7963bbbba929e5d1f190e42603d5343f005d2021-03-05 16:20:42dht11humidity63percent
7964bbbba929e5d1f190e42603d5343f005d2021-03-05 16:25:44soilmoisture83percent
7965bbbba929e5d1f190e42603d5343f005d2021-03-05 16:25:44dht11temp21degree
7966bbbba929e5d1f190e42603d5343f005d2021-03-05 16:25:44dht11humidity63percent
7967bbbba929e5d1f190e42603d5343f005d2021-03-05 16:30:46soilmoisture83percent
7968bbbba929e5d1f190e42603d5343f005d2021-03-05 16:30:46dht11temp21degree
7969bbbba929e5d1f190e42603d5343f005d2021-03-05 16:30:46dht11humidity66percent
7970bbbba929e5d1f190e42603d5343f005d2021-03-05 16:35:48soilmoisture83percent
7971bbbba929e5d1f190e42603d5343f005d2021-03-05 16:35:49dht11temp21degree
7972bbbba929e5d1f190e42603d5343f005d2021-03-05 16:35:49dht11humidity62percent
7973bbbba929e5d1f190e42603d5343f005d2021-03-05 16:40:51soilmoisture82percent
7974bbbba929e5d1f190e42603d5343f005d2021-03-05 16:40:51dht11temp21.1degree
7975bbbba929e5d1f190e42603d5343f005d2021-03-05 16:40:51dht11humidity61percent
7976bbbba929e5d1f190e42603d5343f005d2021-03-05 16:45:53soilmoisture83percent
7977bbbba929e5d1f190e42603d5343f005d2021-03-05 16:45:53dht11temp21.1degree
7978bbbba929e5d1f190e42603d5343f005d2021-03-05 16:45:53dht11humidity61percent
7979bbbba929e5d1f190e42603d5343f005d2021-03-05 16:50:55soilmoisture83percent
7980bbbba929e5d1f190e42603d5343f005d2021-03-05 16:50:55dht11temp21.1degree
7981bbbba929e5d1f190e42603d5343f005d2021-03-05 16:50:56dht11humidity61percent
7982bbbba929e5d1f190e42603d5343f005d2021-03-05 16:55:58soilmoisture82percent
7983bbbba929e5d1f190e42603d5343f005d2021-03-05 16:55:58dht11temp21.1degree
7984bbbba929e5d1f190e42603d5343f005d2021-03-05 16:55:58dht11humidity61percent
7985bbbba929e5d1f190e42603d5343f005d2021-03-05 17:01:00soilmoisture82percent
7986bbbba929e5d1f190e42603d5343f005d2021-03-05 17:01:00dht11temp21.1degree
7987bbbba929e5d1f190e42603d5343f005d2021-03-05 17:01:01dht11humidity61percent
7988bbbba929e5d1f190e42603d5343f005d2021-03-05 17:06:02soilmoisture82percent
7989bbbba929e5d1f190e42603d5343f005d2021-03-05 17:06:03dht11temp21.1degree
7990bbbba929e5d1f190e42603d5343f005d2021-03-05 17:06:03dht11humidity62percent
7991bbbba929e5d1f190e42603d5343f005d2021-03-05 17:11:05soilmoisture82percent
7992bbbba929e5d1f190e42603d5343f005d2021-03-05 17:11:05dht11temp21.1degree
7993bbbba929e5d1f190e42603d5343f005d2021-03-05 17:11:05dht11humidity61percent
7994bbbba929e5d1f190e42603d5343f005d2021-03-05 17:16:07soilmoisture82percent
7995bbbba929e5d1f190e42603d5343f005d2021-03-05 17:16:07dht11temp21.1degree
7996bbbba929e5d1f190e42603d5343f005d2021-03-05 17:16:08dht11humidity61percent
7997bbbba929e5d1f190e42603d5343f005d2021-03-05 17:21:09soilmoisture82percent
7998bbbba929e5d1f190e42603d5343f005d2021-03-05 17:21:10dht11temp21.1degree
7999bbbba929e5d1f190e42603d5343f005d2021-03-05 17:21:10dht11humidity61percent
8000bbbba929e5d1f190e42603d5343f005d2021-03-05 17:26:12soilmoisture82percent
8001bbbba929e5d1f190e42603d5343f005d2021-03-05 17:26:12dht11temp21.1degree
8002bbbba929e5d1f190e42603d5343f005d2021-03-05 17:26:12dht11humidity62percent
8003bbbba929e5d1f190e42603d5343f005d2021-03-05 17:31:14soilmoisture82percent
8004bbbba929e5d1f190e42603d5343f005d2021-03-05 17:31:14dht11temp21.1degree
8005bbbba929e5d1f190e42603d5343f005d2021-03-05 17:31:15dht11humidity62percent
8006bbbba929e5d1f190e42603d5343f005d2021-03-05 17:36:17soilmoisture82percent
8007bbbba929e5d1f190e42603d5343f005d2021-03-05 17:36:17dht11temp20.9degree
8008bbbba929e5d1f190e42603d5343f005d2021-03-05 17:36:17dht11humidity61percent
8009bbbba929e5d1f190e42603d5343f005d2021-03-05 17:41:19soilmoisture82percent
8010bbbba929e5d1f190e42603d5343f005d2021-03-05 17:41:19dht11temp20.9degree
8011bbbba929e5d1f190e42603d5343f005d2021-03-05 17:41:19dht11humidity59percent
8012bbbba929e5d1f190e42603d5343f005d2021-03-05 17:46:21soilmoisture83percent
8013bbbba929e5d1f190e42603d5343f005d2021-03-05 17:46:21dht11temp21degree
8014bbbba929e5d1f190e42603d5343f005d2021-03-05 17:46:22dht11humidity59percent
8015bbbba929e5d1f190e42603d5343f005d2021-03-05 17:51:24soilmoisture82percent
8016bbbba929e5d1f190e42603d5343f005d2021-03-05 17:51:24dht11temp21.1degree
8017bbbba929e5d1f190e42603d5343f005d2021-03-05 17:51:24dht11humidity60percent
8018bbbba929e5d1f190e42603d5343f005d2021-03-05 17:56:26soilmoisture82percent
8019bbbba929e5d1f190e42603d5343f005d2021-03-05 17:56:26dht11temp21.1degree
8020bbbba929e5d1f190e42603d5343f005d2021-03-05 17:56:26dht11humidity63percent
8021bbbba929e5d1f190e42603d5343f005d2021-03-05 18:01:28soilmoisture82percent
8022bbbba929e5d1f190e42603d5343f005d2021-03-05 18:01:28dht11temp21.1degree
8023bbbba929e5d1f190e42603d5343f005d2021-03-05 18:01:28dht11humidity62percent
8024bbbba929e5d1f190e42603d5343f005d2021-03-05 18:06:30soilmoisture82percent
8025bbbba929e5d1f190e42603d5343f005d2021-03-05 18:06:30dht11temp21.2degree
8026bbbba929e5d1f190e42603d5343f005d2021-03-05 18:06:31dht11humidity62percent
8027bbbba929e5d1f190e42603d5343f005d2021-03-05 18:11:32soilmoisture82percent
8028bbbba929e5d1f190e42603d5343f005d2021-03-05 18:11:33dht11temp21.1degree
8029bbbba929e5d1f190e42603d5343f005d2021-03-05 18:11:33dht11humidity63percent
8030bbbba929e5d1f190e42603d5343f005d2021-03-05 18:16:35soilmoisture82percent
8031bbbba929e5d1f190e42603d5343f005d2021-03-05 18:16:35dht11temp21.1degree
8032bbbba929e5d1f190e42603d5343f005d2021-03-05 18:16:35dht11humidity64percent
8033bbbba929e5d1f190e42603d5343f005d2021-03-05 18:21:37soilmoisture82percent
8034bbbba929e5d1f190e42603d5343f005d2021-03-05 18:21:37dht11temp21.2degree
8035bbbba929e5d1f190e42603d5343f005d2021-03-05 18:21:38dht11humidity60percent
8036bbbba929e5d1f190e42603d5343f005d2021-03-05 18:26:40soilmoisture82percent
8037bbbba929e5d1f190e42603d5343f005d2021-03-05 18:26:40dht11temp21.1degree
8038bbbba929e5d1f190e42603d5343f005d2021-03-05 18:26:40dht11humidity64percent
8039bbbba929e5d1f190e42603d5343f005d2021-03-05 18:31:42soilmoisture82percent
8040bbbba929e5d1f190e42603d5343f005d2021-03-05 18:31:42dht11temp21.2degree
8041bbbba929e5d1f190e42603d5343f005d2021-03-05 18:31:43dht11humidity66percent
8042bbbba929e5d1f190e42603d5343f005d2021-03-05 18:36:44soilmoisture82percent
8043bbbba929e5d1f190e42603d5343f005d2021-03-05 18:36:45dht11temp21.2degree
8044bbbba929e5d1f190e42603d5343f005d2021-03-05 18:36:45dht11humidity66percent
8045bbbba929e5d1f190e42603d5343f005d2021-03-05 18:41:47soilmoisture82percent
8046bbbba929e5d1f190e42603d5343f005d2021-03-05 18:41:47dht11temp21.2degree
8047bbbba929e5d1f190e42603d5343f005d2021-03-05 18:41:47dht11humidity67percent
8048bbbba929e5d1f190e42603d5343f005d2021-03-05 18:46:49soilmoisture82percent
8049bbbba929e5d1f190e42603d5343f005d2021-03-05 18:46:49dht11temp21.2degree
8050bbbba929e5d1f190e42603d5343f005d2021-03-05 18:46:50dht11humidity69percent
8051bbbba929e5d1f190e42603d5343f005d2021-03-05 18:51:51soilmoisture82percent
8052bbbba929e5d1f190e42603d5343f005d2021-03-05 18:51:52dht11temp21.2degree
8053bbbba929e5d1f190e42603d5343f005d2021-03-05 18:51:52dht11humidity69percent
8054bbbba929e5d1f190e42603d5343f005d2021-03-05 18:56:54soilmoisture82percent
8055bbbba929e5d1f190e42603d5343f005d2021-03-05 18:56:54dht11temp21.3degree
8056bbbba929e5d1f190e42603d5343f005d2021-03-05 18:56:54dht11humidity66percent
8057bbbba929e5d1f190e42603d5343f005d2021-03-05 19:01:56soilmoisture82percent
8058bbbba929e5d1f190e42603d5343f005d2021-03-05 19:01:57dht11temp21.2degree
8059bbbba929e5d1f190e42603d5343f005d2021-03-05 19:01:57dht11humidity67percent
8060bbbba929e5d1f190e42603d5343f005d2021-03-05 19:06:59soilmoisture82percent
8061bbbba929e5d1f190e42603d5343f005d2021-03-05 19:06:59dht11temp21.2degree
8062bbbba929e5d1f190e42603d5343f005d2021-03-05 19:06:59dht11humidity66percent
8063bbbba929e5d1f190e42603d5343f005d2021-03-05 19:12:01soilmoisture82percent
8064bbbba929e5d1f190e42603d5343f005d2021-03-05 19:12:06dht11temp21.3degree
8065bbbba929e5d1f190e42603d5343f005d2021-03-05 19:12:08dht11humidity65percent
8066bbbba929e5d1f190e42603d5343f005d2021-03-05 19:17:10soilmoisture82percent
8067bbbba929e5d1f190e42603d5343f005d2021-03-05 19:17:10dht11temp21.3degree
8068bbbba929e5d1f190e42603d5343f005d2021-03-05 19:17:10dht11humidity65percent
8069bbbba929e5d1f190e42603d5343f005d2021-03-05 19:22:13soilmoisture82percent
8070bbbba929e5d1f190e42603d5343f005d2021-03-05 19:22:13dht11temp21.2degree
8071bbbba929e5d1f190e42603d5343f005d2021-03-05 19:22:13dht11humidity64percent
8072bbbba929e5d1f190e42603d5343f005d2021-03-05 19:27:15soilmoisture82percent
8073bbbba929e5d1f190e42603d5343f005d2021-03-05 19:27:16dht11temp21.2degree
8074bbbba929e5d1f190e42603d5343f005d2021-03-05 19:27:16dht11humidity63percent
8075bbbba929e5d1f190e42603d5343f005d2021-03-05 19:32:18soilmoisture82percent
8076bbbba929e5d1f190e42603d5343f005d2021-03-05 19:32:18dht11temp21.2degree
8077bbbba929e5d1f190e42603d5343f005d2021-03-05 19:32:18dht11humidity63percent
8078bbbba929e5d1f190e42603d5343f005d2021-03-05 19:37:20soilmoisture82percent
8079bbbba929e5d1f190e42603d5343f005d2021-03-05 19:37:20dht11temp21.2degree
8080bbbba929e5d1f190e42603d5343f005d2021-03-05 19:37:21dht11humidity62percent
8081bbbba929e5d1f190e42603d5343f005d2021-03-05 19:42:22soilmoisture82percent
8082bbbba929e5d1f190e42603d5343f005d2021-03-05 19:42:23dht11temp21.2degree
8083bbbba929e5d1f190e42603d5343f005d2021-03-05 19:42:23dht11humidity62percent
8084bbbba929e5d1f190e42603d5343f005d2021-03-05 19:47:25soilmoisture82percent
8085bbbba929e5d1f190e42603d5343f005d2021-03-05 19:47:25dht11temp21.1degree
8086bbbba929e5d1f190e42603d5343f005d2021-03-05 19:47:25dht11humidity63percent
8087bbbba929e5d1f190e42603d5343f005d2021-03-05 19:52:27soilmoisture82percent
8088bbbba929e5d1f190e42603d5343f005d2021-03-05 19:52:27dht11temp21.2degree
8089bbbba929e5d1f190e42603d5343f005d2021-03-05 19:52:28dht11humidity63percent
8090bbbba929e5d1f190e42603d5343f005d2021-03-05 19:57:29soilmoisture82percent
8091bbbba929e5d1f190e42603d5343f005d2021-03-05 19:57:30dht11temp21.1degree
8092bbbba929e5d1f190e42603d5343f005d2021-03-05 19:57:30dht11humidity62percent
8093bbbba929e5d1f190e42603d5343f005d2021-03-05 20:02:32soilmoisture82percent
8094bbbba929e5d1f190e42603d5343f005d2021-03-05 20:02:32dht11temp21.1degree
8095bbbba929e5d1f190e42603d5343f005d2021-03-05 20:02:32dht11humidity63percent
8096bbbba929e5d1f190e42603d5343f005d2021-03-05 20:07:34soilmoisture82percent
8097bbbba929e5d1f190e42603d5343f005d2021-03-05 20:07:35dht11temp21.1degree
8098bbbba929e5d1f190e42603d5343f005d2021-03-05 20:07:35dht11humidity62percent
8099bbbba929e5d1f190e42603d5343f005d2021-03-05 20:12:37soilmoisture82percent
8100bbbba929e5d1f190e42603d5343f005d2021-03-05 20:12:37dht11temp21.1degree
8101bbbba929e5d1f190e42603d5343f005d2021-03-05 20:12:37dht11humidity62percent
8102bbbba929e5d1f190e42603d5343f005d2021-03-05 20:17:39soilmoisture82percent
8103bbbba929e5d1f190e42603d5343f005d2021-03-05 20:17:40dht11temp21.1degree
8104bbbba929e5d1f190e42603d5343f005d2021-03-05 20:17:40dht11humidity63percent
8105bbbba929e5d1f190e42603d5343f005d2021-03-05 20:22:42soilmoisture82percent
8106bbbba929e5d1f190e42603d5343f005d2021-03-05 20:22:42dht11temp21.1degree
8107bbbba929e5d1f190e42603d5343f005d2021-03-05 20:22:42dht11humidity63percent
8108bbbba929e5d1f190e42603d5343f005d2021-03-05 20:27:44soilmoisture82percent
8109bbbba929e5d1f190e42603d5343f005d2021-03-05 20:27:44dht11temp21.1degree
8110bbbba929e5d1f190e42603d5343f005d2021-03-05 20:27:45dht11humidity64percent
8111bbbba929e5d1f190e42603d5343f005d2021-03-05 20:32:47soilmoisture82percent
8112bbbba929e5d1f190e42603d5343f005d2021-03-05 20:32:47dht11temp21.1degree
8113bbbba929e5d1f190e42603d5343f005d2021-03-05 20:32:47dht11humidity62percent
8114bbbba929e5d1f190e42603d5343f005d2021-03-05 20:37:49soilmoisture82percent
8115bbbba929e5d1f190e42603d5343f005d2021-03-05 20:37:49dht11temp21.1degree
8116bbbba929e5d1f190e42603d5343f005d2021-03-05 20:37:50dht11humidity62percent
8117bbbba929e5d1f190e42603d5343f005d2021-03-05 20:42:51soilmoisture82percent
8118bbbba929e5d1f190e42603d5343f005d2021-03-05 20:42:52dht11temp21.1degree
8119bbbba929e5d1f190e42603d5343f005d2021-03-05 20:42:52dht11humidity62percent
8120bbbba929e5d1f190e42603d5343f005d2021-03-05 20:47:54soilmoisture82percent
8121bbbba929e5d1f190e42603d5343f005d2021-03-05 20:47:54dht11temp21.1degree
8122bbbba929e5d1f190e42603d5343f005d2021-03-05 20:47:54dht11humidity62percent
8123bbbba929e5d1f190e42603d5343f005d2021-03-05 20:52:56soilmoisture82percent
8124bbbba929e5d1f190e42603d5343f005d2021-03-05 20:52:56dht11temp21.1degree
8125bbbba929e5d1f190e42603d5343f005d2021-03-05 20:52:57dht11humidity62percent
8126bbbba929e5d1f190e42603d5343f005d2021-03-05 20:57:58soilmoisture82percent
8127bbbba929e5d1f190e42603d5343f005d2021-03-05 20:57:59dht11temp21degree
8128bbbba929e5d1f190e42603d5343f005d2021-03-05 20:57:59dht11humidity61percent
8129bbbba929e5d1f190e42603d5343f005d2021-03-05 21:03:01soilmoisture82percent
8130bbbba929e5d1f190e42603d5343f005d2021-03-05 21:03:01dht11temp21.1degree
8131bbbba929e5d1f190e42603d5343f005d2021-03-05 21:03:01dht11humidity62percent
8132bbbba929e5d1f190e42603d5343f005d2021-03-05 21:08:03soilmoisture82percent
8133bbbba929e5d1f190e42603d5343f005d2021-03-05 21:08:03dht11temp21.1degree
8134bbbba929e5d1f190e42603d5343f005d2021-03-05 21:08:03dht11humidity60percent
8135bbbba929e5d1f190e42603d5343f005d2021-03-05 21:13:05soilmoisture82percent
8136bbbba929e5d1f190e42603d5343f005d2021-03-05 21:13:05dht11temp21.1degree
8137bbbba929e5d1f190e42603d5343f005d2021-03-05 21:13:06dht11humidity61percent
8138bbbba929e5d1f190e42603d5343f005d2021-03-05 21:18:08soilmoisture82percent
8139bbbba929e5d1f190e42603d5343f005d2021-03-05 21:18:08dht11temp21.1degree
8140bbbba929e5d1f190e42603d5343f005d2021-03-05 21:18:08dht11humidity61percent
8141bbbba929e5d1f190e42603d5343f005d2021-03-05 21:23:10soilmoisture82percent
8142bbbba929e5d1f190e42603d5343f005d2021-03-05 21:23:10dht11temp21.1degree
8143bbbba929e5d1f190e42603d5343f005d2021-03-05 21:23:11dht11humidity62percent
8144bbbba929e5d1f190e42603d5343f005d2021-03-05 21:28:12soilmoisture82percent
8145bbbba929e5d1f190e42603d5343f005d2021-03-05 21:28:13dht11temp21degree
8146bbbba929e5d1f190e42603d5343f005d2021-03-05 21:28:13dht11humidity61percent
8147bbbba929e5d1f190e42603d5343f005d2021-03-05 21:33:15soilmoisture82percent
8148bbbba929e5d1f190e42603d5343f005d2021-03-05 21:33:15dht11temp21degree
8149bbbba929e5d1f190e42603d5343f005d2021-03-05 21:33:16dht11humidity62percent
8150bbbba929e5d1f190e42603d5343f005d2021-03-05 21:38:17soilmoisture82percent
8151bbbba929e5d1f190e42603d5343f005d2021-03-05 21:38:18dht11temp21degree
8152bbbba929e5d1f190e42603d5343f005d2021-03-05 21:38:18dht11humidity61percent
8153bbbba929e5d1f190e42603d5343f005d2021-03-05 21:43:20soilmoisture82percent
8154bbbba929e5d1f190e42603d5343f005d2021-03-05 21:43:20dht11temp21degree
8155bbbba929e5d1f190e42603d5343f005d2021-03-05 21:43:20dht11humidity62percent
8156bbbba929e5d1f190e42603d5343f005d2021-03-05 21:48:22soilmoisture82percent
8157bbbba929e5d1f190e42603d5343f005d2021-03-05 21:48:22dht11temp21degree
8158bbbba929e5d1f190e42603d5343f005d2021-03-05 21:48:23dht11humidity63percent
8159bbbba929e5d1f190e42603d5343f005d2021-03-05 21:53:25soilmoisture82percent
8160bbbba929e5d1f190e42603d5343f005d2021-03-05 21:53:25dht11temp20.9degree
8161bbbba929e5d1f190e42603d5343f005d2021-03-05 21:53:25dht11humidity61percent
8162bbbba929e5d1f190e42603d5343f005d2021-03-05 21:58:27soilmoisture82percent
8163bbbba929e5d1f190e42603d5343f005d2021-03-05 21:58:27dht11temp20.9degree
8164bbbba929e5d1f190e42603d5343f005d2021-03-05 21:58:28dht11humidity60percent
8165bbbba929e5d1f190e42603d5343f005d2021-03-05 22:03:30soilmoisture82percent
8166bbbba929e5d1f190e42603d5343f005d2021-03-05 22:03:30dht11temp20.9degree
8167bbbba929e5d1f190e42603d5343f005d2021-03-05 22:03:30dht11humidity60percent
8168bbbba929e5d1f190e42603d5343f005d2021-03-05 22:08:32soilmoisture82percent
8169bbbba929e5d1f190e42603d5343f005d2021-03-05 22:08:32dht11temp20.9degree
8170bbbba929e5d1f190e42603d5343f005d2021-03-05 22:08:33dht11humidity60percent
8171bbbba929e5d1f190e42603d5343f005d2021-03-05 22:13:34soilmoisture82percent
8172bbbba929e5d1f190e42603d5343f005d2021-03-05 22:13:35dht11temp20.9degree
8173bbbba929e5d1f190e42603d5343f005d2021-03-05 22:13:35dht11humidity60percent
8174bbbba929e5d1f190e42603d5343f005d2021-03-05 22:18:37soilmoisture82percent
8175bbbba929e5d1f190e42603d5343f005d2021-03-05 22:18:37dht11temp20.9degree
8176bbbba929e5d1f190e42603d5343f005d2021-03-05 22:18:37dht11humidity60percent
8177bbbba929e5d1f190e42603d5343f005d2021-03-05 22:23:39soilmoisture82percent
8178bbbba929e5d1f190e42603d5343f005d2021-03-05 22:23:39dht11temp20.9degree
8179bbbba929e5d1f190e42603d5343f005d2021-03-05 22:23:39dht11humidity60percent
8180bbbba929e5d1f190e42603d5343f005d2021-03-05 22:28:41soilmoisture82percent
8181bbbba929e5d1f190e42603d5343f005d2021-03-05 22:28:42dht11temp20.9degree
8182bbbba929e5d1f190e42603d5343f005d2021-03-05 22:28:42dht11humidity59percent
8183bbbba929e5d1f190e42603d5343f005d2021-03-05 22:33:44soilmoisture82percent
8184bbbba929e5d1f190e42603d5343f005d2021-03-05 22:33:44dht11temp20.9degree
8185bbbba929e5d1f190e42603d5343f005d2021-03-05 22:33:44dht11humidity60percent
8186bbbba929e5d1f190e42603d5343f005d2021-03-05 22:38:46soilmoisture82percent
8187bbbba929e5d1f190e42603d5343f005d2021-03-05 22:38:46dht11temp20.8degree
8188bbbba929e5d1f190e42603d5343f005d2021-03-05 22:38:46dht11humidity59percent
8189bbbba929e5d1f190e42603d5343f005d2021-03-05 22:43:48soilmoisture82percent
8190bbbba929e5d1f190e42603d5343f005d2021-03-05 22:43:48dht11temp20.9degree
8191bbbba929e5d1f190e42603d5343f005d2021-03-05 22:43:49dht11humidity60percent
8192bbbba929e5d1f190e42603d5343f005d2021-03-05 22:48:50soilmoisture82percent
8193bbbba929e5d1f190e42603d5343f005d2021-03-05 22:48:51dht11temp20.9degree
8194bbbba929e5d1f190e42603d5343f005d2021-03-05 22:48:51dht11humidity59percent
8195bbbba929e5d1f190e42603d5343f005d2021-03-05 22:53:53soilmoisture82percent
8196bbbba929e5d1f190e42603d5343f005d2021-03-05 22:53:53dht11temp20.9degree
8197bbbba929e5d1f190e42603d5343f005d2021-03-05 22:53:53dht11humidity61percent
8198bbbba929e5d1f190e42603d5343f005d2021-03-05 22:58:55soilmoisture82percent
8199bbbba929e5d1f190e42603d5343f005d2021-03-05 22:58:56dht11temp20.8degree
8200bbbba929e5d1f190e42603d5343f005d2021-03-05 22:58:56dht11humidity61percent
8201bbbba929e5d1f190e42603d5343f005d2021-03-05 23:03:58soilmoisture82percent
8202bbbba929e5d1f190e42603d5343f005d2021-03-05 23:03:58dht11temp20.8degree
8203bbbba929e5d1f190e42603d5343f005d2021-03-05 23:03:58dht11humidity60percent
8204bbbba929e5d1f190e42603d5343f005d2021-03-05 23:09:00soilmoisture82percent
8205bbbba929e5d1f190e42603d5343f005d2021-03-05 23:09:00dht11temp20.8degree
8206bbbba929e5d1f190e42603d5343f005d2021-03-05 23:09:00dht11humidity60percent
8207bbbba929e5d1f190e42603d5343f005d2021-03-05 23:14:02soilmoisture82percent
8208bbbba929e5d1f190e42603d5343f005d2021-03-05 23:14:03dht11temp20.8degree
8209bbbba929e5d1f190e42603d5343f005d2021-03-05 23:14:03dht11humidity60percent
8210bbbba929e5d1f190e42603d5343f005d2021-03-05 23:19:05soilmoisture82percent
8211bbbba929e5d1f190e42603d5343f005d2021-03-05 23:19:05dht11temp20.8degree
8212bbbba929e5d1f190e42603d5343f005d2021-03-05 23:19:05dht11humidity61percent
8213bbbba929e5d1f190e42603d5343f005d2021-03-05 23:24:07soilmoisture82percent
8214bbbba929e5d1f190e42603d5343f005d2021-03-05 23:24:07dht11temp20.7degree
8215bbbba929e5d1f190e42603d5343f005d2021-03-05 23:24:07dht11humidity60percent
8216bbbba929e5d1f190e42603d5343f005d2021-03-05 23:29:09soilmoisture82percent
8217bbbba929e5d1f190e42603d5343f005d2021-03-05 23:29:10dht11temp20.7degree
8218bbbba929e5d1f190e42603d5343f005d2021-03-05 23:29:10dht11humidity62percent
8219bbbba929e5d1f190e42603d5343f005d2021-03-05 23:34:12soilmoisture82percent
8220bbbba929e5d1f190e42603d5343f005d2021-03-05 23:34:12dht11temp20.7degree
8221bbbba929e5d1f190e42603d5343f005d2021-03-05 23:34:13dht11humidity60percent
8222bbbba929e5d1f190e42603d5343f005d2021-03-05 23:39:14soilmoisture82percent
8223bbbba929e5d1f190e42603d5343f005d2021-03-05 23:39:15dht11temp20.7degree
8224bbbba929e5d1f190e42603d5343f005d2021-03-05 23:39:15dht11humidity60percent
8225bbbba929e5d1f190e42603d5343f005d2021-03-05 23:44:17soilmoisture82percent
8226bbbba929e5d1f190e42603d5343f005d2021-03-05 23:44:17dht11temp20.7degree
8227bbbba929e5d1f190e42603d5343f005d2021-03-05 23:44:17dht11humidity61percent
8228bbbba929e5d1f190e42603d5343f005d2021-03-05 23:49:19soilmoisture82percent
8229bbbba929e5d1f190e42603d5343f005d2021-03-05 23:49:20dht11temp20.7degree
8230bbbba929e5d1f190e42603d5343f005d2021-03-05 23:49:20dht11humidity60percent
8231bbbba929e5d1f190e42603d5343f005d2021-03-05 23:54:22soilmoisture82percent
8232bbbba929e5d1f190e42603d5343f005d2021-03-05 23:54:22dht11temp20.7degree
8233bbbba929e5d1f190e42603d5343f005d2021-03-05 23:54:22dht11humidity60percent
8234bbbba929e5d1f190e42603d5343f005d2021-03-05 23:59:24soilmoisture82percent
8235bbbba929e5d1f190e42603d5343f005d2021-03-05 23:59:24dht11temp20.7degree
8236bbbba929e5d1f190e42603d5343f005d2021-03-05 23:59:25dht11humidity60percent
8237bbbba929e5d1f190e42603d5343f005d2021-03-06 00:04:26soilmoisture82percent
8238bbbba929e5d1f190e42603d5343f005d2021-03-06 00:04:26dht11temp20.6degree
8239bbbba929e5d1f190e42603d5343f005d2021-03-06 00:04:27dht11humidity60percent
8240bbbba929e5d1f190e42603d5343f005d2021-03-06 00:09:28soilmoisture82percent
8241bbbba929e5d1f190e42603d5343f005d2021-03-06 00:09:29dht11temp20.6degree
8242bbbba929e5d1f190e42603d5343f005d2021-03-06 00:09:29dht11humidity59percent
8243bbbba929e5d1f190e42603d5343f005d2021-03-06 00:14:31soilmoisture82percent
8244bbbba929e5d1f190e42603d5343f005d2021-03-06 00:14:31dht11temp20.5degree
8245bbbba929e5d1f190e42603d5343f005d2021-03-06 00:14:31dht11humidity61percent
8246bbbba929e5d1f190e42603d5343f005d2021-03-06 00:19:33soilmoisture82percent
8247bbbba929e5d1f190e42603d5343f005d2021-03-06 00:19:33dht11temp20.4degree
8248bbbba929e5d1f190e42603d5343f005d2021-03-06 00:19:34dht11humidity62percent
8249bbbba929e5d1f190e42603d5343f005d2021-03-06 00:24:36soilmoisture82percent
8250bbbba929e5d1f190e42603d5343f005d2021-03-06 00:24:36dht11temp20.3degree
8251bbbba929e5d1f190e42603d5343f005d2021-03-06 00:24:36dht11humidity61percent
8252bbbba929e5d1f190e42603d5343f005d2021-03-06 00:29:38soilmoisture82percent
8253bbbba929e5d1f190e42603d5343f005d2021-03-06 00:29:39dht11temp20.3degree
8254bbbba929e5d1f190e42603d5343f005d2021-03-06 00:29:39dht11humidity61percent
8255bbbba929e5d1f190e42603d5343f005d2021-03-06 00:34:41soilmoisture82percent
8256bbbba929e5d1f190e42603d5343f005d2021-03-06 00:34:41dht11temp20.2degree
8257bbbba929e5d1f190e42603d5343f005d2021-03-06 00:34:41dht11humidity63percent
8258bbbba929e5d1f190e42603d5343f005d2021-03-06 00:39:43soilmoisture82percent
8259bbbba929e5d1f190e42603d5343f005d2021-03-06 00:39:43dht11temp20.2degree
8260bbbba929e5d1f190e42603d5343f005d2021-03-06 00:39:44dht11humidity61percent
8261bbbba929e5d1f190e42603d5343f005d2021-03-06 00:44:46soilmoisture82percent
8262bbbba929e5d1f190e42603d5343f005d2021-03-06 00:44:46dht11temp20.1degree
8263bbbba929e5d1f190e42603d5343f005d2021-03-06 00:44:46dht11humidity61percent
8264bbbba929e5d1f190e42603d5343f005d2021-03-06 00:49:48soilmoisture82percent
8265bbbba929e5d1f190e42603d5343f005d2021-03-06 00:49:48dht11temp20.1degree
8266bbbba929e5d1f190e42603d5343f005d2021-03-06 00:49:49dht11humidity62percent
8267bbbba929e5d1f190e42603d5343f005d2021-03-06 00:54:50soilmoisture82percent
8268bbbba929e5d1f190e42603d5343f005d2021-03-06 00:54:51dht11temp20degree
8269bbbba929e5d1f190e42603d5343f005d2021-03-06 00:54:51dht11humidity61percent
8270bbbba929e5d1f190e42603d5343f005d2021-03-06 00:59:53soilmoisture82percent
8271bbbba929e5d1f190e42603d5343f005d2021-03-06 00:59:54dht11temp20degree
8272bbbba929e5d1f190e42603d5343f005d2021-03-06 00:59:54dht11humidity64percent
8273bbbba929e5d1f190e42603d5343f005d2021-03-06 01:04:56soilmoisture82percent
8274bbbba929e5d1f190e42603d5343f005d2021-03-06 01:04:56dht11temp20degree
8275bbbba929e5d1f190e42603d5343f005d2021-03-06 01:04:56dht11humidity62percent
8276bbbba929e5d1f190e42603d5343f005d2021-03-06 01:09:58soilmoisture82percent
8277bbbba929e5d1f190e42603d5343f005d2021-03-06 01:09:58dht11temp20degree
8278bbbba929e5d1f190e42603d5343f005d2021-03-06 01:09:59dht11humidity60percent
8279bbbba929e5d1f190e42603d5343f005d2021-03-06 01:15:00soilmoisture82percent
8280bbbba929e5d1f190e42603d5343f005d2021-03-06 01:15:01dht11temp20.1degree
8281bbbba929e5d1f190e42603d5343f005d2021-03-06 01:15:01dht11humidity62percent
8282bbbba929e5d1f190e42603d5343f005d2021-03-06 01:20:03soilmoisture82percent
8283bbbba929e5d1f190e42603d5343f005d2021-03-06 01:20:03dht11temp20degree
8284bbbba929e5d1f190e42603d5343f005d2021-03-06 01:20:03dht11humidity63percent
8285bbbba929e5d1f190e42603d5343f005d2021-03-06 01:25:05soilmoisture82percent
8286bbbba929e5d1f190e42603d5343f005d2021-03-06 01:25:06dht11temp19.9degree
8287bbbba929e5d1f190e42603d5343f005d2021-03-06 01:25:06dht11humidity63percent
8288bbbba929e5d1f190e42603d5343f005d2021-03-06 01:30:08soilmoisture82percent
8289bbbba929e5d1f190e42603d5343f005d2021-03-06 01:30:08dht11temp19.8degree
8290bbbba929e5d1f190e42603d5343f005d2021-03-06 01:30:09dht11humidity63percent
8291bbbba929e5d1f190e42603d5343f005d2021-03-06 01:35:10soilmoisture82percent
8292bbbba929e5d1f190e42603d5343f005d2021-03-06 01:35:11dht11temp19.8degree
8293bbbba929e5d1f190e42603d5343f005d2021-03-06 01:35:11dht11humidity63percent
8294bbbba929e5d1f190e42603d5343f005d2021-03-06 01:40:13soilmoisture82percent
8295bbbba929e5d1f190e42603d5343f005d2021-03-06 01:40:13dht11temp19.8degree
8296bbbba929e5d1f190e42603d5343f005d2021-03-06 01:40:13dht11humidity63percent
8297bbbba929e5d1f190e42603d5343f005d2021-03-06 01:45:15soilmoisture82percent
8298bbbba929e5d1f190e42603d5343f005d2021-03-06 01:45:15dht11temp19.8degree
8299bbbba929e5d1f190e42603d5343f005d2021-03-06 01:45:16dht11humidity64percent
8300bbbba929e5d1f190e42603d5343f005d2021-03-06 01:50:17soilmoisture82percent
8301bbbba929e5d1f190e42603d5343f005d2021-03-06 01:50:18dht11temp19.7degree
8302bbbba929e5d1f190e42603d5343f005d2021-03-06 01:50:18dht11humidity63percent
8303bbbba929e5d1f190e42603d5343f005d2021-03-06 01:55:20soilmoisture82percent
8304bbbba929e5d1f190e42603d5343f005d2021-03-06 01:55:20dht11temp19.7degree
8305bbbba929e5d1f190e42603d5343f005d2021-03-06 01:55:20dht11humidity65percent
8306bbbba929e5d1f190e42603d5343f005d2021-03-06 02:00:22soilmoisture82percent
8307bbbba929e5d1f190e42603d5343f005d2021-03-06 02:00:23dht11temp19.7degree
8308bbbba929e5d1f190e42603d5343f005d2021-03-06 02:00:23dht11humidity64percent
8309bbbba929e5d1f190e42603d5343f005d2021-03-06 02:05:25soilmoisture82percent
8310bbbba929e5d1f190e42603d5343f005d2021-03-06 02:05:25dht11temp19.7degree
8311bbbba929e5d1f190e42603d5343f005d2021-03-06 02:05:25dht11humidity63percent
8312bbbba929e5d1f190e42603d5343f005d2021-03-06 02:10:27soilmoisture82percent
8313bbbba929e5d1f190e42603d5343f005d2021-03-06 02:10:27dht11temp19.7degree
8314bbbba929e5d1f190e42603d5343f005d2021-03-06 02:10:28dht11humidity62percent
8315bbbba929e5d1f190e42603d5343f005d2021-03-06 02:15:29soilmoisture82percent
8316bbbba929e5d1f190e42603d5343f005d2021-03-06 02:15:30dht11temp19.6degree
8317bbbba929e5d1f190e42603d5343f005d2021-03-06 02:15:30dht11humidity63percent
8318bbbba929e5d1f190e42603d5343f005d2021-03-06 02:20:32soilmoisture82percent
8319bbbba929e5d1f190e42603d5343f005d2021-03-06 02:20:32dht11temp19.6degree
8320bbbba929e5d1f190e42603d5343f005d2021-03-06 02:20:32dht11humidity63percent
8321bbbba929e5d1f190e42603d5343f005d2021-03-06 02:25:34soilmoisture82percent
8322bbbba929e5d1f190e42603d5343f005d2021-03-06 02:25:34dht11temp19.6degree
8323bbbba929e5d1f190e42603d5343f005d2021-03-06 02:25:34dht11humidity62percent
8324bbbba929e5d1f190e42603d5343f005d2021-03-06 02:30:36soilmoisture82percent
8325bbbba929e5d1f190e42603d5343f005d2021-03-06 02:30:36dht11temp19.6degree
8326bbbba929e5d1f190e42603d5343f005d2021-03-06 02:30:37dht11humidity63percent
8327bbbba929e5d1f190e42603d5343f005d2021-03-06 02:35:39soilmoisture82percent
8328bbbba929e5d1f190e42603d5343f005d2021-03-06 02:35:39dht11temp19.6degree
8329bbbba929e5d1f190e42603d5343f005d2021-03-06 02:35:39dht11humidity63percent
8330bbbba929e5d1f190e42603d5343f005d2021-03-06 02:40:41soilmoisture82percent
8331bbbba929e5d1f190e42603d5343f005d2021-03-06 02:40:41dht11temp19.6degree
8332bbbba929e5d1f190e42603d5343f005d2021-03-06 02:40:41dht11humidity62percent
8333bbbba929e5d1f190e42603d5343f005d2021-03-06 02:45:43soilmoisture82percent
8334bbbba929e5d1f190e42603d5343f005d2021-03-06 02:45:43dht11temp19.5degree
8335bbbba929e5d1f190e42603d5343f005d2021-03-06 02:45:44dht11humidity62percent
8336bbbba929e5d1f190e42603d5343f005d2021-03-06 02:50:46soilmoisture82percent
8337bbbba929e5d1f190e42603d5343f005d2021-03-06 02:50:46dht11temp19.5degree
8338bbbba929e5d1f190e42603d5343f005d2021-03-06 02:50:46dht11humidity61percent
8339bbbba929e5d1f190e42603d5343f005d2021-03-06 02:55:48soilmoisture82percent
8340bbbba929e5d1f190e42603d5343f005d2021-03-06 02:55:48dht11temp19.5degree
8341bbbba929e5d1f190e42603d5343f005d2021-03-06 02:55:48dht11humidity62percent
8342bbbba929e5d1f190e42603d5343f005d2021-03-06 03:00:50soilmoisture82percent
8343bbbba929e5d1f190e42603d5343f005d2021-03-06 03:00:50dht11temp19.4degree
8344bbbba929e5d1f190e42603d5343f005d2021-03-06 03:00:51dht11humidity62percent
8345bbbba929e5d1f190e42603d5343f005d2021-03-06 03:05:53soilmoisture82percent
8346bbbba929e5d1f190e42603d5343f005d2021-03-06 03:05:53dht11temp19.4degree
8347bbbba929e5d1f190e42603d5343f005d2021-03-06 03:05:53dht11humidity64percent
8348bbbba929e5d1f190e42603d5343f005d2021-03-06 03:10:55soilmoisture82percent
8349bbbba929e5d1f190e42603d5343f005d2021-03-06 03:10:55dht11temp19.4degree
8350bbbba929e5d1f190e42603d5343f005d2021-03-06 03:10:55dht11humidity63percent
8351bbbba929e5d1f190e42603d5343f005d2021-03-06 03:15:57soilmoisture82percent
8352bbbba929e5d1f190e42603d5343f005d2021-03-06 03:15:57dht11temp19.4degree
8353bbbba929e5d1f190e42603d5343f005d2021-03-06 03:15:58dht11humidity62percent
8354bbbba929e5d1f190e42603d5343f005d2021-03-06 03:21:00soilmoisture82percent
8355bbbba929e5d1f190e42603d5343f005d2021-03-06 03:21:00dht11temp19.4degree
8356bbbba929e5d1f190e42603d5343f005d2021-03-06 03:21:00dht11humidity62percent
8357bbbba929e5d1f190e42603d5343f005d2021-03-06 03:26:02soilmoisture82percent
8358bbbba929e5d1f190e42603d5343f005d2021-03-06 03:26:02dht11temp19.4degree
8359bbbba929e5d1f190e42603d5343f005d2021-03-06 03:26:02dht11humidity62percent
8360bbbba929e5d1f190e42603d5343f005d2021-03-06 03:31:04soilmoisture82percent
8361bbbba929e5d1f190e42603d5343f005d2021-03-06 03:31:05dht11temp19.4degree
8362bbbba929e5d1f190e42603d5343f005d2021-03-06 03:31:05dht11humidity62percent
8363bbbba929e5d1f190e42603d5343f005d2021-03-06 03:36:07soilmoisture82percent
8364bbbba929e5d1f190e42603d5343f005d2021-03-06 03:36:07dht11temp19.4degree
8365bbbba929e5d1f190e42603d5343f005d2021-03-06 03:36:07dht11humidity62percent
8366bbbba929e5d1f190e42603d5343f005d2021-03-06 03:41:09soilmoisture82percent
8367bbbba929e5d1f190e42603d5343f005d2021-03-06 03:41:09dht11temp19.4degree
8368bbbba929e5d1f190e42603d5343f005d2021-03-06 03:41:10dht11humidity62percent
8369bbbba929e5d1f190e42603d5343f005d2021-03-06 03:46:11soilmoisture82percent
8370bbbba929e5d1f190e42603d5343f005d2021-03-06 03:46:12dht11temp19.3degree
8371bbbba929e5d1f190e42603d5343f005d2021-03-06 03:46:12dht11humidity62percent
8372bbbba929e5d1f190e42603d5343f005d2021-03-06 03:51:14soilmoisture82percent
8373bbbba929e5d1f190e42603d5343f005d2021-03-06 03:51:14dht11temp19.3degree
8374bbbba929e5d1f190e42603d5343f005d2021-03-06 03:51:14dht11humidity62percent
8375bbbba929e5d1f190e42603d5343f005d2021-03-06 03:56:16soilmoisture82percent
8376bbbba929e5d1f190e42603d5343f005d2021-03-06 03:56:16dht11temp19.3degree
8377bbbba929e5d1f190e42603d5343f005d2021-03-06 03:56:16dht11humidity63percent
8378bbbba929e5d1f190e42603d5343f005d2021-03-06 04:01:18soilmoisture82percent
8379bbbba929e5d1f190e42603d5343f005d2021-03-06 04:01:19dht11temp19.3degree
8380bbbba929e5d1f190e42603d5343f005d2021-03-06 04:01:19dht11humidity63percent
8381bbbba929e5d1f190e42603d5343f005d2021-03-06 04:06:21soilmoisture82percent
8382bbbba929e5d1f190e42603d5343f005d2021-03-06 04:06:21dht11temp19.3degree
8383bbbba929e5d1f190e42603d5343f005d2021-03-06 04:06:21dht11humidity62percent
8384bbbba929e5d1f190e42603d5343f005d2021-03-06 04:11:24soilmoisture82percent
8385bbbba929e5d1f190e42603d5343f005d2021-03-06 04:11:24dht11temp19.3degree
8386bbbba929e5d1f190e42603d5343f005d2021-03-06 04:11:25dht11humidity62percent
8387bbbba929e5d1f190e42603d5343f005d2021-03-06 04:16:26soilmoisture82percent
8388bbbba929e5d1f190e42603d5343f005d2021-03-06 04:16:27dht11temp19.3degree
8389bbbba929e5d1f190e42603d5343f005d2021-03-06 04:16:27dht11humidity62percent
8390bbbba929e5d1f190e42603d5343f005d2021-03-06 04:21:29soilmoisture82percent
8391bbbba929e5d1f190e42603d5343f005d2021-03-06 04:21:29dht11temp19.3degree
8392bbbba929e5d1f190e42603d5343f005d2021-03-06 04:21:30dht11humidity62percent
8393bbbba929e5d1f190e42603d5343f005d2021-03-06 04:26:31soilmoisture82percent
8394bbbba929e5d1f190e42603d5343f005d2021-03-06 04:26:32dht11temp19.2degree
8395bbbba929e5d1f190e42603d5343f005d2021-03-06 04:26:32dht11humidity62percent
8396bbbba929e5d1f190e42603d5343f005d2021-03-06 04:31:34soilmoisture82percent
8397bbbba929e5d1f190e42603d5343f005d2021-03-06 04:31:34dht11temp19.2degree
8398bbbba929e5d1f190e42603d5343f005d2021-03-06 04:31:34dht11humidity63percent
8399bbbba929e5d1f190e42603d5343f005d2021-03-06 04:36:36soilmoisture82percent
8400bbbba929e5d1f190e42603d5343f005d2021-03-06 04:36:36dht11temp19.2degree
8401bbbba929e5d1f190e42603d5343f005d2021-03-06 04:36:37dht11humidity62percent
8402bbbba929e5d1f190e42603d5343f005d2021-03-06 04:41:38soilmoisture82percent
8403bbbba929e5d1f190e42603d5343f005d2021-03-06 04:41:39dht11temp19.2degree
8404bbbba929e5d1f190e42603d5343f005d2021-03-06 04:41:39dht11humidity62percent
8405bbbba929e5d1f190e42603d5343f005d2021-03-06 04:46:41soilmoisture82percent
8406bbbba929e5d1f190e42603d5343f005d2021-03-06 04:46:41dht11temp19.2degree
8407bbbba929e5d1f190e42603d5343f005d2021-03-06 04:46:41dht11humidity62percent
8408bbbba929e5d1f190e42603d5343f005d2021-03-06 04:51:43soilmoisture82percent
8409bbbba929e5d1f190e42603d5343f005d2021-03-06 04:51:43dht11temp19.2degree
8410bbbba929e5d1f190e42603d5343f005d2021-03-06 04:51:44dht11humidity62percent
8411bbbba929e5d1f190e42603d5343f005d2021-03-06 04:56:45soilmoisture82percent
8412bbbba929e5d1f190e42603d5343f005d2021-03-06 04:56:46dht11temp19.2degree
8413bbbba929e5d1f190e42603d5343f005d2021-03-06 04:56:46dht11humidity61percent
8414bbbba929e5d1f190e42603d5343f005d2021-03-06 05:01:48soilmoisture82percent
8415bbbba929e5d1f190e42603d5343f005d2021-03-06 05:01:48dht11temp19.1degree
8416bbbba929e5d1f190e42603d5343f005d2021-03-06 05:01:49dht11humidity62percent
8417bbbba929e5d1f190e42603d5343f005d2021-03-06 05:06:50soilmoisture82percent
8418bbbba929e5d1f190e42603d5343f005d2021-03-06 05:06:51dht11temp19.1degree
8419bbbba929e5d1f190e42603d5343f005d2021-03-06 05:06:51dht11humidity61percent
8420bbbba929e5d1f190e42603d5343f005d2021-03-06 05:11:53soilmoisture82percent
8421bbbba929e5d1f190e42603d5343f005d2021-03-06 05:11:53dht11temp19.1degree
8422bbbba929e5d1f190e42603d5343f005d2021-03-06 05:11:53dht11humidity63percent
8423bbbba929e5d1f190e42603d5343f005d2021-03-06 05:16:55soilmoisture82percent
8424bbbba929e5d1f190e42603d5343f005d2021-03-06 05:16:55dht11temp19.1degree
8425bbbba929e5d1f190e42603d5343f005d2021-03-06 05:16:55dht11humidity62percent
8426bbbba929e5d1f190e42603d5343f005d2021-03-06 05:21:57soilmoisture82percent
8427bbbba929e5d1f190e42603d5343f005d2021-03-06 05:21:57dht11temp19.1degree
8428bbbba929e5d1f190e42603d5343f005d2021-03-06 05:21:58dht11humidity61percent
8429bbbba929e5d1f190e42603d5343f005d2021-03-06 05:26:59soilmoisture82percent
8430bbbba929e5d1f190e42603d5343f005d2021-03-06 05:27:00dht11temp19.1degree
8431bbbba929e5d1f190e42603d5343f005d2021-03-06 05:27:00dht11humidity62percent
8432bbbba929e5d1f190e42603d5343f005d2021-03-06 05:32:02soilmoisture82percent
8433bbbba929e5d1f190e42603d5343f005d2021-03-06 05:32:02dht11temp19.1degree
8434bbbba929e5d1f190e42603d5343f005d2021-03-06 05:32:02dht11humidity62percent
8435bbbba929e5d1f190e42603d5343f005d2021-03-06 05:37:04soilmoisture82percent
8436bbbba929e5d1f190e42603d5343f005d2021-03-06 05:37:04dht11temp19degree
8437bbbba929e5d1f190e42603d5343f005d2021-03-06 05:37:05dht11humidity62percent
8438bbbba929e5d1f190e42603d5343f005d2021-03-06 05:42:07soilmoisture82percent
8439bbbba929e5d1f190e42603d5343f005d2021-03-06 05:42:07dht11temp19degree
8440bbbba929e5d1f190e42603d5343f005d2021-03-06 05:42:07dht11humidity62percent
8441bbbba929e5d1f190e42603d5343f005d2021-03-06 05:47:09soilmoisture82percent
8442bbbba929e5d1f190e42603d5343f005d2021-03-06 05:47:09dht11temp19degree
8443bbbba929e5d1f190e42603d5343f005d2021-03-06 05:47:10dht11humidity61percent
8444bbbba929e5d1f190e42603d5343f005d2021-03-06 05:52:11soilmoisture82percent
8445bbbba929e5d1f190e42603d5343f005d2021-03-06 05:52:12dht11temp19degree
8446bbbba929e5d1f190e42603d5343f005d2021-03-06 05:52:12dht11humidity61percent
8447bbbba929e5d1f190e42603d5343f005d2021-03-06 05:57:14soilmoisture82percent
8448bbbba929e5d1f190e42603d5343f005d2021-03-06 05:57:14dht11temp19degree
8449bbbba929e5d1f190e42603d5343f005d2021-03-06 05:57:14dht11humidity61percent
8450bbbba929e5d1f190e42603d5343f005d2021-03-06 06:02:15soilmoisture82percent
8451bbbba929e5d1f190e42603d5343f005d2021-03-06 06:02:16dht11temp19degree
8452bbbba929e5d1f190e42603d5343f005d2021-03-06 06:02:16dht11humidity62percent
8453bbbba929e5d1f190e42603d5343f005d2021-03-06 06:07:18soilmoisture82percent
8454bbbba929e5d1f190e42603d5343f005d2021-03-06 06:07:18dht11temp19degree
8455bbbba929e5d1f190e42603d5343f005d2021-03-06 06:07:18dht11humidity62percent
8456bbbba929e5d1f190e42603d5343f005d2021-03-06 06:12:20soilmoisture82percent
8457bbbba929e5d1f190e42603d5343f005d2021-03-06 06:12:20dht11temp18.9degree
8458bbbba929e5d1f190e42603d5343f005d2021-03-06 06:12:21dht11humidity62percent
8459bbbba929e5d1f190e42603d5343f005d2021-03-06 06:17:23soilmoisture82percent
8460bbbba929e5d1f190e42603d5343f005d2021-03-06 06:17:23dht11temp18.9degree
8461bbbba929e5d1f190e42603d5343f005d2021-03-06 06:17:23dht11humidity63percent
8462bbbba929e5d1f190e42603d5343f005d2021-03-06 06:22:25soilmoisture82percent
8463bbbba929e5d1f190e42603d5343f005d2021-03-06 06:22:25dht11temp19degree
8464bbbba929e5d1f190e42603d5343f005d2021-03-06 06:22:26dht11humidity61percent
8465bbbba929e5d1f190e42603d5343f005d2021-03-06 06:27:27soilmoisture82percent
8466bbbba929e5d1f190e42603d5343f005d2021-03-06 06:27:28dht11temp19degree
8467bbbba929e5d1f190e42603d5343f005d2021-03-06 06:27:28dht11humidity62percent
8468bbbba929e5d1f190e42603d5343f005d2021-03-06 06:32:30soilmoisture82percent
8469bbbba929e5d1f190e42603d5343f005d2021-03-06 06:32:30dht11temp19.1degree
8470bbbba929e5d1f190e42603d5343f005d2021-03-06 06:32:30dht11humidity61percent
8471bbbba929e5d1f190e42603d5343f005d2021-03-06 06:37:32soilmoisture82percent
8472bbbba929e5d1f190e42603d5343f005d2021-03-06 06:37:32dht11temp19.2degree
8473bbbba929e5d1f190e42603d5343f005d2021-03-06 06:37:33dht11humidity59percent
8474bbbba929e5d1f190e42603d5343f005d2021-03-06 06:42:35soilmoisture82percent
8475bbbba929e5d1f190e42603d5343f005d2021-03-06 06:42:35dht11temp19.2degree
8476bbbba929e5d1f190e42603d5343f005d2021-03-06 06:42:35dht11humidity60percent
8477bbbba929e5d1f190e42603d5343f005d2021-03-06 06:47:37soilmoisture82percent
8478bbbba929e5d1f190e42603d5343f005d2021-03-06 06:47:37dht11temp19.3degree
8479bbbba929e5d1f190e42603d5343f005d2021-03-06 06:47:38dht11humidity58percent
8480bbbba929e5d1f190e42603d5343f005d2021-03-06 06:52:39soilmoisture82percent
8481bbbba929e5d1f190e42603d5343f005d2021-03-06 06:52:40dht11temp19.3degree
8482bbbba929e5d1f190e42603d5343f005d2021-03-06 06:52:40dht11humidity57percent
8483bbbba929e5d1f190e42603d5343f005d2021-03-06 06:57:42soilmoisture82percent
8484bbbba929e5d1f190e42603d5343f005d2021-03-06 06:57:42dht11temp19.4degree
8485bbbba929e5d1f190e42603d5343f005d2021-03-06 06:57:42dht11humidity58percent
8486bbbba929e5d1f190e42603d5343f005d2021-03-06 07:02:44soilmoisture82percent
8487bbbba929e5d1f190e42603d5343f005d2021-03-06 07:02:44dht11temp19.5degree
8488bbbba929e5d1f190e42603d5343f005d2021-03-06 07:02:45dht11humidity57percent
8489bbbba929e5d1f190e42603d5343f005d2021-03-06 07:07:46soilmoisture82percent
8490bbbba929e5d1f190e42603d5343f005d2021-03-06 07:07:47dht11temp19.5degree
8491bbbba929e5d1f190e42603d5343f005d2021-03-06 07:07:47dht11humidity58percent
8492bbbba929e5d1f190e42603d5343f005d2021-03-06 07:12:49soilmoisture82percent
8493bbbba929e5d1f190e42603d5343f005d2021-03-06 07:12:49dht11temp19.5degree
8494bbbba929e5d1f190e42603d5343f005d2021-03-06 07:12:49dht11humidity57percent
8495bbbba929e5d1f190e42603d5343f005d2021-03-06 07:17:51soilmoisture82percent
8496bbbba929e5d1f190e42603d5343f005d2021-03-06 07:17:51dht11temp19.6degree
8497bbbba929e5d1f190e42603d5343f005d2021-03-06 07:17:52dht11humidity57percent
8498bbbba929e5d1f190e42603d5343f005d2021-03-06 07:22:58soilmoisture82percent
8499bbbba929e5d1f190e42603d5343f005d2021-03-06 07:23:00dht11temp19.6degree
8500bbbba929e5d1f190e42603d5343f005d2021-03-06 07:23:00dht11humidity57percent
8501bbbba929e5d1f190e42603d5343f005d2021-03-06 07:28:02soilmoisture82percent
8502bbbba929e5d1f190e42603d5343f005d2021-03-06 07:28:02dht11temp19.5degree
8503bbbba929e5d1f190e42603d5343f005d2021-03-06 07:28:02dht11humidity57percent
8504bbbba929e5d1f190e42603d5343f005d2021-03-06 07:33:04soilmoisture82percent
8505bbbba929e5d1f190e42603d5343f005d2021-03-06 07:33:04dht11temp19.6degree
8506bbbba929e5d1f190e42603d5343f005d2021-03-06 07:33:05dht11humidity57percent
8507bbbba929e5d1f190e42603d5343f005d2021-03-06 07:38:06soilmoisture82percent
8508bbbba929e5d1f190e42603d5343f005d2021-03-06 07:38:07dht11temp19.6degree
8509bbbba929e5d1f190e42603d5343f005d2021-03-06 07:38:07dht11humidity58percent
8510bbbba929e5d1f190e42603d5343f005d2021-03-06 07:43:09soilmoisture82percent
8511bbbba929e5d1f190e42603d5343f005d2021-03-06 07:43:09dht11temp19.6degree
8512bbbba929e5d1f190e42603d5343f005d2021-03-06 07:43:09dht11humidity57percent
8513bbbba929e5d1f190e42603d5343f005d2021-03-06 07:48:11soilmoisture82percent
8514bbbba929e5d1f190e42603d5343f005d2021-03-06 07:48:11dht11temp19.5degree
8515bbbba929e5d1f190e42603d5343f005d2021-03-06 07:48:12dht11humidity59percent
8516bbbba929e5d1f190e42603d5343f005d2021-03-06 07:53:13soilmoisture82percent
8517bbbba929e5d1f190e42603d5343f005d2021-03-06 07:53:14dht11temp19.5degree
8518bbbba929e5d1f190e42603d5343f005d2021-03-06 07:53:14dht11humidity59percent
8519bbbba929e5d1f190e42603d5343f005d2021-03-06 07:58:16soilmoisture82percent
8520bbbba929e5d1f190e42603d5343f005d2021-03-06 07:58:16dht11temp19.6degree
8521bbbba929e5d1f190e42603d5343f005d2021-03-06 07:58:16dht11humidity57percent
8522bbbba929e5d1f190e42603d5343f005d2021-03-06 08:03:18soilmoisture82percent
8523bbbba929e5d1f190e42603d5343f005d2021-03-06 08:03:18dht11temp19.6degree
8524bbbba929e5d1f190e42603d5343f005d2021-03-06 08:03:19dht11humidity59percent
8525bbbba929e5d1f190e42603d5343f005d2021-03-06 08:08:20soilmoisture82percent
8526bbbba929e5d1f190e42603d5343f005d2021-03-06 08:08:21dht11temp19.6degree
8527bbbba929e5d1f190e42603d5343f005d2021-03-06 08:08:21dht11humidity58percent
8528bbbba929e5d1f190e42603d5343f005d2021-03-06 08:13:23soilmoisture82percent
8529bbbba929e5d1f190e42603d5343f005d2021-03-06 08:13:23dht11temp19.5degree
8530bbbba929e5d1f190e42603d5343f005d2021-03-06 08:13:23dht11humidity59percent
8531bbbba929e5d1f190e42603d5343f005d2021-03-06 08:18:25soilmoisture82percent
8532bbbba929e5d1f190e42603d5343f005d2021-03-06 08:18:25dht11temp19.5degree
8533bbbba929e5d1f190e42603d5343f005d2021-03-06 08:18:26dht11humidity58percent
8534bbbba929e5d1f190e42603d5343f005d2021-03-06 08:23:28soilmoisture82percent
8535bbbba929e5d1f190e42603d5343f005d2021-03-06 08:23:28dht11temp19.5degree
8536bbbba929e5d1f190e42603d5343f005d2021-03-06 08:23:28dht11humidity59percent
8537bbbba929e5d1f190e42603d5343f005d2021-03-06 08:28:30soilmoisture82percent
8538bbbba929e5d1f190e42603d5343f005d2021-03-06 08:28:30dht11temp19.5degree
8539bbbba929e5d1f190e42603d5343f005d2021-03-06 08:28:30dht11humidity58percent
8540bbbba929e5d1f190e42603d5343f005d2021-03-06 08:33:32soilmoisture82percent
8541bbbba929e5d1f190e42603d5343f005d2021-03-06 08:33:32dht11temp19.4degree
8542bbbba929e5d1f190e42603d5343f005d2021-03-06 08:33:33dht11humidity60percent
8543bbbba929e5d1f190e42603d5343f005d2021-03-06 08:38:35soilmoisture82percent
8544bbbba929e5d1f190e42603d5343f005d2021-03-06 08:38:35dht11temp19.5degree
8545bbbba929e5d1f190e42603d5343f005d2021-03-06 08:38:35dht11humidity59percent
8546bbbba929e5d1f190e42603d5343f005d2021-03-06 08:43:37soilmoisture82percent
8547bbbba929e5d1f190e42603d5343f005d2021-03-06 08:43:37dht11temp19.6degree
8548bbbba929e5d1f190e42603d5343f005d2021-03-06 08:43:37dht11humidity59percent
8549bbbba929e5d1f190e42603d5343f005d2021-03-06 08:48:39soilmoisture82percent
8550bbbba929e5d1f190e42603d5343f005d2021-03-06 08:48:39dht11temp19.6degree
8551bbbba929e5d1f190e42603d5343f005d2021-03-06 08:48:40dht11humidity59percent
8552bbbba929e5d1f190e42603d5343f005d2021-03-06 08:53:41soilmoisture82percent
8553bbbba929e5d1f190e42603d5343f005d2021-03-06 08:53:42dht11temp19.6degree
8554bbbba929e5d1f190e42603d5343f005d2021-03-06 08:53:42dht11humidity58percent
8555bbbba929e5d1f190e42603d5343f005d2021-03-06 08:58:44soilmoisture82percent
8556bbbba929e5d1f190e42603d5343f005d2021-03-06 08:58:44dht11temp19.7degree
8557bbbba929e5d1f190e42603d5343f005d2021-03-06 08:58:45dht11humidity58percent
8558bbbba929e5d1f190e42603d5343f005d2021-03-06 09:03:46soilmoisture82percent
8559bbbba929e5d1f190e42603d5343f005d2021-03-06 09:03:47dht11temp19.7degree
8560bbbba929e5d1f190e42603d5343f005d2021-03-06 09:03:47dht11humidity57percent
8561bbbba929e5d1f190e42603d5343f005d2021-03-06 09:08:49soilmoisture82percent
8562bbbba929e5d1f190e42603d5343f005d2021-03-06 09:08:49dht11temp19.8degree
8563bbbba929e5d1f190e42603d5343f005d2021-03-06 09:08:49dht11humidity58percent
8564bbbba929e5d1f190e42603d5343f005d2021-03-06 09:13:51soilmoisture82percent
8565bbbba929e5d1f190e42603d5343f005d2021-03-06 09:13:51dht11temp19.8degree
8566bbbba929e5d1f190e42603d5343f005d2021-03-06 09:13:52dht11humidity58percent
8567bbbba929e5d1f190e42603d5343f005d2021-03-06 09:18:53soilmoisture82percent
8568bbbba929e5d1f190e42603d5343f005d2021-03-06 09:18:54dht11temp19.9degree
8569bbbba929e5d1f190e42603d5343f005d2021-03-06 09:18:54dht11humidity57percent
8570bbbba929e5d1f190e42603d5343f005d2021-03-06 09:23:56soilmoisture82percent
8571bbbba929e5d1f190e42603d5343f005d2021-03-06 09:23:56dht11temp19.9degree
8572bbbba929e5d1f190e42603d5343f005d2021-03-06 09:23:56dht11humidity57percent
8573bbbba929e5d1f190e42603d5343f005d2021-03-06 09:28:58soilmoisture82percent
8574bbbba929e5d1f190e42603d5343f005d2021-03-06 09:28:58dht11temp20degree
8575bbbba929e5d1f190e42603d5343f005d2021-03-06 09:28:59dht11humidity57percent
8576bbbba929e5d1f190e42603d5343f005d2021-03-06 09:34:00soilmoisture82percent
8577bbbba929e5d1f190e42603d5343f005d2021-03-06 09:34:01dht11temp20.1degree
8578bbbba929e5d1f190e42603d5343f005d2021-03-06 09:34:01dht11humidity57percent
8579bbbba929e5d1f190e42603d5343f005d2021-03-06 09:39:04soilmoisture82percent
8580bbbba929e5d1f190e42603d5343f005d2021-03-06 09:39:04dht11temp20.1degree
8581bbbba929e5d1f190e42603d5343f005d2021-03-06 09:39:04dht11humidity57percent
8582bbbba929e5d1f190e42603d5343f005d2021-03-06 09:44:06soilmoisture82percent
8583bbbba929e5d1f190e42603d5343f005d2021-03-06 09:44:07dht11temp20.1degree
8584bbbba929e5d1f190e42603d5343f005d2021-03-06 09:44:07dht11humidity56percent
8585bbbba929e5d1f190e42603d5343f005d2021-03-06 09:49:08soilmoisture82percent
8586bbbba929e5d1f190e42603d5343f005d2021-03-06 09:49:09dht11temp20.2degree
8587bbbba929e5d1f190e42603d5343f005d2021-03-06 09:49:09dht11humidity56percent
8588bbbba929e5d1f190e42603d5343f005d2021-03-06 09:54:11soilmoisture82percent
8589bbbba929e5d1f190e42603d5343f005d2021-03-06 09:54:11dht11temp20.2degree
8590bbbba929e5d1f190e42603d5343f005d2021-03-06 09:54:11dht11humidity57percent
8591bbbba929e5d1f190e42603d5343f005d2021-03-06 09:59:13soilmoisture82percent
8592bbbba929e5d1f190e42603d5343f005d2021-03-06 09:59:13dht11temp20.2degree
8593bbbba929e5d1f190e42603d5343f005d2021-03-06 09:59:14dht11humidity56percent
8594bbbba929e5d1f190e42603d5343f005d2021-03-06 10:04:15soilmoisture82percent
8595bbbba929e5d1f190e42603d5343f005d2021-03-06 10:04:16dht11temp20.2degree
8596bbbba929e5d1f190e42603d5343f005d2021-03-06 10:04:16dht11humidity56percent
8597bbbba929e5d1f190e42603d5343f005d2021-03-06 10:09:18soilmoisture81percent
8598bbbba929e5d1f190e42603d5343f005d2021-03-06 10:09:18dht11temp20.2degree
8599bbbba929e5d1f190e42603d5343f005d2021-03-06 10:09:18dht11humidity55percent
8600bbbba929e5d1f190e42603d5343f005d2021-03-06 10:14:20soilmoisture82percent
8601bbbba929e5d1f190e42603d5343f005d2021-03-06 10:14:20dht11temp20.3degree
8602bbbba929e5d1f190e42603d5343f005d2021-03-06 10:14:21dht11humidity56percent
8603bbbba929e5d1f190e42603d5343f005d2021-03-06 10:19:22soilmoisture81percent
8604bbbba929e5d1f190e42603d5343f005d2021-03-06 10:19:23dht11temp20.3degree
8605bbbba929e5d1f190e42603d5343f005d2021-03-06 10:19:23dht11humidity55percent
8606bbbba929e5d1f190e42603d5343f005d2021-03-06 10:24:25soilmoisture82percent
8607bbbba929e5d1f190e42603d5343f005d2021-03-06 10:24:25dht11temp20.3degree
8608bbbba929e5d1f190e42603d5343f005d2021-03-06 10:24:25dht11humidity55percent
8609bbbba929e5d1f190e42603d5343f005d2021-03-06 10:29:27soilmoisture81percent
8610bbbba929e5d1f190e42603d5343f005d2021-03-06 10:29:27dht11temp20.3degree
8611bbbba929e5d1f190e42603d5343f005d2021-03-06 10:29:28dht11humidity55percent
8612bbbba929e5d1f190e42603d5343f005d2021-03-06 10:34:29soilmoisture82percent
8613bbbba929e5d1f190e42603d5343f005d2021-03-06 10:34:30dht11temp20.3degree
8614bbbba929e5d1f190e42603d5343f005d2021-03-06 10:34:30dht11humidity55percent
8615bbbba929e5d1f190e42603d5343f005d2021-03-06 10:39:32soilmoisture81percent
8616bbbba929e5d1f190e42603d5343f005d2021-03-06 10:39:32dht11temp20.3degree
8617bbbba929e5d1f190e42603d5343f005d2021-03-06 10:39:32dht11humidity56percent
8618bbbba929e5d1f190e42603d5343f005d2021-03-06 10:44:34soilmoisture82percent
8619bbbba929e5d1f190e42603d5343f005d2021-03-06 10:44:34dht11temp20.3degree
8620bbbba929e5d1f190e42603d5343f005d2021-03-06 10:44:35dht11humidity55percent
8621bbbba929e5d1f190e42603d5343f005d2021-03-06 10:49:36soilmoisture82percent
8622bbbba929e5d1f190e42603d5343f005d2021-03-06 10:49:36dht11temp20.3degree
8623bbbba929e5d1f190e42603d5343f005d2021-03-06 10:49:37dht11humidity53percent
8624bbbba929e5d1f190e42603d5343f005d2021-03-06 10:54:39soilmoisture82percent
8625bbbba929e5d1f190e42603d5343f005d2021-03-06 10:54:39dht11temp20.3degree
8626bbbba929e5d1f190e42603d5343f005d2021-03-06 10:54:39dht11humidity55percent
8627bbbba929e5d1f190e42603d5343f005d2021-03-06 10:59:41soilmoisture81percent
8628bbbba929e5d1f190e42603d5343f005d2021-03-06 10:59:41dht11temp20.3degree
8629bbbba929e5d1f190e42603d5343f005d2021-03-06 10:59:42dht11humidity54percent
8630bbbba929e5d1f190e42603d5343f005d2021-03-06 11:04:44soilmoisture82percent
8631bbbba929e5d1f190e42603d5343f005d2021-03-06 11:04:44dht11temp20.4degree
8632bbbba929e5d1f190e42603d5343f005d2021-03-06 11:04:44dht11humidity55percent
8633bbbba929e5d1f190e42603d5343f005d2021-03-06 11:09:46soilmoisture81percent
8634bbbba929e5d1f190e42603d5343f005d2021-03-06 11:09:46dht11temp20.4degree
8635bbbba929e5d1f190e42603d5343f005d2021-03-06 11:09:46dht11humidity54percent
8636bbbba929e5d1f190e42603d5343f005d2021-03-06 11:14:48soilmoisture81percent
8637bbbba929e5d1f190e42603d5343f005d2021-03-06 11:14:49dht11temp20.4degree
8638bbbba929e5d1f190e42603d5343f005d2021-03-06 11:14:49dht11humidity55percent
8639bbbba929e5d1f190e42603d5343f005d2021-03-06 11:19:51soilmoisture82percent
8640bbbba929e5d1f190e42603d5343f005d2021-03-06 11:19:51dht11temp20.4degree
8641bbbba929e5d1f190e42603d5343f005d2021-03-06 11:19:51dht11humidity54percent
8642bbbba929e5d1f190e42603d5343f005d2021-03-06 11:24:53soilmoisture81percent
8643bbbba929e5d1f190e42603d5343f005d2021-03-06 11:24:53dht11temp20.4degree
8644bbbba929e5d1f190e42603d5343f005d2021-03-06 11:24:54dht11humidity54percent
8645bbbba929e5d1f190e42603d5343f005d2021-03-06 11:29:55soilmoisture82percent
8646bbbba929e5d1f190e42603d5343f005d2021-03-06 11:29:56dht11temp20.4degree
8647bbbba929e5d1f190e42603d5343f005d2021-03-06 11:29:56dht11humidity55percent
8648bbbba929e5d1f190e42603d5343f005d2021-03-06 11:34:58soilmoisture81percent
8649bbbba929e5d1f190e42603d5343f005d2021-03-06 11:34:58dht11temp20.4degree
8650bbbba929e5d1f190e42603d5343f005d2021-03-06 11:34:58dht11humidity54percent
8651bbbba929e5d1f190e42603d5343f005d2021-03-06 11:40:00soilmoisture81percent
8652bbbba929e5d1f190e42603d5343f005d2021-03-06 11:40:00dht11temp20.4degree
8653bbbba929e5d1f190e42603d5343f005d2021-03-06 11:40:00dht11humidity54percent
8654bbbba929e5d1f190e42603d5343f005d2021-03-06 11:45:02soilmoisture82percent
8655bbbba929e5d1f190e42603d5343f005d2021-03-06 11:45:03dht11temp20.4degree
8656bbbba929e5d1f190e42603d5343f005d2021-03-06 11:45:03dht11humidity54percent
8657bbbba929e5d1f190e42603d5343f005d2021-03-06 11:50:05soilmoisture82percent
8658bbbba929e5d1f190e42603d5343f005d2021-03-06 11:50:06dht11temp20.4degree
8659bbbba929e5d1f190e42603d5343f005d2021-03-06 11:50:06dht11humidity53percent
8660bbbba929e5d1f190e42603d5343f005d2021-03-06 11:55:08soilmoisture82percent
8661bbbba929e5d1f190e42603d5343f005d2021-03-06 11:55:09dht11temp20.1degree
8662bbbba929e5d1f190e42603d5343f005d2021-03-06 11:55:09dht11humidity49percent
8663bbbba929e5d1f190e42603d5343f005d2021-03-06 12:00:12soilmoisture82percent
8664bbbba929e5d1f190e42603d5343f005d2021-03-06 12:00:12dht11temp20.2degree
8665bbbba929e5d1f190e42603d5343f005d2021-03-06 12:00:13dht11humidity48percent
8666bbbba929e5d1f190e42603d5343f005d2021-03-06 12:05:15soilmoisture82percent
8667bbbba929e5d1f190e42603d5343f005d2021-03-06 12:05:15dht11temp20.4degree
8668bbbba929e5d1f190e42603d5343f005d2021-03-06 12:05:16dht11humidity49percent
8669bbbba929e5d1f190e42603d5343f005d2021-03-06 12:10:17soilmoisture81percent
8670bbbba929e5d1f190e42603d5343f005d2021-03-06 12:10:18dht11temp20.5degree
8671bbbba929e5d1f190e42603d5343f005d2021-03-06 12:10:18dht11humidity49percent
8672bbbba929e5d1f190e42603d5343f005d2021-03-06 12:15:20soilmoisture81percent
8673bbbba929e5d1f190e42603d5343f005d2021-03-06 12:15:20dht11temp20.6degree
8674bbbba929e5d1f190e42603d5343f005d2021-03-06 12:15:21dht11humidity50percent
8675bbbba929e5d1f190e42603d5343f005d2021-03-06 12:20:23soilmoisture81percent
8676bbbba929e5d1f190e42603d5343f005d2021-03-06 12:20:23dht11temp20.6degree
8677bbbba929e5d1f190e42603d5343f005d2021-03-06 12:20:23dht11humidity49percent
8678bbbba929e5d1f190e42603d5343f005d2021-03-06 12:25:25soilmoisture81percent
8679bbbba929e5d1f190e42603d5343f005d2021-03-06 12:25:25dht11temp20.7degree
8680bbbba929e5d1f190e42603d5343f005d2021-03-06 12:25:25dht11humidity49percent
8681bbbba929e5d1f190e42603d5343f005d2021-03-06 12:30:27soilmoisture81percent
8682bbbba929e5d1f190e42603d5343f005d2021-03-06 12:30:28dht11temp20.7degree
8683bbbba929e5d1f190e42603d5343f005d2021-03-06 12:30:28dht11humidity50percent
8684bbbba929e5d1f190e42603d5343f005d2021-03-06 12:35:30soilmoisture81percent
8685bbbba929e5d1f190e42603d5343f005d2021-03-06 12:35:30dht11temp20.8degree
8686bbbba929e5d1f190e42603d5343f005d2021-03-06 12:35:30dht11humidity50percent
8687bbbba929e5d1f190e42603d5343f005d2021-03-06 12:40:32soilmoisture81percent
8688bbbba929e5d1f190e42603d5343f005d2021-03-06 12:40:32dht11temp20.8degree
8689bbbba929e5d1f190e42603d5343f005d2021-03-06 12:40:33dht11humidity50percent
8690bbbba929e5d1f190e42603d5343f005d2021-03-06 12:45:34soilmoisture81percent
8691bbbba929e5d1f190e42603d5343f005d2021-03-06 12:45:35dht11temp20.9degree
8692bbbba929e5d1f190e42603d5343f005d2021-03-06 12:45:35dht11humidity50percent
8693bbbba929e5d1f190e42603d5343f005d2021-03-06 12:50:37soilmoisture81percent
8694bbbba929e5d1f190e42603d5343f005d2021-03-06 12:50:37dht11temp21degree
8695bbbba929e5d1f190e42603d5343f005d2021-03-06 12:50:37dht11humidity53percent
8696bbbba929e5d1f190e42603d5343f005d2021-03-06 12:55:39soilmoisture81percent
8697bbbba929e5d1f190e42603d5343f005d2021-03-06 12:55:39dht11temp21degree
8698bbbba929e5d1f190e42603d5343f005d2021-03-06 12:55:39dht11humidity52percent
8699bbbba929e5d1f190e42603d5343f005d2021-03-06 13:00:42soilmoisture81percent
8700bbbba929e5d1f190e42603d5343f005d2021-03-06 13:00:42dht11temp21degree
8701bbbba929e5d1f190e42603d5343f005d2021-03-06 13:00:42dht11humidity52percent
8702bbbba929e5d1f190e42603d5343f005d2021-03-06 13:05:44soilmoisture81percent
8703bbbba929e5d1f190e42603d5343f005d2021-03-06 13:05:44dht11temp21degree
8704bbbba929e5d1f190e42603d5343f005d2021-03-06 13:05:45dht11humidity54percent
8705bbbba929e5d1f190e42603d5343f005d2021-03-06 13:10:47soilmoisture81percent
8706bbbba929e5d1f190e42603d5343f005d2021-03-06 13:10:47dht11temp21.1degree
8707bbbba929e5d1f190e42603d5343f005d2021-03-06 13:10:47dht11humidity52percent
8708bbbba929e5d1f190e42603d5343f005d2021-03-06 13:15:49soilmoisture81percent
8709bbbba929e5d1f190e42603d5343f005d2021-03-06 13:15:49dht11temp21.1degree
8710bbbba929e5d1f190e42603d5343f005d2021-03-06 13:15:49dht11humidity53percent
8711bbbba929e5d1f190e42603d5343f005d2021-03-06 13:20:51soilmoisture81percent
8712bbbba929e5d1f190e42603d5343f005d2021-03-06 13:20:52dht11temp21.3degree
8713bbbba929e5d1f190e42603d5343f005d2021-03-06 13:20:52dht11humidity53percent
8714bbbba929e5d1f190e42603d5343f005d2021-03-06 13:25:54soilmoisture81percent
8715bbbba929e5d1f190e42603d5343f005d2021-03-06 13:25:54dht11temp21.4degree
8716bbbba929e5d1f190e42603d5343f005d2021-03-06 13:25:54dht11humidity53percent
8717bbbba929e5d1f190e42603d5343f005d2021-03-06 13:30:56soilmoisture81percent
8718bbbba929e5d1f190e42603d5343f005d2021-03-06 13:30:56dht11temp21.5degree
8719bbbba929e5d1f190e42603d5343f005d2021-03-06 13:30:56dht11humidity53percent
8720bbbba929e5d1f190e42603d5343f005d2021-03-06 13:35:58soilmoisture81percent
8721bbbba929e5d1f190e42603d5343f005d2021-03-06 13:35:59dht11temp21.6degree
8722bbbba929e5d1f190e42603d5343f005d2021-03-06 13:35:59dht11humidity52percent
8723bbbba929e5d1f190e42603d5343f005d2021-03-06 13:41:01soilmoisture81percent
8724bbbba929e5d1f190e42603d5343f005d2021-03-06 13:41:01dht11temp21.6degree
8725bbbba929e5d1f190e42603d5343f005d2021-03-06 13:41:01dht11humidity52percent
8726bbbba929e5d1f190e42603d5343f005d2021-03-06 13:46:03soilmoisture81percent
8727bbbba929e5d1f190e42603d5343f005d2021-03-06 13:46:03dht11temp21.7degree
8728bbbba929e5d1f190e42603d5343f005d2021-03-06 13:46:04dht11humidity53percent
8729bbbba929e5d1f190e42603d5343f005d2021-03-06 13:51:05soilmoisture81percent
8730bbbba929e5d1f190e42603d5343f005d2021-03-06 13:51:06dht11temp21.7degree
8731bbbba929e5d1f190e42603d5343f005d2021-03-06 13:51:06dht11humidity52percent
8732bbbba929e5d1f190e42603d5343f005d2021-03-06 13:56:08soilmoisture81percent
8733bbbba929e5d1f190e42603d5343f005d2021-03-06 13:56:08dht11temp21.9degree
8734bbbba929e5d1f190e42603d5343f005d2021-03-06 13:56:09dht11humidity52percent
8735bbbba929e5d1f190e42603d5343f005d2021-03-06 14:01:11soilmoisture81percent
8736bbbba929e5d1f190e42603d5343f005d2021-03-06 14:01:11dht11temp21.9degree
8737bbbba929e5d1f190e42603d5343f005d2021-03-06 14:01:11dht11humidity51percent
8738bbbba929e5d1f190e42603d5343f005d2021-03-06 14:06:13soilmoisture81percent
8739bbbba929e5d1f190e42603d5343f005d2021-03-06 14:06:13dht11temp22.1degree
8740bbbba929e5d1f190e42603d5343f005d2021-03-06 14:06:14dht11humidity51percent
8741bbbba929e5d1f190e42603d5343f005d2021-03-06 14:11:16soilmoisture81percent
8742bbbba929e5d1f190e42603d5343f005d2021-03-06 14:11:16dht11temp22.2degree
8743bbbba929e5d1f190e42603d5343f005d2021-03-06 14:11:16dht11humidity52percent
8744bbbba929e5d1f190e42603d5343f005d2021-03-06 14:16:18soilmoisture81percent
8745bbbba929e5d1f190e42603d5343f005d2021-03-06 14:16:18dht11temp22.3degree
8746bbbba929e5d1f190e42603d5343f005d2021-03-06 14:16:18dht11humidity52percent
8747bbbba929e5d1f190e42603d5343f005d2021-03-06 14:21:20soilmoisture81percent
8748bbbba929e5d1f190e42603d5343f005d2021-03-06 14:21:20dht11temp22.5degree
8749bbbba929e5d1f190e42603d5343f005d2021-03-06 14:21:21dht11humidity51percent
8750bbbba929e5d1f190e42603d5343f005d2021-03-06 14:26:23soilmoisture80percent
8751bbbba929e5d1f190e42603d5343f005d2021-03-06 14:26:23dht11temp22.7degree
8752bbbba929e5d1f190e42603d5343f005d2021-03-06 14:26:23dht11humidity52percent
8753bbbba929e5d1f190e42603d5343f005d2021-03-06 14:31:25soilmoisture78percent
8754bbbba929e5d1f190e42603d5343f005d2021-03-06 14:31:25dht11temp29.2degree
8755bbbba929e5d1f190e42603d5343f005d2021-03-06 14:31:26dht11humidity38percent
8756bbbba929e5d1f190e42603d5343f005d2021-03-06 14:36:28soilmoisture78percent
8757bbbba929e5d1f190e42603d5343f005d2021-03-06 14:36:28dht11temp37.2degree
8758bbbba929e5d1f190e42603d5343f005d2021-03-06 14:36:28dht11humidity31percent
8759bbbba929e5d1f190e42603d5343f005d2021-03-06 14:41:30soilmoisture79percent
8760bbbba929e5d1f190e42603d5343f005d2021-03-06 14:41:31dht11temp39.1degree
8761bbbba929e5d1f190e42603d5343f005d2021-03-06 14:41:31dht11humidity24percent
8762bbbba929e5d1f190e42603d5343f005d2021-03-06 14:46:33soilmoisture79percent
8763bbbba929e5d1f190e42603d5343f005d2021-03-06 14:46:33dht11temp33.6degree
8764bbbba929e5d1f190e42603d5343f005d2021-03-06 14:46:33dht11humidity28percent
8765bbbba929e5d1f190e42603d5343f005d2021-03-06 14:51:35soilmoisture79percent
8766bbbba929e5d1f190e42603d5343f005d2021-03-06 14:51:35dht11temp32.8degree
8767bbbba929e5d1f190e42603d5343f005d2021-03-06 14:51:36dht11humidity28percent
8768bbbba929e5d1f190e42603d5343f005d2021-03-06 14:56:37soilmoisture79percent
8769bbbba929e5d1f190e42603d5343f005d2021-03-06 14:56:38dht11temp31.7degree
8770bbbba929e5d1f190e42603d5343f005d2021-03-06 14:56:38dht11humidity35percent
8771bbbba929e5d1f190e42603d5343f005d2021-03-06 15:01:40soilmoisture78percent
8772bbbba929e5d1f190e42603d5343f005d2021-03-06 15:01:40dht11temp35.5degree
8773bbbba929e5d1f190e42603d5343f005d2021-03-06 15:01:41dht11humidity30percent
8774bbbba929e5d1f190e42603d5343f005d2021-03-06 15:06:43soilmoisture78percent
8775bbbba929e5d1f190e42603d5343f005d2021-03-06 15:06:43dht11temp37degree
8776bbbba929e5d1f190e42603d5343f005d2021-03-06 15:06:43dht11humidity28percent
8777bbbba929e5d1f190e42603d5343f005d2021-03-06 15:11:45soilmoisture78percent
8778bbbba929e5d1f190e42603d5343f005d2021-03-06 15:11:45dht11temp37.6degree
8779bbbba929e5d1f190e42603d5343f005d2021-03-06 15:11:46dht11humidity24percent
8780bbbba929e5d1f190e42603d5343f005d2021-03-06 15:16:47soilmoisture78percent
8781bbbba929e5d1f190e42603d5343f005d2021-03-06 15:16:48dht11temp37.5degree
8782bbbba929e5d1f190e42603d5343f005d2021-03-06 15:16:49dht11humidity24percent
8783bbbba929e5d1f190e42603d5343f005d2021-03-06 15:21:51soilmoisture78percent
8784bbbba929e5d1f190e42603d5343f005d2021-03-06 15:21:51dht11temp38.2degree
8785bbbba929e5d1f190e42603d5343f005d2021-03-06 15:21:52dht11humidity22percent
8786bbbba929e5d1f190e42603d5343f005d2021-03-06 15:26:53soilmoisture78percent
8787bbbba929e5d1f190e42603d5343f005d2021-03-06 15:26:54dht11temp38.1degree
8788bbbba929e5d1f190e42603d5343f005d2021-03-06 15:26:54dht11humidity19percent
8789bbbba929e5d1f190e42603d5343f005d2021-03-06 15:31:56soilmoisture78percent
8790bbbba929e5d1f190e42603d5343f005d2021-03-06 15:31:56dht11temp37.9degree
8791bbbba929e5d1f190e42603d5343f005d2021-03-06 15:31:56dht11humidity16percent
8792bbbba929e5d1f190e42603d5343f005d2021-03-06 15:36:58soilmoisture78percent
8793bbbba929e5d1f190e42603d5343f005d2021-03-06 15:36:59dht11temp37.6degree
8794bbbba929e5d1f190e42603d5343f005d2021-03-06 15:36:59dht11humidity17percent
8795bbbba929e5d1f190e42603d5343f005d2021-03-06 15:42:01soilmoisture79percent
8796bbbba929e5d1f190e42603d5343f005d2021-03-06 15:42:01dht11temp37.2degree
8797bbbba929e5d1f190e42603d5343f005d2021-03-06 15:42:01dht11humidity14percent
8798bbbba929e5d1f190e42603d5343f005d2021-03-06 15:47:04soilmoisture80percent
8799bbbba929e5d1f190e42603d5343f005d2021-03-06 15:47:04dht11temp31.6degree
8800bbbba929e5d1f190e42603d5343f005d2021-03-06 15:47:05dht11humidity28percent
8801bbbba929e5d1f190e42603d5343f005d2021-03-06 15:52:07soilmoisture80percent
8802bbbba929e5d1f190e42603d5343f005d2021-03-06 15:52:07dht11temp27.7degree
8803bbbba929e5d1f190e42603d5343f005d2021-03-06 15:52:07dht11humidity29percent
8804bbbba929e5d1f190e42603d5343f005d2021-03-06 15:57:09soilmoisture80percent
8805bbbba929e5d1f190e42603d5343f005d2021-03-06 15:57:10dht11temp26.4degree
8806bbbba929e5d1f190e42603d5343f005d2021-03-06 15:57:10dht11humidity34percent
8807bbbba929e5d1f190e42603d5343f005d2021-03-06 16:02:13soilmoisture81percent
8808bbbba929e5d1f190e42603d5343f005d2021-03-06 16:02:13dht11temp25.8degree
8809bbbba929e5d1f190e42603d5343f005d2021-03-06 16:02:13dht11humidity36percent
8810bbbba929e5d1f190e42603d5343f005d2021-03-06 16:07:15soilmoisture81percent
8811bbbba929e5d1f190e42603d5343f005d2021-03-06 16:07:15dht11temp25.5degree
8812bbbba929e5d1f190e42603d5343f005d2021-03-06 16:07:16dht11humidity37percent
8813bbbba929e5d1f190e42603d5343f005d2021-03-06 16:12:18soilmoisture81percent
8814bbbba929e5d1f190e42603d5343f005d2021-03-06 16:12:18dht11temp25.3degree
8815bbbba929e5d1f190e42603d5343f005d2021-03-06 16:12:18dht11humidity38percent
8816bbbba929e5d1f190e42603d5343f005d2021-03-06 16:17:20soilmoisture81percent
8817bbbba929e5d1f190e42603d5343f005d2021-03-06 16:17:20dht11temp25.1degree
8818bbbba929e5d1f190e42603d5343f005d2021-03-06 16:17:21dht11humidity40percent
8819bbbba929e5d1f190e42603d5343f005d2021-03-06 16:22:22soilmoisture81percent
8820bbbba929e5d1f190e42603d5343f005d2021-03-06 16:22:23dht11temp25.1degree
8821bbbba929e5d1f190e42603d5343f005d2021-03-06 16:22:23dht11humidity45percent
8822bbbba929e5d1f190e42603d5343f005d2021-03-06 16:27:25soilmoisture81percent
8823bbbba929e5d1f190e42603d5343f005d2021-03-06 16:27:25dht11temp24.9degree
8824bbbba929e5d1f190e42603d5343f005d2021-03-06 16:27:25dht11humidity40percent
8825bbbba929e5d1f190e42603d5343f005d2021-03-06 16:32:27soilmoisture81percent
8826bbbba929e5d1f190e42603d5343f005d2021-03-06 16:32:27dht11temp24.7degree
8827bbbba929e5d1f190e42603d5343f005d2021-03-06 16:32:28dht11humidity45percent
8828bbbba929e5d1f190e42603d5343f005d2021-03-06 16:37:30soilmoisture81percent
8829bbbba929e5d1f190e42603d5343f005d2021-03-06 16:37:30dht11temp24.6degree
8830bbbba929e5d1f190e42603d5343f005d2021-03-06 16:37:30dht11humidity47percent
8831bbbba929e5d1f190e42603d5343f005d2021-03-06 16:42:32soilmoisture81percent
8832bbbba929e5d1f190e42603d5343f005d2021-03-06 16:42:32dht11temp24.6degree
8833bbbba929e5d1f190e42603d5343f005d2021-03-06 16:42:33dht11humidity51percent
8834bbbba929e5d1f190e42603d5343f005d2021-03-06 16:47:34soilmoisture81percent
8835bbbba929e5d1f190e42603d5343f005d2021-03-06 16:47:35dht11temp24.5degree
8836bbbba929e5d1f190e42603d5343f005d2021-03-06 16:47:35dht11humidity47percent
8837bbbba929e5d1f190e42603d5343f005d2021-03-06 16:52:37soilmoisture81percent
8838bbbba929e5d1f190e42603d5343f005d2021-03-06 16:52:37dht11temp24.3degree
8839bbbba929e5d1f190e42603d5343f005d2021-03-06 16:52:37dht11humidity46percent
8840bbbba929e5d1f190e42603d5343f005d2021-03-06 16:57:39soilmoisture81percent
8841bbbba929e5d1f190e42603d5343f005d2021-03-06 16:57:39dht11temp24.3degree
8842bbbba929e5d1f190e42603d5343f005d2021-03-06 16:57:39dht11humidity47percent
8843bbbba929e5d1f190e42603d5343f005d2021-03-06 17:02:41soilmoisture81percent
8844bbbba929e5d1f190e42603d5343f005d2021-03-06 17:02:42dht11temp24.1degree
8845bbbba929e5d1f190e42603d5343f005d2021-03-06 17:02:42dht11humidity44percent
8846bbbba929e5d1f190e42603d5343f005d2021-03-06 17:07:44soilmoisture81percent
8847bbbba929e5d1f190e42603d5343f005d2021-03-06 17:07:44dht11temp24.1degree
8848bbbba929e5d1f190e42603d5343f005d2021-03-06 17:07:45dht11humidity46percent
8849bbbba929e5d1f190e42603d5343f005d2021-03-06 17:12:46soilmoisture81percent
8850bbbba929e5d1f190e42603d5343f005d2021-03-06 17:12:47dht11temp23.9degree
8851bbbba929e5d1f190e42603d5343f005d2021-03-06 17:12:47dht11humidity45percent
8852bbbba929e5d1f190e42603d5343f005d2021-03-06 17:17:49soilmoisture81percent
8853bbbba929e5d1f190e42603d5343f005d2021-03-06 17:17:49dht11temp23.7degree
8854bbbba929e5d1f190e42603d5343f005d2021-03-06 17:17:49dht11humidity50percent
8855bbbba929e5d1f190e42603d5343f005d2021-03-06 17:22:51soilmoisture81percent
8856bbbba929e5d1f190e42603d5343f005d2021-03-06 17:22:51dht11temp23.3degree
8857bbbba929e5d1f190e42603d5343f005d2021-03-06 17:22:52dht11humidity48percent
8858bbbba929e5d1f190e42603d5343f005d2021-03-06 17:27:54soilmoisture81percent
8859bbbba929e5d1f190e42603d5343f005d2021-03-06 17:27:54dht11temp23degree
8860bbbba929e5d1f190e42603d5343f005d2021-03-06 17:27:54dht11humidity47percent
8861bbbba929e5d1f190e42603d5343f005d2021-03-06 17:32:56soilmoisture81percent
8862bbbba929e5d1f190e42603d5343f005d2021-03-06 17:32:57dht11temp22.8degree
8863bbbba929e5d1f190e42603d5343f005d2021-03-06 17:32:57dht11humidity48percent
8864bbbba929e5d1f190e42603d5343f005d2021-03-06 17:37:59soilmoisture81percent
8865bbbba929e5d1f190e42603d5343f005d2021-03-06 17:37:59dht11temp22.7degree
8866bbbba929e5d1f190e42603d5343f005d2021-03-06 17:38:00dht11humidity52percent
8867bbbba929e5d1f190e42603d5343f005d2021-03-06 17:43:01soilmoisture81percent
8868bbbba929e5d1f190e42603d5343f005d2021-03-06 17:43:02dht11temp22.6degree
8869bbbba929e5d1f190e42603d5343f005d2021-03-06 17:43:02dht11humidity50percent
8870bbbba929e5d1f190e42603d5343f005d2021-03-06 17:48:04soilmoisture81percent
8871bbbba929e5d1f190e42603d5343f005d2021-03-06 17:48:04dht11temp22.5degree
8872bbbba929e5d1f190e42603d5343f005d2021-03-06 17:48:05dht11humidity49percent
8873bbbba929e5d1f190e42603d5343f005d2021-03-06 17:53:07soilmoisture81percent
8874bbbba929e5d1f190e42603d5343f005d2021-03-06 17:53:07dht11temp22.4degree
8875bbbba929e5d1f190e42603d5343f005d2021-03-06 17:53:07dht11humidity51percent
8876bbbba929e5d1f190e42603d5343f005d2021-03-06 17:58:09soilmoisture81percent
8877bbbba929e5d1f190e42603d5343f005d2021-03-06 17:58:09dht11temp22.3degree
8878bbbba929e5d1f190e42603d5343f005d2021-03-06 17:58:10dht11humidity50percent
8879bbbba929e5d1f190e42603d5343f005d2021-03-06 18:03:12soilmoisture81percent
8880bbbba929e5d1f190e42603d5343f005d2021-03-06 18:03:12dht11temp22.2degree
8881bbbba929e5d1f190e42603d5343f005d2021-03-06 18:03:13dht11humidity53percent
8882bbbba929e5d1f190e42603d5343f005d2021-03-06 18:08:15soilmoisture81percent
8883bbbba929e5d1f190e42603d5343f005d2021-03-06 18:08:15dht11temp22.1degree
8884bbbba929e5d1f190e42603d5343f005d2021-03-06 18:08:15dht11humidity52percent
8885bbbba929e5d1f190e42603d5343f005d2021-03-06 18:13:17soilmoisture81percent
8886bbbba929e5d1f190e42603d5343f005d2021-03-06 18:13:17dht11temp22degree
8887bbbba929e5d1f190e42603d5343f005d2021-03-06 18:13:18dht11humidity50percent
8888bbbba929e5d1f190e42603d5343f005d2021-03-06 18:18:20soilmoisture81percent
8889bbbba929e5d1f190e42603d5343f005d2021-03-06 18:18:20dht11temp22degree
8890bbbba929e5d1f190e42603d5343f005d2021-03-06 18:18:20dht11humidity51percent
8891bbbba929e5d1f190e42603d5343f005d2021-03-06 18:23:22soilmoisture81percent
8892bbbba929e5d1f190e42603d5343f005d2021-03-06 18:23:23dht11temp21.9degree
8893bbbba929e5d1f190e42603d5343f005d2021-03-06 18:23:23dht11humidity51percent
8894bbbba929e5d1f190e42603d5343f005d2021-03-06 18:28:25soilmoisture81percent
8895bbbba929e5d1f190e42603d5343f005d2021-03-06 18:28:25dht11temp21.8degree
8896bbbba929e5d1f190e42603d5343f005d2021-03-06 18:28:25dht11humidity51percent
8897bbbba929e5d1f190e42603d5343f005d2021-03-06 18:33:28soilmoisture81percent
8898bbbba929e5d1f190e42603d5343f005d2021-03-06 18:33:28dht11temp21.7degree
8899bbbba929e5d1f190e42603d5343f005d2021-03-06 18:33:29dht11humidity49percent
8900bbbba929e5d1f190e42603d5343f005d2021-03-06 18:38:31soilmoisture81percent
8901bbbba929e5d1f190e42603d5343f005d2021-03-06 18:38:32dht11temp21.7degree
8902bbbba929e5d1f190e42603d5343f005d2021-03-06 18:38:32dht11humidity50percent
8903bbbba929e5d1f190e42603d5343f005d2021-03-06 18:43:34soilmoisture81percent
8904bbbba929e5d1f190e42603d5343f005d2021-03-06 18:43:35dht11temp21.6degree
8905bbbba929e5d1f190e42603d5343f005d2021-03-06 18:43:35dht11humidity49percent
8906bbbba929e5d1f190e42603d5343f005d2021-03-06 18:48:37soilmoisture81percent
8907bbbba929e5d1f190e42603d5343f005d2021-03-06 18:48:37dht11temp21.6degree
8908bbbba929e5d1f190e42603d5343f005d2021-03-06 18:48:38dht11humidity48percent
8909bbbba929e5d1f190e42603d5343f005d2021-03-06 18:53:39soilmoisture81percent
8910bbbba929e5d1f190e42603d5343f005d2021-03-06 18:53:40dht11temp21.6degree
8911bbbba929e5d1f190e42603d5343f005d2021-03-06 18:53:40dht11humidity49percent
8912bbbba929e5d1f190e42603d5343f005d2021-03-06 18:58:42soilmoisture81percent
8913bbbba929e5d1f190e42603d5343f005d2021-03-06 18:58:42dht11temp21.6degree
8914bbbba929e5d1f190e42603d5343f005d2021-03-06 18:58:43dht11humidity49percent
8915bbbba929e5d1f190e42603d5343f005d2021-03-06 19:03:44soilmoisture81percent
8916bbbba929e5d1f190e42603d5343f005d2021-03-06 19:03:45dht11temp21.5degree
8917bbbba929e5d1f190e42603d5343f005d2021-03-06 19:03:45dht11humidity52percent
8918bbbba929e5d1f190e42603d5343f005d2021-03-06 19:08:47soilmoisture81percent
8919bbbba929e5d1f190e42603d5343f005d2021-03-06 19:08:47dht11temp21.5degree
8920bbbba929e5d1f190e42603d5343f005d2021-03-06 19:08:47dht11humidity53percent
8921bbbba929e5d1f190e42603d5343f005d2021-03-06 19:13:49soilmoisture81percent
8922bbbba929e5d1f190e42603d5343f005d2021-03-06 19:13:49dht11temp21.5degree
8923bbbba929e5d1f190e42603d5343f005d2021-03-06 19:13:50dht11humidity51percent
8924bbbba929e5d1f190e42603d5343f005d2021-03-06 19:18:51soilmoisture81percent
8925bbbba929e5d1f190e42603d5343f005d2021-03-06 19:18:52dht11temp21.4degree
8926bbbba929e5d1f190e42603d5343f005d2021-03-06 19:18:52dht11humidity52percent
8927bbbba929e5d1f190e42603d5343f005d2021-03-06 19:23:54soilmoisture81percent
8928bbbba929e5d1f190e42603d5343f005d2021-03-06 19:23:54dht11temp21.4degree
8929bbbba929e5d1f190e42603d5343f005d2021-03-06 19:23:54dht11humidity51percent
8930bbbba929e5d1f190e42603d5343f005d2021-03-06 19:28:56soilmoisture81percent
8931bbbba929e5d1f190e42603d5343f005d2021-03-06 19:28:56dht11temp21.4degree
8932bbbba929e5d1f190e42603d5343f005d2021-03-06 19:28:57dht11humidity51percent
8933bbbba929e5d1f190e42603d5343f005d2021-03-06 19:33:59soilmoisture81percent
8934bbbba929e5d1f190e42603d5343f005d2021-03-06 19:33:59dht11temp21.4degree
8935bbbba929e5d1f190e42603d5343f005d2021-03-06 19:33:59dht11humidity51percent
8936bbbba929e5d1f190e42603d5343f005d2021-03-06 19:39:01soilmoisture81percent
8937bbbba929e5d1f190e42603d5343f005d2021-03-06 19:39:01dht11temp21.3degree
8938bbbba929e5d1f190e42603d5343f005d2021-03-06 19:39:02dht11humidity51percent
8939bbbba929e5d1f190e42603d5343f005d2021-03-06 19:44:03soilmoisture81percent
8940bbbba929e5d1f190e42603d5343f005d2021-03-06 19:44:04dht11temp21.2degree
8941bbbba929e5d1f190e42603d5343f005d2021-03-06 19:44:04dht11humidity51percent
8942bbbba929e5d1f190e42603d5343f005d2021-03-06 19:49:06soilmoisture81percent
8943bbbba929e5d1f190e42603d5343f005d2021-03-06 19:49:06dht11temp21.4degree
8944bbbba929e5d1f190e42603d5343f005d2021-03-06 19:49:06dht11humidity51percent
8945bbbba929e5d1f190e42603d5343f005d2021-03-06 19:54:08soilmoisture81percent
8946bbbba929e5d1f190e42603d5343f005d2021-03-06 19:54:08dht11temp21.2degree
8947bbbba929e5d1f190e42603d5343f005d2021-03-06 19:54:09dht11humidity52percent
8948bbbba929e5d1f190e42603d5343f005d2021-03-06 19:59:11soilmoisture81percent
8949bbbba929e5d1f190e42603d5343f005d2021-03-06 19:59:11dht11temp21.2degree
8950bbbba929e5d1f190e42603d5343f005d2021-03-06 19:59:12dht11humidity51percent
8951bbbba929e5d1f190e42603d5343f005d2021-03-06 20:04:14soilmoisture81percent
8952bbbba929e5d1f190e42603d5343f005d2021-03-06 20:04:14dht11temp21.2degree
8953bbbba929e5d1f190e42603d5343f005d2021-03-06 20:04:14dht11humidity52percent
8954bbbba929e5d1f190e42603d5343f005d2021-03-06 20:09:16soilmoisture81percent
8955bbbba929e5d1f190e42603d5343f005d2021-03-06 20:09:17dht11temp21.3degree
8956bbbba929e5d1f190e42603d5343f005d2021-03-06 20:09:17dht11humidity54percent
8957bbbba929e5d1f190e42603d5343f005d2021-03-06 20:14:19soilmoisture81percent
8958bbbba929e5d1f190e42603d5343f005d2021-03-06 20:14:19dht11temp21.5degree
8959bbbba929e5d1f190e42603d5343f005d2021-03-06 20:14:20dht11humidity51percent
8960bbbba929e5d1f190e42603d5343f005d2021-03-06 20:19:22soilmoisture81percent
8961bbbba929e5d1f190e42603d5343f005d2021-03-06 20:19:22dht11temp21.4degree
8962bbbba929e5d1f190e42603d5343f005d2021-03-06 20:19:23dht11humidity50percent
8963bbbba929e5d1f190e42603d5343f005d2021-03-06 20:24:24soilmoisture81percent
8964bbbba929e5d1f190e42603d5343f005d2021-03-06 20:24:25dht11temp21.5degree
8965bbbba929e5d1f190e42603d5343f005d2021-03-06 20:24:25dht11humidity50percent
8966bbbba929e5d1f190e42603d5343f005d2021-03-06 20:29:26soilmoisture81percent
8967bbbba929e5d1f190e42603d5343f005d2021-03-06 20:29:27dht11temp21.5degree
8968bbbba929e5d1f190e42603d5343f005d2021-03-06 20:29:27dht11humidity51percent
8969bbbba929e5d1f190e42603d5343f005d2021-03-06 20:34:29soilmoisture81percent
8970bbbba929e5d1f190e42603d5343f005d2021-03-06 20:34:29dht11temp21.4degree
8971bbbba929e5d1f190e42603d5343f005d2021-03-06 20:34:29dht11humidity50percent
8972bbbba929e5d1f190e42603d5343f005d2021-03-06 20:39:31soilmoisture81percent
8973bbbba929e5d1f190e42603d5343f005d2021-03-06 20:39:31dht11temp21.4degree
8974bbbba929e5d1f190e42603d5343f005d2021-03-06 20:39:31dht11humidity53percent
8975bbbba929e5d1f190e42603d5343f005d2021-03-06 20:44:33soilmoisture81percent
8976bbbba929e5d1f190e42603d5343f005d2021-03-06 20:44:33dht11temp21.4degree
8977bbbba929e5d1f190e42603d5343f005d2021-03-06 20:44:33dht11humidity50percent
8978bbbba929e5d1f190e42603d5343f005d2021-03-06 20:49:35soilmoisture81percent
8979bbbba929e5d1f190e42603d5343f005d2021-03-06 20:49:35dht11temp21.4degree
8980bbbba929e5d1f190e42603d5343f005d2021-03-06 20:49:35dht11humidity53percent
8981bbbba929e5d1f190e42603d5343f005d2021-03-06 20:54:37soilmoisture81percent
8982bbbba929e5d1f190e42603d5343f005d2021-03-06 20:54:37dht11temp21.3degree
8983bbbba929e5d1f190e42603d5343f005d2021-03-06 20:54:37dht11humidity52percent
8984bbbba929e5d1f190e42603d5343f005d2021-03-06 20:59:39soilmoisture81percent
8985bbbba929e5d1f190e42603d5343f005d2021-03-06 20:59:39dht11temp21.4degree
8986bbbba929e5d1f190e42603d5343f005d2021-03-06 20:59:40dht11humidity52percent
8987bbbba929e5d1f190e42603d5343f005d2021-03-06 21:04:41soilmoisture81percent
8988bbbba929e5d1f190e42603d5343f005d2021-03-06 21:04:41dht11temp21.4degree
8989bbbba929e5d1f190e42603d5343f005d2021-03-06 21:04:42dht11humidity52percent
8990bbbba929e5d1f190e42603d5343f005d2021-03-06 21:09:43soilmoisture81percent
8991bbbba929e5d1f190e42603d5343f005d2021-03-06 21:09:44dht11temp21.4degree
8992bbbba929e5d1f190e42603d5343f005d2021-03-06 21:09:44dht11humidity52percent
8993bbbba929e5d1f190e42603d5343f005d2021-03-06 21:14:46soilmoisture81percent
8994bbbba929e5d1f190e42603d5343f005d2021-03-06 21:14:46dht11temp21.4degree
8995bbbba929e5d1f190e42603d5343f005d2021-03-06 21:14:46dht11humidity52percent
8996bbbba929e5d1f190e42603d5343f005d2021-03-06 21:19:48soilmoisture81percent
8997bbbba929e5d1f190e42603d5343f005d2021-03-06 21:19:48dht11temp21.3degree
8998bbbba929e5d1f190e42603d5343f005d2021-03-06 21:19:48dht11humidity52percent
8999bbbba929e5d1f190e42603d5343f005d2021-03-06 21:24:50soilmoisture81percent
9000bbbba929e5d1f190e42603d5343f005d2021-03-06 21:24:50dht11temp21.3degree
9001bbbba929e5d1f190e42603d5343f005d2021-03-06 21:24:50dht11humidity51percent
9002bbbba929e5d1f190e42603d5343f005d2021-03-06 21:29:52soilmoisture81percent
9003bbbba929e5d1f190e42603d5343f005d2021-03-06 21:29:52dht11temp21.4degree
9004bbbba929e5d1f190e42603d5343f005d2021-03-06 21:29:52dht11humidity54percent
9005bbbba929e5d1f190e42603d5343f005d2021-03-06 21:34:54soilmoisture81percent
9006bbbba929e5d1f190e42603d5343f005d2021-03-06 21:34:54dht11temp21.4degree
9007bbbba929e5d1f190e42603d5343f005d2021-03-06 21:34:54dht11humidity53percent
9008bbbba929e5d1f190e42603d5343f005d2021-03-06 21:39:56soilmoisture81percent
9009bbbba929e5d1f190e42603d5343f005d2021-03-06 21:39:56dht11temp21.3degree
9010bbbba929e5d1f190e42603d5343f005d2021-03-06 21:39:57dht11humidity53percent
9011bbbba929e5d1f190e42603d5343f005d2021-03-06 21:44:58soilmoisture81percent
9012bbbba929e5d1f190e42603d5343f005d2021-03-06 21:44:58dht11temp21.3degree
9013bbbba929e5d1f190e42603d5343f005d2021-03-06 21:44:59dht11humidity53percent
9014bbbba929e5d1f190e42603d5343f005d2021-03-06 21:50:00soilmoisture81percent
9015bbbba929e5d1f190e42603d5343f005d2021-03-06 21:50:00dht11temp21.3degree
9016bbbba929e5d1f190e42603d5343f005d2021-03-06 21:50:00dht11humidity52percent
9017bbbba929e5d1f190e42603d5343f005d2021-03-06 21:55:02soilmoisture81percent
9018bbbba929e5d1f190e42603d5343f005d2021-03-06 21:55:02dht11temp21.2degree
9019bbbba929e5d1f190e42603d5343f005d2021-03-06 21:55:02dht11humidity52percent
9020bbbba929e5d1f190e42603d5343f005d2021-03-06 22:00:04soilmoisture81percent
9021bbbba929e5d1f190e42603d5343f005d2021-03-06 22:00:04dht11temp21.1degree
9022bbbba929e5d1f190e42603d5343f005d2021-03-06 22:00:04dht11humidity53percent
9023bbbba929e5d1f190e42603d5343f005d2021-03-06 22:05:06soilmoisture81percent
9024bbbba929e5d1f190e42603d5343f005d2021-03-06 22:05:06dht11temp21.1degree
9025bbbba929e5d1f190e42603d5343f005d2021-03-06 22:05:06dht11humidity53percent
9026bbbba929e5d1f190e42603d5343f005d2021-03-06 22:10:08soilmoisture81percent
9027bbbba929e5d1f190e42603d5343f005d2021-03-06 22:10:08dht11temp21.2degree
9028bbbba929e5d1f190e42603d5343f005d2021-03-06 22:10:08dht11humidity61percent
9029bbbba929e5d1f190e42603d5343f005d2021-03-06 22:15:10soilmoisture81percent
9030bbbba929e5d1f190e42603d5343f005d2021-03-06 22:15:10dht11temp21.2degree
9031bbbba929e5d1f190e42603d5343f005d2021-03-06 22:15:10dht11humidity63percent
9032bbbba929e5d1f190e42603d5343f005d2021-03-06 22:20:12soilmoisture81percent
9033bbbba929e5d1f190e42603d5343f005d2021-03-06 22:20:12dht11temp21.2degree
9034bbbba929e5d1f190e42603d5343f005d2021-03-06 22:20:12dht11humidity66percent
9035bbbba929e5d1f190e42603d5343f005d2021-03-06 22:25:14soilmoisture81percent
9036bbbba929e5d1f190e42603d5343f005d2021-03-06 22:25:14dht11temp21.3degree
9037bbbba929e5d1f190e42603d5343f005d2021-03-06 22:25:14dht11humidity63percent
9038bbbba929e5d1f190e42603d5343f005d2021-03-06 22:30:16soilmoisture81percent
9039bbbba929e5d1f190e42603d5343f005d2021-03-06 22:30:16dht11temp21.4degree
9040bbbba929e5d1f190e42603d5343f005d2021-03-06 22:30:16dht11humidity61percent
9041bbbba929e5d1f190e42603d5343f005d2021-03-06 22:35:18soilmoisture81percent
9042bbbba929e5d1f190e42603d5343f005d2021-03-06 22:35:18dht11temp21.3degree
9043bbbba929e5d1f190e42603d5343f005d2021-03-06 22:35:18dht11humidity61percent
9044bbbba929e5d1f190e42603d5343f005d2021-03-06 22:40:20soilmoisture81percent
9045bbbba929e5d1f190e42603d5343f005d2021-03-06 22:40:20dht11temp21.3degree
9046bbbba929e5d1f190e42603d5343f005d2021-03-06 22:40:20dht11humidity61percent
9047bbbba929e5d1f190e42603d5343f005d2021-03-06 22:45:22soilmoisture81percent
9048bbbba929e5d1f190e42603d5343f005d2021-03-06 22:45:22dht11temp21.2degree
9049bbbba929e5d1f190e42603d5343f005d2021-03-06 22:45:22dht11humidity58percent
9050bbbba929e5d1f190e42603d5343f005d2021-03-06 22:50:24soilmoisture81percent
9051bbbba929e5d1f190e42603d5343f005d2021-03-06 22:50:24dht11temp21.2degree
9052bbbba929e5d1f190e42603d5343f005d2021-03-06 22:50:24dht11humidity57percent
9053bbbba929e5d1f190e42603d5343f005d2021-03-06 22:55:26soilmoisture81percent
9054bbbba929e5d1f190e42603d5343f005d2021-03-06 22:55:26dht11temp21.2degree
9055bbbba929e5d1f190e42603d5343f005d2021-03-06 22:55:26dht11humidity56percent
9056bbbba929e5d1f190e42603d5343f005d2021-03-06 23:00:28soilmoisture81percent
9057bbbba929e5d1f190e42603d5343f005d2021-03-06 23:00:28dht11temp21.1degree
9058bbbba929e5d1f190e42603d5343f005d2021-03-06 23:00:28dht11humidity57percent
9059bbbba929e5d1f190e42603d5343f005d2021-03-06 23:05:31soilmoisture81percent
9060bbbba929e5d1f190e42603d5343f005d2021-03-06 23:05:31dht11temp21.1degree
9061bbbba929e5d1f190e42603d5343f005d2021-03-06 23:05:31dht11humidity55percent
9062bbbba929e5d1f190e42603d5343f005d2021-03-06 23:10:33soilmoisture81percent
9063bbbba929e5d1f190e42603d5343f005d2021-03-06 23:10:33dht11temp21.1degree
9064bbbba929e5d1f190e42603d5343f005d2021-03-06 23:10:33dht11humidity55percent
9065bbbba929e5d1f190e42603d5343f005d2021-03-06 23:15:35soilmoisture81percent
9066bbbba929e5d1f190e42603d5343f005d2021-03-06 23:15:35dht11temp21.1degree
9067bbbba929e5d1f190e42603d5343f005d2021-03-06 23:15:35dht11humidity55percent
9068bbbba929e5d1f190e42603d5343f005d2021-03-06 23:20:37soilmoisture81percent
9069bbbba929e5d1f190e42603d5343f005d2021-03-06 23:20:37dht11temp21degree
9070bbbba929e5d1f190e42603d5343f005d2021-03-06 23:20:37dht11humidity55percent
9071bbbba929e5d1f190e42603d5343f005d2021-03-06 23:25:39soilmoisture81percent
9072bbbba929e5d1f190e42603d5343f005d2021-03-06 23:25:39dht11temp21degree
9073bbbba929e5d1f190e42603d5343f005d2021-03-06 23:25:39dht11humidity54percent
9074bbbba929e5d1f190e42603d5343f005d2021-03-06 23:30:41soilmoisture81percent
9075bbbba929e5d1f190e42603d5343f005d2021-03-06 23:30:41dht11temp20.9degree
9076bbbba929e5d1f190e42603d5343f005d2021-03-06 23:30:41dht11humidity54percent
9077bbbba929e5d1f190e42603d5343f005d2021-03-06 23:35:43soilmoisture81percent
9078bbbba929e5d1f190e42603d5343f005d2021-03-06 23:35:43dht11temp20.9degree
9079bbbba929e5d1f190e42603d5343f005d2021-03-06 23:35:44dht11humidity53percent
9080bbbba929e5d1f190e42603d5343f005d2021-03-06 23:40:45soilmoisture81percent
9081bbbba929e5d1f190e42603d5343f005d2021-03-06 23:40:46dht11temp20.9degree
9082bbbba929e5d1f190e42603d5343f005d2021-03-06 23:40:46dht11humidity52percent
9083bbbba929e5d1f190e42603d5343f005d2021-03-06 23:45:47soilmoisture81percent
9084bbbba929e5d1f190e42603d5343f005d2021-03-06 23:45:47dht11temp20.8degree
9085bbbba929e5d1f190e42603d5343f005d2021-03-06 23:45:48dht11humidity53percent
9086bbbba929e5d1f190e42603d5343f005d2021-03-06 23:50:50soilmoisture81percent
9087bbbba929e5d1f190e42603d5343f005d2021-03-06 23:50:50dht11temp20.8degree
9088bbbba929e5d1f190e42603d5343f005d2021-03-06 23:50:50dht11humidity54percent
9089bbbba929e5d1f190e42603d5343f005d2021-03-06 23:55:52soilmoisture81percent
9090bbbba929e5d1f190e42603d5343f005d2021-03-06 23:55:52dht11temp20.7degree
9091bbbba929e5d1f190e42603d5343f005d2021-03-06 23:55:52dht11humidity52percent
9092bbbba929e5d1f190e42603d5343f005d2021-03-07 00:00:52soilmoisture81percent
9093bbbba929e5d1f190e42603d5343f005d2021-03-07 00:00:52dht11temp20.6degree
9094bbbba929e5d1f190e42603d5343f005d2021-03-07 00:00:52dht11humidity52percent
9095bbbba929e5d1f190e42603d5343f005d2021-03-07 00:05:54soilmoisture81percent
9096bbbba929e5d1f190e42603d5343f005d2021-03-07 00:05:54dht11temp20.6degree
9097bbbba929e5d1f190e42603d5343f005d2021-03-07 00:05:54dht11humidity54percent
9098bbbba929e5d1f190e42603d5343f005d2021-03-07 00:10:56soilmoisture81percent
9099bbbba929e5d1f190e42603d5343f005d2021-03-07 00:10:57dht11temp20.5degree
9100bbbba929e5d1f190e42603d5343f005d2021-03-07 00:10:57dht11humidity53percent
9101bbbba929e5d1f190e42603d5343f005d2021-03-07 00:15:58soilmoisture81percent
9102bbbba929e5d1f190e42603d5343f005d2021-03-07 00:15:59dht11temp20.5degree
9103bbbba929e5d1f190e42603d5343f005d2021-03-07 00:15:59dht11humidity54percent
9104bbbba929e5d1f190e42603d5343f005d2021-03-07 00:21:01soilmoisture81percent
9105bbbba929e5d1f190e42603d5343f005d2021-03-07 00:21:01dht11temp20.6degree
9106bbbba929e5d1f190e42603d5343f005d2021-03-07 00:21:01dht11humidity54percent
9107bbbba929e5d1f190e42603d5343f005d2021-03-07 00:26:03soilmoisture81percent
9108bbbba929e5d1f190e42603d5343f005d2021-03-07 00:26:03dht11temp20.5degree
9109bbbba929e5d1f190e42603d5343f005d2021-03-07 00:26:03dht11humidity54percent
9110bbbba929e5d1f190e42603d5343f005d2021-03-07 00:31:05soilmoisture81percent
9111bbbba929e5d1f190e42603d5343f005d2021-03-07 00:31:05dht11temp20.5degree
9112bbbba929e5d1f190e42603d5343f005d2021-03-07 00:31:05dht11humidity54percent
9113bbbba929e5d1f190e42603d5343f005d2021-03-07 00:36:07soilmoisture81percent
9114bbbba929e5d1f190e42603d5343f005d2021-03-07 00:36:07dht11temp20.5degree
9115bbbba929e5d1f190e42603d5343f005d2021-03-07 00:36:07dht11humidity55percent
9116bbbba929e5d1f190e42603d5343f005d2021-03-07 00:41:09soilmoisture81percent
9117bbbba929e5d1f190e42603d5343f005d2021-03-07 00:41:09dht11temp20.4degree
9118bbbba929e5d1f190e42603d5343f005d2021-03-07 00:41:09dht11humidity56percent
9119bbbba929e5d1f190e42603d5343f005d2021-03-07 00:46:11soilmoisture81percent
9120bbbba929e5d1f190e42603d5343f005d2021-03-07 00:46:11dht11temp20.4degree
9121bbbba929e5d1f190e42603d5343f005d2021-03-07 00:46:12dht11humidity55percent
9122bbbba929e5d1f190e42603d5343f005d2021-03-07 00:51:13soilmoisture81percent
9123bbbba929e5d1f190e42603d5343f005d2021-03-07 00:51:13dht11temp20.4degree
9124bbbba929e5d1f190e42603d5343f005d2021-03-07 00:51:14dht11humidity56percent
9125bbbba929e5d1f190e42603d5343f005d2021-03-07 00:56:17soilmoisture81percent
9126bbbba929e5d1f190e42603d5343f005d2021-03-07 00:56:17dht11temp20.4degree
9127bbbba929e5d1f190e42603d5343f005d2021-03-07 00:56:17dht11humidity56percent
9128bbbba929e5d1f190e42603d5343f005d2021-03-07 01:01:19soilmoisture81percent
9129bbbba929e5d1f190e42603d5343f005d2021-03-07 01:01:19dht11temp20.3degree
9130bbbba929e5d1f190e42603d5343f005d2021-03-07 01:01:19dht11humidity56percent
9131bbbba929e5d1f190e42603d5343f005d2021-03-07 01:06:21soilmoisture81percent
9132bbbba929e5d1f190e42603d5343f005d2021-03-07 01:06:21dht11temp20.3degree
9133bbbba929e5d1f190e42603d5343f005d2021-03-07 01:06:21dht11humidity56percent
9134bbbba929e5d1f190e42603d5343f005d2021-03-07 01:11:23soilmoisture81percent
9135bbbba929e5d1f190e42603d5343f005d2021-03-07 01:11:23dht11temp20.3degree
9136bbbba929e5d1f190e42603d5343f005d2021-03-07 01:11:23dht11humidity55percent
9137bbbba929e5d1f190e42603d5343f005d2021-03-07 01:16:25soilmoisture81percent
9138bbbba929e5d1f190e42603d5343f005d2021-03-07 01:16:25dht11temp20.2degree
9139bbbba929e5d1f190e42603d5343f005d2021-03-07 01:16:25dht11humidity55percent
9140bbbba929e5d1f190e42603d5343f005d2021-03-07 01:21:27soilmoisture81percent
9141bbbba929e5d1f190e42603d5343f005d2021-03-07 01:21:27dht11temp20.1degree
9142bbbba929e5d1f190e42603d5343f005d2021-03-07 01:21:27dht11humidity57percent
9143bbbba929e5d1f190e42603d5343f005d2021-03-07 01:26:29soilmoisture81percent
9144bbbba929e5d1f190e42603d5343f005d2021-03-07 01:26:29dht11temp19.9degree
9145bbbba929e5d1f190e42603d5343f005d2021-03-07 01:26:29dht11humidity57percent
9146bbbba929e5d1f190e42603d5343f005d2021-03-07 01:31:31soilmoisture81percent
9147bbbba929e5d1f190e42603d5343f005d2021-03-07 01:31:31dht11temp19.9degree
9148bbbba929e5d1f190e42603d5343f005d2021-03-07 01:31:31dht11humidity57percent
9149bbbba929e5d1f190e42603d5343f005d2021-03-07 01:36:33soilmoisture81percent
9150bbbba929e5d1f190e42603d5343f005d2021-03-07 01:36:33dht11temp19.8degree
9151bbbba929e5d1f190e42603d5343f005d2021-03-07 01:36:33dht11humidity58percent
9152bbbba929e5d1f190e42603d5343f005d2021-03-07 01:41:34soilmoisture81percent
9153bbbba929e5d1f190e42603d5343f005d2021-03-07 01:41:35dht11temp19.7degree
9154bbbba929e5d1f190e42603d5343f005d2021-03-07 01:41:35dht11humidity60percent
9155bbbba929e5d1f190e42603d5343f005d2021-03-07 01:46:36soilmoisture81percent
9156bbbba929e5d1f190e42603d5343f005d2021-03-07 01:46:36dht11temp19.7degree
9157bbbba929e5d1f190e42603d5343f005d2021-03-07 01:46:36dht11humidity58percent
9158bbbba929e5d1f190e42603d5343f005d2021-03-07 01:51:38soilmoisture81percent
9159bbbba929e5d1f190e42603d5343f005d2021-03-07 01:51:38dht11temp19.7degree
9160bbbba929e5d1f190e42603d5343f005d2021-03-07 01:51:38dht11humidity58percent
9161bbbba929e5d1f190e42603d5343f005d2021-03-07 01:56:40soilmoisture81percent
9162bbbba929e5d1f190e42603d5343f005d2021-03-07 01:56:40dht11temp19.6degree
9163bbbba929e5d1f190e42603d5343f005d2021-03-07 01:56:40dht11humidity58percent
9164bbbba929e5d1f190e42603d5343f005d2021-03-07 02:01:42soilmoisture81percent
9165bbbba929e5d1f190e42603d5343f005d2021-03-07 02:01:42dht11temp19.6degree
9166bbbba929e5d1f190e42603d5343f005d2021-03-07 02:01:43dht11humidity58percent
9167bbbba929e5d1f190e42603d5343f005d2021-03-07 02:06:44soilmoisture81percent
9168bbbba929e5d1f190e42603d5343f005d2021-03-07 02:06:44dht11temp19.6degree
9169bbbba929e5d1f190e42603d5343f005d2021-03-07 02:06:45dht11humidity58percent
9170bbbba929e5d1f190e42603d5343f005d2021-03-07 02:11:46soilmoisture81percent
9171bbbba929e5d1f190e42603d5343f005d2021-03-07 02:11:46dht11temp19.6degree
9172bbbba929e5d1f190e42603d5343f005d2021-03-07 02:11:47dht11humidity57percent
9173bbbba929e5d1f190e42603d5343f005d2021-03-07 02:16:48soilmoisture81percent
9174bbbba929e5d1f190e42603d5343f005d2021-03-07 02:16:48dht11temp19.6degree
9175bbbba929e5d1f190e42603d5343f005d2021-03-07 02:16:48dht11humidity57percent
9176bbbba929e5d1f190e42603d5343f005d2021-03-07 02:21:50soilmoisture81percent
9177bbbba929e5d1f190e42603d5343f005d2021-03-07 02:21:50dht11temp19.5degree
9178bbbba929e5d1f190e42603d5343f005d2021-03-07 02:21:50dht11humidity59percent
9179bbbba929e5d1f190e42603d5343f005d2021-03-07 02:26:52soilmoisture81percent
9180bbbba929e5d1f190e42603d5343f005d2021-03-07 02:26:52dht11temp19.5degree
9181bbbba929e5d1f190e42603d5343f005d2021-03-07 02:26:52dht11humidity59percent
9182bbbba929e5d1f190e42603d5343f005d2021-03-07 02:31:54soilmoisture81percent
9183bbbba929e5d1f190e42603d5343f005d2021-03-07 02:31:54dht11temp19.5degree
9184bbbba929e5d1f190e42603d5343f005d2021-03-07 02:31:54dht11humidity59percent
9185bbbba929e5d1f190e42603d5343f005d2021-03-07 02:36:56soilmoisture81percent
9186bbbba929e5d1f190e42603d5343f005d2021-03-07 02:36:56dht11temp19.5degree
9187bbbba929e5d1f190e42603d5343f005d2021-03-07 02:36:56dht11humidity58percent
9188bbbba929e5d1f190e42603d5343f005d2021-03-07 02:41:58soilmoisture81percent
9189bbbba929e5d1f190e42603d5343f005d2021-03-07 02:41:58dht11temp19.4degree
9190bbbba929e5d1f190e42603d5343f005d2021-03-07 02:41:58dht11humidity58percent
9191bbbba929e5d1f190e42603d5343f005d2021-03-07 02:47:00soilmoisture81percent
9192bbbba929e5d1f190e42603d5343f005d2021-03-07 02:47:01dht11temp19.4degree
9193bbbba929e5d1f190e42603d5343f005d2021-03-07 02:47:01dht11humidity57percent
9194bbbba929e5d1f190e42603d5343f005d2021-03-07 02:52:02soilmoisture81percent
9195bbbba929e5d1f190e42603d5343f005d2021-03-07 02:52:03dht11temp19.4degree
9196bbbba929e5d1f190e42603d5343f005d2021-03-07 02:52:03dht11humidity57percent
9197bbbba929e5d1f190e42603d5343f005d2021-03-07 02:57:05soilmoisture81percent
9198bbbba929e5d1f190e42603d5343f005d2021-03-07 02:57:05dht11temp19.4degree
9199bbbba929e5d1f190e42603d5343f005d2021-03-07 02:57:05dht11humidity58percent
9200bbbba929e5d1f190e42603d5343f005d2021-03-07 03:02:07soilmoisture81percent
9201bbbba929e5d1f190e42603d5343f005d2021-03-07 03:02:07dht11temp19.3degree
9202bbbba929e5d1f190e42603d5343f005d2021-03-07 03:02:07dht11humidity58percent
9203bbbba929e5d1f190e42603d5343f005d2021-03-07 03:07:09soilmoisture81percent
9204bbbba929e5d1f190e42603d5343f005d2021-03-07 03:07:09dht11temp19.3degree
9205bbbba929e5d1f190e42603d5343f005d2021-03-07 03:07:09dht11humidity58percent
9206bbbba929e5d1f190e42603d5343f005d2021-03-07 03:12:11soilmoisture81percent
9207bbbba929e5d1f190e42603d5343f005d2021-03-07 03:12:11dht11temp19.3degree
9208bbbba929e5d1f190e42603d5343f005d2021-03-07 03:12:12dht11humidity58percent
9209bbbba929e5d1f190e42603d5343f005d2021-03-07 03:17:13soilmoisture81percent
9210bbbba929e5d1f190e42603d5343f005d2021-03-07 03:17:13dht11temp19.3degree
9211bbbba929e5d1f190e42603d5343f005d2021-03-07 03:17:13dht11humidity59percent
9212bbbba929e5d1f190e42603d5343f005d2021-03-07 03:22:15soilmoisture81percent
9213bbbba929e5d1f190e42603d5343f005d2021-03-07 03:22:16dht11temp19.3degree
9214bbbba929e5d1f190e42603d5343f005d2021-03-07 03:22:16dht11humidity58percent
9215bbbba929e5d1f190e42603d5343f005d2021-03-07 03:27:18soilmoisture81percent
9216bbbba929e5d1f190e42603d5343f005d2021-03-07 03:27:18dht11temp19.3degree
9217bbbba929e5d1f190e42603d5343f005d2021-03-07 03:27:18dht11humidity58percent
9218bbbba929e5d1f190e42603d5343f005d2021-03-07 03:32:21soilmoisture81percent
9219bbbba929e5d1f190e42603d5343f005d2021-03-07 03:32:21dht11temp19.3degree
9220bbbba929e5d1f190e42603d5343f005d2021-03-07 03:32:21dht11humidity58percent
9221bbbba929e5d1f190e42603d5343f005d2021-03-07 03:37:23soilmoisture81percent
9222bbbba929e5d1f190e42603d5343f005d2021-03-07 03:37:24dht11temp19.2degree
9223bbbba929e5d1f190e42603d5343f005d2021-03-07 03:37:24dht11humidity58percent
9224bbbba929e5d1f190e42603d5343f005d2021-03-07 03:42:26soilmoisture81percent
9225bbbba929e5d1f190e42603d5343f005d2021-03-07 03:42:26dht11temp19.2degree
9226bbbba929e5d1f190e42603d5343f005d2021-03-07 03:42:26dht11humidity60percent
9227bbbba929e5d1f190e42603d5343f005d2021-03-07 03:47:28soilmoisture80percent
9228bbbba929e5d1f190e42603d5343f005d2021-03-07 03:47:28dht11temp19.2degree
9229bbbba929e5d1f190e42603d5343f005d2021-03-07 03:47:28dht11humidity60percent
9230bbbba929e5d1f190e42603d5343f005d2021-03-07 03:52:30soilmoisture81percent
9231bbbba929e5d1f190e42603d5343f005d2021-03-07 03:52:31dht11temp19.2degree
9232bbbba929e5d1f190e42603d5343f005d2021-03-07 03:52:31dht11humidity59percent
9233bbbba929e5d1f190e42603d5343f005d2021-03-07 03:57:33soilmoisture80percent
9234bbbba929e5d1f190e42603d5343f005d2021-03-07 03:57:33dht11temp19.2degree
9235bbbba929e5d1f190e42603d5343f005d2021-03-07 03:57:33dht11humidity57percent
9236bbbba929e5d1f190e42603d5343f005d2021-03-07 04:02:35soilmoisture81percent
9237bbbba929e5d1f190e42603d5343f005d2021-03-07 04:02:35dht11temp19.2degree
9238bbbba929e5d1f190e42603d5343f005d2021-03-07 04:02:36dht11humidity58percent
9239bbbba929e5d1f190e42603d5343f005d2021-03-07 04:07:38soilmoisture81percent
9240bbbba929e5d1f190e42603d5343f005d2021-03-07 04:07:38dht11temp19.1degree
9241bbbba929e5d1f190e42603d5343f005d2021-03-07 04:07:38dht11humidity58percent
9242bbbba929e5d1f190e42603d5343f005d2021-03-07 04:12:41soilmoisture81percent
9243bbbba929e5d1f190e42603d5343f005d2021-03-07 04:12:41dht11temp19.2degree
9244bbbba929e5d1f190e42603d5343f005d2021-03-07 04:12:42dht11humidity59percent
9245bbbba929e5d1f190e42603d5343f005d2021-03-07 04:17:43soilmoisture81percent
9246bbbba929e5d1f190e42603d5343f005d2021-03-07 04:17:44dht11temp19.1degree
9247bbbba929e5d1f190e42603d5343f005d2021-03-07 04:17:44dht11humidity59percent
9248bbbba929e5d1f190e42603d5343f005d2021-03-07 04:22:47soilmoisture80percent
9249bbbba929e5d1f190e42603d5343f005d2021-03-07 04:22:47dht11temp19.1degree
9250bbbba929e5d1f190e42603d5343f005d2021-03-07 04:22:47dht11humidity58percent
9251bbbba929e5d1f190e42603d5343f005d2021-03-07 04:27:49soilmoisture81percent
9252bbbba929e5d1f190e42603d5343f005d2021-03-07 04:27:49dht11temp19.1degree
9253bbbba929e5d1f190e42603d5343f005d2021-03-07 04:27:50dht11humidity57percent
9254bbbba929e5d1f190e42603d5343f005d2021-03-07 04:32:51soilmoisture80percent
9255bbbba929e5d1f190e42603d5343f005d2021-03-07 04:32:52dht11temp19.1degree
9256bbbba929e5d1f190e42603d5343f005d2021-03-07 04:32:52dht11humidity58percent
9257bbbba929e5d1f190e42603d5343f005d2021-03-07 04:37:54soilmoisture81percent
9258bbbba929e5d1f190e42603d5343f005d2021-03-07 04:37:54dht11temp19.1degree
9259bbbba929e5d1f190e42603d5343f005d2021-03-07 04:37:54dht11humidity58percent
9260bbbba929e5d1f190e42603d5343f005d2021-03-07 04:42:56soilmoisture81percent
9261bbbba929e5d1f190e42603d5343f005d2021-03-07 04:42:56dht11temp19.1degree
9262bbbba929e5d1f190e42603d5343f005d2021-03-07 04:42:57dht11humidity58percent
9263bbbba929e5d1f190e42603d5343f005d2021-03-07 04:47:59soilmoisture81percent
9264bbbba929e5d1f190e42603d5343f005d2021-03-07 04:47:59dht11temp19degree
9265bbbba929e5d1f190e42603d5343f005d2021-03-07 04:47:59dht11humidity58percent
9266bbbba929e5d1f190e42603d5343f005d2021-03-07 04:53:01soilmoisture81percent
9267bbbba929e5d1f190e42603d5343f005d2021-03-07 04:53:01dht11temp19degree
9268bbbba929e5d1f190e42603d5343f005d2021-03-07 04:53:02dht11humidity58percent
9269bbbba929e5d1f190e42603d5343f005d2021-03-07 04:58:04soilmoisture80percent
9270bbbba929e5d1f190e42603d5343f005d2021-03-07 04:58:04dht11temp19degree
9271bbbba929e5d1f190e42603d5343f005d2021-03-07 04:58:04dht11humidity58percent
9272bbbba929e5d1f190e42603d5343f005d2021-03-07 05:03:06soilmoisture80percent
9273bbbba929e5d1f190e42603d5343f005d2021-03-07 05:03:07dht11temp19degree
9274bbbba929e5d1f190e42603d5343f005d2021-03-07 05:03:07dht11humidity58percent
9275bbbba929e5d1f190e42603d5343f005d2021-03-07 05:08:09soilmoisture81percent
9276bbbba929e5d1f190e42603d5343f005d2021-03-07 05:08:09dht11temp19degree
9277bbbba929e5d1f190e42603d5343f005d2021-03-07 05:08:09dht11humidity58percent
9278bbbba929e5d1f190e42603d5343f005d2021-03-07 05:13:11soilmoisture81percent
9279bbbba929e5d1f190e42603d5343f005d2021-03-07 05:13:11dht11temp19degree
9280bbbba929e5d1f190e42603d5343f005d2021-03-07 05:13:12dht11humidity58percent
9281bbbba929e5d1f190e42603d5343f005d2021-03-07 05:18:13soilmoisture81percent
9282bbbba929e5d1f190e42603d5343f005d2021-03-07 05:18:14dht11temp19degree
9283bbbba929e5d1f190e42603d5343f005d2021-03-07 05:18:14dht11humidity58percent
9284bbbba929e5d1f190e42603d5343f005d2021-03-07 05:23:16soilmoisture80percent
9285bbbba929e5d1f190e42603d5343f005d2021-03-07 05:23:16dht11temp18.9degree
9286bbbba929e5d1f190e42603d5343f005d2021-03-07 05:23:16dht11humidity57percent
9287bbbba929e5d1f190e42603d5343f005d2021-03-07 05:28:18soilmoisture81percent
9288bbbba929e5d1f190e42603d5343f005d2021-03-07 05:28:19dht11temp18.9degree
9289bbbba929e5d1f190e42603d5343f005d2021-03-07 05:28:19dht11humidity58percent
9290bbbba929e5d1f190e42603d5343f005d2021-03-07 05:33:21soilmoisture81percent
9291bbbba929e5d1f190e42603d5343f005d2021-03-07 05:33:21dht11temp18.9degree
9292bbbba929e5d1f190e42603d5343f005d2021-03-07 05:33:22dht11humidity58percent
9293bbbba929e5d1f190e42603d5343f005d2021-03-07 05:38:24soilmoisture81percent
9294bbbba929e5d1f190e42603d5343f005d2021-03-07 05:38:24dht11temp18.9degree
9295bbbba929e5d1f190e42603d5343f005d2021-03-07 05:38:24dht11humidity57percent
9296bbbba929e5d1f190e42603d5343f005d2021-03-07 05:43:26soilmoisture80percent
9297bbbba929e5d1f190e42603d5343f005d2021-03-07 05:43:26dht11temp18.9degree
9298bbbba929e5d1f190e42603d5343f005d2021-03-07 05:43:26dht11humidity59percent
9299bbbba929e5d1f190e42603d5343f005d2021-03-07 05:48:28soilmoisture80percent
9300bbbba929e5d1f190e42603d5343f005d2021-03-07 05:48:29dht11temp18.9degree
9301bbbba929e5d1f190e42603d5343f005d2021-03-07 05:48:29dht11humidity57percent
9302bbbba929e5d1f190e42603d5343f005d2021-03-07 05:53:31soilmoisture80percent
9303bbbba929e5d1f190e42603d5343f005d2021-03-07 05:53:31dht11temp18.8degree
9304bbbba929e5d1f190e42603d5343f005d2021-03-07 05:53:31dht11humidity58percent
9305bbbba929e5d1f190e42603d5343f005d2021-03-07 05:58:33soilmoisture80percent
9306bbbba929e5d1f190e42603d5343f005d2021-03-07 05:58:34dht11temp18.8degree
9307bbbba929e5d1f190e42603d5343f005d2021-03-07 05:58:34dht11humidity58percent
9308bbbba929e5d1f190e42603d5343f005d2021-03-07 06:03:35soilmoisture80percent
9309bbbba929e5d1f190e42603d5343f005d2021-03-07 06:03:35dht11temp18.8degree
9310bbbba929e5d1f190e42603d5343f005d2021-03-07 06:03:35dht11humidity59percent
9311bbbba929e5d1f190e42603d5343f005d2021-03-07 06:08:37soilmoisture80percent
9312bbbba929e5d1f190e42603d5343f005d2021-03-07 06:08:37dht11temp18.8degree
9313bbbba929e5d1f190e42603d5343f005d2021-03-07 06:08:38dht11humidity59percent
9314bbbba929e5d1f190e42603d5343f005d2021-03-07 06:13:39soilmoisture81percent
9315bbbba929e5d1f190e42603d5343f005d2021-03-07 06:13:40dht11temp18.8degree
9316bbbba929e5d1f190e42603d5343f005d2021-03-07 06:13:40dht11humidity59percent
9317bbbba929e5d1f190e42603d5343f005d2021-03-07 06:18:42soilmoisture80percent
9318bbbba929e5d1f190e42603d5343f005d2021-03-07 06:18:42dht11temp18.8degree
9319bbbba929e5d1f190e42603d5343f005d2021-03-07 06:18:42dht11humidity60percent
9320bbbba929e5d1f190e42603d5343f005d2021-03-07 06:23:44soilmoisture80percent
9321bbbba929e5d1f190e42603d5343f005d2021-03-07 06:23:44dht11temp18.8degree
9322bbbba929e5d1f190e42603d5343f005d2021-03-07 06:23:45dht11humidity58percent
9323bbbba929e5d1f190e42603d5343f005d2021-03-07 06:28:46soilmoisture80percent
9324bbbba929e5d1f190e42603d5343f005d2021-03-07 06:28:47dht11temp18.9degree
9325bbbba929e5d1f190e42603d5343f005d2021-03-07 06:28:47dht11humidity56percent
9326bbbba929e5d1f190e42603d5343f005d2021-03-07 06:33:49soilmoisture80percent
9327bbbba929e5d1f190e42603d5343f005d2021-03-07 06:33:49dht11temp19degree
9328bbbba929e5d1f190e42603d5343f005d2021-03-07 06:33:49dht11humidity56percent
9329bbbba929e5d1f190e42603d5343f005d2021-03-07 06:38:52soilmoisture80percent
9330bbbba929e5d1f190e42603d5343f005d2021-03-07 06:38:52dht11temp19.1degree
9331bbbba929e5d1f190e42603d5343f005d2021-03-07 06:38:52dht11humidity55percent
9332bbbba929e5d1f190e42603d5343f005d2021-03-07 06:43:54soilmoisture80percent
9333bbbba929e5d1f190e42603d5343f005d2021-03-07 06:43:54dht11temp19.1degree
9334bbbba929e5d1f190e42603d5343f005d2021-03-07 06:43:54dht11humidity56percent
9335bbbba929e5d1f190e42603d5343f005d2021-03-07 06:48:57soilmoisture80percent
9336bbbba929e5d1f190e42603d5343f005d2021-03-07 06:48:57dht11temp19.2degree
9337bbbba929e5d1f190e42603d5343f005d2021-03-07 06:48:57dht11humidity54percent
9338bbbba929e5d1f190e42603d5343f005d2021-03-07 06:53:59soilmoisture80percent
9339bbbba929e5d1f190e42603d5343f005d2021-03-07 06:54:00dht11temp19.2degree
9340bbbba929e5d1f190e42603d5343f005d2021-03-07 06:54:00dht11humidity54percent
9341bbbba929e5d1f190e42603d5343f005d2021-03-07 06:59:02soilmoisture80percent
9342bbbba929e5d1f190e42603d5343f005d2021-03-07 06:59:02dht11temp19.3degree
9343bbbba929e5d1f190e42603d5343f005d2021-03-07 06:59:03dht11humidity53percent
9344bbbba929e5d1f190e42603d5343f005d2021-03-07 07:04:05soilmoisture80percent
9345bbbba929e5d1f190e42603d5343f005d2021-03-07 07:04:05dht11temp19.3degree
9346bbbba929e5d1f190e42603d5343f005d2021-03-07 07:04:05dht11humidity54percent
9347bbbba929e5d1f190e42603d5343f005d2021-03-07 07:09:07soilmoisture80percent
9348bbbba929e5d1f190e42603d5343f005d2021-03-07 07:09:07dht11temp19.3degree
9349bbbba929e5d1f190e42603d5343f005d2021-03-07 07:09:08dht11humidity54percent
9350bbbba929e5d1f190e42603d5343f005d2021-03-07 07:14:10soilmoisture80percent
9351bbbba929e5d1f190e42603d5343f005d2021-03-07 07:14:10dht11temp19.4degree
9352bbbba929e5d1f190e42603d5343f005d2021-03-07 07:14:10dht11humidity53percent
9353bbbba929e5d1f190e42603d5343f005d2021-03-07 07:19:12soilmoisture80percent
9354bbbba929e5d1f190e42603d5343f005d2021-03-07 07:19:13dht11temp19.4degree
9355bbbba929e5d1f190e42603d5343f005d2021-03-07 07:19:13dht11humidity55percent
9356bbbba929e5d1f190e42603d5343f005d2021-03-07 07:24:15soilmoisture80percent
9357bbbba929e5d1f190e42603d5343f005d2021-03-07 07:24:15dht11temp19.4degree
9358bbbba929e5d1f190e42603d5343f005d2021-03-07 07:24:16dht11humidity54percent
9359bbbba929e5d1f190e42603d5343f005d2021-03-07 07:29:18soilmoisture80percent
9360bbbba929e5d1f190e42603d5343f005d2021-03-07 07:29:18dht11temp19.4degree
9361bbbba929e5d1f190e42603d5343f005d2021-03-07 07:29:18dht11humidity55percent
9362bbbba929e5d1f190e42603d5343f005d2021-03-07 07:34:20soilmoisture80percent
9363bbbba929e5d1f190e42603d5343f005d2021-03-07 07:34:21dht11temp19.5degree
9364bbbba929e5d1f190e42603d5343f005d2021-03-07 07:34:21dht11humidity54percent
9365bbbba929e5d1f190e42603d5343f005d2021-03-07 07:39:23soilmoisture80percent
9366bbbba929e5d1f190e42603d5343f005d2021-03-07 07:39:23dht11temp19.5degree
9367bbbba929e5d1f190e42603d5343f005d2021-03-07 07:39:23dht11humidity54percent
9368bbbba929e5d1f190e42603d5343f005d2021-03-07 07:44:25soilmoisture80percent
9369bbbba929e5d1f190e42603d5343f005d2021-03-07 07:44:25dht11temp19.5degree
9370bbbba929e5d1f190e42603d5343f005d2021-03-07 07:44:26dht11humidity54percent
9371bbbba929e5d1f190e42603d5343f005d2021-03-07 07:49:28soilmoisture80percent
9372bbbba929e5d1f190e42603d5343f005d2021-03-07 07:49:28dht11temp19.6degree
9373bbbba929e5d1f190e42603d5343f005d2021-03-07 07:49:29dht11humidity53percent
9374bbbba929e5d1f190e42603d5343f005d2021-03-07 07:54:31soilmoisture80percent
9375bbbba929e5d1f190e42603d5343f005d2021-03-07 07:54:31dht11temp19.6degree
9376bbbba929e5d1f190e42603d5343f005d2021-03-07 07:54:31dht11humidity55percent
9377bbbba929e5d1f190e42603d5343f005d2021-03-07 07:59:33soilmoisture80percent
9378bbbba929e5d1f190e42603d5343f005d2021-03-07 07:59:34dht11temp19.5degree
9379bbbba929e5d1f190e42603d5343f005d2021-03-07 07:59:34dht11humidity53percent
9380bbbba929e5d1f190e42603d5343f005d2021-03-07 08:04:36soilmoisture80percent
9381bbbba929e5d1f190e42603d5343f005d2021-03-07 08:04:36dht11temp19.4degree
9382bbbba929e5d1f190e42603d5343f005d2021-03-07 08:04:37dht11humidity55percent
9383bbbba929e5d1f190e42603d5343f005d2021-03-07 08:09:39soilmoisture80percent
9384bbbba929e5d1f190e42603d5343f005d2021-03-07 08:09:39dht11temp19.4degree
9385bbbba929e5d1f190e42603d5343f005d2021-03-07 08:09:39dht11humidity56percent
9386bbbba929e5d1f190e42603d5343f005d2021-03-07 08:14:41soilmoisture80percent
9387bbbba929e5d1f190e42603d5343f005d2021-03-07 08:14:41dht11temp19.4degree
9388bbbba929e5d1f190e42603d5343f005d2021-03-07 08:14:42dht11humidity55percent
9389bbbba929e5d1f190e42603d5343f005d2021-03-07 08:19:43soilmoisture80percent
9390bbbba929e5d1f190e42603d5343f005d2021-03-07 08:19:44dht11temp19.3degree
9391bbbba929e5d1f190e42603d5343f005d2021-03-07 08:19:44dht11humidity54percent
9392bbbba929e5d1f190e42603d5343f005d2021-03-07 08:24:46soilmoisture80percent
9393bbbba929e5d1f190e42603d5343f005d2021-03-07 08:24:46dht11temp19.3degree
9394bbbba929e5d1f190e42603d5343f005d2021-03-07 08:24:46dht11humidity57percent
9395bbbba929e5d1f190e42603d5343f005d2021-03-07 08:29:49soilmoisture80percent
9396bbbba929e5d1f190e42603d5343f005d2021-03-07 08:29:49dht11temp19.3degree
9397bbbba929e5d1f190e42603d5343f005d2021-03-07 08:29:49dht11humidity58percent
9398bbbba929e5d1f190e42603d5343f005d2021-03-07 08:34:51soilmoisture80percent
9399bbbba929e5d1f190e42603d5343f005d2021-03-07 08:34:52dht11temp19.3degree
9400bbbba929e5d1f190e42603d5343f005d2021-03-07 08:34:52dht11humidity55percent
9401bbbba929e5d1f190e42603d5343f005d2021-03-07 08:39:54soilmoisture80percent
9402bbbba929e5d1f190e42603d5343f005d2021-03-07 08:39:54dht11temp19.3degree
9403bbbba929e5d1f190e42603d5343f005d2021-03-07 08:39:54dht11humidity56percent
9404bbbba929e5d1f190e42603d5343f005d2021-03-07 08:44:56soilmoisture80percent
9405bbbba929e5d1f190e42603d5343f005d2021-03-07 08:44:56dht11temp19.4degree
9406bbbba929e5d1f190e42603d5343f005d2021-03-07 08:44:56dht11humidity56percent
9407bbbba929e5d1f190e42603d5343f005d2021-03-07 08:49:58soilmoisture80percent
9408bbbba929e5d1f190e42603d5343f005d2021-03-07 08:49:59dht11temp19.3degree
9409bbbba929e5d1f190e42603d5343f005d2021-03-07 08:49:59dht11humidity55percent
9410bbbba929e5d1f190e42603d5343f005d2021-03-07 08:55:01soilmoisture80percent
9411bbbba929e5d1f190e42603d5343f005d2021-03-07 08:55:01dht11temp19.4degree
9412bbbba929e5d1f190e42603d5343f005d2021-03-07 08:55:01dht11humidity55percent
9413bbbba929e5d1f190e42603d5343f005d2021-03-07 09:00:04soilmoisture80percent
9414bbbba929e5d1f190e42603d5343f005d2021-03-07 09:00:04dht11temp19.4degree
9415bbbba929e5d1f190e42603d5343f005d2021-03-07 09:00:04dht11humidity55percent
9416bbbba929e5d1f190e42603d5343f005d2021-03-07 09:05:06soilmoisture80percent
9417bbbba929e5d1f190e42603d5343f005d2021-03-07 09:05:06dht11temp19.4degree
9418bbbba929e5d1f190e42603d5343f005d2021-03-07 09:05:06dht11humidity56percent
9419bbbba929e5d1f190e42603d5343f005d2021-03-07 09:10:09soilmoisture80percent
9420bbbba929e5d1f190e42603d5343f005d2021-03-07 09:10:09dht11temp19.4degree
9421bbbba929e5d1f190e42603d5343f005d2021-03-07 09:10:09dht11humidity56percent
9422bbbba929e5d1f190e42603d5343f005d2021-03-07 09:15:11soilmoisture80percent
9423bbbba929e5d1f190e42603d5343f005d2021-03-07 09:15:11dht11temp19.4degree
9424bbbba929e5d1f190e42603d5343f005d2021-03-07 09:15:12dht11humidity57percent
9425bbbba929e5d1f190e42603d5343f005d2021-03-07 09:20:14soilmoisture80percent
9426bbbba929e5d1f190e42603d5343f005d2021-03-07 09:20:14dht11temp19.4degree
9427bbbba929e5d1f190e42603d5343f005d2021-03-07 09:20:14dht11humidity57percent
9428bbbba929e5d1f190e42603d5343f005d2021-03-07 09:25:16soilmoisture80percent
9429bbbba929e5d1f190e42603d5343f005d2021-03-07 09:25:16dht11temp19.5degree
9430bbbba929e5d1f190e42603d5343f005d2021-03-07 09:25:17dht11humidity57percent
9431bbbba929e5d1f190e42603d5343f005d2021-03-07 09:30:19soilmoisture80percent
9432bbbba929e5d1f190e42603d5343f005d2021-03-07 09:30:19dht11temp19.5degree
9433bbbba929e5d1f190e42603d5343f005d2021-03-07 09:30:19dht11humidity55percent
9434bbbba929e5d1f190e42603d5343f005d2021-03-07 09:35:21soilmoisture80percent
9435bbbba929e5d1f190e42603d5343f005d2021-03-07 09:35:21dht11temp19.5degree
9436bbbba929e5d1f190e42603d5343f005d2021-03-07 09:35:21dht11humidity55percent
9437bbbba929e5d1f190e42603d5343f005d2021-03-07 09:40:23soilmoisture80percent
9438bbbba929e5d1f190e42603d5343f005d2021-03-07 09:40:23dht11temp19.6degree
9439bbbba929e5d1f190e42603d5343f005d2021-03-07 09:40:24dht11humidity53percent
9440bbbba929e5d1f190e42603d5343f005d2021-03-07 09:45:26soilmoisture80percent
9441bbbba929e5d1f190e42603d5343f005d2021-03-07 09:45:26dht11temp19.6degree
9442bbbba929e5d1f190e42603d5343f005d2021-03-07 09:45:26dht11humidity56percent
9443bbbba929e5d1f190e42603d5343f005d2021-03-07 09:50:28soilmoisture80percent
9444bbbba929e5d1f190e42603d5343f005d2021-03-07 09:50:28dht11temp19.6degree
9445bbbba929e5d1f190e42603d5343f005d2021-03-07 09:50:29dht11humidity56percent
9446bbbba929e5d1f190e42603d5343f005d2021-03-07 09:55:30soilmoisture80percent
9447bbbba929e5d1f190e42603d5343f005d2021-03-07 09:55:31dht11temp19.6degree
9448bbbba929e5d1f190e42603d5343f005d2021-03-07 09:55:31dht11humidity56percent
9449bbbba929e5d1f190e42603d5343f005d2021-03-07 10:00:33soilmoisture80percent
9450bbbba929e5d1f190e42603d5343f005d2021-03-07 10:00:34dht11temp19.6degree
9451bbbba929e5d1f190e42603d5343f005d2021-03-07 10:00:34dht11humidity55percent
9452bbbba929e5d1f190e42603d5343f005d2021-03-07 10:05:36soilmoisture80percent
9453bbbba929e5d1f190e42603d5343f005d2021-03-07 10:05:36dht11temp19.6degree
9454bbbba929e5d1f190e42603d5343f005d2021-03-07 10:05:36dht11humidity56percent
9455bbbba929e5d1f190e42603d5343f005d2021-03-07 10:10:39soilmoisture79percent
9456bbbba929e5d1f190e42603d5343f005d2021-03-07 10:10:39dht11temp19.6degree
9457bbbba929e5d1f190e42603d5343f005d2021-03-07 10:10:39dht11humidity57percent
9458bbbba929e5d1f190e42603d5343f005d2021-03-07 10:15:41soilmoisture80percent
9459bbbba929e5d1f190e42603d5343f005d2021-03-07 10:15:41dht11temp19.6degree
9460bbbba929e5d1f190e42603d5343f005d2021-03-07 10:15:42dht11humidity54percent
9461bbbba929e5d1f190e42603d5343f005d2021-03-07 10:20:44soilmoisture80percent
9462bbbba929e5d1f190e42603d5343f005d2021-03-07 10:20:44dht11temp19.6degree
9463bbbba929e5d1f190e42603d5343f005d2021-03-07 10:20:44dht11humidity54percent
9464bbbba929e5d1f190e42603d5343f005d2021-03-07 10:25:46soilmoisture80percent
9465bbbba929e5d1f190e42603d5343f005d2021-03-07 10:25:46dht11temp19.7degree
9466bbbba929e5d1f190e42603d5343f005d2021-03-07 10:25:47dht11humidity53percent
9467bbbba929e5d1f190e42603d5343f005d2021-03-07 10:30:49soilmoisture80percent
9468bbbba929e5d1f190e42603d5343f005d2021-03-07 10:30:49dht11temp19.7degree
9469bbbba929e5d1f190e42603d5343f005d2021-03-07 10:30:49dht11humidity53percent
9470bbbba929e5d1f190e42603d5343f005d2021-03-07 10:35:51soilmoisture80percent
9471bbbba929e5d1f190e42603d5343f005d2021-03-07 10:35:51dht11temp19.7degree
9472bbbba929e5d1f190e42603d5343f005d2021-03-07 10:35:52dht11humidity54percent
9473bbbba929e5d1f190e42603d5343f005d2021-03-07 10:40:54soilmoisture79percent
9474bbbba929e5d1f190e42603d5343f005d2021-03-07 10:40:54dht11temp19.8degree
9475bbbba929e5d1f190e42603d5343f005d2021-03-07 10:40:54dht11humidity53percent
9476bbbba929e5d1f190e42603d5343f005d2021-03-07 10:45:56soilmoisture80percent
9477bbbba929e5d1f190e42603d5343f005d2021-03-07 10:45:56dht11temp19.8degree
9478bbbba929e5d1f190e42603d5343f005d2021-03-07 10:45:57dht11humidity53percent
9479bbbba929e5d1f190e42603d5343f005d2021-03-07 10:50:58soilmoisture80percent
9480bbbba929e5d1f190e42603d5343f005d2021-03-07 10:50:59dht11temp19.8degree
9481bbbba929e5d1f190e42603d5343f005d2021-03-07 10:50:59dht11humidity53percent
9482bbbba929e5d1f190e42603d5343f005d2021-03-07 10:56:01soilmoisture79percent
9483bbbba929e5d1f190e42603d5343f005d2021-03-07 10:56:02dht11temp19.8degree
9484bbbba929e5d1f190e42603d5343f005d2021-03-07 10:56:02dht11humidity53percent
9485bbbba929e5d1f190e42603d5343f005d2021-03-07 11:01:04soilmoisture79percent
9486bbbba929e5d1f190e42603d5343f005d2021-03-07 11:01:04dht11temp19.9degree
9487bbbba929e5d1f190e42603d5343f005d2021-03-07 11:01:04dht11humidity55percent
9488bbbba929e5d1f190e42603d5343f005d2021-03-07 11:06:06soilmoisture79percent
9489bbbba929e5d1f190e42603d5343f005d2021-03-07 11:06:06dht11temp19.9degree
9490bbbba929e5d1f190e42603d5343f005d2021-03-07 11:06:07dht11humidity54percent
9491bbbba929e5d1f190e42603d5343f005d2021-03-07 11:11:09soilmoisture80percent
9492bbbba929e5d1f190e42603d5343f005d2021-03-07 11:11:09dht11temp19.9degree
9493bbbba929e5d1f190e42603d5343f005d2021-03-07 11:11:09dht11humidity54percent
9494bbbba929e5d1f190e42603d5343f005d2021-03-07 11:16:11soilmoisture80percent
9495bbbba929e5d1f190e42603d5343f005d2021-03-07 11:16:16dht11temp19.9degree
9496bbbba929e5d1f190e42603d5343f005d2021-03-07 11:16:18dht11humidity54percent
9497bbbba929e5d1f190e42603d5343f005d2021-03-07 11:21:20soilmoisture79percent
9498bbbba929e5d1f190e42603d5343f005d2021-03-07 11:21:20dht11temp19.9degree
9499bbbba929e5d1f190e42603d5343f005d2021-03-07 11:21:21dht11humidity55percent
9500bbbba929e5d1f190e42603d5343f005d2021-03-07 11:26:22soilmoisture80percent
9501bbbba929e5d1f190e42603d5343f005d2021-03-07 11:26:23dht11temp20degree
9502bbbba929e5d1f190e42603d5343f005d2021-03-07 11:26:23dht11humidity58percent
9503bbbba929e5d1f190e42603d5343f005d2021-03-07 11:31:24soilmoisture79percent
9504bbbba929e5d1f190e42603d5343f005d2021-03-07 11:31:25dht11temp20degree
9505bbbba929e5d1f190e42603d5343f005d2021-03-07 11:31:25dht11humidity61percent
9506bbbba929e5d1f190e42603d5343f005d2021-03-07 11:36:27soilmoisture80percent
9507bbbba929e5d1f190e42603d5343f005d2021-03-07 11:36:27dht11temp20.1degree
9508bbbba929e5d1f190e42603d5343f005d2021-03-07 11:36:27dht11humidity58percent
9509bbbba929e5d1f190e42603d5343f005d2021-03-07 11:41:29soilmoisture79percent
9510bbbba929e5d1f190e42603d5343f005d2021-03-07 11:41:30dht11temp20.1degree
9511bbbba929e5d1f190e42603d5343f005d2021-03-07 11:41:30dht11humidity54percent
9512bbbba929e5d1f190e42603d5343f005d2021-03-07 11:46:32soilmoisture80percent
9513bbbba929e5d1f190e42603d5343f005d2021-03-07 11:46:32dht11temp20.1degree
9514bbbba929e5d1f190e42603d5343f005d2021-03-07 11:46:33dht11humidity59percent
9515bbbba929e5d1f190e42603d5343f005d2021-03-07 11:51:34soilmoisture79percent
9516bbbba929e5d1f190e42603d5343f005d2021-03-07 11:51:35dht11temp20.1degree
9517bbbba929e5d1f190e42603d5343f005d2021-03-07 11:51:35dht11humidity56percent
9518bbbba929e5d1f190e42603d5343f005d2021-03-07 11:56:37soilmoisture79percent
9519bbbba929e5d1f190e42603d5343f005d2021-03-07 11:56:37dht11temp20.2degree
9520bbbba929e5d1f190e42603d5343f005d2021-03-07 11:56:38dht11humidity58percent
9521bbbba929e5d1f190e42603d5343f005d2021-03-07 12:01:39soilmoisture79percent
9522bbbba929e5d1f190e42603d5343f005d2021-03-07 12:01:39dht11temp20.1degree
9523bbbba929e5d1f190e42603d5343f005d2021-03-07 12:01:39dht11humidity56percent
9524bbbba929e5d1f190e42603d5343f005d2021-03-07 12:06:41soilmoisture80percent
9525bbbba929e5d1f190e42603d5343f005d2021-03-07 12:06:41dht11temp20.2degree
9526bbbba929e5d1f190e42603d5343f005d2021-03-07 12:06:42dht11humidity57percent
9527bbbba929e5d1f190e42603d5343f005d2021-03-07 12:11:44soilmoisture80percent
9528bbbba929e5d1f190e42603d5343f005d2021-03-07 12:11:44dht11temp20.1degree
9529bbbba929e5d1f190e42603d5343f005d2021-03-07 12:11:44dht11humidity56percent
9530bbbba929e5d1f190e42603d5343f005d2021-03-07 12:16:46soilmoisture80percent
9531bbbba929e5d1f190e42603d5343f005d2021-03-07 12:16:47dht11temp20.1degree
9532bbbba929e5d1f190e42603d5343f005d2021-03-07 12:16:47dht11humidity55percent
9533bbbba929e5d1f190e42603d5343f005d2021-03-07 12:21:49soilmoisture80percent
9534bbbba929e5d1f190e42603d5343f005d2021-03-07 12:21:49dht11temp20.2degree
9535bbbba929e5d1f190e42603d5343f005d2021-03-07 12:21:49dht11humidity56percent
9536bbbba929e5d1f190e42603d5343f005d2021-03-07 12:26:51soilmoisture79percent
9537bbbba929e5d1f190e42603d5343f005d2021-03-07 12:26:51dht11temp20.2degree
9538bbbba929e5d1f190e42603d5343f005d2021-03-07 12:26:52dht11humidity55percent
9539bbbba929e5d1f190e42603d5343f005d2021-03-07 12:31:54soilmoisture79percent
9540bbbba929e5d1f190e42603d5343f005d2021-03-07 12:31:54dht11temp20.2degree
9541bbbba929e5d1f190e42603d5343f005d2021-03-07 12:31:54dht11humidity58percent
9542bbbba929e5d1f190e42603d5343f005d2021-03-07 12:36:56soilmoisture80percent
9543bbbba929e5d1f190e42603d5343f005d2021-03-07 12:36:56dht11temp20.3degree
9544bbbba929e5d1f190e42603d5343f005d2021-03-07 12:36:57dht11humidity57percent
9545bbbba929e5d1f190e42603d5343f005d2021-03-07 12:41:59soilmoisture79percent
9546bbbba929e5d1f190e42603d5343f005d2021-03-07 12:41:59dht11temp20.3degree
9547bbbba929e5d1f190e42603d5343f005d2021-03-07 12:41:59dht11humidity57percent
9548bbbba929e5d1f190e42603d5343f005d2021-03-07 12:47:01soilmoisture79percent
9549bbbba929e5d1f190e42603d5343f005d2021-03-07 12:47:01dht11temp20.4degree
9550bbbba929e5d1f190e42603d5343f005d2021-03-07 12:47:02dht11humidity55percent
9551bbbba929e5d1f190e42603d5343f005d2021-03-07 12:52:04soilmoisture79percent
9552bbbba929e5d1f190e42603d5343f005d2021-03-07 12:52:04dht11temp20.4degree
9553bbbba929e5d1f190e42603d5343f005d2021-03-07 12:52:04dht11humidity54percent
9554bbbba929e5d1f190e42603d5343f005d2021-03-07 12:57:06soilmoisture79percent
9555bbbba929e5d1f190e42603d5343f005d2021-03-07 12:57:07dht11temp20.4degree
9556bbbba929e5d1f190e42603d5343f005d2021-03-07 12:57:07dht11humidity55percent
9557bbbba929e5d1f190e42603d5343f005d2021-03-07 13:02:10soilmoisture79percent
9558bbbba929e5d1f190e42603d5343f005d2021-03-07 13:02:10dht11temp20.5degree
9559bbbba929e5d1f190e42603d5343f005d2021-03-07 13:02:10dht11humidity62percent
9560bbbba929e5d1f190e42603d5343f005d2021-03-07 13:07:13soilmoisture79percent
9561bbbba929e5d1f190e42603d5343f005d2021-03-07 13:07:13dht11temp20.5degree
9562bbbba929e5d1f190e42603d5343f005d2021-03-07 13:07:13dht11humidity54percent
9563bbbba929e5d1f190e42603d5343f005d2021-03-07 13:12:15soilmoisture79percent
9564bbbba929e5d1f190e42603d5343f005d2021-03-07 13:12:15dht11temp20.5degree
9565bbbba929e5d1f190e42603d5343f005d2021-03-07 13:12:16dht11humidity55percent
9566bbbba929e5d1f190e42603d5343f005d2021-03-07 13:17:17soilmoisture79percent
9567bbbba929e5d1f190e42603d5343f005d2021-03-07 13:17:18dht11temp20.6degree
9568bbbba929e5d1f190e42603d5343f005d2021-03-07 13:17:18dht11humidity54percent
9569bbbba929e5d1f190e42603d5343f005d2021-03-07 13:22:20soilmoisture79percent
9570bbbba929e5d1f190e42603d5343f005d2021-03-07 13:22:20dht11temp20.7degree
9571bbbba929e5d1f190e42603d5343f005d2021-03-07 13:22:20dht11humidity52percent
9572bbbba929e5d1f190e42603d5343f005d2021-03-07 13:27:22soilmoisture79percent
9573bbbba929e5d1f190e42603d5343f005d2021-03-07 13:27:23dht11temp20.9degree
9574bbbba929e5d1f190e42603d5343f005d2021-03-07 13:27:23dht11humidity51percent
9575bbbba929e5d1f190e42603d5343f005d2021-03-07 13:32:25soilmoisture79percent
9576bbbba929e5d1f190e42603d5343f005d2021-03-07 13:32:25dht11temp21.3degree
9577bbbba929e5d1f190e42603d5343f005d2021-03-07 13:32:25dht11humidity53percent
9578bbbba929e5d1f190e42603d5343f005d2021-03-07 13:37:27soilmoisture79percent
9579bbbba929e5d1f190e42603d5343f005d2021-03-07 13:37:27dht11temp21.7degree
9580bbbba929e5d1f190e42603d5343f005d2021-03-07 13:37:27dht11humidity50percent
9581bbbba929e5d1f190e42603d5343f005d2021-03-07 13:42:30soilmoisture79percent
9582bbbba929e5d1f190e42603d5343f005d2021-03-07 13:42:30dht11temp21.8degree
9583bbbba929e5d1f190e42603d5343f005d2021-03-07 13:42:30dht11humidity51percent
9584bbbba929e5d1f190e42603d5343f005d2021-03-07 13:47:32soilmoisture79percent
9585bbbba929e5d1f190e42603d5343f005d2021-03-07 13:47:32dht11temp21.8degree
9586bbbba929e5d1f190e42603d5343f005d2021-03-07 13:47:33dht11humidity56percent
9587bbbba929e5d1f190e42603d5343f005d2021-03-07 13:52:35soilmoisture79percent
9588bbbba929e5d1f190e42603d5343f005d2021-03-07 13:52:35dht11temp21.9degree
9589bbbba929e5d1f190e42603d5343f005d2021-03-07 13:52:35dht11humidity50percent
9590bbbba929e5d1f190e42603d5343f005d2021-03-07 13:57:37soilmoisture79percent
9591bbbba929e5d1f190e42603d5343f005d2021-03-07 13:57:37dht11temp22.1degree
9592bbbba929e5d1f190e42603d5343f005d2021-03-07 13:57:38dht11humidity53percent
9593bbbba929e5d1f190e42603d5343f005d2021-03-07 14:02:40soilmoisture79percent
9594bbbba929e5d1f190e42603d5343f005d2021-03-07 14:02:40dht11temp22.4degree
9595bbbba929e5d1f190e42603d5343f005d2021-03-07 14:02:40dht11humidity49percent
9596bbbba929e5d1f190e42603d5343f005d2021-03-07 14:07:42soilmoisture79percent
9597bbbba929e5d1f190e42603d5343f005d2021-03-07 14:07:42dht11temp23.8degree
9598bbbba929e5d1f190e42603d5343f005d2021-03-07 14:07:43dht11humidity47percent
9599bbbba929e5d1f190e42603d5343f005d2021-03-07 14:12:45soilmoisture79percent
9600bbbba929e5d1f190e42603d5343f005d2021-03-07 14:12:45dht11temp24.9degree
9601bbbba929e5d1f190e42603d5343f005d2021-03-07 14:12:45dht11humidity42percent
9602bbbba929e5d1f190e42603d5343f005d2021-03-07 14:17:47soilmoisture78percent
9603bbbba929e5d1f190e42603d5343f005d2021-03-07 14:17:48dht11temp26.2degree
9604bbbba929e5d1f190e42603d5343f005d2021-03-07 14:17:48dht11humidity40percent
9605bbbba929e5d1f190e42603d5343f005d2021-03-07 14:22:50soilmoisture78percent
9606bbbba929e5d1f190e42603d5343f005d2021-03-07 14:22:50dht11temp26.5degree
9607bbbba929e5d1f190e42603d5343f005d2021-03-07 14:22:50dht11humidity37percent
9608bbbba929e5d1f190e42603d5343f005d2021-03-07 14:27:52soilmoisture77percent
9609bbbba929e5d1f190e42603d5343f005d2021-03-07 14:27:52dht11temp25.6degree
9610bbbba929e5d1f190e42603d5343f005d2021-03-07 14:27:52dht11humidity40percent
9611bbbba929e5d1f190e42603d5343f005d2021-03-07 14:32:54soilmoisture76percent
9612bbbba929e5d1f190e42603d5343f005d2021-03-07 14:32:55dht11temp32.3degree
9613bbbba929e5d1f190e42603d5343f005d2021-03-07 14:32:55dht11humidity29percent
9614bbbba929e5d1f190e42603d5343f005d2021-03-07 14:37:57soilmoisture76percent
9615bbbba929e5d1f190e42603d5343f005d2021-03-07 14:37:57dht11temp36.6degree
9616bbbba929e5d1f190e42603d5343f005d2021-03-07 14:37:58dht11humidity23percent
9617bbbba929e5d1f190e42603d5343f005d2021-03-07 14:42:59soilmoisture76percent
9618bbbba929e5d1f190e42603d5343f005d2021-03-07 14:43:00dht11temp37.7degree
9619bbbba929e5d1f190e42603d5343f005d2021-03-07 14:43:00dht11humidity19percent
9620bbbba929e5d1f190e42603d5343f005d2021-03-07 14:48:02soilmoisture76percent
9621bbbba929e5d1f190e42603d5343f005d2021-03-07 14:48:02dht11temp38.3degree
9622bbbba929e5d1f190e42603d5343f005d2021-03-07 14:48:02dht11humidity22percent
9623bbbba929e5d1f190e42603d5343f005d2021-03-07 14:53:04soilmoisture76percent
9624bbbba929e5d1f190e42603d5343f005d2021-03-07 14:53:04dht11temp36.9degree
9625bbbba929e5d1f190e42603d5343f005d2021-03-07 14:53:05dht11humidity22percent
9626bbbba929e5d1f190e42603d5343f005d2021-03-07 14:58:06soilmoisture76percent
9627bbbba929e5d1f190e42603d5343f005d2021-03-07 14:58:07dht11temp38.1degree
9628bbbba929e5d1f190e42603d5343f005d2021-03-07 14:58:07dht11humidity23percent
9629bbbba929e5d1f190e42603d5343f005d2021-03-07 15:03:09soilmoisture75percent
9630bbbba929e5d1f190e42603d5343f005d2021-03-07 15:03:10dht11temp39.5degree
9631bbbba929e5d1f190e42603d5343f005d2021-03-07 15:03:10dht11humidity20percent
9632bbbba929e5d1f190e42603d5343f005d2021-03-07 15:08:12soilmoisture75percent
9633bbbba929e5d1f190e42603d5343f005d2021-03-07 15:08:12dht11temp40degree
9634bbbba929e5d1f190e42603d5343f005d2021-03-07 15:08:12dht11humidity20percent
9635bbbba929e5d1f190e42603d5343f005d2021-03-07 15:13:14soilmoisture75percent
9636bbbba929e5d1f190e42603d5343f005d2021-03-07 15:13:14dht11temp40.2degree
9637bbbba929e5d1f190e42603d5343f005d2021-03-07 15:13:14dht11humidity19percent
9638bbbba929e5d1f190e42603d5343f005d2021-03-07 15:18:16soilmoisture75percent
9639bbbba929e5d1f190e42603d5343f005d2021-03-07 15:18:17dht11temp40.2degree
9640bbbba929e5d1f190e42603d5343f005d2021-03-07 15:18:17dht11humidity19percent
9641bbbba929e5d1f190e42603d5343f005d2021-03-07 15:23:19soilmoisture75percent
9642bbbba929e5d1f190e42603d5343f005d2021-03-07 15:23:19dht11temp40.2degree
9643bbbba929e5d1f190e42603d5343f005d2021-03-07 15:23:19dht11humidity20percent
9644bbbba929e5d1f190e42603d5343f005d2021-03-07 15:28:21soilmoisture75percent
9645bbbba929e5d1f190e42603d5343f005d2021-03-07 15:28:21dht11temp40.1degree
9646bbbba929e5d1f190e42603d5343f005d2021-03-07 15:28:21dht11humidity19percent
9647bbbba929e5d1f190e42603d5343f005d2021-03-07 15:33:23soilmoisture75percent
9648bbbba929e5d1f190e42603d5343f005d2021-03-07 15:33:24dht11temp40.1degree
9649bbbba929e5d1f190e42603d5343f005d2021-03-07 15:33:24dht11humidity21percent
9650bbbba929e5d1f190e42603d5343f005d2021-03-07 15:38:26soilmoisture76percent
9651bbbba929e5d1f190e42603d5343f005d2021-03-07 15:38:26dht11temp40.2degree
9652bbbba929e5d1f190e42603d5343f005d2021-03-07 15:38:27dht11humidity18percent
9653bbbba929e5d1f190e42603d5343f005d2021-03-07 15:43:28soilmoisture76percent
9654bbbba929e5d1f190e42603d5343f005d2021-03-07 15:43:29dht11temp40.1degree
9655bbbba929e5d1f190e42603d5343f005d2021-03-07 15:43:29dht11humidity19percent
9656bbbba929e5d1f190e42603d5343f005d2021-03-07 15:48:31soilmoisture78percent
9657bbbba929e5d1f190e42603d5343f005d2021-03-07 15:48:32dht11temp35.5degree
9658bbbba929e5d1f190e42603d5343f005d2021-03-07 15:48:32dht11humidity23percent
9659bbbba929e5d1f190e42603d5343f005d2021-03-07 15:53:34soilmoisture78percent
9660bbbba929e5d1f190e42603d5343f005d2021-03-07 15:53:34dht11temp29.3degree
9661bbbba929e5d1f190e42603d5343f005d2021-03-07 15:53:34dht11humidity32percent
9662bbbba929e5d1f190e42603d5343f005d2021-03-07 15:58:38soilmoisture79percent
9663bbbba929e5d1f190e42603d5343f005d2021-03-07 15:58:38dht11temp27.2degree
9664bbbba929e5d1f190e42603d5343f005d2021-03-07 15:58:38dht11humidity36percent
9665bbbba929e5d1f190e42603d5343f005d2021-03-07 16:03:40soilmoisture79percent
9666bbbba929e5d1f190e42603d5343f005d2021-03-07 16:03:40dht11temp26.3degree
9667bbbba929e5d1f190e42603d5343f005d2021-03-07 16:03:41dht11humidity41percent
9668bbbba929e5d1f190e42603d5343f005d2021-03-07 16:08:43soilmoisture79percent
9669bbbba929e5d1f190e42603d5343f005d2021-03-07 16:08:43dht11temp25.7degree
9670bbbba929e5d1f190e42603d5343f005d2021-03-07 16:08:43dht11humidity43percent
9671bbbba929e5d1f190e42603d5343f005d2021-03-07 16:13:45soilmoisture79percent
9672bbbba929e5d1f190e42603d5343f005d2021-03-07 16:13:45dht11temp25.3degree
9673bbbba929e5d1f190e42603d5343f005d2021-03-07 16:13:46dht11humidity43percent
9674bbbba929e5d1f190e42603d5343f005d2021-03-07 16:18:47soilmoisture79percent
9675bbbba929e5d1f190e42603d5343f005d2021-03-07 16:18:48dht11temp25degree
9676bbbba929e5d1f190e42603d5343f005d2021-03-07 16:18:49dht11humidity45percent
9677bbbba929e5d1f190e42603d5343f005d2021-03-07 16:23:51soilmoisture79percent
9678bbbba929e5d1f190e42603d5343f005d2021-03-07 16:23:51dht11temp24.7degree
9679bbbba929e5d1f190e42603d5343f005d2021-03-07 16:23:51dht11humidity43percent
9680bbbba929e5d1f190e42603d5343f005d2021-03-07 16:28:53soilmoisture79percent
9681bbbba929e5d1f190e42603d5343f005d2021-03-07 16:28:54dht11temp24.5degree
9682bbbba929e5d1f190e42603d5343f005d2021-03-07 16:28:54dht11humidity42percent
9683bbbba929e5d1f190e42603d5343f005d2021-03-07 16:33:56soilmoisture79percent
9684bbbba929e5d1f190e42603d5343f005d2021-03-07 16:33:56dht11temp24.2degree
9685bbbba929e5d1f190e42603d5343f005d2021-03-07 16:33:56dht11humidity42percent
9686bbbba929e5d1f190e42603d5343f005d2021-03-07 16:38:58soilmoisture79percent
9687bbbba929e5d1f190e42603d5343f005d2021-03-07 16:38:58dht11temp24.1degree
9688bbbba929e5d1f190e42603d5343f005d2021-03-07 16:38:59dht11humidity42percent
9689bbbba929e5d1f190e42603d5343f005d2021-03-07 16:44:00soilmoisture79percent
9690bbbba929e5d1f190e42603d5343f005d2021-03-07 16:44:01dht11temp24degree
9691bbbba929e5d1f190e42603d5343f005d2021-03-07 16:44:01dht11humidity41percent
9692bbbba929e5d1f190e42603d5343f005d2021-03-07 16:49:03soilmoisture79percent
9693bbbba929e5d1f190e42603d5343f005d2021-03-07 16:49:03dht11temp23.9degree
9694bbbba929e5d1f190e42603d5343f005d2021-03-07 16:49:03dht11humidity42percent
9695bbbba929e5d1f190e42603d5343f005d2021-03-07 16:54:06soilmoisture79percent
9696bbbba929e5d1f190e42603d5343f005d2021-03-07 16:54:06dht11temp23.8degree
9697bbbba929e5d1f190e42603d5343f005d2021-03-07 16:54:06dht11humidity45percent
9698bbbba929e5d1f190e42603d5343f005d2021-03-07 16:59:08soilmoisture79percent
9699bbbba929e5d1f190e42603d5343f005d2021-03-07 16:59:09dht11temp23.7degree
9700bbbba929e5d1f190e42603d5343f005d2021-03-07 16:59:09dht11humidity43percent
9701bbbba929e5d1f190e42603d5343f005d2021-03-07 17:04:11soilmoisture79percent
9702bbbba929e5d1f190e42603d5343f005d2021-03-07 17:04:12dht11temp23.6degree
9703bbbba929e5d1f190e42603d5343f005d2021-03-07 17:04:12dht11humidity46percent
9704bbbba929e5d1f190e42603d5343f005d2021-03-07 17:09:14soilmoisture79percent
9705bbbba929e5d1f190e42603d5343f005d2021-03-07 17:09:14dht11temp23.6degree
9706bbbba929e5d1f190e42603d5343f005d2021-03-07 17:09:15dht11humidity47percent
9707bbbba929e5d1f190e42603d5343f005d2021-03-07 17:14:16soilmoisture79percent
9708bbbba929e5d1f190e42603d5343f005d2021-03-07 17:14:17dht11temp23.4degree
9709bbbba929e5d1f190e42603d5343f005d2021-03-07 17:14:17dht11humidity49percent
9710bbbba929e5d1f190e42603d5343f005d2021-03-07 17:19:19soilmoisture79percent
9711bbbba929e5d1f190e42603d5343f005d2021-03-07 17:19:19dht11temp23.1degree
9712bbbba929e5d1f190e42603d5343f005d2021-03-07 17:19:19dht11humidity50percent
9713bbbba929e5d1f190e42603d5343f005d2021-03-07 17:24:21soilmoisture79percent
9714bbbba929e5d1f190e42603d5343f005d2021-03-07 17:24:22dht11temp22.8degree
9715bbbba929e5d1f190e42603d5343f005d2021-03-07 17:24:22dht11humidity48percent
9716bbbba929e5d1f190e42603d5343f005d2021-03-07 17:29:24soilmoisture79percent
9717bbbba929e5d1f190e42603d5343f005d2021-03-07 17:29:24dht11temp22.6degree
9718bbbba929e5d1f190e42603d5343f005d2021-03-07 17:29:24dht11humidity48percent
9719bbbba929e5d1f190e42603d5343f005d2021-03-07 17:34:26soilmoisture79percent
9720bbbba929e5d1f190e42603d5343f005d2021-03-07 17:34:26dht11temp22.5degree
9721bbbba929e5d1f190e42603d5343f005d2021-03-07 17:34:27dht11humidity51percent
9722bbbba929e5d1f190e42603d5343f005d2021-03-07 17:39:28soilmoisture79percent
9723bbbba929e5d1f190e42603d5343f005d2021-03-07 17:39:29dht11temp22.2degree
9724bbbba929e5d1f190e42603d5343f005d2021-03-07 17:39:29dht11humidity49percent
9725bbbba929e5d1f190e42603d5343f005d2021-03-07 17:44:31soilmoisture79percent
9726bbbba929e5d1f190e42603d5343f005d2021-03-07 17:44:31dht11temp22degree
9727bbbba929e5d1f190e42603d5343f005d2021-03-07 17:44:31dht11humidity50percent
9728bbbba929e5d1f190e42603d5343f005d2021-03-07 17:49:33soilmoisture79percent
9729bbbba929e5d1f190e42603d5343f005d2021-03-07 17:49:33dht11temp22degree
9730bbbba929e5d1f190e42603d5343f005d2021-03-07 17:49:34dht11humidity52percent
9731bbbba929e5d1f190e42603d5343f005d2021-03-07 17:54:36soilmoisture79percent
9732bbbba929e5d1f190e42603d5343f005d2021-03-07 17:54:36dht11temp21.9degree
9733bbbba929e5d1f190e42603d5343f005d2021-03-07 17:54:36dht11humidity52percent
9734bbbba929e5d1f190e42603d5343f005d2021-03-07 17:59:38soilmoisture79percent
9735bbbba929e5d1f190e42603d5343f005d2021-03-07 17:59:38dht11temp21.9degree
9736bbbba929e5d1f190e42603d5343f005d2021-03-07 17:59:39dht11humidity52percent
9737bbbba929e5d1f190e42603d5343f005d2021-03-07 18:04:40soilmoisture79percent
9738bbbba929e5d1f190e42603d5343f005d2021-03-07 18:04:40dht11temp21.8degree
9739bbbba929e5d1f190e42603d5343f005d2021-03-07 18:04:41dht11humidity53percent
9740bbbba929e5d1f190e42603d5343f005d2021-03-07 18:09:42soilmoisture79percent
9741bbbba929e5d1f190e42603d5343f005d2021-03-07 18:09:43dht11temp21.8degree
9742bbbba929e5d1f190e42603d5343f005d2021-03-07 18:09:43dht11humidity52percent
9743bbbba929e5d1f190e42603d5343f005d2021-03-07 18:14:45soilmoisture79percent
9744bbbba929e5d1f190e42603d5343f005d2021-03-07 18:14:45dht11temp21.7degree
9745bbbba929e5d1f190e42603d5343f005d2021-03-07 18:14:45dht11humidity52percent
9746bbbba929e5d1f190e42603d5343f005d2021-03-07 18:19:47soilmoisture79percent
9747bbbba929e5d1f190e42603d5343f005d2021-03-07 18:19:48dht11temp21.6degree
9748bbbba929e5d1f190e42603d5343f005d2021-03-07 18:19:48dht11humidity50percent
9749bbbba929e5d1f190e42603d5343f005d2021-03-07 18:24:50soilmoisture79percent
9750bbbba929e5d1f190e42603d5343f005d2021-03-07 18:24:50dht11temp21.5degree
9751bbbba929e5d1f190e42603d5343f005d2021-03-07 18:24:51dht11humidity50percent
9752bbbba929e5d1f190e42603d5343f005d2021-03-07 18:29:53soilmoisture79percent
9753bbbba929e5d1f190e42603d5343f005d2021-03-07 18:29:53dht11temp21.5degree
9754bbbba929e5d1f190e42603d5343f005d2021-03-07 18:29:53dht11humidity48percent
9755bbbba929e5d1f190e42603d5343f005d2021-03-07 18:34:55soilmoisture79percent
9756bbbba929e5d1f190e42603d5343f005d2021-03-07 18:34:55dht11temp21.3degree
9757bbbba929e5d1f190e42603d5343f005d2021-03-07 18:34:56dht11humidity50percent
9758bbbba929e5d1f190e42603d5343f005d2021-03-07 18:39:57soilmoisture79percent
9759bbbba929e5d1f190e42603d5343f005d2021-03-07 18:39:58dht11temp21.2degree
9760bbbba929e5d1f190e42603d5343f005d2021-03-07 18:39:58dht11humidity50percent
9761bbbba929e5d1f190e42603d5343f005d2021-03-07 18:45:00soilmoisture79percent
9762bbbba929e5d1f190e42603d5343f005d2021-03-07 18:45:00dht11temp21.2degree
9763bbbba929e5d1f190e42603d5343f005d2021-03-07 18:45:01dht11humidity49percent
9764bbbba929e5d1f190e42603d5343f005d2021-03-07 18:50:02soilmoisture79percent
9765bbbba929e5d1f190e42603d5343f005d2021-03-07 18:50:03dht11temp21.2degree
9766bbbba929e5d1f190e42603d5343f005d2021-03-07 18:50:03dht11humidity49percent
9767bbbba929e5d1f190e42603d5343f005d2021-03-07 18:55:05soilmoisture79percent
9768bbbba929e5d1f190e42603d5343f005d2021-03-07 18:55:05dht11temp21.2degree
9769bbbba929e5d1f190e42603d5343f005d2021-03-07 18:55:05dht11humidity48percent
9770bbbba929e5d1f190e42603d5343f005d2021-03-07 19:00:08soilmoisture79percent
9771bbbba929e5d1f190e42603d5343f005d2021-03-07 19:00:08dht11temp21.2degree
9772bbbba929e5d1f190e42603d5343f005d2021-03-07 19:00:08dht11humidity49percent
9773bbbba929e5d1f190e42603d5343f005d2021-03-07 19:05:10soilmoisture79percent
9774bbbba929e5d1f190e42603d5343f005d2021-03-07 19:05:10dht11temp21.1degree
9775bbbba929e5d1f190e42603d5343f005d2021-03-07 19:05:11dht11humidity50percent
9776bbbba929e5d1f190e42603d5343f005d2021-03-07 19:10:12soilmoisture79percent
9777bbbba929e5d1f190e42603d5343f005d2021-03-07 19:10:13dht11temp21.1degree
9778bbbba929e5d1f190e42603d5343f005d2021-03-07 19:10:13dht11humidity50percent
9779bbbba929e5d1f190e42603d5343f005d2021-03-07 19:15:16soilmoisture79percent
9780bbbba929e5d1f190e42603d5343f005d2021-03-07 19:15:17dht11temp21.1degree
9781bbbba929e5d1f190e42603d5343f005d2021-03-07 19:15:17dht11humidity50percent
9782bbbba929e5d1f190e42603d5343f005d2021-03-07 19:20:19soilmoisture79percent
9783bbbba929e5d1f190e42603d5343f005d2021-03-07 19:20:19dht11temp21.1degree
9784bbbba929e5d1f190e42603d5343f005d2021-03-07 19:20:19dht11humidity51percent
9785bbbba929e5d1f190e42603d5343f005d2021-03-07 19:25:21soilmoisture79percent
9786bbbba929e5d1f190e42603d5343f005d2021-03-07 19:25:21dht11temp21.1degree
9787bbbba929e5d1f190e42603d5343f005d2021-03-07 19:25:21dht11humidity51percent
9788bbbba929e5d1f190e42603d5343f005d2021-03-07 19:30:23soilmoisture79percent
9789bbbba929e5d1f190e42603d5343f005d2021-03-07 19:30:23dht11temp21degree
9790bbbba929e5d1f190e42603d5343f005d2021-03-07 19:30:24dht11humidity51percent
9791bbbba929e5d1f190e42603d5343f005d2021-03-07 19:35:25soilmoisture79percent
9792bbbba929e5d1f190e42603d5343f005d2021-03-07 19:35:26dht11temp21degree
9793bbbba929e5d1f190e42603d5343f005d2021-03-07 19:35:26dht11humidity52percent
9794bbbba929e5d1f190e42603d5343f005d2021-03-07 19:40:28soilmoisture79percent
9795bbbba929e5d1f190e42603d5343f005d2021-03-07 19:40:28dht11temp21degree
9796bbbba929e5d1f190e42603d5343f005d2021-03-07 19:40:28dht11humidity53percent
9797bbbba929e5d1f190e42603d5343f005d2021-03-07 19:45:31soilmoisture79percent
9798bbbba929e5d1f190e42603d5343f005d2021-03-07 19:45:31dht11temp20.9degree
9799bbbba929e5d1f190e42603d5343f005d2021-03-07 19:45:31dht11humidity51percent
9800bbbba929e5d1f190e42603d5343f005d2021-03-07 19:50:33soilmoisture79percent
9801bbbba929e5d1f190e42603d5343f005d2021-03-07 19:50:34dht11temp20.9degree
9802bbbba929e5d1f190e42603d5343f005d2021-03-07 19:50:34dht11humidity50percent
9803bbbba929e5d1f190e42603d5343f005d2021-03-07 19:55:36soilmoisture79percent
9804bbbba929e5d1f190e42603d5343f005d2021-03-07 19:55:36dht11temp20.9degree
9805bbbba929e5d1f190e42603d5343f005d2021-03-07 19:55:36dht11humidity52percent
9806bbbba929e5d1f190e42603d5343f005d2021-03-07